<?xml version='1.0' encoding='UTF-8'?><gpx version="1.1" creator="JPX - https://github.com/jenetics/jpx" xmlns="http://www.topografix.com/GPX/1/1"><trk><trkseg><trkpt lat="45.590305" lon="8.7064733"><ele>155.0</ele><time>2026-04-12T10:01:12.005Z</time></trkpt><trkpt lat="45.59028" lon="8.70636"><ele>155.0</ele><time>2026-04-12T10:10:50.003Z</time></trkpt><trkpt lat="45.5901767" lon="8.7063417"><ele>155.0</ele><time>2026-04-12T10:10:53.003Z</time></trkpt><trkpt lat="45.5900817" lon="8.7063367"><ele>155.0</ele><time>2026-04-12T10:10:55.004Z</time></trkpt><trkpt lat="45.589965" lon="8.7063283"><ele>155.0</ele><time>2026-04-12T10:10:57.004Z</time></trkpt><trkpt lat="45.589895" lon="8.7063217"><ele>155.0</ele><time>2026-04-12T10:10:58.003Z</time></trkpt><trkpt lat="45.5898183" lon="8.7063133"><ele>155.0</ele><time>2026-04-12T10:10:59.003Z</time></trkpt><trkpt lat="45.5897383" lon="8.7063033"><ele>155.0</ele><time>2026-04-12T10:11:00.003Z</time></trkpt><trkpt lat="45.5896683" lon="8.70629"><ele>155.0</ele><time>2026-04-12T10:11:01.004Z</time></trkpt><trkpt lat="45.5896033" lon="8.7062817"><ele>155.0</ele><time>2026-04-12T10:11:02.004Z</time></trkpt><trkpt lat="45.5895017" lon="8.7062417"><ele>155.0</ele><time>2026-04-12T10:11:04.004Z</time></trkpt><trkpt lat="45.5894333" lon="8.7061317"><ele>154.83333333333331</ele><time>2026-04-12T10:11:06.003Z</time></trkpt><trkpt lat="45.58943" lon="8.7060333"><ele>154.66666666666666</ele><time>2026-04-12T10:11:07.003Z</time></trkpt><trkpt lat="45.5894467" lon="8.7059217"><ele>154.5</ele><time>2026-04-12T10:11:08.004Z</time></trkpt><trkpt lat="45.5894683" lon="8.7058083"><ele>154.33333333333334</ele><time>2026-04-12T10:11:09.003Z</time></trkpt><trkpt lat="45.58948" lon="8.70568"><ele>154.16666666666669</ele><time>2026-04-12T10:11:10.004Z</time></trkpt><trkpt lat="45.5894867" lon="8.7055467"><ele>154.0</ele><time>2026-04-12T10:11:11.003Z</time></trkpt><trkpt lat="45.5894967" lon="8.7054117"><ele>154.0</ele><time>2026-04-12T10:11:12.004Z</time></trkpt><trkpt lat="45.5895067" lon="8.705285"><ele>154.0</ele><time>2026-04-12T10:11:13.003Z</time></trkpt><trkpt lat="45.5895167" lon="8.705165"><ele>154.0</ele><time>2026-04-12T10:11:14.003Z</time></trkpt><trkpt lat="45.5895267" lon="8.7050433"><ele>154.0</ele><time>2026-04-12T10:11:15.003Z</time></trkpt><trkpt lat="45.589525" lon="8.7049317"><ele>154.0</ele><time>2026-04-12T10:11:16.004Z</time></trkpt><trkpt lat="45.5895217" lon="8.7048117"><ele>154.0</ele><time>2026-04-12T10:11:17.003Z</time></trkpt><trkpt lat="45.5895267" lon="8.7046717"><ele>152.6</ele><time>2026-04-12T10:11:18.003Z</time></trkpt><trkpt lat="45.5895317" lon="8.7045183"><ele>151.2</ele><time>2026-04-12T10:11:19.004Z</time></trkpt><trkpt lat="45.5895383" lon="8.7043517"><ele>149.79999999999998</ele><time>2026-04-12T10:11:20.003Z</time></trkpt><trkpt lat="45.5895467" lon="8.70419"><ele>148.4</ele><time>2026-04-12T10:11:21.003Z</time></trkpt><trkpt lat="45.5895583" lon="8.7040383"><ele>147.0</ele><time>2026-04-12T10:11:22.003Z</time></trkpt><trkpt lat="45.58957" lon="8.7038883"><ele>146.4</ele><time>2026-04-12T10:11:23.004Z</time></trkpt><trkpt lat="45.5895783" lon="8.70377"><ele>145.79999999999998</ele><time>2026-04-12T10:11:24.004Z</time></trkpt><trkpt lat="45.5895917" lon="8.7036183"><ele>145.2</ele><time>2026-04-12T10:11:25.004Z</time></trkpt><trkpt lat="45.5896" lon="8.7034667"><ele>144.6</ele><time>2026-04-12T10:11:26.003Z</time></trkpt><trkpt lat="45.589615" lon="8.7033133"><ele>144.0</ele><time>2026-04-12T10:11:27.003Z</time></trkpt><trkpt lat="45.5896283" lon="8.703135"><ele>146.25</ele><time>2026-04-12T10:11:28.004Z</time></trkpt><trkpt lat="45.5896383" lon="8.7029533"><ele>148.5</ele><time>2026-04-12T10:11:29.003Z</time></trkpt><trkpt lat="45.5896483" lon="8.7027833"><ele>150.75</ele><time>2026-04-12T10:11:30.004Z</time></trkpt><trkpt lat="45.5896567" lon="8.7025933"><ele>153.0</ele><time>2026-04-12T10:11:31.004Z</time></trkpt><trkpt lat="45.589665" lon="8.7024167"><ele>153.75</ele><time>2026-04-12T10:11:32.003Z</time></trkpt><trkpt lat="45.5896767" lon="8.7022167"><ele>154.5</ele><time>2026-04-12T10:11:33.003Z</time></trkpt><trkpt lat="45.58969" lon="8.7020183"><ele>155.25</ele><time>2026-04-12T10:11:34.004Z</time></trkpt><trkpt lat="45.5897" lon="8.7018217"><ele>156.0</ele><time>2026-04-12T10:11:35.003Z</time></trkpt><trkpt lat="45.5897" lon="8.7016167"><ele>156.25</ele><time>2026-04-12T10:11:36.003Z</time></trkpt><trkpt lat="45.5897017" lon="8.7014083"><ele>156.5</ele><time>2026-04-12T10:11:37.003Z</time></trkpt><trkpt lat="45.5897167" lon="8.701215"><ele>156.75</ele><time>2026-04-12T10:11:38.003Z</time></trkpt><trkpt lat="45.58973" lon="8.7010167"><ele>157.0</ele><time>2026-04-12T10:11:39.003Z</time></trkpt><trkpt lat="45.5897417" lon="8.7008133"><ele>156.5</ele><time>2026-04-12T10:11:40.004Z</time></trkpt><trkpt lat="45.5897617" lon="8.7006233"><ele>156.0</ele><time>2026-04-12T10:11:41.003Z</time></trkpt><trkpt lat="45.5897867" lon="8.70043"><ele>155.5</ele><time>2026-04-12T10:11:42.004Z</time></trkpt><trkpt lat="45.5898083" lon="8.70022"><ele>155.0</ele><time>2026-04-12T10:11:43.004Z</time></trkpt><trkpt lat="45.589845" lon="8.70002"><ele>155.0</ele><time>2026-04-12T10:11:44.003Z</time></trkpt><trkpt lat="45.5899" lon="8.69983"><ele>155.0</ele><time>2026-04-12T10:11:45.004Z</time></trkpt><trkpt lat="45.5899517" lon="8.69963"><ele>155.0</ele><time>2026-04-12T10:11:46.003Z</time></trkpt><trkpt lat="45.5900067" lon="8.699445"><ele>155.0</ele><time>2026-04-12T10:11:47.003Z</time></trkpt><trkpt lat="45.5900533" lon="8.6992417"><ele>155.0</ele><time>2026-04-12T10:11:48.003Z</time></trkpt><trkpt lat="45.590105" lon="8.6990367"><ele>155.0</ele><time>2026-04-12T10:11:49.003Z</time></trkpt><trkpt lat="45.5901617" lon="8.6988467"><ele>155.0</ele><time>2026-04-12T10:11:50.003Z</time></trkpt><trkpt lat="45.59021" lon="8.6986467"><ele>155.0</ele><time>2026-04-12T10:11:51.003Z</time></trkpt><trkpt lat="45.590255" lon="8.6984417"><ele>155.33333333333331</ele><time>2026-04-12T10:11:52.003Z</time></trkpt><trkpt lat="45.5903067" lon="8.698225"><ele>155.66666666666666</ele><time>2026-04-12T10:11:53.004Z</time></trkpt><trkpt lat="45.5903567" lon="8.69801"><ele>156.0</ele><time>2026-04-12T10:11:54.003Z</time></trkpt><trkpt lat="45.59041" lon="8.6978033"><ele>155.33333333333334</ele><time>2026-04-12T10:11:55.004Z</time></trkpt><trkpt lat="45.5904617" lon="8.69759"><ele>154.66666666666669</ele><time>2026-04-12T10:11:56.004Z</time></trkpt><trkpt lat="45.5905067" lon="8.6973933"><ele>154.0</ele><time>2026-04-12T10:11:57.003Z</time></trkpt><trkpt lat="45.590555" lon="8.6971917"><ele>154.0</ele><time>2026-04-12T10:11:58.003Z</time></trkpt><trkpt lat="45.590605" lon="8.6969967"><ele>154.0</ele><time>2026-04-12T10:11:59.003Z</time></trkpt><trkpt lat="45.5906617" lon="8.6968033"><ele>154.0</ele><time>2026-04-12T10:12:00.003Z</time></trkpt><trkpt lat="45.5907033" lon="8.696615"><ele>154.0</ele><time>2026-04-12T10:12:01.003Z</time></trkpt><trkpt lat="45.5907533" lon="8.6964183"><ele>154.5</ele><time>2026-04-12T10:12:02.003Z</time></trkpt><trkpt lat="45.590805" lon="8.6962217"><ele>155.0</ele><time>2026-04-12T10:12:03.004Z</time></trkpt><trkpt lat="45.590855" lon="8.69603"><ele>155.5</ele><time>2026-04-12T10:12:04.003Z</time></trkpt><trkpt lat="45.5909" lon="8.6958483"><ele>156.0</ele><time>2026-04-12T10:12:05.004Z</time></trkpt><trkpt lat="45.59095" lon="8.6956617"><ele>156.0</ele><time>2026-04-12T10:12:06.003Z</time></trkpt><trkpt lat="45.5910017" lon="8.6954817"><ele>156.0</ele><time>2026-04-12T10:12:07.003Z</time></trkpt><trkpt lat="45.5910517" lon="8.6952983"><ele>156.0</ele><time>2026-04-12T10:12:08.003Z</time></trkpt><trkpt lat="45.5910983" lon="8.69512"><ele>156.0</ele><time>2026-04-12T10:12:09.004Z</time></trkpt><trkpt lat="45.591145" lon="8.694935"><ele>156.0</ele><time>2026-04-12T10:12:10.003Z</time></trkpt><trkpt lat="45.5911933" lon="8.6947483"><ele>156.0</ele><time>2026-04-12T10:12:11.003Z</time></trkpt><trkpt lat="45.59124" lon="8.6945717"><ele>156.0</ele><time>2026-04-12T10:12:12.003Z</time></trkpt><trkpt lat="45.5912917" lon="8.694405"><ele>156.0</ele><time>2026-04-12T10:12:13.004Z</time></trkpt><trkpt lat="45.5913433" lon="8.69422"><ele>156.0</ele><time>2026-04-12T10:12:14.004Z</time></trkpt><trkpt lat="45.5913933" lon="8.6940317"><ele>156.0</ele><time>2026-04-12T10:12:15.003Z</time></trkpt><trkpt lat="45.591445" lon="8.6938533"><ele>156.0</ele><time>2026-04-12T10:12:16.003Z</time></trkpt><trkpt lat="45.5915167" lon="8.693685"><ele>156.0</ele><time>2026-04-12T10:12:17.003Z</time></trkpt><trkpt lat="45.5915983" lon="8.693525"><ele>156.33333333333334</ele><time>2026-04-12T10:12:18.003Z</time></trkpt><trkpt lat="45.5916917" lon="8.6933583"><ele>156.66666666666669</ele><time>2026-04-12T10:12:19.003Z</time></trkpt><trkpt lat="45.59179" lon="8.6931817"><ele>157.0</ele><time>2026-04-12T10:12:20.004Z</time></trkpt><trkpt lat="45.5918967" lon="8.6930017"><ele>157.0</ele><time>2026-04-12T10:12:21.003Z</time></trkpt><trkpt lat="45.592005" lon="8.692825"><ele>157.0</ele><time>2026-04-12T10:12:22.003Z</time></trkpt><trkpt lat="45.59211" lon="8.69265"><ele>157.0</ele><time>2026-04-12T10:12:23.003Z</time></trkpt><trkpt lat="45.5922083" lon="8.692475"><ele>156.66666666666669</ele><time>2026-04-12T10:12:24.004Z</time></trkpt><trkpt lat="45.5923067" lon="8.692275"><ele>156.33333333333334</ele><time>2026-04-12T10:12:25.004Z</time></trkpt><trkpt lat="45.5924133" lon="8.6920783"><ele>156.0</ele><time>2026-04-12T10:12:26.003Z</time></trkpt><trkpt lat="45.5925167" lon="8.6918833"><ele>156.0</ele><time>2026-04-12T10:12:27.003Z</time></trkpt><trkpt lat="45.5926217" lon="8.6916933"><ele>156.0</ele><time>2026-04-12T10:12:28.003Z</time></trkpt><trkpt lat="45.592725" lon="8.6914983"><ele>156.0</ele><time>2026-04-12T10:12:29.004Z</time></trkpt><trkpt lat="45.5928367" lon="8.6913083"><ele>156.0</ele><time>2026-04-12T10:12:30.004Z</time></trkpt><trkpt lat="45.592945" lon="8.69112"><ele>156.0</ele><time>2026-04-12T10:12:31.003Z</time></trkpt><trkpt lat="45.5930517" lon="8.690935"><ele>156.0</ele><time>2026-04-12T10:12:32.003Z</time></trkpt><trkpt lat="45.5931633" lon="8.6907683"><ele>155.66666666666666</ele><time>2026-04-12T10:12:33.004Z</time></trkpt><trkpt lat="45.593265" lon="8.6905917"><ele>155.33333333333331</ele><time>2026-04-12T10:12:34.004Z</time></trkpt><trkpt lat="45.5933667" lon="8.6904133"><ele>155.0</ele><time>2026-04-12T10:12:35.003Z</time></trkpt><trkpt lat="45.5934617" lon="8.6902417"><ele>155.0</ele><time>2026-04-12T10:12:36.003Z</time></trkpt><trkpt lat="45.5935683" lon="8.6900483"><ele>155.0</ele><time>2026-04-12T10:12:37.003Z</time></trkpt><trkpt lat="45.59367" lon="8.68986"><ele>155.0</ele><time>2026-04-12T10:12:38.004Z</time></trkpt><trkpt lat="45.593775" lon="8.689685"><ele>155.0</ele><time>2026-04-12T10:12:39.004Z</time></trkpt><trkpt lat="45.593875" lon="8.68949"><ele>155.0</ele><time>2026-04-12T10:12:40.004Z</time></trkpt><trkpt lat="45.5939667" lon="8.689305"><ele>155.0</ele><time>2026-04-12T10:12:41.003Z</time></trkpt><trkpt lat="45.5940617" lon="8.6891083"><ele>155.0</ele><time>2026-04-12T10:12:42.003Z</time></trkpt><trkpt lat="45.594135" lon="8.6889183"><ele>155.0</ele><time>2026-04-12T10:12:43.003Z</time></trkpt><trkpt lat="45.5941883" lon="8.6887433"><ele>155.0</ele><time>2026-04-12T10:12:44.003Z</time></trkpt><trkpt lat="45.5942217" lon="8.6885867"><ele>155.0</ele><time>2026-04-12T10:12:45.004Z</time></trkpt><trkpt lat="45.5942567" lon="8.68845"><ele>155.0</ele><time>2026-04-12T10:12:46.003Z</time></trkpt><trkpt lat="45.59431" lon="8.6883383"><ele>155.0</ele><time>2026-04-12T10:12:47.004Z</time></trkpt><trkpt lat="45.5943667" lon="8.6882467"><ele>155.0</ele><time>2026-04-12T10:12:48.003Z</time></trkpt><trkpt lat="45.5944333" lon="8.6881817"><ele>155.0</ele><time>2026-04-12T10:12:49.003Z</time></trkpt><trkpt lat="45.5945033" lon="8.688105"><ele>155.0</ele><time>2026-04-12T10:12:50.004Z</time></trkpt><trkpt lat="45.5945717" lon="8.6879933"><ele>155.0</ele><time>2026-04-12T10:12:51.003Z</time></trkpt><trkpt lat="45.5946417" lon="8.6878617"><ele>155.0</ele><time>2026-04-12T10:12:52.003Z</time></trkpt><trkpt lat="45.5947033" lon="8.6877017"><ele>155.0</ele><time>2026-04-12T10:12:53.003Z</time></trkpt><trkpt lat="45.594755" lon="8.6875317"><ele>155.0</ele><time>2026-04-12T10:12:54.003Z</time></trkpt><trkpt lat="45.5948067" lon="8.6873667"><ele>155.0</ele><time>2026-04-12T10:12:55.003Z</time></trkpt><trkpt lat="45.594855" lon="8.687235"><ele>155.0</ele><time>2026-04-12T10:12:56.004Z</time></trkpt><trkpt lat="45.5949117" lon="8.6870983"><ele>155.0</ele><time>2026-04-12T10:12:57.003Z</time></trkpt><trkpt lat="45.5949767" lon="8.686955"><ele>155.0</ele><time>2026-04-12T10:12:58.003Z</time></trkpt><trkpt lat="45.595065" lon="8.6868283"><ele>155.25</ele><time>2026-04-12T10:12:59.004Z</time></trkpt><trkpt lat="45.5951667" lon="8.6866967"><ele>155.5</ele><time>2026-04-12T10:13:00.003Z</time></trkpt><trkpt lat="45.5952767" lon="8.6865533"><ele>155.75</ele><time>2026-04-12T10:13:01.003Z</time></trkpt><trkpt lat="45.5953733" lon="8.686405"><ele>156.0</ele><time>2026-04-12T10:13:02.003Z</time></trkpt><trkpt lat="45.59546" lon="8.6862617"><ele>156.0</ele><time>2026-04-12T10:13:03.003Z</time></trkpt><trkpt lat="45.5955517" lon="8.6861233"><ele>156.0</ele><time>2026-04-12T10:13:04.003Z</time></trkpt><trkpt lat="45.59565" lon="8.68598"><ele>156.0</ele><time>2026-04-12T10:13:05.004Z</time></trkpt><trkpt lat="45.5957467" lon="8.68584"><ele>156.0</ele><time>2026-04-12T10:13:06.004Z</time></trkpt><trkpt lat="45.5958467" lon="8.6856983"><ele>156.0</ele><time>2026-04-12T10:13:07.004Z</time></trkpt><trkpt lat="45.595945" lon="8.6855733"><ele>156.0</ele><time>2026-04-12T10:13:08.003Z</time></trkpt><trkpt lat="45.59604" lon="8.6854567"><ele>156.0</ele><time>2026-04-12T10:13:09.004Z</time></trkpt><trkpt lat="45.59613" lon="8.6853183"><ele>156.0</ele><time>2026-04-12T10:13:10.004Z</time></trkpt><trkpt lat="45.5962217" lon="8.6851733"><ele>155.5</ele><time>2026-04-12T10:13:11.003Z</time></trkpt><trkpt lat="45.5963" lon="8.6850217"><ele>155.0</ele><time>2026-04-12T10:13:12.003Z</time></trkpt><trkpt lat="45.5963733" lon="8.6848633"><ele>154.5</ele><time>2026-04-12T10:13:13.004Z</time></trkpt><trkpt lat="45.5964433" lon="8.6847067"><ele>154.0</ele><time>2026-04-12T10:13:14.004Z</time></trkpt><trkpt lat="45.5965283" lon="8.6845367"><ele>154.0</ele><time>2026-04-12T10:13:15.004Z</time></trkpt><trkpt lat="45.5966117" lon="8.684365"><ele>154.0</ele><time>2026-04-12T10:13:16.003Z</time></trkpt><trkpt lat="45.596695" lon="8.6841917"><ele>154.0</ele><time>2026-04-12T10:13:17.003Z</time></trkpt><trkpt lat="45.5967683" lon="8.68403"><ele>154.0</ele><time>2026-04-12T10:13:18.003Z</time></trkpt><trkpt lat="45.5968383" lon="8.6838883"><ele>154.0</ele><time>2026-04-12T10:13:19.004Z</time></trkpt><trkpt lat="45.59691" lon="8.6837517"><ele>154.0</ele><time>2026-04-12T10:13:20.004Z</time></trkpt><trkpt lat="45.596975" lon="8.6836083"><ele>154.0</ele><time>2026-04-12T10:13:21.003Z</time></trkpt><trkpt lat="45.5970367" lon="8.6834667"><ele>154.0</ele><time>2026-04-12T10:13:22.003Z</time></trkpt><trkpt lat="45.5971017" lon="8.6833583"><ele>154.83333333333334</ele><time>2026-04-12T10:13:23.004Z</time></trkpt><trkpt lat="45.5971683" lon="8.6832767"><ele>155.66666666666669</ele><time>2026-04-12T10:13:24.004Z</time></trkpt><trkpt lat="45.5972433" lon="8.683225"><ele>156.5</ele><time>2026-04-12T10:13:25.003Z</time></trkpt><trkpt lat="45.597315" lon="8.683215"><ele>157.33333333333334</ele><time>2026-04-12T10:13:26.003Z</time></trkpt><trkpt lat="45.597395" lon="8.68323"><ele>158.16666666666666</ele><time>2026-04-12T10:13:27.004Z</time></trkpt><trkpt lat="45.597495" lon="8.6832683"><ele>159.0</ele><time>2026-04-12T10:13:28.004Z</time></trkpt><trkpt lat="45.5975933" lon="8.6833283"><ele>159.0</ele><time>2026-04-12T10:13:29.003Z</time></trkpt><trkpt lat="45.5976917" lon="8.6833883"><ele>159.0</ele><time>2026-04-12T10:13:30.003Z</time></trkpt><trkpt lat="45.5977917" lon="8.6834467"><ele>159.0</ele><time>2026-04-12T10:13:31.003Z</time></trkpt><trkpt lat="45.59791" lon="8.6834917"><ele>159.0</ele><time>2026-04-12T10:13:32.004Z</time></trkpt><trkpt lat="45.598025" lon="8.6835467"><ele>158.25</ele><time>2026-04-12T10:13:33.004Z</time></trkpt><trkpt lat="45.598145" lon="8.6835967"><ele>157.5</ele><time>2026-04-12T10:13:34.003Z</time></trkpt><trkpt lat="45.5982567" lon="8.6836533"><ele>156.75</ele><time>2026-04-12T10:13:35.003Z</time></trkpt><trkpt lat="45.59837" lon="8.6837"><ele>156.0</ele><time>2026-04-12T10:13:36.004Z</time></trkpt><trkpt lat="45.5984683" lon="8.6837417"><ele>156.0</ele><time>2026-04-12T10:13:37.004Z</time></trkpt><trkpt lat="45.5985617" lon="8.6837817"><ele>156.0</ele><time>2026-04-12T10:13:38.004Z</time></trkpt><trkpt lat="45.5986433" lon="8.683825"><ele>156.0</ele><time>2026-04-12T10:13:39.003Z</time></trkpt><trkpt lat="45.5987167" lon="8.6838783"><ele>156.0</ele><time>2026-04-12T10:13:40.004Z</time></trkpt><trkpt lat="45.5987717" lon="8.683955"><ele>156.0</ele><time>2026-04-12T10:13:41.003Z</time></trkpt><trkpt lat="45.5988133" lon="8.6840583"><ele>156.0</ele><time>2026-04-12T10:13:42.003Z</time></trkpt><trkpt lat="45.598845" lon="8.6841883"><ele>156.0</ele><time>2026-04-12T10:13:43.004Z</time></trkpt><trkpt lat="45.5988567" lon="8.68432"><ele>156.0</ele><time>2026-04-12T10:13:44.004Z</time></trkpt><trkpt lat="45.598855" lon="8.6844433"><ele>156.0</ele><time>2026-04-12T10:13:45.003Z</time></trkpt><trkpt lat="45.59886" lon="8.6845483"><ele>156.0</ele><time>2026-04-12T10:13:46.003Z</time></trkpt><trkpt lat="45.5988933" lon="8.684685"><ele>156.0</ele><time>2026-04-12T10:13:48.003Z</time></trkpt><trkpt lat="45.5989917" lon="8.6847317"><ele>156.0</ele><time>2026-04-12T10:13:50.004Z</time></trkpt><trkpt lat="45.5991217" lon="8.684665"><ele>156.0</ele><time>2026-04-12T10:13:52.004Z</time></trkpt><trkpt lat="45.5992067" lon="8.6846067"><ele>156.0</ele><time>2026-04-12T10:13:53.004Z</time></trkpt><trkpt lat="45.5992983" lon="8.684545"><ele>156.0</ele><time>2026-04-12T10:13:54.003Z</time></trkpt><trkpt lat="45.5993867" lon="8.68449"><ele>156.0</ele><time>2026-04-12T10:13:55.003Z</time></trkpt><trkpt lat="45.5994867" lon="8.68444"><ele>156.4</ele><time>2026-04-12T10:13:56.003Z</time></trkpt><trkpt lat="45.5995817" lon="8.6843867"><ele>156.8</ele><time>2026-04-12T10:13:57.004Z</time></trkpt><trkpt lat="45.59968" lon="8.684325"><ele>157.20000000000002</ele><time>2026-04-12T10:13:58.003Z</time></trkpt><trkpt lat="45.5997917" lon="8.6842683"><ele>157.6</ele><time>2026-04-12T10:13:59.003Z</time></trkpt><trkpt lat="45.5998933" lon="8.68421"><ele>158.0</ele><time>2026-04-12T10:14:00.003Z</time></trkpt><trkpt lat="45.6000033" lon="8.6841533"><ele>158.0</ele><time>2026-04-12T10:14:01.003Z</time></trkpt><trkpt lat="45.6001133" lon="8.6840933"><ele>158.0</ele><time>2026-04-12T10:14:02.004Z</time></trkpt><trkpt lat="45.6002267" lon="8.6840367"><ele>158.0</ele><time>2026-04-12T10:14:03.003Z</time></trkpt><trkpt lat="45.6003333" lon="8.6839617"><ele>158.0</ele><time>2026-04-12T10:14:04.003Z</time></trkpt><trkpt lat="45.6004383" lon="8.6839033"><ele>156.75</ele><time>2026-04-12T10:14:05.003Z</time></trkpt><trkpt lat="45.600535" lon="8.6838433"><ele>155.5</ele><time>2026-04-12T10:14:06.003Z</time></trkpt><trkpt lat="45.6006333" lon="8.68378"><ele>154.25</ele><time>2026-04-12T10:14:07.004Z</time></trkpt><trkpt lat="45.6007483" lon="8.6837333"><ele>153.0</ele><time>2026-04-12T10:14:08.004Z</time></trkpt><trkpt lat="45.6008667" lon="8.6836817"><ele>153.0</ele><time>2026-04-12T10:14:09.004Z</time></trkpt><trkpt lat="45.60098" lon="8.683615"><ele>153.0</ele><time>2026-04-12T10:14:10.004Z</time></trkpt><trkpt lat="45.6010833" lon="8.683545"><ele>153.0</ele><time>2026-04-12T10:14:11.004Z</time></trkpt><trkpt lat="45.6011933" lon="8.6834717"><ele>153.0</ele><time>2026-04-12T10:14:12.003Z</time></trkpt><trkpt lat="45.6013033" lon="8.6834017"><ele>154.0</ele><time>2026-04-12T10:14:13.004Z</time></trkpt><trkpt lat="45.6014117" lon="8.6833233"><ele>155.0</ele><time>2026-04-12T10:14:14.004Z</time></trkpt><trkpt lat="45.601515" lon="8.683265"><ele>156.0</ele><time>2026-04-12T10:14:15.003Z</time></trkpt><trkpt lat="45.6016117" lon="8.6832217"><ele>157.0</ele><time>2026-04-12T10:14:16.004Z</time></trkpt><trkpt lat="45.6016933" lon="8.6831617"><ele>158.0</ele><time>2026-04-12T10:14:17.004Z</time></trkpt><trkpt lat="45.6017567" lon="8.6831033"><ele>158.0</ele><time>2026-04-12T10:14:18.003Z</time></trkpt><trkpt lat="45.6018233" lon="8.683025"><ele>158.0</ele><time>2026-04-12T10:14:19.003Z</time></trkpt><trkpt lat="45.6018767" lon="8.6829267"><ele>158.0</ele><time>2026-04-12T10:14:20.004Z</time></trkpt><trkpt lat="45.60193" lon="8.68281"><ele>158.0</ele><time>2026-04-12T10:14:21.003Z</time></trkpt><trkpt lat="45.60198" lon="8.6826917"><ele>158.0</ele><time>2026-04-12T10:14:22.004Z</time></trkpt><trkpt lat="45.6020383" lon="8.6825967"><ele>158.33333333333331</ele><time>2026-04-12T10:14:23.004Z</time></trkpt><trkpt lat="45.6021" lon="8.68251"><ele>158.66666666666666</ele><time>2026-04-12T10:14:24.004Z</time></trkpt><trkpt lat="45.6021533" lon="8.68244"><ele>159.0</ele><time>2026-04-12T10:14:25.004Z</time></trkpt><trkpt lat="45.602235" lon="8.6823817"><ele>159.33333333333334</ele><time>2026-04-12T10:14:26.003Z</time></trkpt><trkpt lat="45.6023233" lon="8.682355"><ele>159.66666666666669</ele><time>2026-04-12T10:14:27.004Z</time></trkpt><trkpt lat="45.6024133" lon="8.6823733"><ele>160.0</ele><time>2026-04-12T10:14:28.004Z</time></trkpt><trkpt lat="45.6025083" lon="8.6823917"><ele>160.0</ele><time>2026-04-12T10:14:29.004Z</time></trkpt><trkpt lat="45.60261" lon="8.6823983"><ele>160.0</ele><time>2026-04-12T10:14:30.003Z</time></trkpt><trkpt lat="45.6027083" lon="8.6823667"><ele>160.0</ele><time>2026-04-12T10:14:31.003Z</time></trkpt><trkpt lat="45.6027983" lon="8.6823"><ele>160.0</ele><time>2026-04-12T10:14:32.003Z</time></trkpt><trkpt lat="45.6029133" lon="8.6822183"><ele>160.0</ele><time>2026-04-12T10:14:33.003Z</time></trkpt><trkpt lat="45.6030367" lon="8.6821367"><ele>160.0</ele><time>2026-04-12T10:14:34.004Z</time></trkpt><trkpt lat="45.6031467" lon="8.6820667"><ele>160.0</ele><time>2026-04-12T10:14:35.003Z</time></trkpt><trkpt lat="45.6032583" lon="8.6819983"><ele>160.0</ele><time>2026-04-12T10:14:36.004Z</time></trkpt><trkpt lat="45.6033733" lon="8.6819383"><ele>160.0</ele><time>2026-04-12T10:14:37.003Z</time></trkpt><trkpt lat="45.6034967" lon="8.681865"><ele>160.25</ele><time>2026-04-12T10:14:38.003Z</time></trkpt><trkpt lat="45.6036217" lon="8.6818117"><ele>160.5</ele><time>2026-04-12T10:14:39.003Z</time></trkpt><trkpt lat="45.6037383" lon="8.681755"><ele>160.75</ele><time>2026-04-12T10:14:40.003Z</time></trkpt><trkpt lat="45.6038583" lon="8.681685"><ele>161.0</ele><time>2026-04-12T10:14:41.003Z</time></trkpt><trkpt lat="45.603975" lon="8.6816383"><ele>161.0</ele><time>2026-04-12T10:14:42.003Z</time></trkpt><trkpt lat="45.6040817" lon="8.6815967"><ele>161.0</ele><time>2026-04-12T10:14:43.003Z</time></trkpt><trkpt lat="45.60418" lon="8.6815617"><ele>161.0</ele><time>2026-04-12T10:14:44.004Z</time></trkpt><trkpt lat="45.604275" lon="8.6815183"><ele>161.0</ele><time>2026-04-12T10:14:45.003Z</time></trkpt><trkpt lat="45.604375" lon="8.6814633"><ele>161.0</ele><time>2026-04-12T10:14:46.003Z</time></trkpt><trkpt lat="45.60448" lon="8.68142"><ele>160.4</ele><time>2026-04-12T10:14:47.004Z</time></trkpt><trkpt lat="45.60458" lon="8.6813767"><ele>159.8</ele><time>2026-04-12T10:14:48.003Z</time></trkpt><trkpt lat="45.60468" lon="8.681345"><ele>159.20000000000002</ele><time>2026-04-12T10:14:49.003Z</time></trkpt><trkpt lat="45.604785" lon="8.6813167"><ele>158.60000000000002</ele><time>2026-04-12T10:14:50.003Z</time></trkpt><trkpt lat="45.60488" lon="8.6812817"><ele>158.0</ele><time>2026-04-12T10:14:51.004Z</time></trkpt><trkpt lat="45.6049817" lon="8.6812517"><ele>158.0</ele><time>2026-04-12T10:14:52.004Z</time></trkpt><trkpt lat="45.6050867" lon="8.68122"><ele>158.0</ele><time>2026-04-12T10:14:53.003Z</time></trkpt><trkpt lat="45.605185" lon="8.6811983"><ele>158.0</ele><time>2026-04-12T10:14:54.004Z</time></trkpt><trkpt lat="45.6052683" lon="8.6811817"><ele>158.0</ele><time>2026-04-12T10:14:55.004Z</time></trkpt><trkpt lat="45.6053433" lon="8.6811783"><ele>158.0</ele><time>2026-04-12T10:14:56.004Z</time></trkpt><trkpt lat="45.6054117" lon="8.6811617"><ele>158.0</ele><time>2026-04-12T10:14:57.003Z</time></trkpt><trkpt lat="45.605475" lon="8.681145"><ele>158.4</ele><time>2026-04-12T10:14:58.003Z</time></trkpt><trkpt lat="45.6055883" lon="8.68105"><ele>158.8</ele><time>2026-04-12T10:15:00.003Z</time></trkpt><trkpt lat="45.6056517" lon="8.6809967"><ele>159.2</ele><time>2026-04-12T10:15:01.004Z</time></trkpt><trkpt lat="45.6057283" lon="8.6809633"><ele>159.6</ele><time>2026-04-12T10:15:02.003Z</time></trkpt><trkpt lat="45.605815" lon="8.6809483"><ele>160.0</ele><time>2026-04-12T10:15:03.004Z</time></trkpt><trkpt lat="45.6059117" lon="8.6809267"><ele>160.0</ele><time>2026-04-12T10:15:04.004Z</time></trkpt><trkpt lat="45.6060217" lon="8.6809017"><ele>160.0</ele><time>2026-04-12T10:15:05.004Z</time></trkpt><trkpt lat="45.6061367" lon="8.68087"><ele>160.0</ele><time>2026-04-12T10:15:06.003Z</time></trkpt><trkpt lat="45.6062533" lon="8.6808333"><ele>160.0</ele><time>2026-04-12T10:15:07.004Z</time></trkpt><trkpt lat="45.606365" lon="8.680795"><ele>160.25</ele><time>2026-04-12T10:15:08.003Z</time></trkpt><trkpt lat="45.606475" lon="8.6807667"><ele>160.5</ele><time>2026-04-12T10:15:09.003Z</time></trkpt><trkpt lat="45.6065917" lon="8.6807517"><ele>160.75</ele><time>2026-04-12T10:15:10.004Z</time></trkpt><trkpt lat="45.6067067" lon="8.6806867"><ele>161.0</ele><time>2026-04-12T10:15:11.004Z</time></trkpt><trkpt lat="45.6068267" lon="8.6806167"><ele>161.0</ele><time>2026-04-12T10:15:12.003Z</time></trkpt><trkpt lat="45.6069483" lon="8.68056"><ele>161.0</ele><time>2026-04-12T10:15:13.003Z</time></trkpt><trkpt lat="45.6070733" lon="8.680505"><ele>161.0</ele><time>2026-04-12T10:15:14.004Z</time></trkpt><trkpt lat="45.60718" lon="8.680445"><ele>161.0</ele><time>2026-04-12T10:15:15.004Z</time></trkpt><trkpt lat="45.607305" lon="8.6803967"><ele>160.8</ele><time>2026-04-12T10:15:16.004Z</time></trkpt><trkpt lat="45.6074183" lon="8.6803583"><ele>160.60000000000002</ele><time>2026-04-12T10:15:17.004Z</time></trkpt><trkpt lat="45.60753" lon="8.6803083"><ele>160.4</ele><time>2026-04-12T10:15:18.003Z</time></trkpt><trkpt lat="45.6076317" lon="8.6802683"><ele>160.2</ele><time>2026-04-12T10:15:19.003Z</time></trkpt><trkpt lat="45.6077233" lon="8.6802267"><ele>160.0</ele><time>2026-04-12T10:15:20.004Z</time></trkpt><trkpt lat="45.6078183" lon="8.68019"><ele>160.16666666666669</ele><time>2026-04-12T10:15:21.003Z</time></trkpt><trkpt lat="45.6079017" lon="8.6801517"><ele>160.33333333333334</ele><time>2026-04-12T10:15:22.003Z</time></trkpt><trkpt lat="45.6079767" lon="8.6801267"><ele>160.5</ele><time>2026-04-12T10:15:23.003Z</time></trkpt><trkpt lat="45.6080967" lon="8.68009"><ele>160.66666666666666</ele><time>2026-04-12T10:15:25.003Z</time></trkpt><trkpt lat="45.6081767" lon="8.6800333"><ele>160.83333333333331</ele><time>2026-04-12T10:15:27.003Z</time></trkpt><trkpt lat="45.6082117" lon="8.6799467"><ele>161.0</ele><time>2026-04-12T10:15:29.004Z</time></trkpt><trkpt lat="45.6082067" lon="8.6798267"><ele>161.0</ele><time>2026-04-12T10:15:31.003Z</time></trkpt><trkpt lat="45.6081533" lon="8.6796467"><ele>161.0</ele><time>2026-04-12T10:15:33.004Z</time></trkpt><trkpt lat="45.6081233" lon="8.6795333"><ele>161.0</ele><time>2026-04-12T10:15:34.003Z</time></trkpt><trkpt lat="45.6080783" lon="8.6793867"><ele>161.0</ele><time>2026-04-12T10:15:35.004Z</time></trkpt><trkpt lat="45.6080483" lon="8.679225"><ele>161.0</ele><time>2026-04-12T10:15:36.004Z</time></trkpt><trkpt lat="45.6080317" lon="8.6790633"><ele>161.0</ele><time>2026-04-12T10:15:37.004Z</time></trkpt><trkpt lat="45.6080233" lon="8.6788983"><ele>161.0</ele><time>2026-04-12T10:15:38.004Z</time></trkpt><trkpt lat="45.6080183" lon="8.6787317"><ele>161.0</ele><time>2026-04-12T10:15:39.003Z</time></trkpt><trkpt lat="45.608005" lon="8.678555"><ele>161.0</ele><time>2026-04-12T10:15:40.003Z</time></trkpt><trkpt lat="45.6079933" lon="8.6783933"><ele>161.0</ele><time>2026-04-12T10:15:41.004Z</time></trkpt><trkpt lat="45.607985" lon="8.6782583"><ele>161.0</ele><time>2026-04-12T10:15:42.003Z</time></trkpt><trkpt lat="45.6079767" lon="8.678125"><ele>161.0</ele><time>2026-04-12T10:15:43.004Z</time></trkpt><trkpt lat="45.6079667" lon="8.6779933"><ele>161.0</ele><time>2026-04-12T10:15:44.003Z</time></trkpt><trkpt lat="45.607955" lon="8.6778683"><ele>162.5</ele><time>2026-04-12T10:15:45.003Z</time></trkpt><trkpt lat="45.60794" lon="8.6777667"><ele>164.0</ele><time>2026-04-12T10:15:46.003Z</time></trkpt><trkpt lat="45.60793" lon="8.677675"><ele>165.5</ele><time>2026-04-12T10:15:47.003Z</time></trkpt><trkpt lat="45.6079483" lon="8.6775433"><ele>167.0</ele><time>2026-04-12T10:15:49.004Z</time></trkpt><trkpt lat="45.6080183" lon="8.677465"><ele>168.5</ele><time>2026-04-12T10:15:51.004Z</time></trkpt><trkpt lat="45.6080883" lon="8.6774433"><ele>170.0</ele><time>2026-04-12T10:15:53.004Z</time></trkpt><trkpt lat="45.6082033" lon="8.6774733"><ele>170.0</ele><time>2026-04-12T10:16:38.004Z</time></trkpt><trkpt lat="45.6082733" lon="8.677475"><ele>170.0</ele><time>2026-04-12T10:16:39.004Z</time></trkpt><trkpt lat="45.60835" lon="8.6774683"><ele>170.0</ele><time>2026-04-12T10:16:40.003Z</time></trkpt><trkpt lat="45.60843" lon="8.677455"><ele>170.0</ele><time>2026-04-12T10:16:41.003Z</time></trkpt><trkpt lat="45.6085267" lon="8.6774417"><ele>170.0</ele><time>2026-04-12T10:16:42.003Z</time></trkpt><trkpt lat="45.608625" lon="8.6774317"><ele>170.0</ele><time>2026-04-12T10:16:43.003Z</time></trkpt><trkpt lat="45.6087317" lon="8.6774083"><ele>169.6</ele><time>2026-04-12T10:16:44.004Z</time></trkpt><trkpt lat="45.608825" lon="8.6773867"><ele>169.2</ele><time>2026-04-12T10:16:45.003Z</time></trkpt><trkpt lat="45.6089333" lon="8.6773583"><ele>168.8</ele><time>2026-04-12T10:16:46.003Z</time></trkpt><trkpt lat="45.609035" lon="8.6773383"><ele>168.4</ele><time>2026-04-12T10:16:47.003Z</time></trkpt><trkpt lat="45.6091167" lon="8.6773183"><ele>168.0</ele><time>2026-04-12T10:16:48.004Z</time></trkpt><trkpt lat="45.6091917" lon="8.6773017"><ele>168.0</ele><time>2026-04-12T10:16:49.003Z</time></trkpt><trkpt lat="45.60926" lon="8.6772883"><ele>168.0</ele><time>2026-04-12T10:16:50.003Z</time></trkpt><trkpt lat="45.6093717" lon="8.677255"><ele>168.0</ele><time>2026-04-12T10:16:52.003Z</time></trkpt><trkpt lat="45.6094883" lon="8.6772083"><ele>168.0</ele><time>2026-04-12T10:16:54.003Z</time></trkpt><trkpt lat="45.6095567" lon="8.677185"><ele>168.0</ele><time>2026-04-12T10:16:55.004Z</time></trkpt><trkpt lat="45.6096333" lon="8.6771683"><ele>167.4</ele><time>2026-04-12T10:16:56.004Z</time></trkpt><trkpt lat="45.60971" lon="8.67715"><ele>166.8</ele><time>2026-04-12T10:16:57.003Z</time></trkpt><trkpt lat="45.609795" lon="8.677125"><ele>166.2</ele><time>2026-04-12T10:16:58.003Z</time></trkpt><trkpt lat="45.6098983" lon="8.677105"><ele>165.6</ele><time>2026-04-12T10:16:59.003Z</time></trkpt><trkpt lat="45.6100283" lon="8.6770833"><ele>165.0</ele><time>2026-04-12T10:17:00.003Z</time></trkpt><trkpt lat="45.61017" lon="8.6770667"><ele>165.0</ele><time>2026-04-12T10:17:01.003Z</time></trkpt><trkpt lat="45.6103233" lon="8.6770417"><ele>165.0</ele><time>2026-04-12T10:17:02.003Z</time></trkpt><trkpt lat="45.6104783" lon="8.677025"><ele>165.0</ele><time>2026-04-12T10:17:03.004Z</time></trkpt><trkpt lat="45.6106317" lon="8.6769917"><ele>164.33333333333334</ele><time>2026-04-12T10:17:04.004Z</time></trkpt><trkpt lat="45.610775" lon="8.6769567"><ele>163.66666666666669</ele><time>2026-04-12T10:17:05.003Z</time></trkpt><trkpt lat="45.61093" lon="8.6769167"><ele>163.0</ele><time>2026-04-12T10:17:06.004Z</time></trkpt><trkpt lat="45.611085" lon="8.67687"><ele>162.0</ele><time>2026-04-12T10:17:07.004Z</time></trkpt><trkpt lat="45.6112467" lon="8.6768083"><ele>161.0</ele><time>2026-04-12T10:17:08.003Z</time></trkpt><trkpt lat="45.6114167" lon="8.67674"><ele>160.0</ele><time>2026-04-12T10:17:09.003Z</time></trkpt><trkpt lat="45.611595" lon="8.6766783"><ele>160.0</ele><time>2026-04-12T10:17:10.003Z</time></trkpt><trkpt lat="45.6117567" lon="8.67662"><ele>160.0</ele><time>2026-04-12T10:17:11.003Z</time></trkpt><trkpt lat="45.6119117" lon="8.67657"><ele>160.0</ele><time>2026-04-12T10:17:12.004Z</time></trkpt><trkpt lat="45.6120617" lon="8.67652"><ele>160.33333333333334</ele><time>2026-04-12T10:17:13.003Z</time></trkpt><trkpt lat="45.612215" lon="8.6764617"><ele>160.66666666666666</ele><time>2026-04-12T10:17:14.003Z</time></trkpt><trkpt lat="45.6123567" lon="8.6763967"><ele>161.0</ele><time>2026-04-12T10:17:15.003Z</time></trkpt><trkpt lat="45.61251" lon="8.676345"><ele>161.0</ele><time>2026-04-12T10:17:16.003Z</time></trkpt><trkpt lat="45.61266" lon="8.676295"><ele>161.0</ele><time>2026-04-12T10:17:17.003Z</time></trkpt><trkpt lat="45.612815" lon="8.6762483"><ele>161.0</ele><time>2026-04-12T10:17:18.004Z</time></trkpt><trkpt lat="45.6129567" lon="8.6762033"><ele>161.20000000000002</ele><time>2026-04-12T10:17:19.003Z</time></trkpt><trkpt lat="45.613085" lon="8.6761617"><ele>161.4</ele><time>2026-04-12T10:17:20.004Z</time></trkpt><trkpt lat="45.6132033" lon="8.6761283"><ele>161.6</ele><time>2026-04-12T10:17:21.003Z</time></trkpt><trkpt lat="45.6133" lon="8.676085"><ele>161.8</ele><time>2026-04-12T10:17:22.004Z</time></trkpt><trkpt lat="45.61339" lon="8.67605"><ele>162.0</ele><time>2026-04-12T10:17:23.003Z</time></trkpt><trkpt lat="45.6134667" lon="8.676025"><ele>162.0</ele><time>2026-04-12T10:17:24.004Z</time></trkpt><trkpt lat="45.6135283" lon="8.676005"><ele>162.0</ele><time>2026-04-12T10:17:25.003Z</time></trkpt><trkpt lat="45.6135983" lon="8.6759217"><ele>162.0</ele><time>2026-04-12T10:17:27.003Z</time></trkpt><trkpt lat="45.6136083" lon="8.6758133"><ele>162.0</ele><time>2026-04-12T10:17:29.003Z</time></trkpt><trkpt lat="45.6135967" lon="8.6756433"><ele>162.0</ele><time>2026-04-12T10:17:31.004Z</time></trkpt><trkpt lat="45.6136067" lon="8.6755517"><ele>162.0</ele><time>2026-04-12T10:17:32.003Z</time></trkpt><trkpt lat="45.61362" lon="8.6754417"><ele>162.0</ele><time>2026-04-12T10:17:33.003Z</time></trkpt><trkpt lat="45.61364" lon="8.6753417"><ele>162.0</ele><time>2026-04-12T10:17:34.003Z</time></trkpt><trkpt lat="45.6136683" lon="8.67524"><ele>162.0</ele><time>2026-04-12T10:17:35.003Z</time></trkpt><trkpt lat="45.61369" lon="8.6751467"><ele>162.0</ele><time>2026-04-12T10:17:36.003Z</time></trkpt><trkpt lat="45.61371" lon="8.67505"><ele>162.0</ele><time>2026-04-12T10:17:37.003Z</time></trkpt><trkpt lat="45.61373" lon="8.6749483"><ele>162.0</ele><time>2026-04-12T10:17:38.004Z</time></trkpt><trkpt lat="45.6137517" lon="8.67484"><ele>162.0</ele><time>2026-04-12T10:17:39.004Z</time></trkpt><trkpt lat="45.6137783" lon="8.6747317"><ele>162.0</ele><time>2026-04-12T10:17:40.003Z</time></trkpt><trkpt lat="45.61381" lon="8.6746083"><ele>162.0</ele><time>2026-04-12T10:17:41.004Z</time></trkpt><trkpt lat="45.6138467" lon="8.6744833"><ele>162.0</ele><time>2026-04-12T10:17:42.004Z</time></trkpt><trkpt lat="45.6138767" lon="8.674355"><ele>162.0</ele><time>2026-04-12T10:17:43.003Z</time></trkpt><trkpt lat="45.613915" lon="8.674225"><ele>162.0</ele><time>2026-04-12T10:17:44.004Z</time></trkpt><trkpt lat="45.6139517" lon="8.67409"><ele>162.6</ele><time>2026-04-12T10:17:45.004Z</time></trkpt><trkpt lat="45.61398" lon="8.6739567"><ele>163.2</ele><time>2026-04-12T10:17:46.004Z</time></trkpt><trkpt lat="45.6140133" lon="8.6738217"><ele>163.8</ele><time>2026-04-12T10:17:47.003Z</time></trkpt><trkpt lat="45.6140517" lon="8.6736917"><ele>164.4</ele><time>2026-04-12T10:17:48.004Z</time></trkpt><trkpt lat="45.6140883" lon="8.6735617"><ele>165.0</ele><time>2026-04-12T10:17:49.004Z</time></trkpt><trkpt lat="45.6141183" lon="8.67345"><ele>165.0</ele><time>2026-04-12T10:17:50.003Z</time></trkpt><trkpt lat="45.6141417" lon="8.6733433"><ele>165.0</ele><time>2026-04-12T10:17:51.003Z</time></trkpt><trkpt lat="45.614165" lon="8.6732533"><ele>165.0</ele><time>2026-04-12T10:17:52.003Z</time></trkpt><trkpt lat="45.6142033" lon="8.67311"><ele>165.0</ele><time>2026-04-12T10:17:54.003Z</time></trkpt><trkpt lat="45.61426" lon="8.6730517"><ele>165.0</ele><time>2026-04-12T10:17:56.004Z</time></trkpt><trkpt lat="45.6143133" lon="8.673125"><ele>165.0</ele><time>2026-04-12T10:17:58.003Z</time></trkpt><trkpt lat="45.614385" lon="8.6732017"><ele>165.0</ele><time>2026-04-12T10:18:00.004Z</time></trkpt><trkpt lat="45.6144817" lon="8.6731767"><ele>165.0</ele><time>2026-04-12T10:18:02.003Z</time></trkpt><trkpt lat="45.6145517" lon="8.6731267"><ele>165.0</ele><time>2026-04-12T10:18:03.003Z</time></trkpt><trkpt lat="45.6146267" lon="8.6730517"><ele>165.0</ele><time>2026-04-12T10:18:04.003Z</time></trkpt><trkpt lat="45.6147117" lon="8.6729767"><ele>165.0</ele><time>2026-04-12T10:18:05.003Z</time></trkpt><trkpt lat="45.6147983" lon="8.6729033"><ele>165.0</ele><time>2026-04-12T10:18:06.003Z</time></trkpt><trkpt lat="45.6148883" lon="8.6728367"><ele>165.0</ele><time>2026-04-12T10:18:07.003Z</time></trkpt><trkpt lat="45.6149833" lon="8.6727667"><ele>165.0</ele><time>2026-04-12T10:18:08.003Z</time></trkpt><trkpt lat="45.6150633" lon="8.6727033"><ele>165.0</ele><time>2026-04-12T10:18:09.003Z</time></trkpt><trkpt lat="45.6151383" lon="8.6726333"><ele>165.0</ele><time>2026-04-12T10:18:10.003Z</time></trkpt><trkpt lat="45.6152033" lon="8.67254"><ele>165.0</ele><time>2026-04-12T10:18:11.004Z</time></trkpt><trkpt lat="45.6152583" lon="8.6724167"><ele>165.0</ele><time>2026-04-12T10:18:12.004Z</time></trkpt><trkpt lat="45.6153" lon="8.67228"><ele>165.0</ele><time>2026-04-12T10:18:13.003Z</time></trkpt><trkpt lat="45.6153383" lon="8.6721217"><ele>165.0</ele><time>2026-04-12T10:18:14.003Z</time></trkpt><trkpt lat="45.61538" lon="8.6719417"><ele>164.25</ele><time>2026-04-12T10:18:15.004Z</time></trkpt><trkpt lat="45.6154133" lon="8.6717733"><ele>163.5</ele><time>2026-04-12T10:18:16.003Z</time></trkpt><trkpt lat="45.6154483" lon="8.6716033"><ele>162.75</ele><time>2026-04-12T10:18:17.003Z</time></trkpt><trkpt lat="45.6154767" lon="8.6714317"><ele>162.0</ele><time>2026-04-12T10:18:18.003Z</time></trkpt><trkpt lat="45.6155167" lon="8.6712683"><ele>162.0</ele><time>2026-04-12T10:18:19.003Z</time></trkpt><trkpt lat="45.6155517" lon="8.6711117"><ele>162.0</ele><time>2026-04-12T10:18:20.003Z</time></trkpt><trkpt lat="45.6155867" lon="8.6709733"><ele>162.0</ele><time>2026-04-12T10:18:21.003Z</time></trkpt><trkpt lat="45.615615" lon="8.6708483"><ele>162.0</ele><time>2026-04-12T10:18:22.004Z</time></trkpt><trkpt lat="45.6156283" lon="8.67073"><ele>162.0</ele><time>2026-04-12T10:18:23.004Z</time></trkpt><trkpt lat="45.6156267" lon="8.670635"><ele>162.2</ele><time>2026-04-12T10:18:24.004Z</time></trkpt><trkpt lat="45.6155867" lon="8.6704917"><ele>162.39999999999998</ele><time>2026-04-12T10:18:26.003Z</time></trkpt><trkpt lat="45.6154817" lon="8.6703667"><ele>162.60000000000002</ele><time>2026-04-12T10:18:28.003Z</time></trkpt><trkpt lat="45.615435" lon="8.6702917"><ele>162.8</ele><time>2026-04-12T10:18:29.004Z</time></trkpt><trkpt lat="45.615405" lon="8.6701967"><ele>163.0</ele><time>2026-04-12T10:18:30.003Z</time></trkpt><trkpt lat="45.6153783" lon="8.6700783"><ele>163.16666666666669</ele><time>2026-04-12T10:18:31.003Z</time></trkpt><trkpt lat="45.61535" lon="8.66996"><ele>163.33333333333334</ele><time>2026-04-12T10:18:32.003Z</time></trkpt><trkpt lat="45.615325" lon="8.6698433"><ele>163.5</ele><time>2026-04-12T10:18:33.004Z</time></trkpt><trkpt lat="45.6153117" lon="8.66974"><ele>163.66666666666666</ele><time>2026-04-12T10:18:34.003Z</time></trkpt><trkpt lat="45.6153417" lon="8.669615"><ele>163.83333333333331</ele><time>2026-04-12T10:18:36.003Z</time></trkpt><trkpt lat="45.6154233" lon="8.6695367"><ele>164.0</ele><time>2026-04-12T10:18:38.004Z</time></trkpt><trkpt lat="45.6154967" lon="8.669525"><ele>164.16666666666666</ele><time>2026-04-12T10:18:39.003Z</time></trkpt><trkpt lat="45.61558" lon="8.669525"><ele>164.33333333333331</ele><time>2026-04-12T10:18:40.004Z</time></trkpt><trkpt lat="45.61567" lon="8.6695067"><ele>164.5</ele><time>2026-04-12T10:18:41.003Z</time></trkpt><trkpt lat="45.6157483" lon="8.669485"><ele>164.66666666666666</ele><time>2026-04-12T10:18:42.003Z</time></trkpt><trkpt lat="45.6158067" lon="8.6694383"><ele>164.83333333333334</ele><time>2026-04-12T10:18:43.003Z</time></trkpt><trkpt lat="45.6158633" lon="8.6693683"><ele>165.0</ele><time>2026-04-12T10:18:44.002Z</time></trkpt><trkpt lat="45.6159117" lon="8.669285"><ele>165.0</ele><time>2026-04-12T10:18:45.003Z</time></trkpt><trkpt lat="45.61594" lon="8.669175"><ele>165.0</ele><time>2026-04-12T10:18:46.002Z</time></trkpt><trkpt lat="45.6159583" lon="8.66905"><ele>165.0</ele><time>2026-04-12T10:18:47.003Z</time></trkpt><trkpt lat="45.6159683" lon="8.6689183"><ele>165.0</ele><time>2026-04-12T10:18:48.002Z</time></trkpt><trkpt lat="45.6159917" lon="8.6688083"><ele>165.0</ele><time>2026-04-12T10:18:49.002Z</time></trkpt><trkpt lat="45.6160233" lon="8.6687067"><ele>165.0</ele><time>2026-04-12T10:18:50.002Z</time></trkpt><trkpt lat="45.61606" lon="8.6686133"><ele>165.2</ele><time>2026-04-12T10:18:51.003Z</time></trkpt><trkpt lat="45.61611" lon="8.6685033"><ele>165.4</ele><time>2026-04-12T10:18:52.002Z</time></trkpt><trkpt lat="45.6161833" lon="8.6683983"><ele>165.60000000000002</ele><time>2026-04-12T10:18:53.002Z</time></trkpt><trkpt lat="45.6162567" lon="8.6683117"><ele>165.8</ele><time>2026-04-12T10:18:54.002Z</time></trkpt><trkpt lat="45.6163383" lon="8.6682317"><ele>166.0</ele><time>2026-04-12T10:18:55.002Z</time></trkpt><trkpt lat="45.616415" lon="8.6681383"><ele>166.0</ele><time>2026-04-12T10:18:56.003Z</time></trkpt><trkpt lat="45.616495" lon="8.6680467"><ele>166.0</ele><time>2026-04-12T10:18:57.003Z</time></trkpt><trkpt lat="45.6165733" lon="8.6679617"><ele>166.0</ele><time>2026-04-12T10:18:58.003Z</time></trkpt><trkpt lat="45.616645" lon="8.6678767"><ele>166.0</ele><time>2026-04-12T10:18:59.002Z</time></trkpt><trkpt lat="45.6167117" lon="8.6677817"><ele>166.0</ele><time>2026-04-12T10:19:00.003Z</time></trkpt><trkpt lat="45.616785" lon="8.6676933"><ele>166.4</ele><time>2026-04-12T10:19:01.003Z</time></trkpt><trkpt lat="45.61687" lon="8.667615"><ele>166.8</ele><time>2026-04-12T10:19:02.002Z</time></trkpt><trkpt lat="45.6169567" lon="8.6675467"><ele>167.20000000000002</ele><time>2026-04-12T10:19:03.003Z</time></trkpt><trkpt lat="45.6170383" lon="8.6674883"><ele>167.60000000000002</ele><time>2026-04-12T10:19:04.002Z</time></trkpt><trkpt lat="45.6171267" lon="8.6674567"><ele>168.0</ele><time>2026-04-12T10:19:05.002Z</time></trkpt><trkpt lat="45.6171983" lon="8.6674217"><ele>168.0</ele><time>2026-04-12T10:19:06.003Z</time></trkpt><trkpt lat="45.6172667" lon="8.6673683"><ele>168.0</ele><time>2026-04-12T10:19:07.002Z</time></trkpt><trkpt lat="45.6173467" lon="8.667295"><ele>168.0</ele><time>2026-04-12T10:19:08.002Z</time></trkpt><trkpt lat="45.6174283" lon="8.66723"><ele>168.0</ele><time>2026-04-12T10:19:09.003Z</time></trkpt><trkpt lat="45.6175217" lon="8.667165"><ele>168.0</ele><time>2026-04-12T10:19:10.002Z</time></trkpt><trkpt lat="45.6176133" lon="8.6671117"><ele>168.0</ele><time>2026-04-12T10:19:11.002Z</time></trkpt><trkpt lat="45.617705" lon="8.6670567"><ele>168.0</ele><time>2026-04-12T10:19:12.002Z</time></trkpt><trkpt lat="45.6177833" lon="8.66701"><ele>168.0</ele><time>2026-04-12T10:19:13.002Z</time></trkpt><trkpt lat="45.6178617" lon="8.6669733"><ele>168.0</ele><time>2026-04-12T10:19:14.003Z</time></trkpt><trkpt lat="45.6179283" lon="8.6669483"><ele>168.0</ele><time>2026-04-12T10:19:15.003Z</time></trkpt><trkpt lat="45.6180283" lon="8.6669033"><ele>168.0</ele><time>2026-04-12T10:19:17.002Z</time></trkpt><trkpt lat="45.6180367" lon="8.6668133"><ele>168.2</ele><time>2026-04-12T10:19:19.002Z</time></trkpt><trkpt lat="45.6179783" lon="8.666665"><ele>168.4</ele><time>2026-04-12T10:19:21.002Z</time></trkpt><trkpt lat="45.61792" lon="8.666585"><ele>168.6</ele><time>2026-04-12T10:19:22.002Z</time></trkpt><trkpt lat="45.617865" lon="8.6665017"><ele>168.79999999999998</ele><time>2026-04-12T10:19:23.003Z</time></trkpt><trkpt lat="45.6178283" lon="8.6664167"><ele>169.0</ele><time>2026-04-12T10:19:24.002Z</time></trkpt><trkpt lat="45.617805" lon="8.6662367"><ele>168.5</ele><time>2026-04-12T10:19:26.003Z</time></trkpt><trkpt lat="45.6178383" lon="8.6661317"><ele>168.0</ele><time>2026-04-12T10:19:27.003Z</time></trkpt><trkpt lat="45.6178933" lon="8.66602"><ele>167.5</ele><time>2026-04-12T10:19:28.003Z</time></trkpt><trkpt lat="45.6179367" lon="8.6659083"><ele>167.0</ele><time>2026-04-12T10:19:29.002Z</time></trkpt><trkpt lat="45.61799" lon="8.665795"><ele>166.5</ele><time>2026-04-12T10:19:30.002Z</time></trkpt><trkpt lat="45.61803" lon="8.6656933"><ele>166.0</ele><time>2026-04-12T10:19:31.003Z</time></trkpt><trkpt lat="45.6180517" lon="8.6655917"><ele>165.83333333333334</ele><time>2026-04-12T10:19:32.002Z</time></trkpt><trkpt lat="45.6180667" lon="8.6654783"><ele>165.66666666666669</ele><time>2026-04-12T10:19:33.002Z</time></trkpt><trkpt lat="45.6180783" lon="8.6653533"><ele>165.5</ele><time>2026-04-12T10:19:34.002Z</time></trkpt><trkpt lat="45.618095" lon="8.66523"><ele>165.33333333333334</ele><time>2026-04-12T10:19:35.003Z</time></trkpt><trkpt lat="45.6181067" lon="8.665105"><ele>165.16666666666666</ele><time>2026-04-12T10:19:36.003Z</time></trkpt><trkpt lat="45.618115" lon="8.6649783"><ele>165.0</ele><time>2026-04-12T10:19:37.003Z</time></trkpt><trkpt lat="45.61813" lon="8.6648467"><ele>165.0</ele><time>2026-04-12T10:19:38.003Z</time></trkpt><trkpt lat="45.6181517" lon="8.66471"><ele>165.0</ele><time>2026-04-12T10:19:39.003Z</time></trkpt><trkpt lat="45.6181867" lon="8.66459"><ele>165.0</ele><time>2026-04-12T10:19:40.002Z</time></trkpt><trkpt lat="45.6182333" lon="8.6644883"><ele>165.0</ele><time>2026-04-12T10:19:41.003Z</time></trkpt><trkpt lat="45.61829" lon="8.6643967"><ele>165.0</ele><time>2026-04-12T10:19:42.002Z</time></trkpt><trkpt lat="45.6183417" lon="8.6643067"><ele>165.0</ele><time>2026-04-12T10:19:43.003Z</time></trkpt><trkpt lat="45.6183933" lon="8.664225"><ele>165.0</ele><time>2026-04-12T10:19:44.003Z</time></trkpt><trkpt lat="45.618445" lon="8.6641317"><ele>165.0</ele><time>2026-04-12T10:19:45.003Z</time></trkpt><trkpt lat="45.6184917" lon="8.6640533"><ele>165.0</ele><time>2026-04-12T10:19:46.003Z</time></trkpt><trkpt lat="45.6185367" lon="8.6639833"><ele>165.0</ele><time>2026-04-12T10:19:47.003Z</time></trkpt><trkpt lat="45.6186067" lon="8.66385"><ele>165.0</ele><time>2026-04-12T10:19:49.003Z</time></trkpt><trkpt lat="45.6186667" lon="8.6637567"><ele>165.0</ele><time>2026-04-12T10:19:51.002Z</time></trkpt><trkpt lat="45.618745" lon="8.663715"><ele>164.8</ele><time>2026-04-12T10:19:53.002Z</time></trkpt><trkpt lat="45.6188433" lon="8.6637783"><ele>164.6</ele><time>2026-04-12T10:19:55.002Z</time></trkpt><trkpt lat="45.618905" lon="8.6638717"><ele>164.39999999999998</ele><time>2026-04-12T10:19:56.002Z</time></trkpt><trkpt lat="45.61897" lon="8.6640017"><ele>164.2</ele><time>2026-04-12T10:19:57.002Z</time></trkpt><trkpt lat="45.6190467" lon="8.6641433"><ele>164.0</ele><time>2026-04-12T10:19:58.002Z</time></trkpt><trkpt lat="45.6191233" lon="8.66427"><ele>164.0</ele><time>2026-04-12T10:19:59.003Z</time></trkpt><trkpt lat="45.6191867" lon="8.664365"><ele>164.0</ele><time>2026-04-12T10:20:00.002Z</time></trkpt><trkpt lat="45.6192433" lon="8.6644383"><ele>164.0</ele><time>2026-04-12T10:20:01.002Z</time></trkpt><trkpt lat="45.6193483" lon="8.6644717"><ele>164.0</ele><time>2026-04-12T10:20:03.003Z</time></trkpt><trkpt lat="45.6194467" lon="8.66435"><ele>164.0</ele><time>2026-04-12T10:20:05.002Z</time></trkpt><trkpt lat="45.6195" lon="8.66425"><ele>163.83333333333331</ele><time>2026-04-12T10:20:06.003Z</time></trkpt><trkpt lat="45.6195617" lon="8.6641367"><ele>163.66666666666666</ele><time>2026-04-12T10:20:07.003Z</time></trkpt><trkpt lat="45.6196233" lon="8.6640367"><ele>163.5</ele><time>2026-04-12T10:20:08.003Z</time></trkpt><trkpt lat="45.619685" lon="8.66395"><ele>163.33333333333334</ele><time>2026-04-12T10:20:09.003Z</time></trkpt><trkpt lat="45.61975" lon="8.6638767"><ele>163.16666666666669</ele><time>2026-04-12T10:20:10.002Z</time></trkpt><trkpt lat="45.6198167" lon="8.6638067"><ele>163.0</ele><time>2026-04-12T10:20:11.002Z</time></trkpt><trkpt lat="45.619885" lon="8.6637417"><ele>163.0</ele><time>2026-04-12T10:20:12.002Z</time></trkpt><trkpt lat="45.61995" lon="8.6636717"><ele>163.0</ele><time>2026-04-12T10:20:13.002Z</time></trkpt><trkpt lat="45.6200167" lon="8.6636083"><ele>163.0</ele><time>2026-04-12T10:20:14.003Z</time></trkpt><trkpt lat="45.6200783" lon="8.6635383"><ele>163.0</ele><time>2026-04-12T10:20:15.002Z</time></trkpt><trkpt lat="45.62015" lon="8.6634783"><ele>163.0</ele><time>2026-04-12T10:20:16.003Z</time></trkpt><trkpt lat="45.62023" lon="8.6633967"><ele>163.0</ele><time>2026-04-12T10:20:17.003Z</time></trkpt><trkpt lat="45.6203233" lon="8.6633017"><ele>162.5</ele><time>2026-04-12T10:20:18.003Z</time></trkpt><trkpt lat="45.6204217" lon="8.6632017"><ele>162.0</ele><time>2026-04-12T10:20:19.002Z</time></trkpt><trkpt lat="45.62052" lon="8.663085"><ele>161.5</ele><time>2026-04-12T10:20:20.002Z</time></trkpt><trkpt lat="45.62062" lon="8.6629717"><ele>161.0</ele><time>2026-04-12T10:20:21.003Z</time></trkpt><trkpt lat="45.6207233" lon="8.66286"><ele>161.5</ele><time>2026-04-12T10:20:22.002Z</time></trkpt><trkpt lat="45.620825" lon="8.6627483"><ele>162.0</ele><time>2026-04-12T10:20:23.002Z</time></trkpt><trkpt lat="45.6209217" lon="8.66264"><ele>162.5</ele><time>2026-04-12T10:20:24.002Z</time></trkpt><trkpt lat="45.6210283" lon="8.6625417"><ele>163.0</ele><time>2026-04-12T10:20:25.002Z</time></trkpt><trkpt lat="45.6211267" lon="8.662445"><ele>162.8</ele><time>2026-04-12T10:20:26.002Z</time></trkpt><trkpt lat="45.6212083" lon="8.6623433"><ele>162.60000000000002</ele><time>2026-04-12T10:20:27.002Z</time></trkpt><trkpt lat="45.6212917" lon="8.6622333"><ele>162.39999999999998</ele><time>2026-04-12T10:20:28.002Z</time></trkpt><trkpt lat="45.621365" lon="8.662125"><ele>162.2</ele><time>2026-04-12T10:20:29.002Z</time></trkpt><trkpt lat="45.621425" lon="8.662"><ele>162.0</ele><time>2026-04-12T10:20:30.002Z</time></trkpt><trkpt lat="45.6214867" lon="8.661875"><ele>163.0</ele><time>2026-04-12T10:20:31.002Z</time></trkpt><trkpt lat="45.6215483" lon="8.66175"><ele>164.0</ele><time>2026-04-12T10:20:32.002Z</time></trkpt><trkpt lat="45.6216167" lon="8.6616217"><ele>165.0</ele><time>2026-04-12T10:20:33.002Z</time></trkpt><trkpt lat="45.6216833" lon="8.6614817"><ele>166.0</ele><time>2026-04-12T10:20:34.002Z</time></trkpt><trkpt lat="45.6217367" lon="8.6613517"><ele>167.0</ele><time>2026-04-12T10:20:35.003Z</time></trkpt><trkpt lat="45.6217883" lon="8.6612117"><ele>167.2</ele><time>2026-04-12T10:20:36.003Z</time></trkpt><trkpt lat="45.621845" lon="8.6610783"><ele>167.39999999999998</ele><time>2026-04-12T10:20:37.002Z</time></trkpt><trkpt lat="45.6219017" lon="8.66094"><ele>167.60000000000002</ele><time>2026-04-12T10:20:38.002Z</time></trkpt><trkpt lat="45.621965" lon="8.66081"><ele>167.8</ele><time>2026-04-12T10:20:39.003Z</time></trkpt><trkpt lat="45.622025" lon="8.6606767"><ele>168.0</ele><time>2026-04-12T10:20:40.002Z</time></trkpt><trkpt lat="45.622085" lon="8.660545"><ele>168.0</ele><time>2026-04-12T10:20:41.002Z</time></trkpt><trkpt lat="45.62214" lon="8.6604233"><ele>168.0</ele><time>2026-04-12T10:20:42.002Z</time></trkpt><trkpt lat="45.6221917" lon="8.6602933"><ele>168.0</ele><time>2026-04-12T10:20:43.003Z</time></trkpt><trkpt lat="45.6222533" lon="8.66017"><ele>168.0</ele><time>2026-04-12T10:20:44.002Z</time></trkpt><trkpt lat="45.6223133" lon="8.6600317"><ele>168.0</ele><time>2026-04-12T10:20:45.003Z</time></trkpt><trkpt lat="45.6223883" lon="8.6598867"><ele>168.0</ele><time>2026-04-12T10:20:46.002Z</time></trkpt><trkpt lat="45.622475" lon="8.6597367"><ele>168.0</ele><time>2026-04-12T10:20:47.002Z</time></trkpt><trkpt lat="45.6225683" lon="8.6595717"><ele>168.0</ele><time>2026-04-12T10:20:48.002Z</time></trkpt><trkpt lat="45.62265" lon="8.6594017"><ele>168.0</ele><time>2026-04-12T10:20:49.003Z</time></trkpt><trkpt lat="45.6227233" lon="8.65925"><ele>167.75</ele><time>2026-04-12T10:20:50.002Z</time></trkpt><trkpt lat="45.6228017" lon="8.6590967"><ele>167.5</ele><time>2026-04-12T10:20:51.002Z</time></trkpt><trkpt lat="45.6228833" lon="8.6589517"><ele>167.25</ele><time>2026-04-12T10:20:52.002Z</time></trkpt><trkpt lat="45.62297" lon="8.6588317"><ele>167.0</ele><time>2026-04-12T10:20:53.002Z</time></trkpt><trkpt lat="45.623065" lon="8.6587217"><ele>167.0</ele><time>2026-04-12T10:20:54.002Z</time></trkpt><trkpt lat="45.6231717" lon="8.6586283"><ele>167.0</ele><time>2026-04-12T10:20:55.002Z</time></trkpt><trkpt lat="45.6232933" lon="8.6585283"><ele>167.0</ele><time>2026-04-12T10:20:56.002Z</time></trkpt><trkpt lat="45.6234083" lon="8.658435"><ele>167.0</ele><time>2026-04-12T10:20:57.003Z</time></trkpt><trkpt lat="45.62353" lon="8.658325"><ele>167.0</ele><time>2026-04-12T10:20:58.002Z</time></trkpt><trkpt lat="45.62364" lon="8.6582133"><ele>167.0</ele><time>2026-04-12T10:20:59.002Z</time></trkpt><trkpt lat="45.6237433" lon="8.6581267"><ele>167.0</ele><time>2026-04-12T10:21:00.002Z</time></trkpt><trkpt lat="45.6238317" lon="8.6580233"><ele>167.0</ele><time>2026-04-12T10:21:01.003Z</time></trkpt><trkpt lat="45.6239233" lon="8.65794"><ele>166.8</ele><time>2026-04-12T10:21:02.002Z</time></trkpt><trkpt lat="45.624015" lon="8.6578667"><ele>166.6</ele><time>2026-04-12T10:21:03.002Z</time></trkpt><trkpt lat="45.6241" lon="8.657785"><ele>166.4</ele><time>2026-04-12T10:21:04.003Z</time></trkpt><trkpt lat="45.6241767" lon="8.657705"><ele>166.20000000000002</ele><time>2026-04-12T10:21:05.002Z</time></trkpt><trkpt lat="45.6242517" lon="8.65764"><ele>166.0</ele><time>2026-04-12T10:21:06.002Z</time></trkpt><trkpt lat="45.624315" lon="8.6575867"><ele>166.0</ele><time>2026-04-12T10:21:07.003Z</time></trkpt><trkpt lat="45.6244133" lon="8.657495"><ele>166.0</ele><time>2026-04-12T10:21:09.002Z</time></trkpt><trkpt lat="45.6245067" lon="8.6574233"><ele>166.0</ele><time>2026-04-12T10:21:11.003Z</time></trkpt><trkpt lat="45.6245733" lon="8.6573883"><ele>166.0</ele><time>2026-04-12T10:21:12.002Z</time></trkpt><trkpt lat="45.624665" lon="8.6573533"><ele>166.0</ele><time>2026-04-12T10:21:13.003Z</time></trkpt><trkpt lat="45.6247733" lon="8.6573167"><ele>166.25</ele><time>2026-04-12T10:21:14.002Z</time></trkpt><trkpt lat="45.6248833" lon="8.6572617"><ele>166.5</ele><time>2026-04-12T10:21:15.002Z</time></trkpt><trkpt lat="45.625" lon="8.6572133"><ele>166.75</ele><time>2026-04-12T10:21:16.002Z</time></trkpt><trkpt lat="45.6251233" lon="8.6571567"><ele>167.0</ele><time>2026-04-12T10:21:17.002Z</time></trkpt><trkpt lat="45.6252467" lon="8.6570883"><ele>167.0</ele><time>2026-04-12T10:21:18.002Z</time></trkpt><trkpt lat="45.6253683" lon="8.65703"><ele>167.0</ele><time>2026-04-12T10:21:19.002Z</time></trkpt><trkpt lat="45.6254917" lon="8.656975"><ele>167.0</ele><time>2026-04-12T10:21:20.002Z</time></trkpt><trkpt lat="45.6256233" lon="8.6569183"><ele>167.0</ele><time>2026-04-12T10:21:21.002Z</time></trkpt><trkpt lat="45.6257567" lon="8.6568583"><ele>167.75</ele><time>2026-04-12T10:21:22.002Z</time></trkpt><trkpt lat="45.6258967" lon="8.6568017"><ele>168.5</ele><time>2026-04-12T10:21:23.002Z</time></trkpt><trkpt lat="45.6260333" lon="8.65675"><ele>169.25</ele><time>2026-04-12T10:21:24.002Z</time></trkpt><trkpt lat="45.62617" lon="8.656695"><ele>170.0</ele><time>2026-04-12T10:21:25.002Z</time></trkpt><trkpt lat="45.6263033" lon="8.6566267"><ele>170.25</ele><time>2026-04-12T10:21:26.002Z</time></trkpt><trkpt lat="45.6264267" lon="8.65656"><ele>170.5</ele><time>2026-04-12T10:21:27.002Z</time></trkpt><trkpt lat="45.6265567" lon="8.65647"><ele>170.75</ele><time>2026-04-12T10:21:28.002Z</time></trkpt><trkpt lat="45.6266833" lon="8.6563717"><ele>171.0</ele><time>2026-04-12T10:21:29.003Z</time></trkpt><trkpt lat="45.6268067" lon="8.6562767"><ele>171.0</ele><time>2026-04-12T10:21:30.002Z</time></trkpt><trkpt lat="45.6269233" lon="8.6561667"><ele>171.0</ele><time>2026-04-12T10:21:31.002Z</time></trkpt><trkpt lat="45.6270367" lon="8.6560567"><ele>171.0</ele><time>2026-04-12T10:21:32.003Z</time></trkpt><trkpt lat="45.6271567" lon="8.655955"><ele>171.0</ele><time>2026-04-12T10:21:33.002Z</time></trkpt><trkpt lat="45.6272767" lon="8.655855"><ele>171.20000000000002</ele><time>2026-04-12T10:21:34.002Z</time></trkpt><trkpt lat="45.6273917" lon="8.655765"><ele>171.4</ele><time>2026-04-12T10:21:35.002Z</time></trkpt><trkpt lat="45.6274983" lon="8.6556883"><ele>171.6</ele><time>2026-04-12T10:21:36.002Z</time></trkpt><trkpt lat="45.62759" lon="8.6556183"><ele>171.8</ele><time>2026-04-12T10:21:37.002Z</time></trkpt><trkpt lat="45.62767" lon="8.6555667"><ele>172.0</ele><time>2026-04-12T10:21:38.002Z</time></trkpt><trkpt lat="45.627745" lon="8.6555333"><ele>171.2</ele><time>2026-04-12T10:21:39.003Z</time></trkpt><trkpt lat="45.6278117" lon="8.655535"><ele>170.39999999999998</ele><time>2026-04-12T10:21:40.002Z</time></trkpt><trkpt lat="45.62788" lon="8.6555717"><ele>169.60000000000002</ele><time>2026-04-12T10:21:41.002Z</time></trkpt><trkpt lat="45.627975" lon="8.65563"><ele>168.8</ele><time>2026-04-12T10:21:42.002Z</time></trkpt><trkpt lat="45.6280817" lon="8.655735"><ele>168.0</ele><time>2026-04-12T10:21:43.002Z</time></trkpt><trkpt lat="45.628195" lon="8.65589"><ele>168.0</ele><time>2026-04-12T10:21:44.002Z</time></trkpt><trkpt lat="45.6283" lon="8.6560667"><ele>168.0</ele><time>2026-04-12T10:21:45.002Z</time></trkpt><trkpt lat="45.6284017" lon="8.6562533"><ele>168.0</ele><time>2026-04-12T10:21:46.003Z</time></trkpt><trkpt lat="45.6285083" lon="8.6564233"><ele>167.75</ele><time>2026-04-12T10:21:47.003Z</time></trkpt><trkpt lat="45.6286117" lon="8.6565733"><ele>167.5</ele><time>2026-04-12T10:21:48.002Z</time></trkpt><trkpt lat="45.6287133" lon="8.6567017"><ele>167.25</ele><time>2026-04-12T10:21:49.002Z</time></trkpt><trkpt lat="45.628825" lon="8.6568083"><ele>167.0</ele><time>2026-04-12T10:21:50.002Z</time></trkpt><trkpt lat="45.6289567" lon="8.6568917"><ele>167.0</ele><time>2026-04-12T10:21:51.003Z</time></trkpt><trkpt lat="45.6291067" lon="8.65695"><ele>167.0</ele><time>2026-04-12T10:21:52.002Z</time></trkpt><trkpt lat="45.6292483" lon="8.6569867"><ele>167.0</ele><time>2026-04-12T10:21:53.002Z</time></trkpt><trkpt lat="45.6293817" lon="8.65703"><ele>167.0</ele><time>2026-04-12T10:21:54.003Z</time></trkpt><trkpt lat="45.6295033" lon="8.6570833"><ele>167.2</ele><time>2026-04-12T10:21:55.002Z</time></trkpt><trkpt lat="45.6296233" lon="8.6571317"><ele>167.39999999999998</ele><time>2026-04-12T10:21:56.003Z</time></trkpt><trkpt lat="45.62973" lon="8.6571717"><ele>167.60000000000002</ele><time>2026-04-12T10:21:57.002Z</time></trkpt><trkpt lat="45.629825" lon="8.65721"><ele>167.8</ele><time>2026-04-12T10:21:58.002Z</time></trkpt><trkpt lat="45.6298983" lon="8.657235"><ele>168.0</ele><time>2026-04-12T10:21:59.003Z</time></trkpt><trkpt lat="45.6300117" lon="8.6572317"><ele>168.0</ele><time>2026-04-12T10:22:01.002Z</time></trkpt><trkpt lat="45.6300683" lon="8.6571317"><ele>168.0</ele><time>2026-04-12T10:22:03.002Z</time></trkpt><trkpt lat="45.6300383" lon="8.6570283"><ele>168.0</ele><time>2026-04-12T10:22:04.002Z</time></trkpt><trkpt lat="45.6299917" lon="8.656915"><ele>168.0</ele><time>2026-04-12T10:22:05.002Z</time></trkpt><trkpt lat="45.6299383" lon="8.6568117"><ele>168.0</ele><time>2026-04-12T10:22:06.002Z</time></trkpt><trkpt lat="45.62989" lon="8.656715"><ele>168.0</ele><time>2026-04-12T10:22:07.002Z</time></trkpt><trkpt lat="45.62986" lon="8.6566317"><ele>168.2</ele><time>2026-04-12T10:22:08.003Z</time></trkpt><trkpt lat="45.6298533" lon="8.6564883"><ele>168.4</ele><time>2026-04-12T10:22:10.003Z</time></trkpt><trkpt lat="45.6299567" lon="8.6563733"><ele>168.6</ele><time>2026-04-12T10:22:12.002Z</time></trkpt><trkpt lat="45.6300467" lon="8.6563233"><ele>168.79999999999998</ele><time>2026-04-12T10:22:13.003Z</time></trkpt><trkpt lat="45.630155" lon="8.6562817"><ele>169.0</ele><time>2026-04-12T10:22:14.003Z</time></trkpt><trkpt lat="45.6302717" lon="8.6562267"><ele>168.79999999999998</ele><time>2026-04-12T10:22:15.002Z</time></trkpt><trkpt lat="45.6303883" lon="8.6561783"><ele>168.6</ele><time>2026-04-12T10:22:16.002Z</time></trkpt><trkpt lat="45.6305" lon="8.6561267"><ele>168.4</ele><time>2026-04-12T10:22:17.003Z</time></trkpt><trkpt lat="45.6306" lon="8.6560767"><ele>168.2</ele><time>2026-04-12T10:22:18.003Z</time></trkpt><trkpt lat="45.6306933" lon="8.6560317"><ele>168.0</ele><time>2026-04-12T10:22:19.002Z</time></trkpt><trkpt lat="45.6307617" lon="8.6559667"><ele>168.0</ele><time>2026-04-12T10:22:20.002Z</time></trkpt><trkpt lat="45.6308333" lon="8.65587"><ele>168.0</ele><time>2026-04-12T10:22:21.003Z</time></trkpt><trkpt lat="45.6308783" lon="8.6557417"><ele>168.0</ele><time>2026-04-12T10:22:22.002Z</time></trkpt><trkpt lat="45.630905" lon="8.6555883"><ele>168.0</ele><time>2026-04-12T10:22:23.002Z</time></trkpt><trkpt lat="45.6309133" lon="8.6554267"><ele>168.0</ele><time>2026-04-12T10:22:24.003Z</time></trkpt><trkpt lat="45.630925" lon="8.6552583"><ele>168.5</ele><time>2026-04-12T10:22:25.002Z</time></trkpt><trkpt lat="45.6309333" lon="8.6550867"><ele>169.0</ele><time>2026-04-12T10:22:26.002Z</time></trkpt><trkpt lat="45.6309333" lon="8.6549083"><ele>169.5</ele><time>2026-04-12T10:22:27.002Z</time></trkpt><trkpt lat="45.6309217" lon="8.6547417"><ele>170.0</ele><time>2026-04-12T10:22:28.003Z</time></trkpt><trkpt lat="45.6308917" lon="8.6545833"><ele>170.4</ele><time>2026-04-12T10:22:29.002Z</time></trkpt><trkpt lat="45.630855" lon="8.6544417"><ele>170.8</ele><time>2026-04-12T10:22:30.002Z</time></trkpt><trkpt lat="45.6308167" lon="8.6543167"><ele>171.2</ele><time>2026-04-12T10:22:31.003Z</time></trkpt><trkpt lat="45.6307717" lon="8.6541867"><ele>171.6</ele><time>2026-04-12T10:22:32.003Z</time></trkpt><trkpt lat="45.6307267" lon="8.6540583"><ele>172.0</ele><time>2026-04-12T10:22:33.002Z</time></trkpt><trkpt lat="45.6306783" lon="8.6539367"><ele>172.0</ele><time>2026-04-12T10:22:34.002Z</time></trkpt><trkpt lat="45.630635" lon="8.6538083"><ele>172.0</ele><time>2026-04-12T10:22:35.003Z</time></trkpt><trkpt lat="45.6306017" lon="8.6536883"><ele>172.0</ele><time>2026-04-12T10:22:36.002Z</time></trkpt><trkpt lat="45.6306" lon="8.6535767"><ele>172.0</ele><time>2026-04-12T10:22:37.002Z</time></trkpt><trkpt lat="45.6306067" lon="8.6534617"><ele>172.0</ele><time>2026-04-12T10:22:38.002Z</time></trkpt><trkpt lat="45.63061" lon="8.6533467"><ele>172.0</ele><time>2026-04-12T10:22:39.002Z</time></trkpt><trkpt lat="45.6306333" lon="8.6532283"><ele>172.2</ele><time>2026-04-12T10:22:40.002Z</time></trkpt><trkpt lat="45.6306767" lon="8.6530933"><ele>172.39999999999998</ele><time>2026-04-12T10:22:41.003Z</time></trkpt><trkpt lat="45.630715" lon="8.65295"><ele>172.60000000000002</ele><time>2026-04-12T10:22:42.002Z</time></trkpt><trkpt lat="45.63078" lon="8.6528067"><ele>172.8</ele><time>2026-04-12T10:22:43.002Z</time></trkpt><trkpt lat="45.6308367" lon="8.6526617"><ele>173.0</ele><time>2026-04-12T10:22:44.002Z</time></trkpt><trkpt lat="45.63089" lon="8.6525067"><ele>173.0</ele><time>2026-04-12T10:22:45.003Z</time></trkpt><trkpt lat="45.63095" lon="8.652355"><ele>173.0</ele><time>2026-04-12T10:22:46.002Z</time></trkpt><trkpt lat="45.631005" lon="8.6522033"><ele>173.0</ele><time>2026-04-12T10:22:47.002Z</time></trkpt><trkpt lat="45.6310567" lon="8.6520467"><ele>173.0</ele><time>2026-04-12T10:22:48.002Z</time></trkpt><trkpt lat="45.6311083" lon="8.6518967"><ele>173.8</ele><time>2026-04-12T10:22:49.002Z</time></trkpt><trkpt lat="45.6311567" lon="8.6517517"><ele>174.60000000000002</ele><time>2026-04-12T10:22:50.003Z</time></trkpt><trkpt lat="45.6312133" lon="8.6516233"><ele>175.39999999999998</ele><time>2026-04-12T10:22:51.003Z</time></trkpt><trkpt lat="45.6312583" lon="8.65151"><ele>176.2</ele><time>2026-04-12T10:22:52.002Z</time></trkpt><trkpt lat="45.631315" lon="8.6513967"><ele>177.0</ele><time>2026-04-12T10:22:53.003Z</time></trkpt><trkpt lat="45.6313667" lon="8.6512717"><ele>177.0</ele><time>2026-04-12T10:22:54.003Z</time></trkpt><trkpt lat="45.6314167" lon="8.651135"><ele>177.0</ele><time>2026-04-12T10:22:55.003Z</time></trkpt><trkpt lat="45.631455" lon="8.6510133"><ele>177.0</ele><time>2026-04-12T10:22:56.002Z</time></trkpt><trkpt lat="45.6314817" lon="8.6509167"><ele>177.0</ele><time>2026-04-12T10:22:57.002Z</time></trkpt><trkpt lat="45.6315233" lon="8.6507917"><ele>177.0</ele><time>2026-04-12T10:22:59.003Z</time></trkpt><trkpt lat="45.6316017" lon="8.6507383"><ele>176.6</ele><time>2026-04-12T10:23:02.002Z</time></trkpt><trkpt lat="45.6317183" lon="8.6507483"><ele>176.2</ele><time>2026-04-12T10:23:04.002Z</time></trkpt><trkpt lat="45.631805" lon="8.650735"><ele>175.8</ele><time>2026-04-12T10:23:05.002Z</time></trkpt><trkpt lat="45.63191" lon="8.6507167"><ele>175.4</ele><time>2026-04-12T10:23:06.002Z</time></trkpt><trkpt lat="45.632025" lon="8.6506967"><ele>175.0</ele><time>2026-04-12T10:23:07.002Z</time></trkpt><trkpt lat="45.6321317" lon="8.6506833"><ele>175.0</ele><time>2026-04-12T10:23:08.002Z</time></trkpt><trkpt lat="45.632225" lon="8.6506667"><ele>175.0</ele><time>2026-04-12T10:23:09.002Z</time></trkpt><trkpt lat="45.6323133" lon="8.6506383"><ele>175.0</ele><time>2026-04-12T10:23:10.002Z</time></trkpt><trkpt lat="45.6324067" lon="8.650595"><ele>175.0</ele><time>2026-04-12T10:23:11.003Z</time></trkpt><trkpt lat="45.632495" lon="8.6505517"><ele>175.0</ele><time>2026-04-12T10:23:12.002Z</time></trkpt><trkpt lat="45.6325933" lon="8.6505217"><ele>175.0</ele><time>2026-04-12T10:23:13.003Z</time></trkpt><trkpt lat="45.6326933" lon="8.65051"><ele>175.0</ele><time>2026-04-12T10:23:14.002Z</time></trkpt><trkpt lat="45.632795" lon="8.6504967"><ele>175.0</ele><time>2026-04-12T10:23:15.003Z</time></trkpt><trkpt lat="45.6328933" lon="8.650475"><ele>175.0</ele><time>2026-04-12T10:23:16.002Z</time></trkpt><trkpt lat="45.6329917" lon="8.6504567"><ele>175.0</ele><time>2026-04-12T10:23:17.002Z</time></trkpt><trkpt lat="45.6330967" lon="8.6504433"><ele>175.0</ele><time>2026-04-12T10:23:18.003Z</time></trkpt><trkpt lat="45.633215" lon="8.6504183"><ele>175.0</ele><time>2026-04-12T10:23:19.002Z</time></trkpt><trkpt lat="45.6333417" lon="8.65039"><ele>175.0</ele><time>2026-04-12T10:23:20.002Z</time></trkpt><trkpt lat="45.6334733" lon="8.650355"><ele>175.0</ele><time>2026-04-12T10:23:21.003Z</time></trkpt><trkpt lat="45.6336083" lon="8.6503167"><ele>174.5</ele><time>2026-04-12T10:23:22.002Z</time></trkpt><trkpt lat="45.63375" lon="8.65028"><ele>174.0</ele><time>2026-04-12T10:23:23.002Z</time></trkpt><trkpt lat="45.6338867" lon="8.650255"><ele>173.5</ele><time>2026-04-12T10:23:24.003Z</time></trkpt><trkpt lat="45.634025" lon="8.6502333"><ele>173.0</ele><time>2026-04-12T10:23:25.003Z</time></trkpt><trkpt lat="45.63416" lon="8.6502117"><ele>173.0</ele><time>2026-04-12T10:23:26.002Z</time></trkpt><trkpt lat="45.6342783" lon="8.6501783"><ele>173.0</ele><time>2026-04-12T10:23:27.002Z</time></trkpt><trkpt lat="45.6343867" lon="8.6501417"><ele>173.0</ele><time>2026-04-12T10:23:28.003Z</time></trkpt><trkpt lat="45.63449" lon="8.650105"><ele>173.0</ele><time>2026-04-12T10:23:29.002Z</time></trkpt><trkpt lat="45.634585" lon="8.6500883"><ele>173.0</ele><time>2026-04-12T10:23:30.002Z</time></trkpt><trkpt lat="45.634675" lon="8.650095"><ele>173.0</ele><time>2026-04-12T10:23:31.002Z</time></trkpt><trkpt lat="45.6347833" lon="8.6501367"><ele>173.0</ele><time>2026-04-12T10:23:32.002Z</time></trkpt><trkpt lat="45.6348817" lon="8.6502133"><ele>173.0</ele><time>2026-04-12T10:23:33.002Z</time></trkpt><trkpt lat="45.63498" lon="8.6502783"><ele>173.0</ele><time>2026-04-12T10:23:34.003Z</time></trkpt><trkpt lat="45.6350883" lon="8.6503367"><ele>173.0</ele><time>2026-04-12T10:23:35.002Z</time></trkpt><trkpt lat="45.63519" lon="8.65038"><ele>173.0</ele><time>2026-04-12T10:23:36.002Z</time></trkpt><trkpt lat="45.63529" lon="8.65042"><ele>173.0</ele><time>2026-04-12T10:23:37.002Z</time></trkpt><trkpt lat="45.6353883" lon="8.6504733"><ele>173.0</ele><time>2026-04-12T10:23:38.002Z</time></trkpt><trkpt lat="45.6354733" lon="8.6505167"><ele>173.0</ele><time>2026-04-12T10:23:39.002Z</time></trkpt><trkpt lat="45.6355567" lon="8.6505533"><ele>173.0</ele><time>2026-04-12T10:23:40.002Z</time></trkpt><trkpt lat="45.6356317" lon="8.6505883"><ele>172.83333333333331</ele><time>2026-04-12T10:23:41.002Z</time></trkpt><trkpt lat="45.6356983" lon="8.6506217"><ele>172.66666666666666</ele><time>2026-04-12T10:23:42.002Z</time></trkpt><trkpt lat="45.6357817" lon="8.6506433"><ele>172.5</ele><time>2026-04-12T10:23:44.003Z</time></trkpt><trkpt lat="45.6358567" lon="8.65066"><ele>172.33333333333334</ele><time>2026-04-12T10:23:55.002Z</time></trkpt><trkpt lat="45.63595" lon="8.6507183"><ele>172.16666666666669</ele><time>2026-04-12T10:23:57.002Z</time></trkpt><trkpt lat="45.63601" lon="8.6507583"><ele>172.0</ele><time>2026-04-12T10:23:58.002Z</time></trkpt><trkpt lat="45.6360867" lon="8.6508183"><ele>172.0</ele><time>2026-04-12T10:23:59.003Z</time></trkpt><trkpt lat="45.6361783" lon="8.65089"><ele>172.0</ele><time>2026-04-12T10:24:00.002Z</time></trkpt><trkpt lat="45.636265" lon="8.650955"><ele>172.0</ele><time>2026-04-12T10:24:01.003Z</time></trkpt><trkpt lat="45.6363483" lon="8.6510083"><ele>172.0</ele><time>2026-04-12T10:24:02.003Z</time></trkpt><trkpt lat="45.6364467" lon="8.65108"><ele>172.0</ele><time>2026-04-12T10:24:03.002Z</time></trkpt><trkpt lat="45.636545" lon="8.6511583"><ele>172.0</ele><time>2026-04-12T10:24:04.002Z</time></trkpt><trkpt lat="45.6366467" lon="8.6512433"><ele>172.0</ele><time>2026-04-12T10:24:05.003Z</time></trkpt><trkpt lat="45.6367567" lon="8.6513267"><ele>172.0</ele><time>2026-04-12T10:24:06.003Z</time></trkpt><trkpt lat="45.6368567" lon="8.6513933"><ele>172.0</ele><time>2026-04-12T10:24:07.002Z</time></trkpt><trkpt lat="45.6369467" lon="8.6514517"><ele>172.2</ele><time>2026-04-12T10:24:08.003Z</time></trkpt><trkpt lat="45.6370417" lon="8.651515"><ele>172.39999999999998</ele><time>2026-04-12T10:24:09.002Z</time></trkpt><trkpt lat="45.637125" lon="8.651575"><ele>172.60000000000002</ele><time>2026-04-12T10:24:10.002Z</time></trkpt><trkpt lat="45.6372133" lon="8.651645"><ele>172.8</ele><time>2026-04-12T10:24:11.002Z</time></trkpt><trkpt lat="45.6372983" lon="8.65173"><ele>173.0</ele><time>2026-04-12T10:24:12.003Z</time></trkpt><trkpt lat="45.6373833" lon="8.6518267"><ele>173.0</ele><time>2026-04-12T10:24:13.003Z</time></trkpt><trkpt lat="45.6374633" lon="8.6519217"><ele>173.0</ele><time>2026-04-12T10:24:14.003Z</time></trkpt><trkpt lat="45.63755" lon="8.6520067"><ele>173.0</ele><time>2026-04-12T10:24:15.002Z</time></trkpt><trkpt lat="45.637635" lon="8.652085"><ele>173.0</ele><time>2026-04-12T10:24:16.003Z</time></trkpt><trkpt lat="45.637725" lon="8.6521583"><ele>173.0</ele><time>2026-04-12T10:24:17.002Z</time></trkpt><trkpt lat="45.637815" lon="8.6522233"><ele>174.16666666666666</ele><time>2026-04-12T10:24:18.003Z</time></trkpt><trkpt lat="45.6378967" lon="8.6522933"><ele>175.33333333333331</ele><time>2026-04-12T10:24:19.002Z</time></trkpt><trkpt lat="45.6379733" lon="8.65235"><ele>176.5</ele><time>2026-04-12T10:24:20.002Z</time></trkpt><trkpt lat="45.638045" lon="8.652395"><ele>177.66666666666666</ele><time>2026-04-12T10:24:21.002Z</time></trkpt><trkpt lat="45.6381167" lon="8.65245"><ele>178.83333333333334</ele><time>2026-04-12T10:24:22.003Z</time></trkpt><trkpt lat="45.6381983" lon="8.6525017"><ele>180.0</ele><time>2026-04-12T10:24:23.002Z</time></trkpt><trkpt lat="45.6382817" lon="8.6525567"><ele>180.0</ele><time>2026-04-12T10:24:24.002Z</time></trkpt><trkpt lat="45.6383633" lon="8.6526067"><ele>180.0</ele><time>2026-04-12T10:24:25.003Z</time></trkpt><trkpt lat="45.638445" lon="8.6526583"><ele>180.0</ele><time>2026-04-12T10:24:26.002Z</time></trkpt><trkpt lat="45.63853" lon="8.652715"><ele>180.0</ele><time>2026-04-12T10:24:27.002Z</time></trkpt><trkpt lat="45.63861" lon="8.6527633"><ele>180.0</ele><time>2026-04-12T10:24:28.002Z</time></trkpt><trkpt lat="45.638695" lon="8.6528167"><ele>179.8</ele><time>2026-04-12T10:24:29.002Z</time></trkpt><trkpt lat="45.6387833" lon="8.6528717"><ele>179.6</ele><time>2026-04-12T10:24:30.002Z</time></trkpt><trkpt lat="45.6388783" lon="8.6529317"><ele>179.39999999999998</ele><time>2026-04-12T10:24:31.002Z</time></trkpt><trkpt lat="45.6389733" lon="8.6530017"><ele>179.2</ele><time>2026-04-12T10:24:32.003Z</time></trkpt><trkpt lat="45.63906" lon="8.6530633"><ele>179.0</ele><time>2026-04-12T10:24:33.002Z</time></trkpt><trkpt lat="45.6391617" lon="8.6531317"><ele>179.0</ele><time>2026-04-12T10:24:34.002Z</time></trkpt><trkpt lat="45.6392483" lon="8.6531867"><ele>179.0</ele><time>2026-04-12T10:24:35.002Z</time></trkpt><trkpt lat="45.6393367" lon="8.6532417"><ele>179.0</ele><time>2026-04-12T10:24:36.002Z</time></trkpt><trkpt lat="45.63942" lon="8.6533"><ele>179.0</ele><time>2026-04-12T10:24:37.003Z</time></trkpt><trkpt lat="45.6394917" lon="8.65335"><ele>179.0</ele><time>2026-04-12T10:24:38.002Z</time></trkpt><trkpt lat="45.6395467" lon="8.6534"><ele>179.0</ele><time>2026-04-12T10:24:39.002Z</time></trkpt><trkpt lat="45.63963" lon="8.6535017"><ele>179.0</ele><time>2026-04-12T10:24:41.002Z</time></trkpt><trkpt lat="45.6396633" lon="8.65362"><ele>179.0</ele><time>2026-04-12T10:24:43.002Z</time></trkpt><trkpt lat="45.639705" lon="8.6537667"><ele>179.0</ele><time>2026-04-12T10:24:45.002Z</time></trkpt><trkpt lat="45.6397467" lon="8.6538583"><ele>179.0</ele><time>2026-04-12T10:24:46.002Z</time></trkpt><trkpt lat="45.63979" lon="8.6539483"><ele>179.0</ele><time>2026-04-12T10:24:47.002Z</time></trkpt><trkpt lat="45.6398433" lon="8.6540583"><ele>179.0</ele><time>2026-04-12T10:24:48.002Z</time></trkpt><trkpt lat="45.639895" lon="8.6541733"><ele>179.0</ele><time>2026-04-12T10:24:49.003Z</time></trkpt><trkpt lat="45.6399483" lon="8.6542967"><ele>179.0</ele><time>2026-04-12T10:24:50.003Z</time></trkpt><trkpt lat="45.6399967" lon="8.654415"><ele>179.0</ele><time>2026-04-12T10:24:51.002Z</time></trkpt><trkpt lat="45.640035" lon="8.6545183"><ele>179.0</ele><time>2026-04-12T10:24:52.002Z</time></trkpt><trkpt lat="45.64008" lon="8.6545967"><ele>179.0</ele><time>2026-04-12T10:24:53.002Z</time></trkpt><trkpt lat="45.6401283" lon="8.654655"><ele>179.0</ele><time>2026-04-12T10:24:54.002Z</time></trkpt><trkpt lat="45.6402717" lon="8.6546833"><ele>179.0</ele><time>2026-04-12T10:24:56.002Z</time></trkpt><trkpt lat="45.6403833" lon="8.65465"><ele>179.0</ele><time>2026-04-12T10:24:57.002Z</time></trkpt><trkpt lat="45.640495" lon="8.65461"><ele>179.0</ele><time>2026-04-12T10:24:58.002Z</time></trkpt><trkpt lat="45.6405917" lon="8.65458"><ele>179.0</ele><time>2026-04-12T10:24:59.002Z</time></trkpt><trkpt lat="45.640685" lon="8.6545483"><ele>179.0</ele><time>2026-04-12T10:25:00.003Z</time></trkpt><trkpt lat="45.6407867" lon="8.65453"><ele>179.0</ele><time>2026-04-12T10:25:01.002Z</time></trkpt><trkpt lat="45.64088" lon="8.6545233"><ele>179.0</ele><time>2026-04-12T10:25:02.003Z</time></trkpt><trkpt lat="45.6409717" lon="8.65453"><ele>179.0</ele><time>2026-04-12T10:25:03.002Z</time></trkpt><trkpt lat="45.6410667" lon="8.6545433"><ele>179.0</ele><time>2026-04-12T10:25:04.002Z</time></trkpt><trkpt lat="45.6411617" lon="8.6545667"><ele>179.0</ele><time>2026-04-12T10:25:05.003Z</time></trkpt><trkpt lat="45.6412667" lon="8.65459"><ele>179.0</ele><time>2026-04-12T10:25:06.002Z</time></trkpt><trkpt lat="45.6413667" lon="8.6546167"><ele>179.0</ele><time>2026-04-12T10:25:07.003Z</time></trkpt><trkpt lat="45.6414617" lon="8.654645"><ele>179.0</ele><time>2026-04-12T10:25:08.002Z</time></trkpt><trkpt lat="45.64157" lon="8.6546667"><ele>179.0</ele><time>2026-04-12T10:25:09.003Z</time></trkpt><trkpt lat="45.6416817" lon="8.6546867"><ele>179.0</ele><time>2026-04-12T10:25:10.002Z</time></trkpt><trkpt lat="45.6418" lon="8.65471"><ele>179.0</ele><time>2026-04-12T10:25:11.002Z</time></trkpt><trkpt lat="45.6419233" lon="8.6547317"><ele>179.0</ele><time>2026-04-12T10:25:12.002Z</time></trkpt><trkpt lat="45.6420633" lon="8.65476"><ele>179.0</ele><time>2026-04-12T10:25:13.003Z</time></trkpt><trkpt lat="45.6421983" lon="8.6547783"><ele>179.0</ele><time>2026-04-12T10:25:14.003Z</time></trkpt><trkpt lat="45.6423167" lon="8.6547917"><ele>179.0</ele><time>2026-04-12T10:25:15.002Z</time></trkpt><trkpt lat="45.6424333" lon="8.6548083"><ele>179.0</ele><time>2026-04-12T10:25:16.002Z</time></trkpt><trkpt lat="45.642545" lon="8.654825"><ele>179.0</ele><time>2026-04-12T10:25:17.003Z</time></trkpt><trkpt lat="45.6426467" lon="8.65485"><ele>179.0</ele><time>2026-04-12T10:25:18.003Z</time></trkpt><trkpt lat="45.642735" lon="8.6548783"><ele>179.0</ele><time>2026-04-12T10:25:19.002Z</time></trkpt><trkpt lat="45.6428267" lon="8.6548983"><ele>179.5</ele><time>2026-04-12T10:25:20.002Z</time></trkpt><trkpt lat="45.64291" lon="8.6549133"><ele>180.0</ele><time>2026-04-12T10:25:21.003Z</time></trkpt><trkpt lat="45.6429883" lon="8.6549267"><ele>180.5</ele><time>2026-04-12T10:25:22.003Z</time></trkpt><trkpt lat="45.6430667" lon="8.6549433"><ele>181.0</ele><time>2026-04-12T10:25:23.002Z</time></trkpt><trkpt lat="45.6431367" lon="8.654955"><ele>181.5</ele><time>2026-04-12T10:25:24.002Z</time></trkpt><trkpt lat="45.6432433" lon="8.6549733"><ele>182.0</ele><time>2026-04-12T10:25:26.002Z</time></trkpt><trkpt lat="45.6433067" lon="8.6549817"><ele>182.0</ele><time>2026-04-12T10:25:29.003Z</time></trkpt><trkpt lat="45.6434133" lon="8.6549917"><ele>182.0</ele><time>2026-04-12T10:25:32.002Z</time></trkpt><trkpt lat="45.6434767" lon="8.655"><ele>182.0</ele><time>2026-04-12T10:25:33.002Z</time></trkpt><trkpt lat="45.64355" lon="8.6550133"><ele>182.0</ele><time>2026-04-12T10:25:34.002Z</time></trkpt><trkpt lat="45.643635" lon="8.65503"><ele>182.0</ele><time>2026-04-12T10:25:35.003Z</time></trkpt><trkpt lat="45.6437183" lon="8.6550433"><ele>182.0</ele><time>2026-04-12T10:25:36.003Z</time></trkpt><trkpt lat="45.6438" lon="8.6550567"><ele>181.8</ele><time>2026-04-12T10:25:37.002Z</time></trkpt><trkpt lat="45.6438867" lon="8.6550683"><ele>181.6</ele><time>2026-04-12T10:25:38.002Z</time></trkpt><trkpt lat="45.6439833" lon="8.6550833"><ele>181.4</ele><time>2026-04-12T10:25:39.002Z</time></trkpt><trkpt lat="45.6440883" lon="8.6551017"><ele>181.20000000000002</ele><time>2026-04-12T10:25:40.002Z</time></trkpt><trkpt lat="45.6441917" lon="8.6551183"><ele>181.0</ele><time>2026-04-12T10:25:41.003Z</time></trkpt><trkpt lat="45.64429" lon="8.6551333"><ele>181.0</ele><time>2026-04-12T10:25:42.003Z</time></trkpt><trkpt lat="45.6443883" lon="8.6551533"><ele>181.0</ele><time>2026-04-12T10:25:43.003Z</time></trkpt><trkpt lat="45.6444983" lon="8.6551733"><ele>181.0</ele><time>2026-04-12T10:25:44.003Z</time></trkpt><trkpt lat="45.6446133" lon="8.6551933"><ele>181.0</ele><time>2026-04-12T10:25:45.003Z</time></trkpt><trkpt lat="45.6447233" lon="8.6552183"><ele>181.0</ele><time>2026-04-12T10:25:46.002Z</time></trkpt><trkpt lat="45.6448333" lon="8.65524"><ele>181.0</ele><time>2026-04-12T10:25:47.002Z</time></trkpt><trkpt lat="45.6449417" lon="8.6552683"><ele>181.0</ele><time>2026-04-12T10:25:48.002Z</time></trkpt><trkpt lat="45.64505" lon="8.655295"><ele>181.0</ele><time>2026-04-12T10:25:49.002Z</time></trkpt><trkpt lat="45.645155" lon="8.6553167"><ele>181.0</ele><time>2026-04-12T10:25:50.003Z</time></trkpt><trkpt lat="45.6452567" lon="8.6553383"><ele>181.0</ele><time>2026-04-12T10:25:51.002Z</time></trkpt><trkpt lat="45.645355" lon="8.65536"><ele>181.0</ele><time>2026-04-12T10:25:52.002Z</time></trkpt><trkpt lat="45.6454533" lon="8.655375"><ele>181.0</ele><time>2026-04-12T10:25:53.003Z</time></trkpt><trkpt lat="45.645545" lon="8.655395"><ele>181.0</ele><time>2026-04-12T10:25:54.002Z</time></trkpt><trkpt lat="45.6456383" lon="8.6554117"><ele>181.0</ele><time>2026-04-12T10:25:55.003Z</time></trkpt><trkpt lat="45.6457333" lon="8.6554233"><ele>181.0</ele><time>2026-04-12T10:25:56.002Z</time></trkpt><trkpt lat="45.6458333" lon="8.6554383"><ele>181.0</ele><time>2026-04-12T10:25:57.003Z</time></trkpt><trkpt lat="45.6459467" lon="8.6554633"><ele>181.0</ele><time>2026-04-12T10:25:58.002Z</time></trkpt><trkpt lat="45.6460517" lon="8.6554833"><ele>181.0</ele><time>2026-04-12T10:25:59.002Z</time></trkpt><trkpt lat="45.64616" lon="8.6555"><ele>181.0</ele><time>2026-04-12T10:26:00.002Z</time></trkpt><trkpt lat="45.646275" lon="8.655525"><ele>181.0</ele><time>2026-04-12T10:26:01.002Z</time></trkpt><trkpt lat="45.6464" lon="8.6555517"><ele>182.0</ele><time>2026-04-12T10:26:02.002Z</time></trkpt><trkpt lat="45.6465267" lon="8.655575"><ele>183.0</ele><time>2026-04-12T10:26:03.002Z</time></trkpt><trkpt lat="45.6466483" lon="8.6556"><ele>184.0</ele><time>2026-04-12T10:26:04.003Z</time></trkpt><trkpt lat="45.6467717" lon="8.6556283"><ele>185.0</ele><time>2026-04-12T10:26:05.003Z</time></trkpt><trkpt lat="45.6468933" lon="8.6556517"><ele>185.0</ele><time>2026-04-12T10:26:06.002Z</time></trkpt><trkpt lat="45.6470117" lon="8.6556733"><ele>185.0</ele><time>2026-04-12T10:26:07.002Z</time></trkpt><trkpt lat="45.6471267" lon="8.6556917"><ele>185.0</ele><time>2026-04-12T10:26:08.003Z</time></trkpt><trkpt lat="45.647225" lon="8.655705"><ele>185.0</ele><time>2026-04-12T10:26:09.002Z</time></trkpt><trkpt lat="45.6473167" lon="8.65572"><ele>185.0</ele><time>2026-04-12T10:26:10.003Z</time></trkpt><trkpt lat="45.6474033" lon="8.655735"><ele>185.0</ele><time>2026-04-12T10:26:11.002Z</time></trkpt><trkpt lat="45.6474967" lon="8.6557517"><ele>185.0</ele><time>2026-04-12T10:26:12.002Z</time></trkpt><trkpt lat="45.6475883" lon="8.655765"><ele>185.0</ele><time>2026-04-12T10:26:13.003Z</time></trkpt><trkpt lat="45.6476817" lon="8.6557883"><ele>185.0</ele><time>2026-04-12T10:26:14.002Z</time></trkpt><trkpt lat="45.6477867" lon="8.6558117"><ele>185.0</ele><time>2026-04-12T10:26:15.003Z</time></trkpt><trkpt lat="45.647895" lon="8.6558383"><ele>185.0</ele><time>2026-04-12T10:26:16.003Z</time></trkpt><trkpt lat="45.6479983" lon="8.65586"><ele>185.0</ele><time>2026-04-12T10:26:17.002Z</time></trkpt><trkpt lat="45.6481033" lon="8.655875"><ele>185.0</ele><time>2026-04-12T10:26:18.002Z</time></trkpt><trkpt lat="45.6482183" lon="8.6558917"><ele>185.0</ele><time>2026-04-12T10:26:19.002Z</time></trkpt><trkpt lat="45.6483333" lon="8.6559117"><ele>185.0</ele><time>2026-04-12T10:26:20.002Z</time></trkpt><trkpt lat="45.6484417" lon="8.6559317"><ele>185.0</ele><time>2026-04-12T10:26:21.002Z</time></trkpt><trkpt lat="45.648545" lon="8.6559583"><ele>185.0</ele><time>2026-04-12T10:26:22.002Z</time></trkpt><trkpt lat="45.6486483" lon="8.6559833"><ele>185.0</ele><time>2026-04-12T10:26:23.002Z</time></trkpt><trkpt lat="45.6487517" lon="8.656005"><ele>185.0</ele><time>2026-04-12T10:26:24.002Z</time></trkpt><trkpt lat="45.6488583" lon="8.65602"><ele>185.0</ele><time>2026-04-12T10:26:25.003Z</time></trkpt><trkpt lat="45.648975" lon="8.6560367"><ele>185.2</ele><time>2026-04-12T10:26:26.002Z</time></trkpt><trkpt lat="45.64909" lon="8.6560617"><ele>185.4</ele><time>2026-04-12T10:26:27.003Z</time></trkpt><trkpt lat="45.649195" lon="8.6560767"><ele>185.60000000000002</ele><time>2026-04-12T10:26:28.003Z</time></trkpt><trkpt lat="45.6492833" lon="8.6560917"><ele>185.8</ele><time>2026-04-12T10:26:29.002Z</time></trkpt><trkpt lat="45.6493633" lon="8.6561083"><ele>186.0</ele><time>2026-04-12T10:26:30.002Z</time></trkpt><trkpt lat="45.6494483" lon="8.656125"><ele>186.20000000000002</ele><time>2026-04-12T10:26:31.002Z</time></trkpt><trkpt lat="45.6495417" lon="8.65614"><ele>186.4</ele><time>2026-04-12T10:26:32.002Z</time></trkpt><trkpt lat="45.6496383" lon="8.6561533"><ele>186.6</ele><time>2026-04-12T10:26:33.003Z</time></trkpt><trkpt lat="45.6497267" lon="8.6561683"><ele>186.8</ele><time>2026-04-12T10:26:34.002Z</time></trkpt><trkpt lat="45.6498183" lon="8.6561833"><ele>187.0</ele><time>2026-04-12T10:26:35.002Z</time></trkpt><trkpt lat="45.649915" lon="8.6561967"><ele>187.0</ele><time>2026-04-12T10:26:36.002Z</time></trkpt><trkpt lat="45.650005" lon="8.65621"><ele>187.0</ele><time>2026-04-12T10:26:37.002Z</time></trkpt><trkpt lat="45.650095" lon="8.6562267"><ele>187.0</ele><time>2026-04-12T10:26:38.002Z</time></trkpt><trkpt lat="45.650185" lon="8.656245"><ele>187.0</ele><time>2026-04-12T10:26:39.002Z</time></trkpt><trkpt lat="45.6502817" lon="8.6562683"><ele>187.0</ele><time>2026-04-12T10:26:40.003Z</time></trkpt><trkpt lat="45.65037" lon="8.656285"><ele>187.2</ele><time>2026-04-12T10:26:41.003Z</time></trkpt><trkpt lat="45.6504583" lon="8.656305"><ele>187.39999999999998</ele><time>2026-04-12T10:26:42.002Z</time></trkpt><trkpt lat="45.65055" lon="8.6563217"><ele>187.60000000000002</ele><time>2026-04-12T10:26:43.003Z</time></trkpt><trkpt lat="45.6506417" lon="8.6563333"><ele>187.8</ele><time>2026-04-12T10:26:44.002Z</time></trkpt><trkpt lat="45.65073" lon="8.6563483"><ele>188.0</ele><time>2026-04-12T10:26:45.003Z</time></trkpt><trkpt lat="45.65082" lon="8.6563617"><ele>188.0</ele><time>2026-04-12T10:26:46.002Z</time></trkpt><trkpt lat="45.6509017" lon="8.6563783"><ele>188.0</ele><time>2026-04-12T10:26:47.002Z</time></trkpt><trkpt lat="45.65098" lon="8.6563967"><ele>188.0</ele><time>2026-04-12T10:26:48.002Z</time></trkpt><trkpt lat="45.6510483" lon="8.6564133"><ele>188.0</ele><time>2026-04-12T10:26:49.003Z</time></trkpt><trkpt lat="45.651135" lon="8.65641"><ele>188.0</ele><time>2026-04-12T10:26:51.002Z</time></trkpt><trkpt lat="45.65119" lon="8.6563017"><ele>188.0</ele><time>2026-04-12T10:26:54.003Z</time></trkpt><trkpt lat="45.6512" lon="8.656155"><ele>187.0</ele><time>2026-04-12T10:26:56.002Z</time></trkpt><trkpt lat="45.6512015" lon="8.6560429"><ele>186.0</ele><time>2026-04-12T10:26:57.002Z</time></trkpt><trkpt lat="45.6512107" lon="8.6559189"><ele>185.0</ele><time>2026-04-12T10:26:58.002Z</time></trkpt><trkpt lat="45.651227" lon="8.6557965"><ele>184.0</ele><time>2026-04-12T10:26:59.002Z</time></trkpt><trkpt lat="45.6512433" lon="8.6556774"><ele>183.0</ele><time>2026-04-12T10:27:00.003Z</time></trkpt><trkpt lat="45.6512627" lon="8.6555887"><ele>182.0</ele><time>2026-04-12T10:27:01.003Z</time></trkpt><trkpt lat="45.6512796" lon="8.6554157"><ele>182.0</ele><time>2026-04-12T10:27:03.002Z</time></trkpt><trkpt lat="45.651291" lon="8.6553089"><ele>182.0</ele><time>2026-04-12T10:27:04.002Z</time></trkpt><trkpt lat="45.6513043" lon="8.655197"><ele>182.0</ele><time>2026-04-12T10:27:05.003Z</time></trkpt><trkpt lat="45.6513127" lon="8.6550912"><ele>182.0</ele><time>2026-04-12T10:27:06.002Z</time></trkpt><trkpt lat="45.6513287" lon="8.6549805"><ele>182.0</ele><time>2026-04-12T10:27:07.003Z</time></trkpt><trkpt lat="45.6513434" lon="8.6548743"><ele>182.0</ele><time>2026-04-12T10:27:08.002Z</time></trkpt><trkpt lat="45.6513555" lon="8.6547778"><ele>182.39999999999998</ele><time>2026-04-12T10:27:09.003Z</time></trkpt><trkpt lat="45.6513899" lon="8.6546272"><ele>182.79999999999998</ele><time>2026-04-12T10:27:11.002Z</time></trkpt><trkpt lat="45.6514486" lon="8.6545584"><ele>183.2</ele><time>2026-04-12T10:27:13.002Z</time></trkpt><trkpt lat="45.6515535" lon="8.6545615"><ele>183.6</ele><time>2026-04-12T10:27:15.003Z</time></trkpt><trkpt lat="45.6516847" lon="8.6546095"><ele>184.0</ele><time>2026-04-12T10:27:17.003Z</time></trkpt><trkpt lat="45.6517725" lon="8.6546351"><ele>184.0</ele><time>2026-04-12T10:27:18.002Z</time></trkpt><trkpt lat="45.6518746" lon="8.6546615"><ele>184.0</ele><time>2026-04-12T10:27:19.002Z</time></trkpt><trkpt lat="45.6519741" lon="8.6546818"><ele>184.0</ele><time>2026-04-12T10:27:20.002Z</time></trkpt><trkpt lat="45.6520659" lon="8.6546994"><ele>184.0</ele><time>2026-04-12T10:27:21.002Z</time></trkpt><trkpt lat="45.6521533" lon="8.6547109"><ele>184.0</ele><time>2026-04-12T10:27:22.002Z</time></trkpt><trkpt lat="45.6522385" lon="8.6547115"><ele>184.0</ele><time>2026-04-12T10:27:23.003Z</time></trkpt><trkpt lat="45.6523199" lon="8.6546895"><ele>184.0</ele><time>2026-04-12T10:27:24.003Z</time></trkpt><trkpt lat="45.6524025" lon="8.6546489"><ele>184.0</ele><time>2026-04-12T10:27:25.002Z</time></trkpt><trkpt lat="45.6524823" lon="8.6545843"><ele>184.0</ele><time>2026-04-12T10:27:26.002Z</time></trkpt><trkpt lat="45.6525669" lon="8.6545139"><ele>184.0</ele><time>2026-04-12T10:27:27.002Z</time></trkpt><trkpt lat="45.6526674" lon="8.654445"><ele>182.25</ele><time>2026-04-12T10:27:28.003Z</time></trkpt><trkpt lat="45.6527853" lon="8.6543781"><ele>180.5</ele><time>2026-04-12T10:27:29.002Z</time></trkpt><trkpt lat="45.6529051" lon="8.6543108"><ele>178.75</ele><time>2026-04-12T10:27:30.003Z</time></trkpt><trkpt lat="45.6530126" lon="8.6542287"><ele>177.0</ele><time>2026-04-12T10:27:31.002Z</time></trkpt><trkpt lat="45.6531126" lon="8.6541342"><ele>177.0</ele><time>2026-04-12T10:27:32.002Z</time></trkpt><trkpt lat="45.6532132" lon="8.6540478"><ele>177.0</ele><time>2026-04-12T10:27:33.002Z</time></trkpt><trkpt lat="45.6533232" lon="8.6539668"><ele>177.0</ele><time>2026-04-12T10:27:34.003Z</time></trkpt><trkpt lat="45.6534367" lon="8.6539033"><ele>177.0</ele><time>2026-04-12T10:27:35.002Z</time></trkpt><trkpt lat="45.6535683" lon="8.6538367"><ele>176.75</ele><time>2026-04-12T10:27:36.002Z</time></trkpt><trkpt lat="45.6536933" lon="8.653775"><ele>176.5</ele><time>2026-04-12T10:27:37.003Z</time></trkpt><trkpt lat="45.653815" lon="8.65372"><ele>176.25</ele><time>2026-04-12T10:27:38.002Z</time></trkpt><trkpt lat="45.6539317" lon="8.6536683"><ele>176.0</ele><time>2026-04-12T10:27:39.002Z</time></trkpt><trkpt lat="45.6540433" lon="8.6536133"><ele>175.8</ele><time>2026-04-12T10:27:40.003Z</time></trkpt><trkpt lat="45.65416" lon="8.65357"><ele>175.60000000000002</ele><time>2026-04-12T10:27:41.002Z</time></trkpt><trkpt lat="45.6542733" lon="8.6535167"><ele>175.4</ele><time>2026-04-12T10:27:42.002Z</time></trkpt><trkpt lat="45.654375" lon="8.653475"><ele>175.2</ele><time>2026-04-12T10:27:43.002Z</time></trkpt><trkpt lat="45.6544633" lon="8.653435"><ele>175.0</ele><time>2026-04-12T10:27:44.002Z</time></trkpt><trkpt lat="45.6545533" lon="8.653395"><ele>175.5</ele><time>2026-04-12T10:27:45.003Z</time></trkpt><trkpt lat="45.6546283" lon="8.6533667"><ele>176.0</ele><time>2026-04-12T10:27:46.002Z</time></trkpt><trkpt lat="45.6547117" lon="8.6532867"><ele>176.5</ele><time>2026-04-12T10:27:48.002Z</time></trkpt><trkpt lat="45.65473" lon="8.6531467"><ele>177.0</ele><time>2026-04-12T10:27:50.002Z</time></trkpt><trkpt lat="45.6547083" lon="8.6530583"><ele>177.5</ele><time>2026-04-12T10:27:51.002Z</time></trkpt><trkpt lat="45.6546783" lon="8.652965"><ele>178.0</ele><time>2026-04-12T10:27:52.002Z</time></trkpt><trkpt lat="45.6546683" lon="8.652795"><ele>178.60000000000002</ele><time>2026-04-12T10:27:54.003Z</time></trkpt><trkpt lat="45.6547567" lon="8.6526717"><ele>179.20000000000002</ele><time>2026-04-12T10:27:56.003Z</time></trkpt><trkpt lat="45.6548283" lon="8.6526183"><ele>179.8</ele><time>2026-04-12T10:27:57.002Z</time></trkpt><trkpt lat="45.6549167" lon="8.6525667"><ele>180.4</ele><time>2026-04-12T10:27:58.002Z</time></trkpt><trkpt lat="45.6550083" lon="8.6525233"><ele>181.0</ele><time>2026-04-12T10:27:59.002Z</time></trkpt><trkpt lat="45.6550967" lon="8.6524733"><ele>181.0</ele><time>2026-04-12T10:28:00.003Z</time></trkpt><trkpt lat="45.6551767" lon="8.65244"><ele>181.0</ele><time>2026-04-12T10:28:01.002Z</time></trkpt><trkpt lat="45.6552583" lon="8.6523883"><ele>181.0</ele><time>2026-04-12T10:28:02.002Z</time></trkpt><trkpt lat="45.6553317" lon="8.652345"><ele>181.0</ele><time>2026-04-12T10:28:03.002Z</time></trkpt><trkpt lat="45.655405" lon="8.6523117"><ele>181.0</ele><time>2026-04-12T10:28:04.002Z</time></trkpt><trkpt lat="45.6554767" lon="8.6522883"><ele>181.0</ele><time>2026-04-12T10:28:05.002Z</time></trkpt><trkpt lat="45.6555483" lon="8.65226"><ele>182.5</ele><time>2026-04-12T10:28:06.003Z</time></trkpt><trkpt lat="45.6556267" lon="8.6522317"><ele>184.0</ele><time>2026-04-12T10:28:07.003Z</time></trkpt><trkpt lat="45.65571" lon="8.6522017"><ele>185.5</ele><time>2026-04-12T10:28:08.002Z</time></trkpt><trkpt lat="45.6557933" lon="8.652175"><ele>187.0</ele><time>2026-04-12T10:28:09.002Z</time></trkpt><trkpt lat="45.65587" lon="8.6521433"><ele>188.5</ele><time>2026-04-12T10:28:10.003Z</time></trkpt><trkpt lat="45.6559467" lon="8.652115"><ele>190.0</ele><time>2026-04-12T10:28:11.002Z</time></trkpt><trkpt lat="45.6560367" lon="8.6520767"><ele>190.0</ele><time>2026-04-12T10:28:12.002Z</time></trkpt><trkpt lat="45.656115" lon="8.6520433"><ele>190.0</ele><time>2026-04-12T10:28:13.002Z</time></trkpt><trkpt lat="45.656215" lon="8.6520117"><ele>190.0</ele><time>2026-04-12T10:28:14.003Z</time></trkpt><trkpt lat="45.656315" lon="8.651985"><ele>190.0</ele><time>2026-04-12T10:28:15.002Z</time></trkpt><trkpt lat="45.656405" lon="8.6519517"><ele>190.0</ele><time>2026-04-12T10:28:16.002Z</time></trkpt><trkpt lat="45.6564983" lon="8.6519217"><ele>189.6</ele><time>2026-04-12T10:28:17.002Z</time></trkpt><trkpt lat="45.6565933" lon="8.651885"><ele>189.2</ele><time>2026-04-12T10:28:18.003Z</time></trkpt><trkpt lat="45.65669" lon="8.6518467"><ele>188.8</ele><time>2026-04-12T10:28:19.002Z</time></trkpt><trkpt lat="45.65678" lon="8.6518067"><ele>188.4</ele><time>2026-04-12T10:28:20.002Z</time></trkpt><trkpt lat="45.6568717" lon="8.6517617"><ele>188.0</ele><time>2026-04-12T10:28:21.002Z</time></trkpt><trkpt lat="45.6569617" lon="8.65171"><ele>189.0</ele><time>2026-04-12T10:28:22.002Z</time></trkpt><trkpt lat="45.6570433" lon="8.6516417"><ele>190.0</ele><time>2026-04-12T10:28:23.002Z</time></trkpt><trkpt lat="45.6571267" lon="8.6515667"><ele>191.0</ele><time>2026-04-12T10:28:24.002Z</time></trkpt><trkpt lat="45.657205" lon="8.6514833"><ele>192.0</ele><time>2026-04-12T10:28:25.003Z</time></trkpt><trkpt lat="45.6572817" lon="8.6513967"><ele>193.0</ele><time>2026-04-12T10:28:26.002Z</time></trkpt><trkpt lat="45.6573533" lon="8.65132"><ele>192.99999999999997</ele><time>2026-04-12T10:28:27.002Z</time></trkpt><trkpt lat="45.65742" lon="8.6512433"><ele>193.0</ele><time>2026-04-12T10:28:28.003Z</time></trkpt><trkpt lat="45.6574867" lon="8.65116"><ele>193.0</ele><time>2026-04-12T10:28:29.002Z</time></trkpt><trkpt lat="45.6575517" lon="8.6510783"><ele>193.0</ele><time>2026-04-12T10:28:30.003Z</time></trkpt><trkpt lat="45.6576167" lon="8.6509983"><ele>192.99999999999997</ele><time>2026-04-12T10:28:31.002Z</time></trkpt><trkpt lat="45.6576717" lon="8.65094"><ele>193.0</ele><time>2026-04-12T10:28:32.003Z</time></trkpt><trkpt lat="45.6577417" lon="8.6508367"><ele>192.8</ele><time>2026-04-12T10:28:34.002Z</time></trkpt><trkpt lat="45.6577767" lon="8.650745"><ele>192.60000000000002</ele><time>2026-04-12T10:28:36.002Z</time></trkpt><trkpt lat="45.65787" lon="8.6507067"><ele>192.39999999999998</ele><time>2026-04-12T10:29:12.002Z</time></trkpt><trkpt lat="45.65797" lon="8.6508"><ele>192.2</ele><time>2026-04-12T10:29:14.002Z</time></trkpt><trkpt lat="45.65802" lon="8.65088"><ele>192.0</ele><time>2026-04-12T10:29:15.003Z</time></trkpt><trkpt lat="45.6580817" lon="8.65099"><ele>192.5</ele><time>2026-04-12T10:29:16.003Z</time></trkpt><trkpt lat="45.6581283" lon="8.6510867"><ele>193.0</ele><time>2026-04-12T10:29:17.002Z</time></trkpt><trkpt lat="45.6581817" lon="8.6511567"><ele>193.5</ele><time>2026-04-12T10:29:18.003Z</time></trkpt><trkpt lat="45.6582933" lon="8.651205"><ele>194.0</ele><time>2026-04-12T10:29:20.003Z</time></trkpt><trkpt lat="45.6583617" lon="8.6511883"><ele>194.5</ele><time>2026-04-12T10:29:21.003Z</time></trkpt><trkpt lat="45.658445" lon="8.6511617"><ele>195.0</ele><time>2026-04-12T10:29:22.003Z</time></trkpt><trkpt lat="45.658515" lon="8.6511167"><ele>196.2</ele><time>2026-04-12T10:29:23.002Z</time></trkpt><trkpt lat="45.6585817" lon="8.6510717"><ele>197.4</ele><time>2026-04-12T10:29:24.003Z</time></trkpt><trkpt lat="45.65865" lon="8.65104"><ele>198.60000000000002</ele><time>2026-04-12T10:29:25.002Z</time></trkpt><trkpt lat="45.6587533" lon="8.6509967"><ele>199.8</ele><time>2026-04-12T10:29:27.003Z</time></trkpt><trkpt lat="45.658875" lon="8.6509117"><ele>201.0</ele><time>2026-04-12T10:29:29.002Z</time></trkpt><trkpt lat="45.6589767" lon="8.6508617"><ele>201.83333333333334</ele><time>2026-04-12T10:29:31.002Z</time></trkpt><trkpt lat="45.6590617" lon="8.6508867"><ele>202.66666666666669</ele><time>2026-04-12T10:29:33.002Z</time></trkpt><trkpt lat="45.6591517" lon="8.6509233"><ele>203.5</ele><time>2026-04-12T10:29:35.002Z</time></trkpt><trkpt lat="45.6592117" lon="8.65098"><ele>204.33333333333334</ele><time>2026-04-12T10:29:36.002Z</time></trkpt><trkpt lat="45.6592617" lon="8.6510467"><ele>205.16666666666669</ele><time>2026-04-12T10:29:37.002Z</time></trkpt><trkpt lat="45.6593133" lon="8.6511167"><ele>206.0</ele><time>2026-04-12T10:29:38.003Z</time></trkpt><trkpt lat="45.659385" lon="8.651225"><ele>207.50000000000003</ele><time>2026-04-12T10:29:40.002Z</time></trkpt><trkpt lat="45.659465" lon="8.6512433"><ele>209.0</ele><time>2026-04-12T10:29:43.002Z</time></trkpt><trkpt lat="45.6595133" lon="8.651145"><ele>210.5</ele><time>2026-04-12T10:29:46.002Z</time></trkpt><trkpt lat="45.6595" lon="8.6510533"><ele>212.0</ele><time>2026-04-12T10:29:48.002Z</time></trkpt><trkpt lat="45.6594717" lon="8.650915"><ele>213.50000000000003</ele><time>2026-04-12T10:29:50.002Z</time></trkpt><trkpt lat="45.65943" lon="8.650805"><ele>215.0</ele><time>2026-04-12T10:29:52.002Z</time></trkpt><trkpt lat="45.6593633" lon="8.65067"><ele>215.00000000000003</ele><time>2026-04-12T10:29:54.002Z</time></trkpt><trkpt lat="45.6593033" lon="8.65054"><ele>215.0</ele><time>2026-04-12T10:29:56.002Z</time></trkpt><trkpt lat="45.6592467" lon="8.650405"><ele>215.0</ele><time>2026-04-12T10:29:58.003Z</time></trkpt><trkpt lat="45.6592567" lon="8.6503083"><ele>215.0</ele><time>2026-04-12T10:30:00.003Z</time></trkpt><trkpt lat="45.659335" lon="8.65032"><ele>215.00000000000003</ele><time>2026-04-12T10:30:02.002Z</time></trkpt><trkpt lat="45.6593983" lon="8.6503783"><ele>215.0</ele><time>2026-04-12T10:30:04.003Z</time></trkpt><trkpt lat="45.6594533" lon="8.6504667"><ele>218.4</ele><time>2026-04-12T10:30:06.003Z</time></trkpt><trkpt lat="45.6595133" lon="8.6505767"><ele>221.8</ele><time>2026-04-12T10:30:08.002Z</time></trkpt><trkpt lat="45.6595667" lon="8.6506983"><ele>225.2</ele><time>2026-04-12T10:30:10.003Z</time></trkpt><trkpt lat="45.6596117" lon="8.6508533"><ele>228.6</ele><time>2026-04-12T10:30:12.002Z</time></trkpt><trkpt lat="45.65965" lon="8.6509717"><ele>232.0</ele><time>2026-04-12T10:30:14.003Z</time></trkpt><trkpt lat="45.6596933" lon="8.65111"><ele>231.99999999999997</ele><time>2026-04-12T10:30:17.003Z</time></trkpt><trkpt lat="45.6597383" lon="8.6512383"><ele>232.0</ele><time>2026-04-12T10:30:19.002Z</time></trkpt><trkpt lat="45.6596933" lon="8.6511517"><ele>232.0</ele><time>2026-04-12T10:30:27.002Z</time></trkpt><trkpt lat="45.6596667" lon="8.65107"><ele>232.0</ele><time>2026-04-12T10:30:28.002Z</time></trkpt><trkpt lat="45.65963" lon="8.6509633"><ele>231.99999999999997</ele><time>2026-04-12T10:30:29.002Z</time></trkpt><trkpt lat="45.6596017" lon="8.65087"><ele>232.0</ele><time>2026-04-12T10:30:30.003Z</time></trkpt><trkpt lat="45.6595667" lon="8.6507733"><ele>232.0</ele><time>2026-04-12T10:30:32.002Z</time></trkpt><trkpt lat="45.659585" lon="8.650865"><ele>232.0</ele><time>2026-04-12T10:30:51.002Z</time></trkpt><trkpt lat="45.6596217" lon="8.650975"><ele>232.0</ele><time>2026-04-12T10:30:53.003Z</time></trkpt><trkpt lat="45.6596883" lon="8.6511367"><ele>232.0</ele><time>2026-04-12T10:30:55.003Z</time></trkpt><trkpt lat="45.6597467" lon="8.6512583"><ele>232.0</ele><time>2026-04-12T10:30:57.002Z</time></trkpt><trkpt lat="45.659815" lon="8.651235"><ele>231.99999999999997</ele><time>2026-04-12T10:31:00.002Z</time></trkpt><trkpt lat="45.6598217" lon="8.6511183"><ele>232.0</ele><time>2026-04-12T10:31:03.002Z</time></trkpt><trkpt lat="45.6597767" lon="8.65103"><ele>232.0</ele><time>2026-04-12T10:31:05.002Z</time></trkpt><trkpt lat="45.6597433" lon="8.6509317"><ele>232.0</ele><time>2026-04-12T10:31:07.002Z</time></trkpt><trkpt lat="45.6597167" lon="8.6508467"><ele>231.99999999999997</ele><time>2026-04-12T10:31:09.003Z</time></trkpt><trkpt lat="45.6597233" lon="8.6506883"><ele>232.0</ele><time>2026-04-12T10:31:21.003Z</time></trkpt><trkpt lat="45.659745" lon="8.6506017"><ele>231.99999999999997</ele><time>2026-04-12T10:31:22.002Z</time></trkpt><trkpt lat="45.6597817" lon="8.65052"><ele>232.0</ele><time>2026-04-12T10:31:23.003Z</time></trkpt><trkpt lat="45.6598267" lon="8.6504467"><ele>232.0</ele><time>2026-04-12T10:31:24.002Z</time></trkpt><trkpt lat="45.6598733" lon="8.6503833"><ele>232.0</ele><time>2026-04-12T10:31:25.003Z</time></trkpt><trkpt lat="45.65992" lon="8.6502633"><ele>231.99999999999997</ele><time>2026-04-12T10:31:27.003Z</time></trkpt><trkpt lat="45.6599017" lon="8.6501583"><ele>232.0</ele><time>2026-04-12T10:31:29.002Z</time></trkpt><trkpt lat="45.6598183" lon="8.650095"><ele>233.33333333333331</ele><time>2026-04-12T10:31:31.002Z</time></trkpt><trkpt lat="45.6597133" lon="8.65006"><ele>234.66666666666666</ele><time>2026-04-12T10:31:33.003Z</time></trkpt><trkpt lat="45.659645" lon="8.649985"><ele>236.0</ele><time>2026-04-12T10:31:35.002Z</time></trkpt><trkpt lat="45.659675" lon="8.6498967"><ele>237.33333333333331</ele><time>2026-04-12T10:31:38.002Z</time></trkpt><trkpt lat="45.6597467" lon="8.649905"><ele>238.66666666666666</ele><time>2026-04-12T10:31:40.002Z</time></trkpt><trkpt lat="45.6598283" lon="8.649905"><ele>240.0</ele><time>2026-04-12T10:31:42.002Z</time></trkpt><trkpt lat="45.6599167" lon="8.6499083"><ele>240.0</ele><time>2026-04-12T10:31:44.002Z</time></trkpt><trkpt lat="45.65999" lon="8.64992"><ele>240.0</ele><time>2026-04-12T10:31:46.002Z</time></trkpt><trkpt lat="45.6600467" lon="8.6499733"><ele>240.0</ele><time>2026-04-12T10:32:06.002Z</time></trkpt><trkpt lat="45.66016" lon="8.650025"><ele>240.0</ele><time>2026-04-12T10:32:08.002Z</time></trkpt><trkpt lat="45.66024" lon="8.650065"><ele>240.0</ele><time>2026-04-12T10:32:09.002Z</time></trkpt><trkpt lat="45.6603217" lon="8.65012"><ele>240.0</ele><time>2026-04-12T10:32:10.002Z</time></trkpt><trkpt lat="45.6603933" lon="8.6501783"><ele>240.8</ele><time>2026-04-12T10:32:11.003Z</time></trkpt><trkpt lat="45.6604533" lon="8.6502067"><ele>241.6</ele><time>2026-04-12T10:32:12.003Z</time></trkpt><trkpt lat="45.6605617" lon="8.650225"><ele>242.39999999999998</ele><time>2026-04-12T10:32:14.003Z</time></trkpt><trkpt lat="45.660645" lon="8.650135"><ele>243.2</ele><time>2026-04-12T10:32:16.002Z</time></trkpt><trkpt lat="45.6607183" lon="8.6499817"><ele>244.0</ele><time>2026-04-12T10:32:18.002Z</time></trkpt><trkpt lat="45.66075" lon="8.6498867"><ele>243.99999999999997</ele><time>2026-04-12T10:32:19.003Z</time></trkpt><trkpt lat="45.66078" lon="8.6497933"><ele>244.0</ele><time>2026-04-12T10:32:20.003Z</time></trkpt><trkpt lat="45.66082" lon="8.6496933"><ele>244.0</ele><time>2026-04-12T10:32:21.002Z</time></trkpt><trkpt lat="45.660855" lon="8.6495917"><ele>244.0</ele><time>2026-04-12T10:32:22.002Z</time></trkpt><trkpt lat="45.6608933" lon="8.6495083"><ele>243.99999999999997</ele><time>2026-04-12T10:32:23.002Z</time></trkpt><trkpt lat="45.6609533" lon="8.6493383"><ele>244.0</ele><time>2026-04-12T10:32:25.003Z</time></trkpt><trkpt lat="45.661" lon="8.649225"><ele>244.16666666666666</ele><time>2026-04-12T10:32:26.002Z</time></trkpt><trkpt lat="45.661045" lon="8.6491183"><ele>244.33333333333331</ele><time>2026-04-12T10:32:27.003Z</time></trkpt><trkpt lat="45.6610833" lon="8.6490233"><ele>244.5</ele><time>2026-04-12T10:32:28.002Z</time></trkpt><trkpt lat="45.6611333" lon="8.6489217"><ele>244.66666666666669</ele><time>2026-04-12T10:32:29.003Z</time></trkpt><trkpt lat="45.661175" lon="8.64885"><ele>244.83333333333334</ele><time>2026-04-12T10:32:30.002Z</time></trkpt><trkpt lat="45.6612633" lon="8.6487417"><ele>245.0</ele><time>2026-04-12T10:32:32.002Z</time></trkpt><trkpt lat="45.6613817" lon="8.648665"><ele>245.00000000000003</ele><time>2026-04-12T10:32:34.002Z</time></trkpt><trkpt lat="45.66146" lon="8.6486483"><ele>245.0</ele><time>2026-04-12T10:32:35.003Z</time></trkpt><trkpt lat="45.6615467" lon="8.6486433"><ele>245.0</ele><time>2026-04-12T10:32:36.003Z</time></trkpt><trkpt lat="45.66162" lon="8.648635"><ele>245.0</ele><time>2026-04-12T10:32:37.002Z</time></trkpt><trkpt lat="45.6616967" lon="8.6486367"><ele>245.00000000000003</ele><time>2026-04-12T10:32:38.002Z</time></trkpt><trkpt lat="45.6617867" lon="8.6486367"><ele>245.0</ele><time>2026-04-12T10:32:39.002Z</time></trkpt><trkpt lat="45.661875" lon="8.6486383"><ele>246.6</ele><time>2026-04-12T10:32:40.002Z</time></trkpt><trkpt lat="45.6619583" lon="8.64866"><ele>248.2</ele><time>2026-04-12T10:32:41.002Z</time></trkpt><trkpt lat="45.6620467" lon="8.6486983"><ele>249.8</ele><time>2026-04-12T10:32:42.003Z</time></trkpt><trkpt lat="45.662135" lon="8.6487317"><ele>251.4</ele><time>2026-04-12T10:32:43.002Z</time></trkpt><trkpt lat="45.6622283" lon="8.648775"><ele>253.0</ele><time>2026-04-12T10:32:44.003Z</time></trkpt><trkpt lat="45.662315" lon="8.6488217"><ele>252.99999999999997</ele><time>2026-04-12T10:32:45.002Z</time></trkpt><trkpt lat="45.6624" lon="8.648875"><ele>253.0</ele><time>2026-04-12T10:32:46.002Z</time></trkpt><trkpt lat="45.66248" lon="8.6489267"><ele>253.0</ele><time>2026-04-12T10:32:47.003Z</time></trkpt><trkpt lat="45.66256" lon="8.64896"><ele>253.0</ele><time>2026-04-12T10:32:48.002Z</time></trkpt><trkpt lat="45.6626417" lon="8.6489867"><ele>252.99999999999997</ele><time>2026-04-12T10:32:49.002Z</time></trkpt><trkpt lat="45.6627267" lon="8.6489933"><ele>253.0</ele><time>2026-04-12T10:32:50.002Z</time></trkpt><trkpt lat="45.662825" lon="8.6489867"><ele>253.0</ele><time>2026-04-12T10:32:51.003Z</time></trkpt><trkpt lat="45.6629167" lon="8.6489717"><ele>253.0</ele><time>2026-04-12T10:32:52.003Z</time></trkpt><trkpt lat="45.66301" lon="8.648965"><ele>253.0</ele><time>2026-04-12T10:32:53.002Z</time></trkpt><trkpt lat="45.66311" lon="8.6489583"><ele>253.0</ele><time>2026-04-12T10:32:54.002Z</time></trkpt><trkpt lat="45.6631917" lon="8.6489517"><ele>253.0</ele><time>2026-04-12T10:32:55.002Z</time></trkpt><trkpt lat="45.6632733" lon="8.64894"><ele>252.99999999999997</ele><time>2026-04-12T10:32:56.002Z</time></trkpt><trkpt lat="45.66334" lon="8.6489217"><ele>253.0</ele><time>2026-04-12T10:32:57.002Z</time></trkpt><trkpt lat="45.6634067" lon="8.648885"><ele>253.0</ele><time>2026-04-12T10:32:58.002Z</time></trkpt><trkpt lat="45.66349" lon="8.6488417"><ele>253.0</ele><time>2026-04-12T10:33:00.002Z</time></trkpt><trkpt lat="45.6635883" lon="8.6489"><ele>252.99999999999997</ele><time>2026-04-12T10:33:02.003Z</time></trkpt><trkpt lat="45.6636417" lon="8.648975"><ele>253.0</ele><time>2026-04-12T10:33:03.002Z</time></trkpt><trkpt lat="45.6636883" lon="8.6490517"><ele>253.60000000000002</ele><time>2026-04-12T10:33:04.002Z</time></trkpt><trkpt lat="45.663735" lon="8.649155"><ele>254.20000000000002</ele><time>2026-04-12T10:33:05.002Z</time></trkpt><trkpt lat="45.6637883" lon="8.6492733"><ele>254.8</ele><time>2026-04-12T10:33:06.002Z</time></trkpt><trkpt lat="45.6638433" lon="8.6494033"><ele>255.4</ele><time>2026-04-12T10:33:07.002Z</time></trkpt><trkpt lat="45.6639" lon="8.6495417"><ele>256.0</ele><time>2026-04-12T10:33:08.002Z</time></trkpt><trkpt lat="45.6639567" lon="8.649675"><ele>256.0</ele><time>2026-04-12T10:33:09.002Z</time></trkpt><trkpt lat="45.6640133" lon="8.6498"><ele>256.0</ele><time>2026-04-12T10:33:10.002Z</time></trkpt><trkpt lat="45.6640717" lon="8.6499233"><ele>256.0</ele><time>2026-04-12T10:33:11.003Z</time></trkpt><trkpt lat="45.6641283" lon="8.65005"><ele>256.0</ele><time>2026-04-12T10:33:12.003Z</time></trkpt><trkpt lat="45.6641833" lon="8.6501767"><ele>256.0</ele><time>2026-04-12T10:33:13.002Z</time></trkpt><trkpt lat="45.6642333" lon="8.6502983"><ele>258.2</ele><time>2026-04-12T10:33:14.003Z</time></trkpt><trkpt lat="45.6642833" lon="8.6504233"><ele>260.40000000000003</ele><time>2026-04-12T10:33:15.003Z</time></trkpt><trkpt lat="45.6643367" lon="8.6505517"><ele>262.6</ele><time>2026-04-12T10:33:16.002Z</time></trkpt><trkpt lat="45.6643933" lon="8.650685"><ele>264.8</ele><time>2026-04-12T10:33:17.002Z</time></trkpt><trkpt lat="45.6644517" lon="8.65082"><ele>267.0</ele><time>2026-04-12T10:33:18.003Z</time></trkpt><trkpt lat="45.66451" lon="8.650945"><ele>267.0</ele><time>2026-04-12T10:33:19.002Z</time></trkpt><trkpt lat="45.6645667" lon="8.6510567"><ele>267.0</ele><time>2026-04-12T10:33:20.002Z</time></trkpt><trkpt lat="45.6646231" lon="8.6511651"><ele>267.0</ele><time>2026-04-12T10:33:21.002Z</time></trkpt><trkpt lat="45.6646775" lon="8.6512668"><ele>267.0</ele><time>2026-04-12T10:33:22.002Z</time></trkpt><trkpt lat="45.6647322" lon="8.6513622"><ele>267.0</ele><time>2026-04-12T10:33:23.002Z</time></trkpt><trkpt lat="45.6647895" lon="8.6514462"><ele>267.0</ele><time>2026-04-12T10:33:24.002Z</time></trkpt><trkpt lat="45.6648617" lon="8.6515292"><ele>266.0</ele><time>2026-04-12T10:33:25.002Z</time></trkpt><trkpt lat="45.6649491" lon="8.6516172"><ele>265.0</ele><time>2026-04-12T10:33:26.002Z</time></trkpt><trkpt lat="45.6650392" lon="8.6516968"><ele>264.0</ele><time>2026-04-12T10:33:27.002Z</time></trkpt><trkpt lat="45.6651294" lon="8.6517635"><ele>263.0</ele><time>2026-04-12T10:33:28.002Z</time></trkpt><trkpt lat="45.6652226" lon="8.6518038"><ele>262.0</ele><time>2026-04-12T10:33:29.003Z</time></trkpt><trkpt lat="45.6653083" lon="8.651822"><ele>262.0</ele><time>2026-04-12T10:33:30.002Z</time></trkpt><trkpt lat="45.6653998" lon="8.6518209"><ele>262.0</ele><time>2026-04-12T10:33:31.003Z</time></trkpt><trkpt lat="45.6654936" lon="8.6517978"><ele>262.0</ele><time>2026-04-12T10:33:32.002Z</time></trkpt><trkpt lat="45.6655791" lon="8.6517571"><ele>262.0</ele><time>2026-04-12T10:33:33.003Z</time></trkpt><trkpt lat="45.6656615" lon="8.6517122"><ele>262.0</ele><time>2026-04-12T10:33:34.002Z</time></trkpt><trkpt lat="45.6657525" lon="8.6516814"><ele>262.0</ele><time>2026-04-12T10:33:35.002Z</time></trkpt><trkpt lat="45.6658399" lon="8.6516769"><ele>262.0</ele><time>2026-04-12T10:33:36.003Z</time></trkpt><trkpt lat="45.6659185" lon="8.6516904"><ele>262.0</ele><time>2026-04-12T10:33:37.002Z</time></trkpt><trkpt lat="45.665997" lon="8.6517404"><ele>262.0</ele><time>2026-04-12T10:33:38.002Z</time></trkpt><trkpt lat="45.6660729" lon="8.6518207"><ele>262.0</ele><time>2026-04-12T10:33:39.002Z</time></trkpt><trkpt lat="45.6661594" lon="8.6519304"><ele>260.75</ele><time>2026-04-12T10:33:40.003Z</time></trkpt><trkpt lat="45.6662603" lon="8.6520512"><ele>259.5</ele><time>2026-04-12T10:33:41.002Z</time></trkpt><trkpt lat="45.6663653" lon="8.6521698"><ele>258.25</ele><time>2026-04-12T10:33:42.003Z</time></trkpt><trkpt lat="45.6664688" lon="8.6522807"><ele>257.0</ele><time>2026-04-12T10:33:43.002Z</time></trkpt><trkpt lat="45.6665657" lon="8.6523993"><ele>257.0</ele><time>2026-04-12T10:33:44.002Z</time></trkpt><trkpt lat="45.6666579" lon="8.6525096"><ele>257.0</ele><time>2026-04-12T10:33:45.003Z</time></trkpt><trkpt lat="45.6667467" lon="8.652612"><ele>257.0</ele><time>2026-04-12T10:33:46.002Z</time></trkpt><trkpt lat="45.6668278" lon="8.6527088"><ele>257.0</ele><time>2026-04-12T10:33:47.002Z</time></trkpt><trkpt lat="45.6669028" lon="8.6527949"><ele>257.0</ele><time>2026-04-12T10:33:48.002Z</time></trkpt><trkpt lat="45.6669814" lon="8.6528909"><ele>257.4</ele><time>2026-04-12T10:33:49.002Z</time></trkpt><trkpt lat="45.6670548" lon="8.652979"><ele>257.79999999999995</ele><time>2026-04-12T10:33:50.002Z</time></trkpt><trkpt lat="45.667125" lon="8.6530606"><ele>258.2</ele><time>2026-04-12T10:33:51.003Z</time></trkpt><trkpt lat="45.6671991" lon="8.653141"><ele>258.59999999999997</ele><time>2026-04-12T10:33:52.002Z</time></trkpt><trkpt lat="45.6672683" lon="8.6532317"><ele>259.0</ele><time>2026-04-12T10:33:53.003Z</time></trkpt><trkpt lat="45.6673367" lon="8.6533183"><ele>259.0</ele><time>2026-04-12T10:33:54.002Z</time></trkpt><trkpt lat="45.667405" lon="8.6533933"><ele>259.0</ele><time>2026-04-12T10:33:55.002Z</time></trkpt><trkpt lat="45.66746" lon="8.6534583"><ele>259.0</ele><time>2026-04-12T10:33:56.003Z</time></trkpt><trkpt lat="45.6675183" lon="8.653515"><ele>259.0</ele><time>2026-04-12T10:33:57.003Z</time></trkpt><trkpt lat="45.66757" lon="8.6535783"><ele>259.0</ele><time>2026-04-12T10:33:58.003Z</time></trkpt><trkpt lat="45.6676533" lon="8.6536617"><ele>259.0</ele><time>2026-04-12T10:34:00.002Z</time></trkpt><trkpt lat="45.667725" lon="8.6536333"><ele>259.0</ele><time>2026-04-12T10:34:03.003Z</time></trkpt><trkpt lat="45.667755" lon="8.65353"><ele>259.0</ele><time>2026-04-12T10:34:05.002Z</time></trkpt><trkpt lat="45.6677667" lon="8.6533967"><ele>259.0</ele><time>2026-04-12T10:34:07.002Z</time></trkpt><trkpt lat="45.6678067" lon="8.65325"><ele>259.0</ele><time>2026-04-12T10:34:09.003Z</time></trkpt><trkpt lat="45.6678333" lon="8.6531567"><ele>259.0</ele><time>2026-04-12T10:34:10.002Z</time></trkpt><trkpt lat="45.6678683" lon="8.6530583"><ele>259.0</ele><time>2026-04-12T10:34:11.002Z</time></trkpt><trkpt lat="45.6678917" lon="8.6529533"><ele>259.0</ele><time>2026-04-12T10:34:12.002Z</time></trkpt><trkpt lat="45.6679133" lon="8.65285"><ele>259.0</ele><time>2026-04-12T10:34:13.002Z</time></trkpt><trkpt lat="45.6679417" lon="8.6527583"><ele>259.0</ele><time>2026-04-12T10:34:14.003Z</time></trkpt><trkpt lat="45.6679783" lon="8.65268"><ele>259.0</ele><time>2026-04-12T10:34:15.003Z</time></trkpt><trkpt lat="45.6680317" lon="8.6526017"><ele>259.0</ele><time>2026-04-12T10:34:16.002Z</time></trkpt><trkpt lat="45.668115" lon="8.652525"><ele>259.0</ele><time>2026-04-12T10:34:18.002Z</time></trkpt><trkpt lat="45.668195" lon="8.65251"><ele>259.0</ele><time>2026-04-12T10:34:20.002Z</time></trkpt><trkpt lat="45.6682883" lon="8.65246"><ele>259.0</ele><time>2026-04-12T10:34:22.002Z</time></trkpt><trkpt lat="45.668355" lon="8.65232"><ele>259.0</ele><time>2026-04-12T10:34:24.002Z</time></trkpt><trkpt lat="45.6683933" lon="8.6522267"><ele>259.0</ele><time>2026-04-12T10:34:25.003Z</time></trkpt><trkpt lat="45.6684367" lon="8.652135"><ele>259.0</ele><time>2026-04-12T10:34:26.002Z</time></trkpt><trkpt lat="45.6684833" lon="8.6520367"><ele>259.3333333333333</ele><time>2026-04-12T10:34:27.003Z</time></trkpt><trkpt lat="45.6685267" lon="8.6519267"><ele>259.66666666666663</ele><time>2026-04-12T10:34:28.002Z</time></trkpt><trkpt lat="45.6685683" lon="8.651825"><ele>260.0</ele><time>2026-04-12T10:34:29.002Z</time></trkpt><trkpt lat="45.6686083" lon="8.651705"><ele>260.3333333333333</ele><time>2026-04-12T10:34:30.002Z</time></trkpt><trkpt lat="45.6686533" lon="8.651595"><ele>260.6666666666667</ele><time>2026-04-12T10:34:31.003Z</time></trkpt><trkpt lat="45.6687" lon="8.6514833"><ele>261.0</ele><time>2026-04-12T10:34:32.002Z</time></trkpt><trkpt lat="45.6687583" lon="8.6513633"><ele>260.3333333333333</ele><time>2026-04-12T10:34:33.002Z</time></trkpt><trkpt lat="45.6688083" lon="8.6512517"><ele>259.6666666666667</ele><time>2026-04-12T10:34:34.002Z</time></trkpt><trkpt lat="45.668855" lon="8.6511467"><ele>259.0</ele><time>2026-04-12T10:34:35.002Z</time></trkpt><trkpt lat="45.6688967" lon="8.6510517"><ele>258.33333333333337</ele><time>2026-04-12T10:34:36.002Z</time></trkpt><trkpt lat="45.66894" lon="8.6509433"><ele>257.6666666666667</ele><time>2026-04-12T10:34:37.002Z</time></trkpt><trkpt lat="45.6689817" lon="8.6508117"><ele>257.0</ele><time>2026-04-12T10:34:38.002Z</time></trkpt><trkpt lat="45.6690167" lon="8.6506933"><ele>256.83333333333337</ele><time>2026-04-12T10:34:39.002Z</time></trkpt><trkpt lat="45.6690533" lon="8.650555"><ele>256.6666666666667</ele><time>2026-04-12T10:34:40.002Z</time></trkpt><trkpt lat="45.6690983" lon="8.650435"><ele>256.5</ele><time>2026-04-12T10:34:41.003Z</time></trkpt><trkpt lat="45.66914" lon="8.6503383"><ele>256.3333333333333</ele><time>2026-04-12T10:34:42.003Z</time></trkpt><trkpt lat="45.6691767" lon="8.6502467"><ele>256.16666666666663</ele><time>2026-04-12T10:34:43.002Z</time></trkpt><trkpt lat="45.6692067" lon="8.6501633"><ele>256.0</ele><time>2026-04-12T10:34:44.002Z</time></trkpt><trkpt lat="45.6692367" lon="8.6500683"><ele>256.40000000000003</ele><time>2026-04-12T10:34:45.002Z</time></trkpt><trkpt lat="45.6692683" lon="8.6499567"><ele>256.8</ele><time>2026-04-12T10:34:46.002Z</time></trkpt><trkpt lat="45.669295" lon="8.64984"><ele>257.20000000000005</ele><time>2026-04-12T10:34:47.002Z</time></trkpt><trkpt lat="45.6693183" lon="8.6497167"><ele>257.6</ele><time>2026-04-12T10:34:48.002Z</time></trkpt><trkpt lat="45.6693517" lon="8.649585"><ele>258.0</ele><time>2026-04-12T10:34:49.002Z</time></trkpt><trkpt lat="45.6693967" lon="8.6494567"><ele>258.0</ele><time>2026-04-12T10:34:50.002Z</time></trkpt><trkpt lat="45.669435" lon="8.6493483"><ele>258.0</ele><time>2026-04-12T10:34:51.002Z</time></trkpt><trkpt lat="45.669465" lon="8.649255"><ele>258.0</ele><time>2026-04-12T10:34:52.003Z</time></trkpt><trkpt lat="45.669495" lon="8.64917"><ele>258.0</ele><time>2026-04-12T10:34:53.002Z</time></trkpt><trkpt lat="45.6695467" lon="8.649"><ele>258.0</ele><time>2026-04-12T10:34:55.002Z</time></trkpt><trkpt lat="45.6695767" lon="8.6489083"><ele>258.0</ele><time>2026-04-12T10:34:56.003Z</time></trkpt><trkpt lat="45.66961" lon="8.648805"><ele>258.0</ele><time>2026-04-12T10:34:57.002Z</time></trkpt><trkpt lat="45.6696417" lon="8.6487033"><ele>258.0</ele><time>2026-04-12T10:34:58.003Z</time></trkpt><trkpt lat="45.6696717" lon="8.648615"><ele>258.0</ele><time>2026-04-12T10:34:59.002Z</time></trkpt><trkpt lat="45.6697133" lon="8.6484933"><ele>258.0</ele><time>2026-04-12T10:35:01.002Z</time></trkpt><trkpt lat="45.66974" lon="8.648355"><ele>258.0</ele><time>2026-04-12T10:35:03.003Z</time></trkpt><trkpt lat="45.6697417" lon="8.6482467"><ele>258.0</ele><time>2026-04-12T10:35:04.002Z</time></trkpt><trkpt lat="45.66972" lon="8.6481033"><ele>259.0</ele><time>2026-04-12T10:35:05.002Z</time></trkpt><trkpt lat="45.66968" lon="8.64793"><ele>260.0</ele><time>2026-04-12T10:35:06.002Z</time></trkpt><trkpt lat="45.66964" lon="8.6477367"><ele>261.0</ele><time>2026-04-12T10:35:07.003Z</time></trkpt><trkpt lat="45.66961" lon="8.64753"><ele>262.0</ele><time>2026-04-12T10:35:08.003Z</time></trkpt><trkpt lat="45.6696033" lon="8.6473483"><ele>262.25</ele><time>2026-04-12T10:35:09.003Z</time></trkpt><trkpt lat="45.6696" lon="8.6471717"><ele>262.5</ele><time>2026-04-12T10:35:10.002Z</time></trkpt><trkpt lat="45.6695983" lon="8.6469883"><ele>262.75</ele><time>2026-04-12T10:35:11.002Z</time></trkpt><trkpt lat="45.66959" lon="8.6467983"><ele>263.0</ele><time>2026-04-12T10:35:12.002Z</time></trkpt><trkpt lat="45.6695817" lon="8.6465983"><ele>263.0</ele><time>2026-04-12T10:35:13.003Z</time></trkpt><trkpt lat="45.6695733" lon="8.6463933"><ele>263.0</ele><time>2026-04-12T10:35:14.003Z</time></trkpt><trkpt lat="45.6695633" lon="8.6461917"><ele>263.0</ele><time>2026-04-12T10:35:15.002Z</time></trkpt><trkpt lat="45.669545" lon="8.6459967"><ele>263.0</ele><time>2026-04-12T10:35:16.002Z</time></trkpt><trkpt lat="45.6695283" lon="8.6457867"><ele>263.25</ele><time>2026-04-12T10:35:17.002Z</time></trkpt><trkpt lat="45.669505" lon="8.645575"><ele>263.5</ele><time>2026-04-12T10:35:18.002Z</time></trkpt><trkpt lat="45.669485" lon="8.6453667"><ele>263.75</ele><time>2026-04-12T10:35:19.002Z</time></trkpt><trkpt lat="45.66945" lon="8.6451667"><ele>264.0</ele><time>2026-04-12T10:35:20.002Z</time></trkpt><trkpt lat="45.6694233" lon="8.64499"><ele>264.59999999999997</ele><time>2026-04-12T10:35:21.002Z</time></trkpt><trkpt lat="45.669405" lon="8.6448317"><ele>265.2</ele><time>2026-04-12T10:35:22.002Z</time></trkpt><trkpt lat="45.6693867" lon="8.644695"><ele>265.79999999999995</ele><time>2026-04-12T10:35:23.003Z</time></trkpt><trkpt lat="45.66939" lon="8.644555"><ele>266.4</ele><time>2026-04-12T10:35:24.002Z</time></trkpt><trkpt lat="45.6694033" lon="8.6444317"><ele>267.0</ele><time>2026-04-12T10:35:25.002Z</time></trkpt><trkpt lat="45.669435" lon="8.6443283"><ele>267.8</ele><time>2026-04-12T10:35:26.002Z</time></trkpt><trkpt lat="45.6694767" lon="8.64423"><ele>268.6</ele><time>2026-04-12T10:35:27.002Z</time></trkpt><trkpt lat="45.66954" lon="8.6441417"><ele>269.40000000000003</ele><time>2026-04-12T10:35:28.003Z</time></trkpt><trkpt lat="45.6696183" lon="8.6440683"><ele>270.2</ele><time>2026-04-12T10:35:29.003Z</time></trkpt><trkpt lat="45.6697233" lon="8.64399"><ele>271.0</ele><time>2026-04-12T10:35:30.002Z</time></trkpt><trkpt lat="45.6698267" lon="8.643905"><ele>271.0</ele><time>2026-04-12T10:35:31.002Z</time></trkpt><trkpt lat="45.6699283" lon="8.64381"><ele>271.0</ele><time>2026-04-12T10:35:32.002Z</time></trkpt><trkpt lat="45.6700283" lon="8.6437167"><ele>271.0</ele><time>2026-04-12T10:35:33.003Z</time></trkpt><trkpt lat="45.670135" lon="8.64362"><ele>271.0</ele><time>2026-04-12T10:35:34.002Z</time></trkpt><trkpt lat="45.670235" lon="8.6434983"><ele>271.0</ele><time>2026-04-12T10:35:35.002Z</time></trkpt><trkpt lat="45.670345" lon="8.64337"><ele>271.0</ele><time>2026-04-12T10:35:36.003Z</time></trkpt><trkpt lat="45.67046" lon="8.6432417"><ele>271.0</ele><time>2026-04-12T10:35:37.002Z</time></trkpt><trkpt lat="45.67057" lon="8.6431117"><ele>271.0</ele><time>2026-04-12T10:35:38.002Z</time></trkpt><trkpt lat="45.670685" lon="8.642975"><ele>271.0</ele><time>2026-04-12T10:35:39.003Z</time></trkpt><trkpt lat="45.6708" lon="8.6428467"><ele>271.0</ele><time>2026-04-12T10:35:40.003Z</time></trkpt><trkpt lat="45.67091" lon="8.6427183"><ele>271.0</ele><time>2026-04-12T10:35:41.003Z</time></trkpt><trkpt lat="45.6710183" lon="8.642585"><ele>271.0</ele><time>2026-04-12T10:35:42.002Z</time></trkpt><trkpt lat="45.6711267" lon="8.6424517"><ele>270.25</ele><time>2026-04-12T10:35:43.002Z</time></trkpt><trkpt lat="45.6712267" lon="8.6423117"><ele>269.5</ele><time>2026-04-12T10:35:44.002Z</time></trkpt><trkpt lat="45.67133" lon="8.6421633"><ele>268.75</ele><time>2026-04-12T10:35:45.002Z</time></trkpt><trkpt lat="45.6714117" lon="8.6420067"><ele>268.0</ele><time>2026-04-12T10:35:46.002Z</time></trkpt><trkpt lat="45.6714933" lon="8.641835"><ele>269.75</ele><time>2026-04-12T10:35:47.002Z</time></trkpt><trkpt lat="45.6715567" lon="8.6416483"><ele>271.5</ele><time>2026-04-12T10:35:48.003Z</time></trkpt><trkpt lat="45.6716183" lon="8.64146"><ele>273.25</ele><time>2026-04-12T10:35:49.003Z</time></trkpt><trkpt lat="45.671675" lon="8.641265"><ele>275.0</ele><time>2026-04-12T10:35:50.002Z</time></trkpt><trkpt lat="45.6717167" lon="8.641065"><ele>277.25</ele><time>2026-04-12T10:35:51.002Z</time></trkpt><trkpt lat="45.6717533" lon="8.64087"><ele>279.5</ele><time>2026-04-12T10:35:52.002Z</time></trkpt><trkpt lat="45.671795" lon="8.64067"><ele>281.75</ele><time>2026-04-12T10:35:53.002Z</time></trkpt><trkpt lat="45.6718467" lon="8.6404617"><ele>284.0</ele><time>2026-04-12T10:35:54.002Z</time></trkpt><trkpt lat="45.671885" lon="8.6402517"><ele>285.6666666666667</ele><time>2026-04-12T10:35:55.003Z</time></trkpt><trkpt lat="45.6719183" lon="8.6400383"><ele>287.3333333333333</ele><time>2026-04-12T10:35:56.003Z</time></trkpt><trkpt lat="45.6719617" lon="8.6398133"><ele>289.0</ele><time>2026-04-12T10:35:57.002Z</time></trkpt><trkpt lat="45.6719967" lon="8.639595"><ele>281.3333333333333</ele><time>2026-04-12T10:35:58.002Z</time></trkpt><trkpt lat="45.6720183" lon="8.6393833"><ele>273.6666666666667</ele><time>2026-04-12T10:35:59.002Z</time></trkpt><trkpt lat="45.67205" lon="8.63916"><ele>266.0</ele><time>2026-04-12T10:36:00.003Z</time></trkpt><trkpt lat="45.6720717" lon="8.63894"><ele>266.0</ele><time>2026-04-12T10:36:01.002Z</time></trkpt><trkpt lat="45.6720867" lon="8.6387367"><ele>266.0</ele><time>2026-04-12T10:36:02.002Z</time></trkpt><trkpt lat="45.6721017" lon="8.6385133"><ele>266.0</ele><time>2026-04-12T10:36:03.002Z</time></trkpt><trkpt lat="45.6721267" lon="8.6382983"><ele>267.0</ele><time>2026-04-12T10:36:04.002Z</time></trkpt><trkpt lat="45.6721483" lon="8.63809"><ele>268.0</ele><time>2026-04-12T10:36:05.002Z</time></trkpt><trkpt lat="45.672175" lon="8.6378867"><ele>269.0</ele><time>2026-04-12T10:36:06.003Z</time></trkpt><trkpt lat="45.6722133" lon="8.63769"><ele>270.0</ele><time>2026-04-12T10:36:07.003Z</time></trkpt><trkpt lat="45.67226" lon="8.6375"><ele>270.0</ele><time>2026-04-12T10:36:08.002Z</time></trkpt><trkpt lat="45.672305" lon="8.637305"><ele>270.0</ele><time>2026-04-12T10:36:09.003Z</time></trkpt><trkpt lat="45.672335" lon="8.637105"><ele>270.0</ele><time>2026-04-12T10:36:10.002Z</time></trkpt><trkpt lat="45.672345" lon="8.6368983"><ele>270.0</ele><time>2026-04-12T10:36:11.003Z</time></trkpt><trkpt lat="45.6723267" lon="8.636695"><ele>270.0</ele><time>2026-04-12T10:36:12.003Z</time></trkpt><trkpt lat="45.6722833" lon="8.6364867"><ele>270.0</ele><time>2026-04-12T10:36:13.002Z</time></trkpt><trkpt lat="45.67223" lon="8.6362833"><ele>270.0</ele><time>2026-04-12T10:36:14.002Z</time></trkpt><trkpt lat="45.6721783" lon="8.6360833"><ele>269.5</ele><time>2026-04-12T10:36:15.002Z</time></trkpt><trkpt lat="45.6721367" lon="8.635885"><ele>269.0</ele><time>2026-04-12T10:36:16.002Z</time></trkpt><trkpt lat="45.6720967" lon="8.6356667"><ele>268.5</ele><time>2026-04-12T10:36:17.002Z</time></trkpt><trkpt lat="45.6720667" lon="8.6354833"><ele>268.0</ele><time>2026-04-12T10:36:18.002Z</time></trkpt><trkpt lat="45.67204" lon="8.6352633"><ele>268.0</ele><time>2026-04-12T10:36:19.003Z</time></trkpt><trkpt lat="45.6719967" lon="8.63506"><ele>268.0</ele><time>2026-04-12T10:36:20.003Z</time></trkpt><trkpt lat="45.6719517" lon="8.63494"><ele>268.0</ele><time>2026-04-12T10:36:21.003Z</time></trkpt><trkpt lat="45.6718717" lon="8.6347683"><ele>268.0</ele><time>2026-04-12T10:36:22.003Z</time></trkpt><trkpt lat="45.6717817" lon="8.6346067"><ele>270.5</ele><time>2026-04-12T10:36:23.002Z</time></trkpt><trkpt lat="45.6716867" lon="8.63445"><ele>273.0</ele><time>2026-04-12T10:36:24.003Z</time></trkpt><trkpt lat="45.6715867" lon="8.6343083"><ele>275.5</ele><time>2026-04-12T10:36:25.002Z</time></trkpt><trkpt lat="45.6714733" lon="8.6341833"><ele>278.0</ele><time>2026-04-12T10:36:26.002Z</time></trkpt><trkpt lat="45.6713733" lon="8.6340567"><ele>278.0</ele><time>2026-04-12T10:36:27.002Z</time></trkpt><trkpt lat="45.6712883" lon="8.6338917"><ele>278.0</ele><time>2026-04-12T10:36:28.003Z</time></trkpt><trkpt lat="45.671215" lon="8.633725"><ele>278.0</ele><time>2026-04-12T10:36:29.002Z</time></trkpt><trkpt lat="45.67115" lon="8.633555"><ele>278.0</ele><time>2026-04-12T10:36:30.002Z</time></trkpt><trkpt lat="45.6710917" lon="8.6333783"><ele>278.75</ele><time>2026-04-12T10:36:31.002Z</time></trkpt><trkpt lat="45.671045" lon="8.6332017"><ele>279.5</ele><time>2026-04-12T10:36:32.002Z</time></trkpt><trkpt lat="45.671" lon="8.6330117"><ele>280.25</ele><time>2026-04-12T10:36:33.003Z</time></trkpt><trkpt lat="45.6709533" lon="8.632825"><ele>281.0</ele><time>2026-04-12T10:36:34.003Z</time></trkpt><trkpt lat="45.6709017" lon="8.6326383"><ele>281.0</ele><time>2026-04-12T10:36:35.002Z</time></trkpt><trkpt lat="45.6708417" lon="8.632445"><ele>281.0</ele><time>2026-04-12T10:36:36.002Z</time></trkpt><trkpt lat="45.670775" lon="8.6322767"><ele>281.0</ele><time>2026-04-12T10:36:37.003Z</time></trkpt><trkpt lat="45.6707083" lon="8.632125"><ele>281.0</ele><time>2026-04-12T10:36:38.002Z</time></trkpt><trkpt lat="45.6706383" lon="8.6319817"><ele>279.8</ele><time>2026-04-12T10:36:39.002Z</time></trkpt><trkpt lat="45.6705633" lon="8.6318533"><ele>278.6</ele><time>2026-04-12T10:36:40.002Z</time></trkpt><trkpt lat="45.670505" lon="8.6317283"><ele>277.4</ele><time>2026-04-12T10:36:41.002Z</time></trkpt><trkpt lat="45.6704517" lon="8.631615"><ele>276.2</ele><time>2026-04-12T10:36:42.002Z</time></trkpt><trkpt lat="45.670415" lon="8.6315083"><ele>275.0</ele><time>2026-04-12T10:36:43.003Z</time></trkpt><trkpt lat="45.6703783" lon="8.6314183"><ele>275.0</ele><time>2026-04-12T10:36:44.003Z</time></trkpt><trkpt lat="45.670365" lon="8.63127"><ele>275.0</ele><time>2026-04-12T10:36:46.002Z</time></trkpt><trkpt lat="45.6703783" lon="8.6311783"><ele>275.0</ele><time>2026-04-12T10:36:48.002Z</time></trkpt><trkpt lat="45.670335" lon="8.6310917"><ele>275.0</ele><time>2026-04-12T10:36:50.002Z</time></trkpt><trkpt lat="45.670215" lon="8.6310183"><ele>275.0</ele><time>2026-04-12T10:36:52.002Z</time></trkpt><trkpt lat="45.670145" lon="8.6310017"><ele>275.0</ele><time>2026-04-12T10:36:53.002Z</time></trkpt><trkpt lat="45.6700417" lon="8.6309433"><ele>276.5</ele><time>2026-04-12T10:36:55.003Z</time></trkpt><trkpt lat="45.6700267" lon="8.63085"><ele>278.0</ele><time>2026-04-12T10:36:57.002Z</time></trkpt><trkpt lat="45.6700933" lon="8.6307367"><ele>279.5</ele><time>2026-04-12T10:36:59.003Z</time></trkpt><trkpt lat="45.6701383" lon="8.6306717"><ele>281.0</ele><time>2026-04-12T10:37:00.002Z</time></trkpt><trkpt lat="45.6701767" lon="8.6305883"><ele>282.5</ele><time>2026-04-12T10:37:01.002Z</time></trkpt><trkpt lat="45.6702267" lon="8.6304817"><ele>284.0</ele><time>2026-04-12T10:37:02.002Z</time></trkpt><trkpt lat="45.6702617" lon="8.6303617"><ele>281.5</ele><time>2026-04-12T10:37:03.002Z</time></trkpt><trkpt lat="45.670305" lon="8.630215"><ele>279.0</ele><time>2026-04-12T10:37:04.002Z</time></trkpt><trkpt lat="45.67034" lon="8.630075"><ele>276.5</ele><time>2026-04-12T10:37:05.002Z</time></trkpt><trkpt lat="45.670395" lon="8.6299333"><ele>274.0</ele><time>2026-04-12T10:37:06.002Z</time></trkpt><trkpt lat="45.6704567" lon="8.6297783"><ele>274.0</ele><time>2026-04-12T10:37:07.002Z</time></trkpt><trkpt lat="45.6705183" lon="8.629615"><ele>274.0</ele><time>2026-04-12T10:37:08.003Z</time></trkpt><trkpt lat="45.6705667" lon="8.62946"><ele>274.0</ele><time>2026-04-12T10:37:09.002Z</time></trkpt><trkpt lat="45.6706133" lon="8.6292983"><ele>274.0</ele><time>2026-04-12T10:37:10.003Z</time></trkpt><trkpt lat="45.6706567" lon="8.629145"><ele>274.8</ele><time>2026-04-12T10:37:11.002Z</time></trkpt><trkpt lat="45.6707067" lon="8.6290083"><ele>275.59999999999997</ele><time>2026-04-12T10:37:12.002Z</time></trkpt><trkpt lat="45.6707467" lon="8.6288883"><ele>276.4</ele><time>2026-04-12T10:37:13.002Z</time></trkpt><trkpt lat="45.6707867" lon="8.6287783"><ele>277.2</ele><time>2026-04-12T10:37:14.001Z</time></trkpt><trkpt lat="45.6708217" lon="8.6286717"><ele>278.0</ele><time>2026-04-12T10:37:15.002Z</time></trkpt><trkpt lat="45.6708767" lon="8.6285633"><ele>277.6</ele><time>2026-04-12T10:37:16.001Z</time></trkpt><trkpt lat="45.6709167" lon="8.62846"><ele>277.20000000000005</ele><time>2026-04-12T10:37:17.001Z</time></trkpt><trkpt lat="45.6709767" lon="8.6283417"><ele>276.8</ele><time>2026-04-12T10:37:18.001Z</time></trkpt><trkpt lat="45.6710333" lon="8.628235"><ele>276.40000000000003</ele><time>2026-04-12T10:37:19.001Z</time></trkpt><trkpt lat="45.6710967" lon="8.6281317"><ele>276.0</ele><time>2026-04-12T10:37:20.001Z</time></trkpt><trkpt lat="45.67116" lon="8.628035"><ele>276.0</ele><time>2026-04-12T10:37:21.001Z</time></trkpt><trkpt lat="45.671225" lon="8.62794"><ele>276.0</ele><time>2026-04-12T10:37:22.002Z</time></trkpt><trkpt lat="45.6712933" lon="8.6278567"><ele>276.0</ele><time>2026-04-12T10:37:23.002Z</time></trkpt><trkpt lat="45.67137" lon="8.6277733"><ele>276.0</ele><time>2026-04-12T10:37:24.001Z</time></trkpt><trkpt lat="45.6714517" lon="8.6276817"><ele>276.0</ele><time>2026-04-12T10:37:25.001Z</time></trkpt><trkpt lat="45.67154" lon="8.62759"><ele>278.0</ele><time>2026-04-12T10:37:26.001Z</time></trkpt><trkpt lat="45.6716367" lon="8.627505"><ele>280.0</ele><time>2026-04-12T10:37:27.001Z</time></trkpt><trkpt lat="45.6717383" lon="8.6274267"><ele>282.0</ele><time>2026-04-12T10:37:28.001Z</time></trkpt><trkpt lat="45.67184" lon="8.62736"><ele>284.0</ele><time>2026-04-12T10:37:29.002Z</time></trkpt><trkpt lat="45.6719467" lon="8.6272933"><ele>284.0</ele><time>2026-04-12T10:37:30.001Z</time></trkpt><trkpt lat="45.6720533" lon="8.6272383"><ele>284.0</ele><time>2026-04-12T10:37:31.001Z</time></trkpt><trkpt lat="45.6721567" lon="8.6271733"><ele>284.0</ele><time>2026-04-12T10:37:32.002Z</time></trkpt><trkpt lat="45.6722433" lon="8.62711"><ele>284.0</ele><time>2026-04-12T10:37:33.002Z</time></trkpt><trkpt lat="45.672335" lon="8.627035"><ele>284.0</ele><time>2026-04-12T10:37:34.001Z</time></trkpt><trkpt lat="45.6724067" lon="8.6269667"><ele>283.5</ele><time>2026-04-12T10:37:35.001Z</time></trkpt><trkpt lat="45.6724767" lon="8.6269067"><ele>283.0</ele><time>2026-04-12T10:37:36.002Z</time></trkpt><trkpt lat="45.6725483" lon="8.6268333"><ele>282.5</ele><time>2026-04-12T10:37:37.001Z</time></trkpt><trkpt lat="45.6726067" lon="8.6267717"><ele>282.0</ele><time>2026-04-12T10:37:38.001Z</time></trkpt><trkpt lat="45.67267" lon="8.6267183"><ele>281.5</ele><time>2026-04-12T10:37:39.001Z</time></trkpt><trkpt lat="45.6727317" lon="8.626665"><ele>281.0</ele><time>2026-04-12T10:37:40.001Z</time></trkpt><trkpt lat="45.672805" lon="8.6266033"><ele>281.0</ele><time>2026-04-12T10:37:41.002Z</time></trkpt><trkpt lat="45.6728833" lon="8.6265333"><ele>281.0</ele><time>2026-04-12T10:37:42.001Z</time></trkpt><trkpt lat="45.672955" lon="8.6264483"><ele>281.0</ele><time>2026-04-12T10:37:43.001Z</time></trkpt><trkpt lat="45.67302" lon="8.6263567"><ele>281.0</ele><time>2026-04-12T10:37:44.001Z</time></trkpt><trkpt lat="45.67308" lon="8.6262533"><ele>281.0</ele><time>2026-04-12T10:37:45.002Z</time></trkpt><trkpt lat="45.6731267" lon="8.6261567"><ele>282.40000000000003</ele><time>2026-04-12T10:37:46.001Z</time></trkpt><trkpt lat="45.6731783" lon="8.6260417"><ele>283.8</ele><time>2026-04-12T10:37:47.001Z</time></trkpt><trkpt lat="45.6732183" lon="8.625925"><ele>285.20000000000005</ele><time>2026-04-12T10:37:48.001Z</time></trkpt><trkpt lat="45.673265" lon="8.6258"><ele>286.6</ele><time>2026-04-12T10:37:49.001Z</time></trkpt><trkpt lat="45.673315" lon="8.6256767"><ele>288.0</ele><time>2026-04-12T10:37:50.001Z</time></trkpt><trkpt lat="45.6733683" lon="8.6255633"><ele>288.0</ele><time>2026-04-12T10:37:51.001Z</time></trkpt><trkpt lat="45.67342" lon="8.6254467"><ele>288.0</ele><time>2026-04-12T10:37:52.001Z</time></trkpt><trkpt lat="45.6734783" lon="8.6253317"><ele>288.0</ele><time>2026-04-12T10:37:53.001Z</time></trkpt><trkpt lat="45.67353" lon="8.6252083"><ele>288.0</ele><time>2026-04-12T10:37:54.001Z</time></trkpt><trkpt lat="45.6735683" lon="8.62508"><ele>288.0</ele><time>2026-04-12T10:37:55.001Z</time></trkpt><trkpt lat="45.6736083" lon="8.6249483"><ele>286.6</ele><time>2026-04-12T10:37:56.001Z</time></trkpt><trkpt lat="45.673645" lon="8.624825"><ele>285.20000000000005</ele><time>2026-04-12T10:37:57.001Z</time></trkpt><trkpt lat="45.673675" lon="8.6247017"><ele>283.8</ele><time>2026-04-12T10:37:58.001Z</time></trkpt><trkpt lat="45.6737017" lon="8.6245767"><ele>282.40000000000003</ele><time>2026-04-12T10:37:59.001Z</time></trkpt><trkpt lat="45.6737217" lon="8.6244333"><ele>281.0</ele><time>2026-04-12T10:38:00.002Z</time></trkpt><trkpt lat="45.6737517" lon="8.6242983"><ele>280.6666666666667</ele><time>2026-04-12T10:38:01.001Z</time></trkpt><trkpt lat="45.673765" lon="8.624165"><ele>280.33333333333337</ele><time>2026-04-12T10:38:02.001Z</time></trkpt><trkpt lat="45.673785" lon="8.6240283"><ele>280.0</ele><time>2026-04-12T10:38:03.001Z</time></trkpt><trkpt lat="45.673795" lon="8.6239083"><ele>279.6666666666667</ele><time>2026-04-12T10:38:04.001Z</time></trkpt><trkpt lat="45.6738033" lon="8.6237883"><ele>279.3333333333333</ele><time>2026-04-12T10:38:05.001Z</time></trkpt><trkpt lat="45.673805" lon="8.623665"><ele>279.0</ele><time>2026-04-12T10:38:06.001Z</time></trkpt><trkpt lat="45.673825" lon="8.6235383"><ele>279.8333333333333</ele><time>2026-04-12T10:38:07.001Z</time></trkpt><trkpt lat="45.6738483" lon="8.623415"><ele>280.6666666666667</ele><time>2026-04-12T10:38:08.001Z</time></trkpt><trkpt lat="45.6738767" lon="8.6232933"><ele>281.5</ele><time>2026-04-12T10:38:09.002Z</time></trkpt><trkpt lat="45.6738883" lon="8.62318"><ele>282.33333333333337</ele><time>2026-04-12T10:38:10.002Z</time></trkpt><trkpt lat="45.67391" lon="8.6230717"><ele>283.1666666666667</ele><time>2026-04-12T10:38:11.001Z</time></trkpt><trkpt lat="45.67393" lon="8.6229817"><ele>284.0</ele><time>2026-04-12T10:38:12.002Z</time></trkpt><trkpt lat="45.6739483" lon="8.622815"><ele>285.2</ele><time>2026-04-12T10:38:14.001Z</time></trkpt><trkpt lat="45.6739933" lon="8.62265"><ele>286.4</ele><time>2026-04-12T10:38:16.002Z</time></trkpt><trkpt lat="45.674025" lon="8.6225683"><ele>287.6</ele><time>2026-04-12T10:38:17.002Z</time></trkpt><trkpt lat="45.6740667" lon="8.622485"><ele>288.8</ele><time>2026-04-12T10:38:18.002Z</time></trkpt><trkpt lat="45.6741367" lon="8.62233"><ele>290.0</ele><time>2026-04-12T10:38:20.001Z</time></trkpt><trkpt lat="45.67418" lon="8.6222417"><ele>290.0</ele><time>2026-04-12T10:38:21.001Z</time></trkpt><trkpt lat="45.6742267" lon="8.6221633"><ele>290.0</ele><time>2026-04-12T10:38:22.002Z</time></trkpt><trkpt lat="45.6742767" lon="8.6220817"><ele>290.0</ele><time>2026-04-12T10:38:23.001Z</time></trkpt><trkpt lat="45.674315" lon="8.6219883"><ele>290.0</ele><time>2026-04-12T10:38:24.001Z</time></trkpt><trkpt lat="45.6743583" lon="8.6218833"><ele>290.0</ele><time>2026-04-12T10:38:25.002Z</time></trkpt><trkpt lat="45.6744017" lon="8.6217817"><ele>290.0</ele><time>2026-04-12T10:38:26.001Z</time></trkpt><trkpt lat="45.674445" lon="8.6216883"><ele>289.5</ele><time>2026-04-12T10:38:27.002Z</time></trkpt><trkpt lat="45.6744883" lon="8.6216067"><ele>289.0</ele><time>2026-04-12T10:38:28.001Z</time></trkpt><trkpt lat="45.6745283" lon="8.62153"><ele>288.5</ele><time>2026-04-12T10:38:29.001Z</time></trkpt><trkpt lat="45.6745883" lon="8.6214583"><ele>288.0</ele><time>2026-04-12T10:38:30.002Z</time></trkpt><trkpt lat="45.6746467" lon="8.6213833"><ele>287.5</ele><time>2026-04-12T10:38:31.001Z</time></trkpt><trkpt lat="45.674715" lon="8.6212967"><ele>287.0</ele><time>2026-04-12T10:38:32.001Z</time></trkpt><trkpt lat="45.674775" lon="8.6211933"><ele>287.6</ele><time>2026-04-12T10:38:33.002Z</time></trkpt><trkpt lat="45.6748283" lon="8.621085"><ele>288.2</ele><time>2026-04-12T10:38:34.001Z</time></trkpt><trkpt lat="45.6748783" lon="8.6209633"><ele>288.8</ele><time>2026-04-12T10:38:35.001Z</time></trkpt><trkpt lat="45.6749117" lon="8.62082"><ele>289.4</ele><time>2026-04-12T10:38:36.001Z</time></trkpt><trkpt lat="45.6749483" lon="8.62066"><ele>290.0</ele><time>2026-04-12T10:38:37.001Z</time></trkpt><trkpt lat="45.6749833" lon="8.6205"><ele>290.0</ele><time>2026-04-12T10:38:38.001Z</time></trkpt><trkpt lat="45.675015" lon="8.6203533"><ele>290.0</ele><time>2026-04-12T10:38:39.001Z</time></trkpt><trkpt lat="45.6750483" lon="8.6202183"><ele>290.0</ele><time>2026-04-12T10:38:40.001Z</time></trkpt><trkpt lat="45.675075" lon="8.620115"><ele>290.0</ele><time>2026-04-12T10:38:41.002Z</time></trkpt><trkpt lat="45.675095" lon="8.620005"><ele>290.0</ele><time>2026-04-12T10:38:42.001Z</time></trkpt><trkpt lat="45.6751133" lon="8.619855"><ele>290.33333333333337</ele><time>2026-04-12T10:38:44.002Z</time></trkpt><trkpt lat="45.6750983" lon="8.61976"><ele>290.6666666666667</ele><time>2026-04-12T10:38:45.001Z</time></trkpt><trkpt lat="45.6750717" lon="8.6196717"><ele>291.0</ele><time>2026-04-12T10:38:46.001Z</time></trkpt><trkpt lat="45.6750517" lon="8.619585"><ele>291.3333333333333</ele><time>2026-04-12T10:38:47.001Z</time></trkpt><trkpt lat="45.6750567" lon="8.6194233"><ele>291.66666666666663</ele><time>2026-04-12T10:38:49.001Z</time></trkpt><trkpt lat="45.6751217" lon="8.6192983"><ele>292.0</ele><time>2026-04-12T10:38:51.002Z</time></trkpt><trkpt lat="45.675175" lon="8.6192383"><ele>292.2</ele><time>2026-04-12T10:38:52.001Z</time></trkpt><trkpt lat="45.6752283" lon="8.6191767"><ele>292.4</ele><time>2026-04-12T10:38:53.001Z</time></trkpt><trkpt lat="45.6753033" lon="8.6190667"><ele>292.6</ele><time>2026-04-12T10:38:55.002Z</time></trkpt><trkpt lat="45.6753717" lon="8.6189633"><ele>292.8</ele><time>2026-04-12T10:38:57.002Z</time></trkpt><trkpt lat="45.6754267" lon="8.61886"><ele>293.0</ele><time>2026-04-12T10:38:59.001Z</time></trkpt><trkpt lat="45.6754883" lon="8.618695"><ele>293.0</ele><time>2026-04-12T10:39:01.001Z</time></trkpt><trkpt lat="45.6755167" lon="8.6186117"><ele>293.0</ele><time>2026-04-12T10:39:02.001Z</time></trkpt><trkpt lat="45.67555" lon="8.6185217"><ele>293.0</ele><time>2026-04-12T10:39:03.002Z</time></trkpt><trkpt lat="45.6755817" lon="8.6184267"><ele>293.0</ele><time>2026-04-12T10:39:04.002Z</time></trkpt><trkpt lat="45.6756167" lon="8.6183333"><ele>293.0</ele><time>2026-04-12T10:39:05.001Z</time></trkpt><trkpt lat="45.67566" lon="8.61818"><ele>293.0</ele><time>2026-04-12T10:39:07.001Z</time></trkpt><trkpt lat="45.6756767" lon="8.6180467"><ele>293.0</ele><time>2026-04-12T10:39:09.002Z</time></trkpt><trkpt lat="45.675705" lon="8.6178917"><ele>293.0</ele><time>2026-04-12T10:39:11.002Z</time></trkpt><trkpt lat="45.675755" lon="8.6177383"><ele>293.0</ele><time>2026-04-12T10:39:13.001Z</time></trkpt><trkpt lat="45.67579" lon="8.6176617"><ele>293.0</ele><time>2026-04-12T10:39:14.001Z</time></trkpt><trkpt lat="45.6758733" lon="8.6175583"><ele>293.0</ele><time>2026-04-12T10:39:16.002Z</time></trkpt><trkpt lat="45.67597" lon="8.61749"><ele>292.6666666666667</ele><time>2026-04-12T10:39:18.002Z</time></trkpt><trkpt lat="45.67606" lon="8.6174433"><ele>292.33333333333337</ele><time>2026-04-12T10:39:20.002Z</time></trkpt><trkpt lat="45.6761483" lon="8.6174"><ele>292.0</ele><time>2026-04-12T10:39:22.001Z</time></trkpt><trkpt lat="45.6762133" lon="8.61732"><ele>291.6666666666667</ele><time>2026-04-12T10:39:24.001Z</time></trkpt><trkpt lat="45.676245" lon="8.61724"><ele>291.3333333333333</ele><time>2026-04-12T10:39:26.001Z</time></trkpt><trkpt lat="45.6762667" lon="8.6171233"><ele>291.0</ele><time>2026-04-12T10:39:29.001Z</time></trkpt><trkpt lat="45.676285" lon="8.6170367"><ele>291.0</ele><time>2026-04-12T10:39:31.001Z</time></trkpt><trkpt lat="45.6762283" lon="8.6169083"><ele>291.0</ele><time>2026-04-12T10:46:00.001Z</time></trkpt><trkpt lat="45.6762483" lon="8.6167983"><ele>291.0</ele><time>2026-04-12T10:46:07.001Z</time></trkpt><trkpt lat="45.6762817" lon="8.6167067"><ele>291.0</ele><time>2026-04-12T10:46:08.002Z</time></trkpt><trkpt lat="45.6763267" lon="8.6166017"><ele>291.0</ele><time>2026-04-12T10:46:09.001Z</time></trkpt><trkpt lat="45.6763717" lon="8.6164967"><ele>291.0</ele><time>2026-04-12T10:46:10.002Z</time></trkpt><trkpt lat="45.6764217" lon="8.6164017"><ele>291.0</ele><time>2026-04-12T10:46:11.002Z</time></trkpt><trkpt lat="45.676475" lon="8.61631"><ele>291.0</ele><time>2026-04-12T10:46:12.001Z</time></trkpt><trkpt lat="45.676525" lon="8.6162183"><ele>291.0</ele><time>2026-04-12T10:46:13.001Z</time></trkpt><trkpt lat="45.6765767" lon="8.6161267"><ele>291.0</ele><time>2026-04-12T10:46:14.001Z</time></trkpt><trkpt lat="45.6766283" lon="8.6160383"><ele>291.0</ele><time>2026-04-12T10:46:15.001Z</time></trkpt><trkpt lat="45.67667" lon="8.6159583"><ele>291.0</ele><time>2026-04-12T10:46:16.001Z</time></trkpt><trkpt lat="45.6767183" lon="8.6158033"><ele>291.40000000000003</ele><time>2026-04-12T10:46:18.002Z</time></trkpt><trkpt lat="45.6767383" lon="8.6156417"><ele>291.8</ele><time>2026-04-12T10:46:20.002Z</time></trkpt><trkpt lat="45.6767217" lon="8.6155083"><ele>292.20000000000005</ele><time>2026-04-12T10:46:22.001Z</time></trkpt><trkpt lat="45.67671" lon="8.615415"><ele>292.6</ele><time>2026-04-12T10:46:24.001Z</time></trkpt><trkpt lat="45.6767033" lon="8.6152817"><ele>293.0</ele><time>2026-04-12T10:46:27.001Z</time></trkpt><trkpt lat="45.6767267" lon="8.6151683"><ele>293.2</ele><time>2026-04-12T10:46:29.001Z</time></trkpt><trkpt lat="45.676775" lon="8.6150283"><ele>293.4</ele><time>2026-04-12T10:46:31.001Z</time></trkpt><trkpt lat="45.6768167" lon="8.6148767"><ele>293.59999999999997</ele><time>2026-04-12T10:46:33.001Z</time></trkpt><trkpt lat="45.6768367" lon="8.614785"><ele>293.8</ele><time>2026-04-12T10:46:34.002Z</time></trkpt><trkpt lat="45.6768533" lon="8.614675"><ele>294.0</ele><time>2026-04-12T10:46:35.002Z</time></trkpt><trkpt lat="45.6768733" lon="8.614555"><ele>293.8333333333333</ele><time>2026-04-12T10:46:36.002Z</time></trkpt><trkpt lat="45.6768817" lon="8.6144267"><ele>293.6666666666667</ele><time>2026-04-12T10:46:37.001Z</time></trkpt><trkpt lat="45.67688" lon="8.6143083"><ele>293.5</ele><time>2026-04-12T10:46:38.001Z</time></trkpt><trkpt lat="45.6768683" lon="8.6141883"><ele>293.33333333333337</ele><time>2026-04-12T10:46:39.001Z</time></trkpt><trkpt lat="45.6768533" lon="8.614065"><ele>293.1666666666667</ele><time>2026-04-12T10:46:40.001Z</time></trkpt><trkpt lat="45.6768433" lon="8.6139517"><ele>293.0</ele><time>2026-04-12T10:46:41.001Z</time></trkpt><trkpt lat="45.676855" lon="8.6138567"><ele>293.0</ele><time>2026-04-12T10:46:42.001Z</time></trkpt><trkpt lat="45.67688" lon="8.613765"><ele>293.0</ele><time>2026-04-12T10:46:43.001Z</time></trkpt><trkpt lat="45.67695" lon="8.6136283"><ele>293.0</ele><time>2026-04-12T10:46:45.002Z</time></trkpt><trkpt lat="45.6770417" lon="8.6134967"><ele>293.0</ele><time>2026-04-12T10:46:47.002Z</time></trkpt><trkpt lat="45.6771117" lon="8.6134317"><ele>293.0</ele><time>2026-04-12T10:46:48.001Z</time></trkpt><trkpt lat="45.6771717" lon="8.6133683"><ele>292.33333333333337</ele><time>2026-04-12T10:46:49.001Z</time></trkpt><trkpt lat="45.6772233" lon="8.6132967"><ele>291.6666666666667</ele><time>2026-04-12T10:46:50.001Z</time></trkpt><trkpt lat="45.677275" lon="8.6132083"><ele>291.0</ele><time>2026-04-12T10:46:51.002Z</time></trkpt><trkpt lat="45.6773083" lon="8.6131183"><ele>290.3333333333333</ele><time>2026-04-12T10:46:52.001Z</time></trkpt><trkpt lat="45.6773383" lon="8.6130083"><ele>289.66666666666663</ele><time>2026-04-12T10:46:53.001Z</time></trkpt><trkpt lat="45.677365" lon="8.6129033"><ele>289.0</ele><time>2026-04-12T10:46:54.001Z</time></trkpt><trkpt lat="45.6774033" lon="8.6128033"><ele>288.8571428571429</ele><time>2026-04-12T10:46:55.001Z</time></trkpt><trkpt lat="45.677435" lon="8.61271"><ele>288.7142857142857</ele><time>2026-04-12T10:46:56.002Z</time></trkpt><trkpt lat="45.677455" lon="8.6126167"><ele>288.57142857142856</ele><time>2026-04-12T10:46:57.002Z</time></trkpt><trkpt lat="45.6774767" lon="8.6125267"><ele>288.42857142857144</ele><time>2026-04-12T10:46:58.002Z</time></trkpt><trkpt lat="45.6775133" lon="8.6124333"><ele>288.2857142857143</ele><time>2026-04-12T10:46:59.001Z</time></trkpt><trkpt lat="45.6775483" lon="8.6123433"><ele>288.14285714285717</ele><time>2026-04-12T10:47:00.001Z</time></trkpt><trkpt lat="45.6775883" lon="8.6122533"><ele>288.0</ele><time>2026-04-12T10:47:01.002Z</time></trkpt><trkpt lat="45.677625" lon="8.61217"><ele>288.00000000000006</ele><time>2026-04-12T10:47:02.001Z</time></trkpt><trkpt lat="45.677665" lon="8.6121"><ele>288.0</ele><time>2026-04-12T10:47:03.001Z</time></trkpt><trkpt lat="45.677705" lon="8.6120267"><ele>288.0</ele><time>2026-04-12T10:47:04.002Z</time></trkpt><trkpt lat="45.6777467" lon="8.6119517"><ele>288.0</ele><time>2026-04-12T10:47:05.001Z</time></trkpt><trkpt lat="45.67779" lon="8.6118783"><ele>288.0</ele><time>2026-04-12T10:47:06.001Z</time></trkpt><trkpt lat="45.6778367" lon="8.6118"><ele>288.00000000000006</ele><time>2026-04-12T10:47:07.002Z</time></trkpt><trkpt lat="45.677885" lon="8.611715"><ele>288.0</ele><time>2026-04-12T10:47:08.002Z</time></trkpt><trkpt lat="45.677935" lon="8.6116383"><ele>288.6</ele><time>2026-04-12T10:47:09.001Z</time></trkpt><trkpt lat="45.6779867" lon="8.6115667"><ele>289.20000000000005</ele><time>2026-04-12T10:47:10.002Z</time></trkpt><trkpt lat="45.6780733" lon="8.6115067"><ele>289.8</ele><time>2026-04-12T10:47:12.001Z</time></trkpt><trkpt lat="45.6781633" lon="8.6115283"><ele>290.40000000000003</ele><time>2026-04-12T10:47:14.002Z</time></trkpt><trkpt lat="45.6782683" lon="8.6115283"><ele>291.0</ele><time>2026-04-12T10:47:16.002Z</time></trkpt><trkpt lat="45.6783967" lon="8.6115417"><ele>291.0</ele><time>2026-04-12T10:47:18.002Z</time></trkpt><trkpt lat="45.678465" lon="8.6115433"><ele>291.0</ele><time>2026-04-12T10:47:19.001Z</time></trkpt><trkpt lat="45.6785317" lon="8.6115367"><ele>291.0</ele><time>2026-04-12T10:47:20.001Z</time></trkpt><trkpt lat="45.6786433" lon="8.6114883"><ele>291.0</ele><time>2026-04-12T10:47:22.001Z</time></trkpt><trkpt lat="45.67874" lon="8.6114033"><ele>291.0</ele><time>2026-04-12T10:47:24.001Z</time></trkpt><trkpt lat="45.6788283" lon="8.611285"><ele>290.8333333333333</ele><time>2026-04-12T10:47:26.001Z</time></trkpt><trkpt lat="45.6788817" lon="8.6112117"><ele>290.6666666666667</ele><time>2026-04-12T10:47:27.001Z</time></trkpt><trkpt lat="45.678935" lon="8.6111283"><ele>290.5</ele><time>2026-04-12T10:47:28.001Z</time></trkpt><trkpt lat="45.6789867" lon="8.611035"><ele>290.33333333333337</ele><time>2026-04-12T10:47:29.002Z</time></trkpt><trkpt lat="45.6790367" lon="8.6109533"><ele>290.1666666666667</ele><time>2026-04-12T10:47:30.001Z</time></trkpt><trkpt lat="45.6790933" lon="8.61089"><ele>290.0</ele><time>2026-04-12T10:47:31.001Z</time></trkpt><trkpt lat="45.67915" lon="8.6108333"><ele>290.0</ele><time>2026-04-12T10:47:32.002Z</time></trkpt><trkpt lat="45.679215" lon="8.6107783"><ele>290.0</ele><time>2026-04-12T10:47:33.001Z</time></trkpt><trkpt lat="45.6792783" lon="8.610715"><ele>290.0</ele><time>2026-04-12T10:47:34.002Z</time></trkpt><trkpt lat="45.6793317" lon="8.610615"><ele>290.0</ele><time>2026-04-12T10:47:35.002Z</time></trkpt><trkpt lat="45.67937" lon="8.610495"><ele>290.0</ele><time>2026-04-12T10:47:36.002Z</time></trkpt><trkpt lat="45.6794083" lon="8.6103767"><ele>290.0</ele><time>2026-04-12T10:47:37.001Z</time></trkpt><trkpt lat="45.6794467" lon="8.6102583"><ele>289.33333333333337</ele><time>2026-04-12T10:47:38.001Z</time></trkpt><trkpt lat="45.679485" lon="8.6101567"><ele>288.6666666666667</ele><time>2026-04-12T10:47:39.001Z</time></trkpt><trkpt lat="45.6795217" lon="8.61006"><ele>288.0</ele><time>2026-04-12T10:47:40.001Z</time></trkpt><trkpt lat="45.6795567" lon="8.60996"><ele>287.3333333333333</ele><time>2026-04-12T10:47:41.001Z</time></trkpt><trkpt lat="45.6795933" lon="8.6098483"><ele>286.66666666666663</ele><time>2026-04-12T10:47:42.001Z</time></trkpt><trkpt lat="45.67963" lon="8.6097383"><ele>286.0</ele><time>2026-04-12T10:47:43.001Z</time></trkpt><trkpt lat="45.6796717" lon="8.60964"><ele>286.0</ele><time>2026-04-12T10:47:44.001Z</time></trkpt><trkpt lat="45.6797217" lon="8.6095567"><ele>286.0</ele><time>2026-04-12T10:47:45.001Z</time></trkpt><trkpt lat="45.679795" lon="8.6094783"><ele>286.0</ele><time>2026-04-12T10:47:46.001Z</time></trkpt><trkpt lat="45.679875" lon="8.609395"><ele>286.0</ele><time>2026-04-12T10:47:47.001Z</time></trkpt><trkpt lat="45.679955" lon="8.6092983"><ele>286.0</ele><time>2026-04-12T10:47:48.002Z</time></trkpt><trkpt lat="45.6800383" lon="8.6091967"><ele>286.0</ele><time>2026-04-12T10:47:49.001Z</time></trkpt><trkpt lat="45.6801117" lon="8.609115"><ele>286.0</ele><time>2026-04-12T10:47:50.001Z</time></trkpt><trkpt lat="45.6801767" lon="8.609045"><ele>286.0</ele><time>2026-04-12T10:47:51.001Z</time></trkpt><trkpt lat="45.6802317" lon="8.6089667"><ele>286.0</ele><time>2026-04-12T10:47:52.001Z</time></trkpt><trkpt lat="45.68027" lon="8.6088683"><ele>286.0</ele><time>2026-04-12T10:47:53.001Z</time></trkpt><trkpt lat="45.6802867" lon="8.6087583"><ele>286.0</ele><time>2026-04-12T10:47:54.002Z</time></trkpt><trkpt lat="45.680285" lon="8.6086483"><ele>286.16666666666663</ele><time>2026-04-12T10:47:55.001Z</time></trkpt><trkpt lat="45.6802683" lon="8.60854"><ele>286.3333333333333</ele><time>2026-04-12T10:47:56.001Z</time></trkpt><trkpt lat="45.680255" lon="8.6084367"><ele>286.5</ele><time>2026-04-12T10:47:57.002Z</time></trkpt><trkpt lat="45.680245" lon="8.60833"><ele>286.6666666666667</ele><time>2026-04-12T10:47:58.001Z</time></trkpt><trkpt lat="45.680225" lon="8.6082217"><ele>286.83333333333337</ele><time>2026-04-12T10:47:59.001Z</time></trkpt><trkpt lat="45.6801967" lon="8.6081167"><ele>287.0</ele><time>2026-04-12T10:48:00.001Z</time></trkpt><trkpt lat="45.6801483" lon="8.60796"><ele>287.5</ele><time>2026-04-12T10:48:02.001Z</time></trkpt><trkpt lat="45.6801633" lon="8.60782"><ele>288.0</ele><time>2026-04-12T10:48:08.001Z</time></trkpt><trkpt lat="45.6802367" lon="8.60779"><ele>288.5</ele><time>2026-04-12T10:48:09.002Z</time></trkpt><trkpt lat="45.68032" lon="8.6077633"><ele>289.0</ele><time>2026-04-12T10:48:10.001Z</time></trkpt><trkpt lat="45.6804017" lon="8.6077333"><ele>289.5</ele><time>2026-04-12T10:48:11.001Z</time></trkpt><trkpt lat="45.680485" lon="8.607705"><ele>290.0</ele><time>2026-04-12T10:48:12.002Z</time></trkpt><trkpt lat="45.6805717" lon="8.6076667"><ele>290.0</ele><time>2026-04-12T10:48:13.001Z</time></trkpt><trkpt lat="45.6806683" lon="8.6076317"><ele>290.0</ele><time>2026-04-12T10:48:14.002Z</time></trkpt><trkpt lat="45.6807667" lon="8.6075883"><ele>290.0</ele><time>2026-04-12T10:48:15.002Z</time></trkpt><trkpt lat="45.680875" lon="8.607535"><ele>290.0</ele><time>2026-04-12T10:48:16.001Z</time></trkpt><trkpt lat="45.680985" lon="8.6074683"><ele>290.0</ele><time>2026-04-12T10:48:17.001Z</time></trkpt><trkpt lat="45.68109" lon="8.60739"><ele>289.8</ele><time>2026-04-12T10:48:18.001Z</time></trkpt><trkpt lat="45.68119" lon="8.6073283"><ele>289.6</ele><time>2026-04-12T10:48:19.001Z</time></trkpt><trkpt lat="45.6812933" lon="8.60727"><ele>289.4</ele><time>2026-04-12T10:48:20.001Z</time></trkpt><trkpt lat="45.6813967" lon="8.6072317"><ele>289.2</ele><time>2026-04-12T10:48:21.001Z</time></trkpt><trkpt lat="45.6815033" lon="8.6071817"><ele>289.0</ele><time>2026-04-12T10:48:22.002Z</time></trkpt><trkpt lat="45.681605" lon="8.6071433"><ele>289.0</ele><time>2026-04-12T10:48:23.002Z</time></trkpt><trkpt lat="45.6816967" lon="8.6071167"><ele>289.0</ele><time>2026-04-12T10:48:24.002Z</time></trkpt><trkpt lat="45.681775" lon="8.6070917"><ele>289.0</ele><time>2026-04-12T10:48:25.001Z</time></trkpt><trkpt lat="45.68184" lon="8.60708"><ele>289.0</ele><time>2026-04-12T10:48:26.001Z</time></trkpt><trkpt lat="45.6819183" lon="8.6070717"><ele>289.0</ele><time>2026-04-12T10:48:28.001Z</time></trkpt><trkpt lat="45.6820217" lon="8.606975"><ele>289.0</ele><time>2026-04-12T10:48:30.001Z</time></trkpt><trkpt lat="45.68208" lon="8.6069133"><ele>289.16666666666663</ele><time>2026-04-12T10:48:31.001Z</time></trkpt><trkpt lat="45.6821517" lon="8.606875"><ele>289.3333333333333</ele><time>2026-04-12T10:48:32.001Z</time></trkpt><trkpt lat="45.6822233" lon="8.6068517"><ele>289.5</ele><time>2026-04-12T10:48:33.001Z</time></trkpt><trkpt lat="45.682305" lon="8.606815"><ele>289.6666666666667</ele><time>2026-04-12T10:48:34.002Z</time></trkpt><trkpt lat="45.6823817" lon="8.6067817"><ele>289.83333333333337</ele><time>2026-04-12T10:48:35.002Z</time></trkpt><trkpt lat="45.6824483" lon="8.6067483"><ele>290.0</ele><time>2026-04-12T10:48:36.001Z</time></trkpt><trkpt lat="45.682525" lon="8.6067167"><ele>290.0</ele><time>2026-04-12T10:48:37.001Z</time></trkpt><trkpt lat="45.6826033" lon="8.60668"><ele>290.0</ele><time>2026-04-12T10:48:38.002Z</time></trkpt><trkpt lat="45.682675" lon="8.6066367"><ele>290.0</ele><time>2026-04-12T10:48:39.001Z</time></trkpt><trkpt lat="45.6827483" lon="8.6065917"><ele>290.0</ele><time>2026-04-12T10:48:40.001Z</time></trkpt><trkpt lat="45.68282" lon="8.606555"><ele>290.0</ele><time>2026-04-12T10:48:41.001Z</time></trkpt><trkpt lat="45.6828967" lon="8.60651"><ele>290.0</ele><time>2026-04-12T10:48:42.001Z</time></trkpt><trkpt lat="45.682975" lon="8.606475"><ele>290.33333333333337</ele><time>2026-04-12T10:48:43.001Z</time></trkpt><trkpt lat="45.6830517" lon="8.6064433"><ele>290.6666666666667</ele><time>2026-04-12T10:48:44.002Z</time></trkpt><trkpt lat="45.68313" lon="8.6064083"><ele>291.0</ele><time>2026-04-12T10:48:45.001Z</time></trkpt><trkpt lat="45.6831983" lon="8.6063667"><ele>291.3333333333333</ele><time>2026-04-12T10:48:46.001Z</time></trkpt><trkpt lat="45.6832667" lon="8.6063267"><ele>291.66666666666663</ele><time>2026-04-12T10:48:47.002Z</time></trkpt><trkpt lat="45.6833433" lon="8.6062883"><ele>292.0</ele><time>2026-04-12T10:48:48.001Z</time></trkpt><trkpt lat="45.683425" lon="8.6062533"><ele>292.0</ele><time>2026-04-12T10:48:49.002Z</time></trkpt><trkpt lat="45.683495" lon="8.6062267"><ele>292.0</ele><time>2026-04-12T10:48:50.001Z</time></trkpt><trkpt lat="45.6835717" lon="8.6061783"><ele>292.0</ele><time>2026-04-12T10:48:51.001Z</time></trkpt><trkpt lat="45.6836517" lon="8.606135"><ele>292.0</ele><time>2026-04-12T10:48:52.001Z</time></trkpt><trkpt lat="45.6837367" lon="8.6060867"><ele>292.0</ele><time>2026-04-12T10:48:53.002Z</time></trkpt><trkpt lat="45.6838267" lon="8.60604"><ele>292.0</ele><time>2026-04-12T10:48:54.002Z</time></trkpt><trkpt lat="45.6839133" lon="8.6059883"><ele>292.0</ele><time>2026-04-12T10:48:55.001Z</time></trkpt><trkpt lat="45.6840033" lon="8.6059383"><ele>292.0</ele><time>2026-04-12T10:48:56.001Z</time></trkpt><trkpt lat="45.6841" lon="8.6058883"><ele>292.0</ele><time>2026-04-12T10:48:57.001Z</time></trkpt><trkpt lat="45.6841867" lon="8.6058333"><ele>292.0</ele><time>2026-04-12T10:48:58.002Z</time></trkpt><trkpt lat="45.6842717" lon="8.6057767"><ele>292.0</ele><time>2026-04-12T10:48:59.001Z</time></trkpt><trkpt lat="45.6843433" lon="8.6057133"><ele>292.0</ele><time>2026-04-12T10:49:00.001Z</time></trkpt><trkpt lat="45.68442" lon="8.6056517"><ele>292.0</ele><time>2026-04-12T10:49:01.001Z</time></trkpt><trkpt lat="45.684505" lon="8.605585"><ele>292.0</ele><time>2026-04-12T10:49:02.002Z</time></trkpt><trkpt lat="45.6846" lon="8.605515"><ele>292.0</ele><time>2026-04-12T10:49:03.002Z</time></trkpt><trkpt lat="45.6847" lon="8.6054517"><ele>292.0</ele><time>2026-04-12T10:49:04.001Z</time></trkpt><trkpt lat="45.68479" lon="8.605385"><ele>292.2</ele><time>2026-04-12T10:49:05.001Z</time></trkpt><trkpt lat="45.6848783" lon="8.6053267"><ele>292.4</ele><time>2026-04-12T10:49:06.001Z</time></trkpt><trkpt lat="45.6849633" lon="8.6052733"><ele>292.6</ele><time>2026-04-12T10:49:07.001Z</time></trkpt><trkpt lat="45.68505" lon="8.60521"><ele>292.8</ele><time>2026-04-12T10:49:08.001Z</time></trkpt><trkpt lat="45.6851367" lon="8.6051383"><ele>293.0</ele><time>2026-04-12T10:49:09.001Z</time></trkpt><trkpt lat="45.6852217" lon="8.6050817"><ele>293.0</ele><time>2026-04-12T10:49:10.001Z</time></trkpt><trkpt lat="45.6853017" lon="8.6050283"><ele>293.0</ele><time>2026-04-12T10:49:11.001Z</time></trkpt><trkpt lat="45.6853683" lon="8.6049767"><ele>293.0</ele><time>2026-04-12T10:49:12.002Z</time></trkpt><trkpt lat="45.685455" lon="8.6049167"><ele>293.0</ele><time>2026-04-12T10:49:14.001Z</time></trkpt><trkpt lat="45.6855183" lon="8.6047983"><ele>293.0</ele><time>2026-04-12T10:49:29.001Z</time></trkpt><trkpt lat="45.6855133" lon="8.6046683"><ele>293.0</ele><time>2026-04-12T10:49:31.001Z</time></trkpt><trkpt lat="45.6854633" lon="8.604575"><ele>293.0</ele><time>2026-04-12T10:49:32.002Z</time></trkpt><trkpt lat="45.6853933" lon="8.60449"><ele>293.0</ele><time>2026-04-12T10:49:33.002Z</time></trkpt><trkpt lat="45.6853183" lon="8.6043883"><ele>293.0</ele><time>2026-04-12T10:49:34.001Z</time></trkpt><trkpt lat="45.6852467" lon="8.6042917"><ele>293.0</ele><time>2026-04-12T10:49:35.001Z</time></trkpt><trkpt lat="45.68518" lon="8.6041933"><ele>293.0</ele><time>2026-04-12T10:49:36.001Z</time></trkpt><trkpt lat="45.6851117" lon="8.6041067"><ele>293.0</ele><time>2026-04-12T10:49:37.001Z</time></trkpt><trkpt lat="45.6850567" lon="8.60402"><ele>293.0</ele><time>2026-04-12T10:49:38.002Z</time></trkpt><trkpt lat="45.68498" lon="8.6039183"><ele>293.0</ele><time>2026-04-12T10:49:39.001Z</time></trkpt><trkpt lat="45.6849017" lon="8.603805"><ele>293.0</ele><time>2026-04-12T10:49:40.002Z</time></trkpt><trkpt lat="45.6848233" lon="8.6037167"><ele>293.0</ele><time>2026-04-12T10:49:41.002Z</time></trkpt><trkpt lat="45.6847467" lon="8.603625"><ele>293.0</ele><time>2026-04-12T10:49:42.001Z</time></trkpt><trkpt lat="45.68467" lon="8.6035317"><ele>293.0</ele><time>2026-04-12T10:49:43.001Z</time></trkpt><trkpt lat="45.6846017" lon="8.6034267"><ele>293.0</ele><time>2026-04-12T10:49:44.001Z</time></trkpt><trkpt lat="45.6845317" lon="8.6033267"><ele>293.0</ele><time>2026-04-12T10:49:45.001Z</time></trkpt><trkpt lat="45.6844467" lon="8.6032183"><ele>292.25</ele><time>2026-04-12T10:49:46.001Z</time></trkpt><trkpt lat="45.6843617" lon="8.60311"><ele>291.5</ele><time>2026-04-12T10:49:47.001Z</time></trkpt><trkpt lat="45.6842833" lon="8.6029917"><ele>290.75</ele><time>2026-04-12T10:49:48.001Z</time></trkpt><trkpt lat="45.6842067" lon="8.60287"><ele>290.0</ele><time>2026-04-12T10:49:49.002Z</time></trkpt><trkpt lat="45.6841217" lon="8.6027433"><ele>290.0</ele><time>2026-04-12T10:49:50.001Z</time></trkpt><trkpt lat="45.6840333" lon="8.602625"><ele>290.0</ele><time>2026-04-12T10:49:51.001Z</time></trkpt><trkpt lat="45.68395" lon="8.6025083"><ele>290.0</ele><time>2026-04-12T10:49:52.001Z</time></trkpt><trkpt lat="45.6838783" lon="8.6024"><ele>290.0</ele><time>2026-04-12T10:49:53.001Z</time></trkpt><trkpt lat="45.6838017" lon="8.6023033"><ele>290.0</ele><time>2026-04-12T10:49:54.001Z</time></trkpt><trkpt lat="45.6837383" lon="8.6022133"><ele>290.0</ele><time>2026-04-12T10:49:55.002Z</time></trkpt><trkpt lat="45.6836733" lon="8.6020967"><ele>290.0</ele><time>2026-04-12T10:49:56.002Z</time></trkpt><trkpt lat="45.6836017" lon="8.601995"><ele>290.0</ele><time>2026-04-12T10:49:57.001Z</time></trkpt><trkpt lat="45.6835133" lon="8.6018817"><ele>290.0</ele><time>2026-04-12T10:49:58.001Z</time></trkpt><trkpt lat="45.683415" lon="8.601765"><ele>290.5</ele><time>2026-04-12T10:49:59.001Z</time></trkpt><trkpt lat="45.6833283" lon="8.6016467"><ele>291.0</ele><time>2026-04-12T10:50:00.002Z</time></trkpt><trkpt lat="45.6832533" lon="8.60153"><ele>291.5</ele><time>2026-04-12T10:50:01.001Z</time></trkpt><trkpt lat="45.683165" lon="8.60142"><ele>292.0</ele><time>2026-04-12T10:50:02.002Z</time></trkpt><trkpt lat="45.6830817" lon="8.6013083"><ele>292.0</ele><time>2026-04-12T10:50:03.001Z</time></trkpt><trkpt lat="45.6830017" lon="8.6011967"><ele>292.0</ele><time>2026-04-12T10:50:04.002Z</time></trkpt><trkpt lat="45.6829133" lon="8.6010783"><ele>292.0</ele><time>2026-04-12T10:50:05.001Z</time></trkpt><trkpt lat="45.6828317" lon="8.6009683"><ele>292.0</ele><time>2026-04-12T10:50:06.002Z</time></trkpt><trkpt lat="45.682745" lon="8.6008733"><ele>292.2</ele><time>2026-04-12T10:50:07.002Z</time></trkpt><trkpt lat="45.68266" lon="8.600775"><ele>292.4</ele><time>2026-04-12T10:50:08.001Z</time></trkpt><trkpt lat="45.68257" lon="8.6006633"><ele>292.6</ele><time>2026-04-12T10:50:09.002Z</time></trkpt><trkpt lat="45.6824867" lon="8.6005667"><ele>292.8</ele><time>2026-04-12T10:50:10.002Z</time></trkpt><trkpt lat="45.6824067" lon="8.600475"><ele>293.0</ele><time>2026-04-12T10:50:11.001Z</time></trkpt><trkpt lat="45.6823233" lon="8.6003767"><ele>293.33333333333337</ele><time>2026-04-12T10:50:12.002Z</time></trkpt><trkpt lat="45.6822483" lon="8.600295"><ele>293.6666666666667</ele><time>2026-04-12T10:50:13.001Z</time></trkpt><trkpt lat="45.6821817" lon="8.6002183"><ele>294.0</ele><time>2026-04-12T10:50:14.002Z</time></trkpt><trkpt lat="45.6821267" lon="8.600145"><ele>294.3333333333333</ele><time>2026-04-12T10:50:15.002Z</time></trkpt><trkpt lat="45.682065" lon="8.6000367"><ele>294.66666666666663</ele><time>2026-04-12T10:50:17.001Z</time></trkpt><trkpt lat="45.6820133" lon="8.59996"><ele>295.0</ele><time>2026-04-12T10:50:26.002Z</time></trkpt><trkpt lat="45.6819583" lon="8.5998883"><ele>296.16666666666663</ele><time>2026-04-12T10:50:27.002Z</time></trkpt><trkpt lat="45.6819033" lon="8.5998117"><ele>297.3333333333333</ele><time>2026-04-12T10:50:28.001Z</time></trkpt><trkpt lat="45.6818433" lon="8.5997283"><ele>298.5</ele><time>2026-04-12T10:50:29.001Z</time></trkpt><trkpt lat="45.6817867" lon="8.5996517"><ele>299.6666666666667</ele><time>2026-04-12T10:50:30.001Z</time></trkpt><trkpt lat="45.6817183" lon="8.5995483"><ele>300.83333333333337</ele><time>2026-04-12T10:50:32.001Z</time></trkpt><trkpt lat="45.68173" lon="8.5994183"><ele>302.0</ele><time>2026-04-12T10:50:35.002Z</time></trkpt><trkpt lat="45.6817967" lon="8.5993067"><ele>300.8</ele><time>2026-04-12T10:50:37.001Z</time></trkpt><trkpt lat="45.6818717" lon="8.5991817"><ele>299.6</ele><time>2026-04-12T10:50:39.002Z</time></trkpt><trkpt lat="45.68191" lon="8.5991083"><ele>298.40000000000003</ele><time>2026-04-12T10:50:40.001Z</time></trkpt><trkpt lat="45.68199" lon="8.5989817"><ele>297.2</ele><time>2026-04-12T10:50:42.001Z</time></trkpt><trkpt lat="45.6820683" lon="8.598835"><ele>296.0</ele><time>2026-04-12T10:50:44.001Z</time></trkpt><trkpt lat="45.6821167" lon="8.5987717"><ele>296.0</ele><time>2026-04-12T10:50:45.001Z</time></trkpt><trkpt lat="45.6821667" lon="8.5987083"><ele>296.0</ele><time>2026-04-12T10:50:46.002Z</time></trkpt><trkpt lat="45.6822167" lon="8.5986467"><ele>296.0</ele><time>2026-04-12T10:50:47.001Z</time></trkpt><trkpt lat="45.682265" lon="8.5985817"><ele>296.0</ele><time>2026-04-12T10:50:48.001Z</time></trkpt><trkpt lat="45.68231" lon="8.5985033"><ele>296.0</ele><time>2026-04-12T10:50:49.001Z</time></trkpt><trkpt lat="45.6823633" lon="8.5984267"><ele>296.0</ele><time>2026-04-12T10:50:50.002Z</time></trkpt><trkpt lat="45.682415" lon="8.5983517"><ele>296.0</ele><time>2026-04-12T10:50:51.001Z</time></trkpt><trkpt lat="45.6824617" lon="8.5982733"><ele>297.33333333333337</ele><time>2026-04-12T10:50:52.001Z</time></trkpt><trkpt lat="45.6825067" lon="8.598195"><ele>298.6666666666667</ele><time>2026-04-12T10:50:53.001Z</time></trkpt><trkpt lat="45.682545" lon="8.5981117"><ele>300.0</ele><time>2026-04-12T10:50:54.001Z</time></trkpt><trkpt lat="45.682585" lon="8.59803"><ele>301.3333333333333</ele><time>2026-04-12T10:50:55.001Z</time></trkpt><trkpt lat="45.682625" lon="8.5979533"><ele>302.66666666666663</ele><time>2026-04-12T10:50:56.002Z</time></trkpt><trkpt lat="45.6826933" lon="8.5977967"><ele>304.0</ele><time>2026-04-12T10:50:58.001Z</time></trkpt><trkpt lat="45.6827433" lon="8.5976617"><ele>303.8333333333333</ele><time>2026-04-12T10:51:00.001Z</time></trkpt><trkpt lat="45.6827367" lon="8.5975267"><ele>303.66666666666663</ele><time>2026-04-12T10:51:03.001Z</time></trkpt><trkpt lat="45.6827567" lon="8.5974067"><ele>303.5</ele><time>2026-04-12T10:51:05.002Z</time></trkpt><trkpt lat="45.6828183" lon="8.5972783"><ele>303.3333333333333</ele><time>2026-04-12T10:51:07.001Z</time></trkpt><trkpt lat="45.68286" lon="8.5972067"><ele>303.1666666666667</ele><time>2026-04-12T10:51:08.001Z</time></trkpt><trkpt lat="45.6829083" lon="8.597135"><ele>303.0</ele><time>2026-04-12T10:51:09.002Z</time></trkpt><trkpt lat="45.6829567" lon="8.59706"><ele>304.8333333333333</ele><time>2026-04-12T10:51:10.002Z</time></trkpt><trkpt lat="45.6830133" lon="8.5969733"><ele>306.6666666666667</ele><time>2026-04-12T10:51:11.001Z</time></trkpt><trkpt lat="45.6830733" lon="8.596895"><ele>308.5</ele><time>2026-04-12T10:51:12.001Z</time></trkpt><trkpt lat="45.6831267" lon="8.596815"><ele>310.33333333333337</ele><time>2026-04-12T10:51:13.002Z</time></trkpt><trkpt lat="45.68318" lon="8.5967333"><ele>312.1666666666667</ele><time>2026-04-12T10:51:14.002Z</time></trkpt><trkpt lat="45.6832367" lon="8.5966483"><ele>314.0</ele><time>2026-04-12T10:51:15.001Z</time></trkpt><trkpt lat="45.68329" lon="8.5965583"><ele>314.0</ele><time>2026-04-12T10:51:16.002Z</time></trkpt><trkpt lat="45.68335" lon="8.5964567"><ele>314.0</ele><time>2026-04-12T10:51:17.001Z</time></trkpt><trkpt lat="45.683405" lon="8.59635"><ele>314.0</ele><time>2026-04-12T10:51:18.001Z</time></trkpt><trkpt lat="45.6834683" lon="8.5962233"><ele>314.0</ele><time>2026-04-12T10:51:19.002Z</time></trkpt><trkpt lat="45.6835217" lon="8.596105"><ele>314.0</ele><time>2026-04-12T10:51:20.001Z</time></trkpt><trkpt lat="45.6835733" lon="8.5960017"><ele>312.2</ele><time>2026-04-12T10:51:21.002Z</time></trkpt><trkpt lat="45.683635" lon="8.5958467"><ele>310.4</ele><time>2026-04-12T10:51:23.001Z</time></trkpt><trkpt lat="45.6836783" lon="8.5957383"><ele>308.6</ele><time>2026-04-12T10:51:24.001Z</time></trkpt><trkpt lat="45.6837167" lon="8.5956133"><ele>306.8</ele><time>2026-04-12T10:51:25.001Z</time></trkpt><trkpt lat="45.6837567" lon="8.59549"><ele>305.0</ele><time>2026-04-12T10:51:26.002Z</time></trkpt><trkpt lat="45.683795" lon="8.5953783"><ele>306.2</ele><time>2026-04-12T10:51:27.001Z</time></trkpt><trkpt lat="45.6838333" lon="8.59528"><ele>307.4</ele><time>2026-04-12T10:51:28.002Z</time></trkpt><trkpt lat="45.683895" lon="8.595165"><ele>308.6</ele><time>2026-04-12T10:51:30.001Z</time></trkpt><trkpt lat="45.6839633" lon="8.59506"><ele>309.8</ele><time>2026-04-12T10:51:32.001Z</time></trkpt><trkpt lat="45.6840217" lon="8.5948983"><ele>311.0</ele><time>2026-04-12T10:51:34.001Z</time></trkpt><trkpt lat="45.6840483" lon="8.5948067"><ele>311.0</ele><time>2026-04-12T10:51:35.002Z</time></trkpt><trkpt lat="45.6840933" lon="8.5946483"><ele>311.0</ele><time>2026-04-12T10:51:37.002Z</time></trkpt><trkpt lat="45.6841183" lon="8.5945017"><ele>311.0</ele><time>2026-04-12T10:51:39.001Z</time></trkpt><trkpt lat="45.6841317" lon="8.5943517"><ele>311.0</ele><time>2026-04-12T10:51:41.001Z</time></trkpt><trkpt lat="45.6841483" lon="8.5942617"><ele>311.0</ele><time>2026-04-12T10:51:42.002Z</time></trkpt><trkpt lat="45.6841683" lon="8.5941667"><ele>311.85714285714283</ele><time>2026-04-12T10:51:43.001Z</time></trkpt><trkpt lat="45.6841883" lon="8.5940717"><ele>312.7142857142857</ele><time>2026-04-12T10:51:44.001Z</time></trkpt><trkpt lat="45.6842067" lon="8.593975"><ele>313.57142857142856</ele><time>2026-04-12T10:51:45.001Z</time></trkpt><trkpt lat="45.68422" lon="8.5938667"><ele>314.42857142857144</ele><time>2026-04-12T10:51:46.001Z</time></trkpt><trkpt lat="45.684235" lon="8.59376"><ele>315.2857142857143</ele><time>2026-04-12T10:51:47.002Z</time></trkpt><trkpt lat="45.6842467" lon="8.5936517"><ele>316.14285714285717</ele><time>2026-04-12T10:51:48.001Z</time></trkpt><trkpt lat="45.6842383" lon="8.593545"><ele>317.0</ele><time>2026-04-12T10:51:49.001Z</time></trkpt><trkpt lat="45.68424" lon="8.5933633"><ele>317.1666666666667</ele><time>2026-04-12T10:51:51.001Z</time></trkpt><trkpt lat="45.6842317" lon="8.5932717"><ele>317.33333333333337</ele><time>2026-04-12T10:51:52.001Z</time></trkpt><trkpt lat="45.68424" lon="8.5931717"><ele>317.5</ele><time>2026-04-12T10:51:53.001Z</time></trkpt><trkpt lat="45.684295" lon="8.5930633"><ele>317.6666666666667</ele><time>2026-04-12T10:51:55.001Z</time></trkpt><trkpt lat="45.6844133" lon="8.59308"><ele>317.8333333333333</ele><time>2026-04-12T10:51:57.001Z</time></trkpt><trkpt lat="45.684505" lon="8.5931083"><ele>318.0</ele><time>2026-04-12T10:51:58.001Z</time></trkpt><trkpt lat="45.6845983" lon="8.593155"><ele>316.5</ele><time>2026-04-12T10:51:59.002Z</time></trkpt><trkpt lat="45.68469" lon="8.593175"><ele>315.0</ele><time>2026-04-12T10:52:00.002Z</time></trkpt><trkpt lat="45.684775" lon="8.5931867"><ele>313.5</ele><time>2026-04-12T10:52:01.001Z</time></trkpt><trkpt lat="45.684845" lon="8.59316"><ele>312.0</ele><time>2026-04-12T10:52:02.001Z</time></trkpt><trkpt lat="45.6849033" lon="8.5931183"><ele>310.5</ele><time>2026-04-12T10:52:03.002Z</time></trkpt><trkpt lat="45.6849917" lon="8.5930083"><ele>309.0</ele><time>2026-04-12T10:52:05.002Z</time></trkpt><trkpt lat="45.68504" lon="8.5929267"><ele>309.5</ele><time>2026-04-12T10:52:06.001Z</time></trkpt><trkpt lat="45.6850917" lon="8.5928383"><ele>310.0</ele><time>2026-04-12T10:52:07.002Z</time></trkpt><trkpt lat="45.685155" lon="8.592755"><ele>310.5</ele><time>2026-04-12T10:52:08.002Z</time></trkpt><trkpt lat="45.685225" lon="8.5926833"><ele>311.0</ele><time>2026-04-12T10:52:09.001Z</time></trkpt><trkpt lat="45.6852767" lon="8.592625"><ele>311.5</ele><time>2026-04-12T10:52:10.001Z</time></trkpt><trkpt lat="45.68532" lon="8.5925483"><ele>312.0</ele><time>2026-04-12T10:52:11.001Z</time></trkpt><trkpt lat="45.6853633" lon="8.59246"><ele>312.0</ele><time>2026-04-12T10:52:12.001Z</time></trkpt><trkpt lat="45.68542" lon="8.5923633"><ele>312.0</ele><time>2026-04-12T10:52:13.001Z</time></trkpt><trkpt lat="45.68548" lon="8.5922633"><ele>312.0</ele><time>2026-04-12T10:52:14.001Z</time></trkpt><trkpt lat="45.6855333" lon="8.5921767"><ele>312.0</ele><time>2026-04-12T10:52:15.001Z</time></trkpt><trkpt lat="45.68559" lon="8.592085"><ele>312.0</ele><time>2026-04-12T10:52:16.001Z</time></trkpt><trkpt lat="45.685655" lon="8.592"><ele>312.0</ele><time>2026-04-12T10:52:17.001Z</time></trkpt><trkpt lat="45.68572" lon="8.5919133"><ele>313.3333333333333</ele><time>2026-04-12T10:52:18.001Z</time></trkpt><trkpt lat="45.68578" lon="8.591835"><ele>314.6666666666667</ele><time>2026-04-12T10:52:19.001Z</time></trkpt><trkpt lat="45.6858333" lon="8.5917583"><ele>316.0</ele><time>2026-04-12T10:52:20.001Z</time></trkpt><trkpt lat="45.6858917" lon="8.5916733"><ele>317.33333333333337</ele><time>2026-04-12T10:52:21.002Z</time></trkpt><trkpt lat="45.685955" lon="8.5915833"><ele>318.6666666666667</ele><time>2026-04-12T10:52:22.001Z</time></trkpt><trkpt lat="45.68601" lon="8.5914883"><ele>320.0</ele><time>2026-04-12T10:52:23.001Z</time></trkpt><trkpt lat="45.68606" lon="8.59139"><ele>319.33333333333337</ele><time>2026-04-12T10:52:24.002Z</time></trkpt><trkpt lat="45.6861067" lon="8.5912917"><ele>318.6666666666667</ele><time>2026-04-12T10:52:25.001Z</time></trkpt><trkpt lat="45.6861517" lon="8.591185"><ele>318.0</ele><time>2026-04-12T10:52:26.001Z</time></trkpt><trkpt lat="45.68619" lon="8.59108"><ele>317.3333333333333</ele><time>2026-04-12T10:52:27.001Z</time></trkpt><trkpt lat="45.68623" lon="8.5909683"><ele>316.66666666666663</ele><time>2026-04-12T10:52:28.002Z</time></trkpt><trkpt lat="45.686265" lon="8.5908567"><ele>316.0</ele><time>2026-04-12T10:52:29.001Z</time></trkpt><trkpt lat="45.6862983" lon="8.5907467"><ele>316.00000000000006</ele><time>2026-04-12T10:52:30.001Z</time></trkpt><trkpt lat="45.68633" lon="8.590655"><ele>316.0</ele><time>2026-04-12T10:52:31.002Z</time></trkpt><trkpt lat="45.6863617" lon="8.590565"><ele>316.0</ele><time>2026-04-12T10:52:32.002Z</time></trkpt><trkpt lat="45.6863917" lon="8.5904783"><ele>316.0</ele><time>2026-04-12T10:52:33.001Z</time></trkpt><trkpt lat="45.6864317" lon="8.5904"><ele>316.0</ele><time>2026-04-12T10:52:34.001Z</time></trkpt><trkpt lat="45.68648" lon="8.59032"><ele>316.00000000000006</ele><time>2026-04-12T10:52:35.002Z</time></trkpt><trkpt lat="45.6865283" lon="8.5902417"><ele>316.0</ele><time>2026-04-12T10:52:36.001Z</time></trkpt><trkpt lat="45.6865817" lon="8.5901583"><ele>317.20000000000005</ele><time>2026-04-12T10:52:37.001Z</time></trkpt><trkpt lat="45.6866283" lon="8.5900567"><ele>318.40000000000003</ele><time>2026-04-12T10:52:38.001Z</time></trkpt><trkpt lat="45.6866667" lon="8.5899583"><ele>319.6</ele><time>2026-04-12T10:52:39.001Z</time></trkpt><trkpt lat="45.68671" lon="8.589845"><ele>320.8</ele><time>2026-04-12T10:52:40.001Z</time></trkpt><trkpt lat="45.6867633" lon="8.58972"><ele>322.0</ele><time>2026-04-12T10:52:41.002Z</time></trkpt><trkpt lat="45.68681" lon="8.5896017"><ele>320.6</ele><time>2026-04-12T10:52:42.001Z</time></trkpt><trkpt lat="45.6868533" lon="8.5894833"><ele>319.20000000000005</ele><time>2026-04-12T10:52:43.001Z</time></trkpt><trkpt lat="45.6869017" lon="8.5893617"><ele>317.8</ele><time>2026-04-12T10:52:44.002Z</time></trkpt><trkpt lat="45.6869483" lon="8.5892483"><ele>316.4</ele><time>2026-04-12T10:52:45.002Z</time></trkpt><trkpt lat="45.686995" lon="8.5891417"><ele>315.0</ele><time>2026-04-12T10:52:46.001Z</time></trkpt><trkpt lat="45.6870467" lon="8.5890417"><ele>315.0</ele><time>2026-04-12T10:52:47.001Z</time></trkpt><trkpt lat="45.6870883" lon="8.5889467"><ele>315.0</ele><time>2026-04-12T10:52:48.002Z</time></trkpt><trkpt lat="45.6871183" lon="8.588865"><ele>315.0</ele><time>2026-04-12T10:52:49.001Z</time></trkpt><trkpt lat="45.6871467" lon="8.5887833"><ele>315.0</ele><time>2026-04-12T10:52:50.001Z</time></trkpt><trkpt lat="45.6871867" lon="8.5886917"><ele>315.0</ele><time>2026-04-12T10:52:51.002Z</time></trkpt><trkpt lat="45.6872233" lon="8.5886017"><ele>315.0</ele><time>2026-04-12T10:52:52.002Z</time></trkpt><trkpt lat="45.6872467" lon="8.5885133"><ele>315.0</ele><time>2026-04-12T10:52:53.002Z</time></trkpt><trkpt lat="45.6872783" lon="8.5884167"><ele>315.5</ele><time>2026-04-12T10:52:54.001Z</time></trkpt><trkpt lat="45.687315" lon="8.5883267"><ele>316.0</ele><time>2026-04-12T10:52:55.002Z</time></trkpt><trkpt lat="45.687345" lon="8.5882467"><ele>316.5</ele><time>2026-04-12T10:52:56.002Z</time></trkpt><trkpt lat="45.6873733" lon="8.588165"><ele>317.0</ele><time>2026-04-12T10:52:57.001Z</time></trkpt><trkpt lat="45.6874217" lon="8.58801"><ele>317.5</ele><time>2026-04-12T10:52:59.001Z</time></trkpt><trkpt lat="45.6874433" lon="8.587925"><ele>318.0</ele><time>2026-04-12T10:53:00.001Z</time></trkpt><trkpt lat="45.68747" lon="8.5878317"><ele>319.0</ele><time>2026-04-12T10:53:01.002Z</time></trkpt><trkpt lat="45.6874933" lon="8.5877333"><ele>320.0</ele><time>2026-04-12T10:53:02.001Z</time></trkpt><trkpt lat="45.68752" lon="8.5876483"><ele>321.0</ele><time>2026-04-12T10:53:03.001Z</time></trkpt><trkpt lat="45.6875533" lon="8.5875533"><ele>322.0</ele><time>2026-04-12T10:53:04.002Z</time></trkpt><trkpt lat="45.6875817" lon="8.5874483"><ele>323.0</ele><time>2026-04-12T10:53:05.001Z</time></trkpt><trkpt lat="45.6876233" lon="8.5873417"><ele>324.0</ele><time>2026-04-12T10:53:06.001Z</time></trkpt><trkpt lat="45.68766" lon="8.5872433"><ele>324.0</ele><time>2026-04-12T10:53:07.001Z</time></trkpt><trkpt lat="45.6877133" lon="8.5871033"><ele>324.0</ele><time>2026-04-12T10:53:09.001Z</time></trkpt><trkpt lat="45.6877667" lon="8.5870133"><ele>324.0</ele><time>2026-04-12T10:53:11.001Z</time></trkpt><trkpt lat="45.68786" lon="8.5870067"><ele>324.0</ele><time>2026-04-12T10:53:14.001Z</time></trkpt><trkpt lat="45.6879567" lon="8.5870567"><ele>324.0</ele><time>2026-04-12T10:53:16.001Z</time></trkpt><trkpt lat="45.6880117" lon="8.5871067"><ele>322.2</ele><time>2026-04-12T10:53:17.002Z</time></trkpt><trkpt lat="45.6880767" lon="8.5871617"><ele>320.4</ele><time>2026-04-12T10:53:18.001Z</time></trkpt><trkpt lat="45.68815" lon="8.5872217"><ele>318.6</ele><time>2026-04-12T10:53:19.002Z</time></trkpt><trkpt lat="45.6882367" lon="8.58729"><ele>316.8</ele><time>2026-04-12T10:53:20.002Z</time></trkpt><trkpt lat="45.688325" lon="8.5873533"><ele>315.0</ele><time>2026-04-12T10:53:21.001Z</time></trkpt><trkpt lat="45.68841" lon="8.5874183"><ele>315.0</ele><time>2026-04-12T10:53:22.001Z</time></trkpt><trkpt lat="45.68848" lon="8.587475"><ele>315.0</ele><time>2026-04-12T10:53:23.002Z</time></trkpt><trkpt lat="45.6885583" lon="8.58753"><ele>315.0</ele><time>2026-04-12T10:53:24.001Z</time></trkpt><trkpt lat="45.6886267" lon="8.5875817"><ele>315.0</ele><time>2026-04-12T10:53:25.002Z</time></trkpt><trkpt lat="45.6887133" lon="8.5876667"><ele>315.0</ele><time>2026-04-12T10:53:27.002Z</time></trkpt><trkpt lat="45.6887733" lon="8.5877467"><ele>315.0</ele><time>2026-04-12T10:53:53.001Z</time></trkpt><trkpt lat="45.688765" lon="8.587855"><ele>314.6666666666667</ele><time>2026-04-12T10:53:55.002Z</time></trkpt><trkpt lat="45.68874" lon="8.58804"><ele>314.3333333333333</ele><time>2026-04-12T10:53:57.002Z</time></trkpt><trkpt lat="45.688735" lon="8.58813"><ele>314.0</ele><time>2026-04-12T10:53:58.002Z</time></trkpt><trkpt lat="45.6887183" lon="8.58824"><ele>313.66666666666663</ele><time>2026-04-12T10:53:59.002Z</time></trkpt><trkpt lat="45.688705" lon="8.588345"><ele>313.3333333333333</ele><time>2026-04-12T10:54:00.002Z</time></trkpt><trkpt lat="45.6887033" lon="8.5884517"><ele>313.0</ele><time>2026-04-12T10:54:01.001Z</time></trkpt><trkpt lat="45.6887" lon="8.5885567"><ele>313.0</ele><time>2026-04-12T10:54:02.001Z</time></trkpt><trkpt lat="45.6886867" lon="8.58867"><ele>313.0</ele><time>2026-04-12T10:54:03.001Z</time></trkpt><trkpt lat="45.6886767" lon="8.5887883"><ele>313.0</ele><time>2026-04-12T10:54:04.001Z</time></trkpt><trkpt lat="45.68867" lon="8.5889083"><ele>313.0</ele><time>2026-04-12T10:54:05.002Z</time></trkpt><trkpt lat="45.6886533" lon="8.589025"><ele>313.0</ele><time>2026-04-12T10:54:06.001Z</time></trkpt><trkpt lat="45.6886483" lon="8.58913"><ele>313.0</ele><time>2026-04-12T10:54:07.001Z</time></trkpt><trkpt lat="45.6886433" lon="8.5892283"><ele>313.0</ele><time>2026-04-12T10:54:08.001Z</time></trkpt><trkpt lat="45.6886367" lon="8.5893317"><ele>313.0</ele><time>2026-04-12T10:54:09.001Z</time></trkpt><trkpt lat="45.6886367" lon="8.5894267"><ele>313.0</ele><time>2026-04-12T10:54:10.001Z</time></trkpt><trkpt lat="45.68863" lon="8.58952"><ele>313.0</ele><time>2026-04-12T10:54:11.002Z</time></trkpt><trkpt lat="45.6886133" lon="8.5896433"><ele>313.0</ele><time>2026-04-12T10:54:13.001Z</time></trkpt><trkpt lat="45.6886033" lon="8.5897417"><ele>313.0</ele><time>2026-04-12T10:54:15.001Z</time></trkpt><trkpt lat="45.68859" lon="8.5898717"><ele>313.0</ele><time>2026-04-12T10:54:17.002Z</time></trkpt><trkpt lat="45.6885783" lon="8.59001"><ele>313.0</ele><time>2026-04-12T10:54:19.002Z</time></trkpt><trkpt lat="45.6885667" lon="8.5901033"><ele>313.0</ele><time>2026-04-12T10:54:20.001Z</time></trkpt><trkpt lat="45.6885467" lon="8.5902067"><ele>313.0</ele><time>2026-04-12T10:54:21.001Z</time></trkpt><trkpt lat="45.6885383" lon="8.5903083"><ele>313.0</ele><time>2026-04-12T10:54:22.001Z</time></trkpt><trkpt lat="45.6885417" lon="8.5904067"><ele>313.0</ele><time>2026-04-12T10:54:23.002Z</time></trkpt><trkpt lat="45.68855" lon="8.5905083"><ele>313.0</ele><time>2026-04-12T10:54:24.002Z</time></trkpt><trkpt lat="45.688565" lon="8.59061"><ele>313.0</ele><time>2026-04-12T10:54:25.002Z</time></trkpt><trkpt lat="45.68858" lon="8.5907033"><ele>313.0</ele><time>2026-04-12T10:54:26.002Z</time></trkpt><trkpt lat="45.68859" lon="8.5908117"><ele>313.0</ele><time>2026-04-12T10:54:27.002Z</time></trkpt><trkpt lat="45.6886033" lon="8.5909167"><ele>313.0</ele><time>2026-04-12T10:54:28.002Z</time></trkpt><trkpt lat="45.6886133" lon="8.59102"><ele>313.0</ele><time>2026-04-12T10:54:29.001Z</time></trkpt><trkpt lat="45.6886167" lon="8.5911267"><ele>313.0</ele><time>2026-04-12T10:54:30.001Z</time></trkpt><trkpt lat="45.68861" lon="8.5912317"><ele>313.1428571428571</ele><time>2026-04-12T10:54:31.002Z</time></trkpt><trkpt lat="45.688605" lon="8.591335"><ele>313.2857142857143</ele><time>2026-04-12T10:54:32.001Z</time></trkpt><trkpt lat="45.6886017" lon="8.5914267"><ele>313.42857142857144</ele><time>2026-04-12T10:54:33.001Z</time></trkpt><trkpt lat="45.6885917" lon="8.5915217"><ele>313.57142857142856</ele><time>2026-04-12T10:54:34.001Z</time></trkpt><trkpt lat="45.6885783" lon="8.5916117"><ele>313.7142857142857</ele><time>2026-04-12T10:54:35.002Z</time></trkpt><trkpt lat="45.6885667" lon="8.5917033"><ele>313.85714285714283</ele><time>2026-04-12T10:54:36.002Z</time></trkpt><trkpt lat="45.6885617" lon="8.591795"><ele>314.0</ele><time>2026-04-12T10:54:37.002Z</time></trkpt><trkpt lat="45.688565" lon="8.5919733"><ele>313.0</ele><time>2026-04-12T10:54:39.001Z</time></trkpt><trkpt lat="45.6885667" lon="8.5920667"><ele>312.0</ele><time>2026-04-12T10:54:40.002Z</time></trkpt><trkpt lat="45.68856" lon="8.592235"><ele>311.0</ele><time>2026-04-12T10:54:42.001Z</time></trkpt><trkpt lat="45.6885517" lon="8.5923867"><ele>310.0</ele><time>2026-04-12T10:54:44.001Z</time></trkpt><trkpt lat="45.6885417" lon="8.59256"><ele>309.0</ele><time>2026-04-12T10:54:46.002Z</time></trkpt><trkpt lat="45.688545" lon="8.5926967"><ele>309.0</ele><time>2026-04-12T10:54:48.001Z</time></trkpt><trkpt lat="45.6885133" lon="8.5928233"><ele>309.0</ele><time>2026-04-12T10:55:11.002Z</time></trkpt><trkpt lat="45.68847" lon="8.592945"><ele>309.0</ele><time>2026-04-12T10:55:14.001Z</time></trkpt><trkpt lat="45.6884167" lon="8.5930167"><ele>309.0</ele><time>2026-04-12T10:55:16.001Z</time></trkpt><trkpt lat="45.6883517" lon="8.59308"><ele>309.0</ele><time>2026-04-12T10:55:18.001Z</time></trkpt><trkpt lat="45.688285" lon="8.5931433"><ele>309.0</ele><time>2026-04-12T10:55:20.001Z</time></trkpt><trkpt lat="45.6882033" lon="8.593225"><ele>308.59999999999997</ele><time>2026-04-12T10:55:22.001Z</time></trkpt><trkpt lat="45.6881383" lon="8.593315"><ele>308.2</ele><time>2026-04-12T10:55:24.001Z</time></trkpt><trkpt lat="45.6880867" lon="8.59344"><ele>307.79999999999995</ele><time>2026-04-12T10:55:26.001Z</time></trkpt><trkpt lat="45.6880367" lon="8.5935933"><ele>307.4</ele><time>2026-04-12T10:55:28.002Z</time></trkpt><trkpt lat="45.687985" lon="8.593765"><ele>307.0</ele><time>2026-04-12T10:55:30.001Z</time></trkpt><trkpt lat="45.6879583" lon="8.593855"><ele>306.66666666666663</ele><time>2026-04-12T10:55:31.002Z</time></trkpt><trkpt lat="45.6879267" lon="8.593935"><ele>306.3333333333333</ele><time>2026-04-12T10:55:32.001Z</time></trkpt><trkpt lat="45.687895" lon="8.5940167"><ele>306.0</ele><time>2026-04-12T10:55:33.001Z</time></trkpt><trkpt lat="45.6878467" lon="8.5941583"><ele>305.6666666666667</ele><time>2026-04-12T10:55:35.001Z</time></trkpt><trkpt lat="45.6877967" lon="8.5943033"><ele>305.33333333333337</ele><time>2026-04-12T10:55:37.001Z</time></trkpt><trkpt lat="45.6877667" lon="8.59439"><ele>305.0</ele><time>2026-04-12T10:55:38.001Z</time></trkpt><trkpt lat="45.687735" lon="8.5944933"><ele>304.4</ele><time>2026-04-12T10:55:39.001Z</time></trkpt><trkpt lat="45.68771" lon="8.5945933"><ele>303.8</ele><time>2026-04-12T10:55:40.001Z</time></trkpt><trkpt lat="45.6876783" lon="8.594735"><ele>303.2</ele><time>2026-04-12T10:55:42.002Z</time></trkpt><trkpt lat="45.6876383" lon="8.5948467"><ele>302.6</ele><time>2026-04-12T10:57:18Z</time></trkpt><trkpt lat="45.6875883" lon="8.5949867"><ele>302.0</ele><time>2026-04-12T10:57:20.001Z</time></trkpt><trkpt lat="45.6875533" lon="8.5951067"><ele>302.0</ele><time>2026-04-12T10:57:22.001Z</time></trkpt><trkpt lat="45.68752" lon="8.5952333"><ele>302.0</ele><time>2026-04-12T10:57:24Z</time></trkpt><trkpt lat="45.687475" lon="8.5953783"><ele>302.0</ele><time>2026-04-12T10:57:26Z</time></trkpt><trkpt lat="45.6874267" lon="8.5955383"><ele>302.0</ele><time>2026-04-12T10:57:28.001Z</time></trkpt><trkpt lat="45.687405" lon="8.595635"><ele>302.0</ele><time>2026-04-12T10:57:29Z</time></trkpt><trkpt lat="45.6873717" lon="8.5957333"><ele>302.2</ele><time>2026-04-12T10:57:30Z</time></trkpt><trkpt lat="45.6873517" lon="8.5958833"><ele>302.4</ele><time>2026-04-12T10:57:32Z</time></trkpt><trkpt lat="45.687405" lon="8.59602"><ele>302.6</ele><time>2026-04-12T10:57:34Z</time></trkpt><trkpt lat="45.6874567" lon="8.5960733"><ele>302.8</ele><time>2026-04-12T10:57:35.001Z</time></trkpt><trkpt lat="45.687515" lon="8.59617"><ele>303.0</ele><time>2026-04-12T10:57:37Z</time></trkpt><trkpt lat="45.6874717" lon="8.5963267"><ele>302.5</ele><time>2026-04-12T10:57:39.001Z</time></trkpt><trkpt lat="45.6874233" lon="8.5964233"><ele>302.0</ele><time>2026-04-12T10:57:40Z</time></trkpt><trkpt lat="45.687375" lon="8.596525"><ele>301.5</ele><time>2026-04-12T10:57:40.999Z</time></trkpt><trkpt lat="45.6873267" lon="8.596635"><ele>301.0</ele><time>2026-04-12T10:57:42.001Z</time></trkpt><trkpt lat="45.6872917" lon="8.5967367"><ele>300.5</ele><time>2026-04-12T10:57:43Z</time></trkpt><trkpt lat="45.6872517" lon="8.5968433"><ele>300.0</ele><time>2026-04-12T10:57:44.001Z</time></trkpt><trkpt lat="45.6872" lon="8.5969467"><ele>299.5</ele><time>2026-04-12T10:57:45Z</time></trkpt><trkpt lat="45.68715" lon="8.5970533"><ele>299.0</ele><time>2026-04-12T10:57:46Z</time></trkpt><trkpt lat="45.6871017" lon="8.5971517"><ele>298.5</ele><time>2026-04-12T10:57:47Z</time></trkpt><trkpt lat="45.687055" lon="8.597245"><ele>298.0</ele><time>2026-04-12T10:57:48Z</time></trkpt><trkpt lat="45.6870217" lon="8.5973283"><ele>297.5</ele><time>2026-04-12T10:57:49Z</time></trkpt><trkpt lat="45.68697" lon="8.5974217"><ele>297.0</ele><time>2026-04-12T10:57:51Z</time></trkpt><trkpt lat="45.6869783" lon="8.5975317"><ele>297.0</ele><time>2026-04-12T10:57:56Z</time></trkpt><trkpt lat="45.68705" lon="8.5976267"><ele>297.0</ele><time>2026-04-12T10:57:58Z</time></trkpt><trkpt lat="45.6871033" lon="8.5976883"><ele>297.0</ele><time>2026-04-12T10:57:59Z</time></trkpt><trkpt lat="45.687165" lon="8.597755"><ele>297.0</ele><time>2026-04-12T10:58:00.001Z</time></trkpt><trkpt lat="45.6872233" lon="8.5978317"><ele>297.0</ele><time>2026-04-12T10:58:01.001Z</time></trkpt><trkpt lat="45.6872767" lon="8.5979083"><ele>297.0</ele><time>2026-04-12T10:58:02Z</time></trkpt><trkpt lat="45.6873267" lon="8.5979917"><ele>296.8333333333333</ele><time>2026-04-12T10:58:03.001Z</time></trkpt><trkpt lat="45.687365" lon="8.5980833"><ele>296.6666666666667</ele><time>2026-04-12T10:58:04.001Z</time></trkpt><trkpt lat="45.6873883" lon="8.5981683"><ele>296.5</ele><time>2026-04-12T10:58:05Z</time></trkpt><trkpt lat="45.687365" lon="8.5983483"><ele>296.33333333333337</ele><time>2026-04-12T10:58:07Z</time></trkpt><trkpt lat="45.6873317" lon="8.59844"><ele>296.1666666666667</ele><time>2026-04-12T10:58:08Z</time></trkpt><trkpt lat="45.6872817" lon="8.5985133"><ele>296.0</ele><time>2026-04-12T10:58:09Z</time></trkpt><trkpt lat="45.6872267" lon="8.5986"><ele>295.83333333333337</ele><time>2026-04-12T10:58:10Z</time></trkpt><trkpt lat="45.6871767" lon="8.5986767"><ele>295.6666666666667</ele><time>2026-04-12T10:58:11.001Z</time></trkpt><trkpt lat="45.6871233" lon="8.5987733"><ele>295.5</ele><time>2026-04-12T10:58:13Z</time></trkpt><trkpt lat="45.6871267" lon="8.598865"><ele>295.3333333333333</ele><time>2026-04-12T10:58:17Z</time></trkpt><trkpt lat="45.6871933" lon="8.5989583"><ele>295.16666666666663</ele><time>2026-04-12T10:58:19Z</time></trkpt><trkpt lat="45.6872917" lon="8.5990733"><ele>295.0</ele><time>2026-04-12T10:58:21.001Z</time></trkpt><trkpt lat="45.6873383" lon="8.5991383"><ele>295.00000000000006</ele><time>2026-04-12T10:58:22.001Z</time></trkpt><trkpt lat="45.68739" lon="8.5992183"><ele>295.0</ele><time>2026-04-12T10:58:23.001Z</time></trkpt><trkpt lat="45.68744" lon="8.599295"><ele>295.0</ele><time>2026-04-12T10:58:24Z</time></trkpt><trkpt lat="45.6874817" lon="8.59938"><ele>295.0</ele><time>2026-04-12T10:58:25.001Z</time></trkpt><trkpt lat="45.687525" lon="8.5994617"><ele>295.0</ele><time>2026-04-12T10:58:26Z</time></trkpt><trkpt lat="45.6875733" lon="8.5995433"><ele>295.00000000000006</ele><time>2026-04-12T10:58:27Z</time></trkpt><trkpt lat="45.68762" lon="8.59963"><ele>295.0</ele><time>2026-04-12T10:58:28Z</time></trkpt><trkpt lat="45.6876767" lon="8.599715"><ele>294.8333333333333</ele><time>2026-04-12T10:58:29Z</time></trkpt><trkpt lat="45.6877283" lon="8.5997933"><ele>294.66666666666663</ele><time>2026-04-12T10:58:30.001Z</time></trkpt><trkpt lat="45.68777" lon="8.5998917"><ele>294.5</ele><time>2026-04-12T10:58:31Z</time></trkpt><trkpt lat="45.687805" lon="8.5999817"><ele>294.3333333333333</ele><time>2026-04-12T10:58:32.001Z</time></trkpt><trkpt lat="45.6878433" lon="8.60006"><ele>294.1666666666667</ele><time>2026-04-12T10:58:33Z</time></trkpt><trkpt lat="45.68789" lon="8.6001383"><ele>294.0</ele><time>2026-04-12T10:58:35Z</time></trkpt><trkpt lat="45.687985" lon="8.6001033"><ele>294.0</ele><time>2026-04-12T10:58:44Z</time></trkpt><trkpt lat="45.688045" lon="8.6000233"><ele>294.0</ele><time>2026-04-12T10:58:45Z</time></trkpt><trkpt lat="45.6881017" lon="8.5999267"><ele>294.0</ele><time>2026-04-12T10:58:46.001Z</time></trkpt><trkpt lat="45.688155" lon="8.59985"><ele>294.0</ele><time>2026-04-12T10:58:47.001Z</time></trkpt><trkpt lat="45.6882083" lon="8.5997733"><ele>294.0</ele><time>2026-04-12T10:58:48Z</time></trkpt><trkpt lat="45.68826" lon="8.599705"><ele>294.0</ele><time>2026-04-12T10:58:49.001Z</time></trkpt><trkpt lat="45.688305" lon="8.5996083"><ele>294.0</ele><time>2026-04-12T10:58:50Z</time></trkpt><trkpt lat="45.6883483" lon="8.5995167"><ele>294.0</ele><time>2026-04-12T10:58:51Z</time></trkpt><trkpt lat="45.6883817" lon="8.5994167"><ele>294.0</ele><time>2026-04-12T10:58:52Z</time></trkpt><trkpt lat="45.688405" lon="8.599315"><ele>294.0</ele><time>2026-04-12T10:58:53Z</time></trkpt><trkpt lat="45.68841" lon="8.5992083"><ele>294.0</ele><time>2026-04-12T10:58:54Z</time></trkpt><trkpt lat="45.6883967" lon="8.5990967"><ele>294.0</ele><time>2026-04-12T10:58:55Z</time></trkpt><trkpt lat="45.6883767" lon="8.5989733"><ele>294.1666666666667</ele><time>2026-04-12T10:58:56.001Z</time></trkpt><trkpt lat="45.6883667" lon="8.59886"><ele>294.3333333333333</ele><time>2026-04-12T10:58:57.001Z</time></trkpt><trkpt lat="45.68837" lon="8.5987283"><ele>294.5</ele><time>2026-04-12T10:58:58.001Z</time></trkpt><trkpt lat="45.68839" lon="8.5986017"><ele>294.66666666666663</ele><time>2026-04-12T10:58:59Z</time></trkpt><trkpt lat="45.6884183" lon="8.5984767"><ele>294.8333333333333</ele><time>2026-04-12T10:59:00Z</time></trkpt><trkpt lat="45.6884583" lon="8.5983733"><ele>295.0</ele><time>2026-04-12T10:59:01.001Z</time></trkpt><trkpt lat="45.6885" lon="8.5982683"><ele>295.0</ele><time>2026-04-12T10:59:02Z</time></trkpt><trkpt lat="45.688535" lon="8.59815"><ele>295.0</ele><time>2026-04-12T10:59:03Z</time></trkpt><trkpt lat="45.6885717" lon="8.598025"><ele>295.0</ele><time>2026-04-12T10:59:04Z</time></trkpt><trkpt lat="45.6886017" lon="8.5978867"><ele>295.0</ele><time>2026-04-12T10:59:05Z</time></trkpt><trkpt lat="45.688635" lon="8.597745"><ele>295.0</ele><time>2026-04-12T10:59:06.001Z</time></trkpt><trkpt lat="45.6886683" lon="8.5976133"><ele>295.3333333333333</ele><time>2026-04-12T10:59:07Z</time></trkpt><trkpt lat="45.6887067" lon="8.59751"><ele>295.66666666666663</ele><time>2026-04-12T10:59:08Z</time></trkpt><trkpt lat="45.688755" lon="8.597425"><ele>296.0</ele><time>2026-04-12T10:59:09Z</time></trkpt><trkpt lat="45.6888183" lon="8.5973633"><ele>296.3333333333333</ele><time>2026-04-12T10:59:10.001Z</time></trkpt><trkpt lat="45.6889" lon="8.597335"><ele>296.6666666666667</ele><time>2026-04-12T10:59:11.001Z</time></trkpt><trkpt lat="45.688995" lon="8.5973267"><ele>297.0</ele><time>2026-04-12T10:59:12Z</time></trkpt><trkpt lat="45.6891" lon="8.59734"><ele>297.0</ele><time>2026-04-12T10:59:13.001Z</time></trkpt><trkpt lat="45.68921" lon="8.5973667"><ele>297.0</ele><time>2026-04-12T10:59:14.001Z</time></trkpt><trkpt lat="45.6893183" lon="8.5973667"><ele>297.0</ele><time>2026-04-12T10:59:15Z</time></trkpt><trkpt lat="45.6894167" lon="8.5973717"><ele>297.0</ele><time>2026-04-12T10:59:16Z</time></trkpt><trkpt lat="45.68951" lon="8.5973633"><ele>297.0</ele><time>2026-04-12T10:59:17.001Z</time></trkpt><trkpt lat="45.689595" lon="8.5973417"><ele>297.0</ele><time>2026-04-12T10:59:18Z</time></trkpt><trkpt lat="45.6896683" lon="8.5973367"><ele>297.0</ele><time>2026-04-12T10:59:19.001Z</time></trkpt><trkpt lat="45.6897317" lon="8.59733"><ele>297.0</ele><time>2026-04-12T10:59:20.001Z</time></trkpt><trkpt lat="45.68981" lon="8.597295"><ele>297.0</ele><time>2026-04-12T10:59:21Z</time></trkpt><trkpt lat="45.689895" lon="8.59724"><ele>297.0</ele><time>2026-04-12T10:59:22.001Z</time></trkpt><trkpt lat="45.689985" lon="8.5971983"><ele>297.0</ele><time>2026-04-12T10:59:23.001Z</time></trkpt><trkpt lat="45.6900767" lon="8.59715"><ele>297.0</ele><time>2026-04-12T10:59:24Z</time></trkpt><trkpt lat="45.6901767" lon="8.5971183"><ele>297.0</ele><time>2026-04-12T10:59:25Z</time></trkpt><trkpt lat="45.69028" lon="8.5970833"><ele>297.0</ele><time>2026-04-12T10:59:26Z</time></trkpt><trkpt lat="45.6903717" lon="8.5970433"><ele>297.0</ele><time>2026-04-12T10:59:27Z</time></trkpt><trkpt lat="45.69046" lon="8.5970083"><ele>297.0</ele><time>2026-04-12T10:59:28.001Z</time></trkpt><trkpt lat="45.6905583" lon="8.59698"><ele>297.4</ele><time>2026-04-12T10:59:29Z</time></trkpt><trkpt lat="45.6906533" lon="8.5969483"><ele>297.79999999999995</ele><time>2026-04-12T10:59:30Z</time></trkpt><trkpt lat="45.690745" lon="8.5969183"><ele>298.2</ele><time>2026-04-12T10:59:31Z</time></trkpt><trkpt lat="45.6908367" lon="8.5968817"><ele>298.59999999999997</ele><time>2026-04-12T10:59:32Z</time></trkpt><trkpt lat="45.690925" lon="8.596845"><ele>299.0</ele><time>2026-04-12T10:59:33.001Z</time></trkpt><trkpt lat="45.6909933" lon="8.5967867"><ele>299.0</ele><time>2026-04-12T10:59:34Z</time></trkpt><trkpt lat="45.691055" lon="8.5966817"><ele>299.0</ele><time>2026-04-12T10:59:35Z</time></trkpt><trkpt lat="45.691115" lon="8.5965517"><ele>299.0</ele><time>2026-04-12T10:59:36.001Z</time></trkpt><trkpt lat="45.6911683" lon="8.59642"><ele>299.0</ele><time>2026-04-12T10:59:37Z</time></trkpt><trkpt lat="45.6912167" lon="8.59628"><ele>299.0</ele><time>2026-04-12T10:59:38.001Z</time></trkpt><trkpt lat="45.69127" lon="8.5961633"><ele>299.0</ele><time>2026-04-12T10:59:39Z</time></trkpt><trkpt lat="45.691325" lon="8.5960483"><ele>299.0</ele><time>2026-04-12T10:59:40.001Z</time></trkpt><trkpt lat="45.6913817" lon="8.59594"><ele>299.0</ele><time>2026-04-12T10:59:41Z</time></trkpt><trkpt lat="45.6914367" lon="8.5958483"><ele>299.0</ele><time>2026-04-12T10:59:42Z</time></trkpt><trkpt lat="45.6914783" lon="8.59578"><ele>299.0</ele><time>2026-04-12T10:59:43.001Z</time></trkpt><trkpt lat="45.6915417" lon="8.59576"><ele>299.0</ele><time>2026-04-12T10:59:45.001Z</time></trkpt><trkpt lat="45.69157" lon="8.5956783"><ele>299.0</ele><time>2026-04-12T10:59:53Z</time></trkpt><trkpt lat="45.6915867" lon="8.5955517"><ele>299.0</ele><time>2026-04-12T10:59:55.001Z</time></trkpt><trkpt lat="45.6915917" lon="8.59543"><ele>299.0</ele><time>2026-04-12T10:59:57.001Z</time></trkpt><trkpt lat="45.6916083" lon="8.5953"><ele>299.0</ele><time>2026-04-12T10:59:59Z</time></trkpt><trkpt lat="45.6916333" lon="8.5951433"><ele>299.0</ele><time>2026-04-12T11:00:01Z</time></trkpt><trkpt lat="45.69166" lon="8.5950117"><ele>299.59999999999997</ele><time>2026-04-12T11:00:03Z</time></trkpt><trkpt lat="45.69168" lon="8.5949067"><ele>300.2</ele><time>2026-04-12T11:00:05.001Z</time></trkpt><trkpt lat="45.6916933" lon="8.5947783"><ele>300.79999999999995</ele><time>2026-04-12T11:00:07Z</time></trkpt><trkpt lat="45.6917267" lon="8.5946167"><ele>301.4</ele><time>2026-04-12T11:00:09Z</time></trkpt><trkpt lat="45.6917433" lon="8.5945267"><ele>302.0</ele><time>2026-04-12T11:00:10Z</time></trkpt><trkpt lat="45.6917933" lon="8.5943517"><ele>302.00000000000006</ele><time>2026-04-12T11:00:12Z</time></trkpt><trkpt lat="45.6918133" lon="8.5942633"><ele>302.0</ele><time>2026-04-12T11:00:13.001Z</time></trkpt><trkpt lat="45.6918317" lon="8.5941717"><ele>302.0</ele><time>2026-04-12T11:00:14.001Z</time></trkpt><trkpt lat="45.69185" lon="8.5940833"><ele>302.0</ele><time>2026-04-12T11:00:15.001Z</time></trkpt><trkpt lat="45.6918733" lon="8.5939783"><ele>302.0</ele><time>2026-04-12T11:00:16.001Z</time></trkpt><trkpt lat="45.6918967" lon="8.5938933"><ele>302.00000000000006</ele><time>2026-04-12T11:00:17.001Z</time></trkpt><trkpt lat="45.6919217" lon="8.5938083"><ele>302.0</ele><time>2026-04-12T11:00:18Z</time></trkpt><trkpt lat="45.6919417" lon="8.5937117"><ele>302.28571428571433</ele><time>2026-04-12T11:00:19Z</time></trkpt><trkpt lat="45.69196" lon="8.5936167"><ele>302.57142857142856</ele><time>2026-04-12T11:00:20Z</time></trkpt><trkpt lat="45.6919767" lon="8.5935217"><ele>302.8571428571429</ele><time>2026-04-12T11:00:21Z</time></trkpt><trkpt lat="45.6919883" lon="8.593425"><ele>303.14285714285717</ele><time>2026-04-12T11:00:22Z</time></trkpt><trkpt lat="45.6920017" lon="8.5933267"><ele>303.42857142857144</ele><time>2026-04-12T11:00:23Z</time></trkpt><trkpt lat="45.6920267" lon="8.59323"><ele>303.7142857142857</ele><time>2026-04-12T11:00:24.001Z</time></trkpt><trkpt lat="45.692055" lon="8.59314"><ele>304.0</ele><time>2026-04-12T11:00:25Z</time></trkpt><trkpt lat="45.6920867" lon="8.5930417"><ele>304.0</ele><time>2026-04-12T11:00:26.001Z</time></trkpt><trkpt lat="45.6921083" lon="8.592955"><ele>304.0</ele><time>2026-04-12T11:00:27.001Z</time></trkpt><trkpt lat="45.6921367" lon="8.592865"><ele>304.0</ele><time>2026-04-12T11:00:28Z</time></trkpt><trkpt lat="45.6921683" lon="8.5927667"><ele>304.0</ele><time>2026-04-12T11:00:29Z</time></trkpt><trkpt lat="45.6921967" lon="8.592655"><ele>304.0</ele><time>2026-04-12T11:00:30Z</time></trkpt><trkpt lat="45.6922317" lon="8.59255"><ele>304.0</ele><time>2026-04-12T11:00:31Z</time></trkpt><trkpt lat="45.6922567" lon="8.59244"><ele>305.0</ele><time>2026-04-12T11:00:32.001Z</time></trkpt><trkpt lat="45.6922867" lon="8.5923417"><ele>306.0</ele><time>2026-04-12T11:00:33.001Z</time></trkpt><trkpt lat="45.6923233" lon="8.59223"><ele>307.0</ele><time>2026-04-12T11:00:34.001Z</time></trkpt><trkpt lat="45.6923483" lon="8.5921233"><ele>308.0</ele><time>2026-04-12T11:00:35.001Z</time></trkpt><trkpt lat="45.6923867" lon="8.59201"><ele>309.0</ele><time>2026-04-12T11:00:36Z</time></trkpt><trkpt lat="45.6924133" lon="8.5918867"><ele>310.0</ele><time>2026-04-12T11:00:37.001Z</time></trkpt><trkpt lat="45.6924467" lon="8.5917567"><ele>311.0</ele><time>2026-04-12T11:00:38.001Z</time></trkpt><trkpt lat="45.6924817" lon="8.59164"><ele>312.0</ele><time>2026-04-12T11:00:39Z</time></trkpt><trkpt lat="45.6925317" lon="8.5915367"><ele>313.0</ele><time>2026-04-12T11:00:40Z</time></trkpt><trkpt lat="45.6925833" lon="8.5914283"><ele>314.0</ele><time>2026-04-12T11:00:41Z</time></trkpt><trkpt lat="45.692635" lon="8.5913233"><ele>315.0</ele><time>2026-04-12T11:00:42Z</time></trkpt><trkpt lat="45.6926867" lon="8.5912133"><ele>315.4</ele><time>2026-04-12T11:00:43Z</time></trkpt><trkpt lat="45.6927467" lon="8.591105"><ele>315.8</ele><time>2026-04-12T11:00:44.001Z</time></trkpt><trkpt lat="45.6927967" lon="8.5910133"><ele>316.2</ele><time>2026-04-12T11:00:45Z</time></trkpt><trkpt lat="45.69285" lon="8.5909167"><ele>316.6</ele><time>2026-04-12T11:00:46Z</time></trkpt><trkpt lat="45.6929033" lon="8.5908117"><ele>317.0</ele><time>2026-04-12T11:00:47.001Z</time></trkpt><trkpt lat="45.69297" lon="8.5907083"><ele>317.0</ele><time>2026-04-12T11:00:48.001Z</time></trkpt><trkpt lat="45.6930333" lon="8.5906017"><ele>317.0</ele><time>2026-04-12T11:00:49.001Z</time></trkpt><trkpt lat="45.693095" lon="8.590495"><ele>317.0</ele><time>2026-04-12T11:00:50Z</time></trkpt><trkpt lat="45.69315" lon="8.5903817"><ele>317.0</ele><time>2026-04-12T11:00:51Z</time></trkpt><trkpt lat="45.6932033" lon="8.5902717"><ele>317.0</ele><time>2026-04-12T11:00:52Z</time></trkpt><trkpt lat="45.693245" lon="8.5901817"><ele>317.6666666666667</ele><time>2026-04-12T11:00:53Z</time></trkpt><trkpt lat="45.6933017" lon="8.5900833"><ele>318.33333333333337</ele><time>2026-04-12T11:00:54Z</time></trkpt><trkpt lat="45.6933483" lon="8.589995"><ele>319.0</ele><time>2026-04-12T11:00:55Z</time></trkpt><trkpt lat="45.69339" lon="8.5899017"><ele>319.6666666666667</ele><time>2026-04-12T11:00:56.001Z</time></trkpt><trkpt lat="45.6934267" lon="8.5898067"><ele>320.3333333333333</ele><time>2026-04-12T11:00:57Z</time></trkpt><trkpt lat="45.69346" lon="8.5897017"><ele>321.0</ele><time>2026-04-12T11:00:58Z</time></trkpt><trkpt lat="45.693505" lon="8.5895917"><ele>320.6</ele><time>2026-04-12T11:00:59.001Z</time></trkpt><trkpt lat="45.693535" lon="8.589485"><ele>320.20000000000005</ele><time>2026-04-12T11:01:00Z</time></trkpt><trkpt lat="45.693565" lon="8.5893633"><ele>319.79999999999995</ele><time>2026-04-12T11:01:01.001Z</time></trkpt><trkpt lat="45.693585" lon="8.5892267"><ele>319.4</ele><time>2026-04-12T11:01:02Z</time></trkpt><trkpt lat="45.693605" lon="8.5890917"><ele>319.0</ele><time>2026-04-12T11:01:03.001Z</time></trkpt><trkpt lat="45.6936183" lon="8.5889483"><ele>319.0</ele><time>2026-04-12T11:01:04Z</time></trkpt><trkpt lat="45.6936367" lon="8.58882"><ele>319.0</ele><time>2026-04-12T11:01:05Z</time></trkpt><trkpt lat="45.6936583" lon="8.5886933"><ele>319.0</ele><time>2026-04-12T11:01:06.001Z</time></trkpt><trkpt lat="45.693675" lon="8.5885567"><ele>319.0</ele><time>2026-04-12T11:01:07Z</time></trkpt><trkpt lat="45.6936967" lon="8.588425"><ele>319.0</ele><time>2026-04-12T11:01:08Z</time></trkpt><trkpt lat="45.69373" lon="8.5882717"><ele>320.5</ele><time>2026-04-12T11:01:09.001Z</time></trkpt><trkpt lat="45.69377" lon="8.5881117"><ele>322.0</ele><time>2026-04-12T11:01:10Z</time></trkpt><trkpt lat="45.6938017" lon="8.5879517"><ele>323.5</ele><time>2026-04-12T11:01:11Z</time></trkpt><trkpt lat="45.69383" lon="8.5877867"><ele>325.0</ele><time>2026-04-12T11:01:12Z</time></trkpt><trkpt lat="45.6938517" lon="8.58763"><ele>326.0</ele><time>2026-04-12T11:01:13Z</time></trkpt><trkpt lat="45.69388" lon="8.5874783"><ele>327.0</ele><time>2026-04-12T11:01:14.001Z</time></trkpt><trkpt lat="45.6939083" lon="8.5873267"><ele>328.0</ele><time>2026-04-12T11:01:15.001Z</time></trkpt><trkpt lat="45.6939433" lon="8.587175"><ele>329.0</ele><time>2026-04-12T11:01:16.001Z</time></trkpt><trkpt lat="45.69398" lon="8.5870133"><ele>329.25</ele><time>2026-04-12T11:01:17Z</time></trkpt><trkpt lat="45.69401" lon="8.5868567"><ele>329.5</ele><time>2026-04-12T11:01:18Z</time></trkpt><trkpt lat="45.6940467" lon="8.5866967"><ele>329.75</ele><time>2026-04-12T11:01:19.001Z</time></trkpt><trkpt lat="45.694075" lon="8.5865383"><ele>330.0</ele><time>2026-04-12T11:01:20Z</time></trkpt><trkpt lat="45.6940983" lon="8.5863667"><ele>330.0</ele><time>2026-04-12T11:01:21.001Z</time></trkpt><trkpt lat="45.6941233" lon="8.5862"><ele>330.0</ele><time>2026-04-12T11:01:22Z</time></trkpt><trkpt lat="45.6941567" lon="8.58602"><ele>330.0</ele><time>2026-04-12T11:01:23.001Z</time></trkpt><trkpt lat="45.6941883" lon="8.5858517"><ele>330.0</ele><time>2026-04-12T11:01:24Z</time></trkpt><trkpt lat="45.69421" lon="8.5856717"><ele>330.5</ele><time>2026-04-12T11:01:25Z</time></trkpt><trkpt lat="45.69423" lon="8.5855017"><ele>331.0</ele><time>2026-04-12T11:01:26Z</time></trkpt><trkpt lat="45.6942483" lon="8.5853267"><ele>331.5</ele><time>2026-04-12T11:01:27Z</time></trkpt><trkpt lat="45.6942767" lon="8.5851733"><ele>332.0</ele><time>2026-04-12T11:01:28Z</time></trkpt><trkpt lat="45.6942983" lon="8.5850167"><ele>332.25</ele><time>2026-04-12T11:01:29Z</time></trkpt><trkpt lat="45.6943467" lon="8.58489"><ele>332.5</ele><time>2026-04-12T11:01:30.001Z</time></trkpt><trkpt lat="45.6943783" lon="8.5847317"><ele>332.75</ele><time>2026-04-12T11:01:31Z</time></trkpt><trkpt lat="45.6944083" lon="8.5845633"><ele>333.0</ele><time>2026-04-12T11:01:32.001Z</time></trkpt><trkpt lat="45.6944383" lon="8.5843933"><ele>331.5</ele><time>2026-04-12T11:01:33Z</time></trkpt><trkpt lat="45.6944767" lon="8.5842133"><ele>330.0</ele><time>2026-04-12T11:01:34Z</time></trkpt><trkpt lat="45.6945117" lon="8.5840367"><ele>328.5</ele><time>2026-04-12T11:01:35.001Z</time></trkpt><trkpt lat="45.6945467" lon="8.5838767"><ele>327.0</ele><time>2026-04-12T11:01:36.001Z</time></trkpt><trkpt lat="45.694575" lon="8.5837017"><ele>327.75</ele><time>2026-04-12T11:01:37Z</time></trkpt><trkpt lat="45.6946033" lon="8.5835333"><ele>328.5</ele><time>2026-04-12T11:01:38Z</time></trkpt><trkpt lat="45.694635" lon="8.5833667"><ele>329.25</ele><time>2026-04-12T11:01:39.001Z</time></trkpt><trkpt lat="45.69466" lon="8.5832033"><ele>330.0</ele><time>2026-04-12T11:01:40Z</time></trkpt><trkpt lat="45.6946783" lon="8.5830433"><ele>330.0</ele><time>2026-04-12T11:01:41Z</time></trkpt><trkpt lat="45.6947" lon="8.582885"><ele>330.0</ele><time>2026-04-12T11:01:42.001Z</time></trkpt><trkpt lat="45.694725" lon="8.5827183"><ele>330.0</ele><time>2026-04-12T11:01:43Z</time></trkpt><trkpt lat="45.694755" lon="8.5825483"><ele>330.0</ele><time>2026-04-12T11:01:44Z</time></trkpt><trkpt lat="45.6947817" lon="8.5823867"><ele>330.0</ele><time>2026-04-12T11:01:45Z</time></trkpt><trkpt lat="45.6948067" lon="8.582215"><ele>330.0</ele><time>2026-04-12T11:01:46.001Z</time></trkpt><trkpt lat="45.694835" lon="8.5820383"><ele>330.0</ele><time>2026-04-12T11:01:47.001Z</time></trkpt><trkpt lat="45.694865" lon="8.5818583"><ele>330.0</ele><time>2026-04-12T11:01:48Z</time></trkpt><trkpt lat="45.6948933" lon="8.58168"><ele>330.25</ele><time>2026-04-12T11:01:49.001Z</time></trkpt><trkpt lat="45.6949233" lon="8.5815033"><ele>330.5</ele><time>2026-04-12T11:01:50Z</time></trkpt><trkpt lat="45.6949533" lon="8.58132"><ele>330.75</ele><time>2026-04-12T11:01:51Z</time></trkpt><trkpt lat="45.694985" lon="8.5811283"><ele>331.0</ele><time>2026-04-12T11:01:52Z</time></trkpt><trkpt lat="45.6950233" lon="8.5809667"><ele>331.0</ele><time>2026-04-12T11:01:53.001Z</time></trkpt><trkpt lat="45.695055" lon="8.58079"><ele>331.0</ele><time>2026-04-12T11:01:54.001Z</time></trkpt><trkpt lat="45.69509" lon="8.5806117"><ele>331.0</ele><time>2026-04-12T11:01:55.001Z</time></trkpt><trkpt lat="45.6951233" lon="8.580435"><ele>331.0</ele><time>2026-04-12T11:01:56Z</time></trkpt><trkpt lat="45.6951533" lon="8.5802733"><ele>331.5</ele><time>2026-04-12T11:01:57Z</time></trkpt><trkpt lat="45.6951767" lon="8.580105"><ele>332.0</ele><time>2026-04-12T11:01:58Z</time></trkpt><trkpt lat="45.6952" lon="8.5799333"><ele>332.5</ele><time>2026-04-12T11:01:59Z</time></trkpt><trkpt lat="45.6952283" lon="8.5797533"><ele>333.0</ele><time>2026-04-12T11:02:00Z</time></trkpt><trkpt lat="45.695265" lon="8.5795933"><ele>334.0</ele><time>2026-04-12T11:02:01Z</time></trkpt><trkpt lat="45.6952917" lon="8.579445"><ele>335.0</ele><time>2026-04-12T11:02:02Z</time></trkpt><trkpt lat="45.6953217" lon="8.579295"><ele>336.0</ele><time>2026-04-12T11:02:03.001Z</time></trkpt><trkpt lat="45.6953517" lon="8.579145"><ele>337.0</ele><time>2026-04-12T11:02:04.001Z</time></trkpt><trkpt lat="45.6953783" lon="8.57898"><ele>338.0</ele><time>2026-04-12T11:02:05.001Z</time></trkpt><trkpt lat="45.6954" lon="8.578805"><ele>338.4</ele><time>2026-04-12T11:02:06Z</time></trkpt><trkpt lat="45.695425" lon="8.57866"><ele>338.79999999999995</ele><time>2026-04-12T11:02:07Z</time></trkpt><trkpt lat="45.6954483" lon="8.5785183"><ele>339.2</ele><time>2026-04-12T11:02:08Z</time></trkpt><trkpt lat="45.6954767" lon="8.57838"><ele>339.6</ele><time>2026-04-12T11:02:09.001Z</time></trkpt><trkpt lat="45.695515" lon="8.5782383"><ele>340.0</ele><time>2026-04-12T11:02:10Z</time></trkpt><trkpt lat="45.695555" lon="8.5781017"><ele>340.0</ele><time>2026-04-12T11:02:11Z</time></trkpt><trkpt lat="45.6955867" lon="8.5779617"><ele>340.0</ele><time>2026-04-12T11:02:12Z</time></trkpt><trkpt lat="45.695605" lon="8.5778267"><ele>340.0</ele><time>2026-04-12T11:02:13Z</time></trkpt><trkpt lat="45.6956233" lon="8.5776983"><ele>340.0</ele><time>2026-04-12T11:02:14.001Z</time></trkpt><trkpt lat="45.6956433" lon="8.5775683"><ele>340.0</ele><time>2026-04-12T11:02:15Z</time></trkpt><trkpt lat="45.6956667" lon="8.57743"><ele>341.0</ele><time>2026-04-12T11:02:16Z</time></trkpt><trkpt lat="45.6956783" lon="8.57729"><ele>342.0</ele><time>2026-04-12T11:02:17Z</time></trkpt><trkpt lat="45.6956833" lon="8.5771567"><ele>343.0</ele><time>2026-04-12T11:02:18Z</time></trkpt><trkpt lat="45.6956883" lon="8.57702"><ele>344.0</ele><time>2026-04-12T11:02:19Z</time></trkpt><trkpt lat="45.69568" lon="8.5768867"><ele>345.0</ele><time>2026-04-12T11:02:20.001Z</time></trkpt><trkpt lat="45.6956817" lon="8.5767567"><ele>345.0</ele><time>2026-04-12T11:02:21Z</time></trkpt><trkpt lat="45.6956867" lon="8.5766367"><ele>345.0</ele><time>2026-04-12T11:02:22Z</time></trkpt><trkpt lat="45.6956817" lon="8.5765083"><ele>345.0</ele><time>2026-04-12T11:02:23.001Z</time></trkpt><trkpt lat="45.69569" lon="8.5763983"><ele>345.0</ele><time>2026-04-12T11:02:24Z</time></trkpt><trkpt lat="45.6956933" lon="8.5762667"><ele>345.0</ele><time>2026-04-12T11:02:25.001Z</time></trkpt><trkpt lat="45.6956933" lon="8.57613"><ele>345.0</ele><time>2026-04-12T11:02:26Z</time></trkpt><trkpt lat="45.6956933" lon="8.5760083"><ele>345.0</ele><time>2026-04-12T11:02:27Z</time></trkpt><trkpt lat="45.695685" lon="8.5758783"><ele>345.0</ele><time>2026-04-12T11:02:28Z</time></trkpt><trkpt lat="45.6956817" lon="8.5757583"><ele>345.0</ele><time>2026-04-12T11:02:29.001Z</time></trkpt><trkpt lat="45.6956833" lon="8.5756133"><ele>345.0</ele><time>2026-04-12T11:02:30Z</time></trkpt><trkpt lat="45.6956917" lon="8.5755083"><ele>345.0</ele><time>2026-04-12T11:02:31Z</time></trkpt><trkpt lat="45.6957217" lon="8.5754217"><ele>345.0</ele><time>2026-04-12T11:02:32Z</time></trkpt><trkpt lat="45.6957567" lon="8.5753333"><ele>345.1666666666667</ele><time>2026-04-12T11:02:33.001Z</time></trkpt><trkpt lat="45.6958033" lon="8.575245"><ele>345.3333333333333</ele><time>2026-04-12T11:02:34Z</time></trkpt><trkpt lat="45.6958583" lon="8.5751533"><ele>345.5</ele><time>2026-04-12T11:02:35.001Z</time></trkpt><trkpt lat="45.69592" lon="8.575065"><ele>345.66666666666663</ele><time>2026-04-12T11:02:36Z</time></trkpt><trkpt lat="45.695985" lon="8.57498"><ele>345.8333333333333</ele><time>2026-04-12T11:02:37Z</time></trkpt><trkpt lat="45.696065" lon="8.5748983"><ele>346.0</ele><time>2026-04-12T11:02:38.001Z</time></trkpt><trkpt lat="45.6961533" lon="8.574795"><ele>346.0</ele><time>2026-04-12T11:02:39Z</time></trkpt><trkpt lat="45.6962333" lon="8.5747033"><ele>346.0</ele><time>2026-04-12T11:02:40.001Z</time></trkpt><trkpt lat="45.696315" lon="8.5746167"><ele>346.0</ele><time>2026-04-12T11:02:41.001Z</time></trkpt><trkpt lat="45.6964" lon="8.5745283"><ele>346.0</ele><time>2026-04-12T11:02:42.001Z</time></trkpt><trkpt lat="45.69648" lon="8.5744367"><ele>346.0</ele><time>2026-04-12T11:02:43.001Z</time></trkpt><trkpt lat="45.6965533" lon="8.5743367"><ele>345.6</ele><time>2026-04-12T11:02:44Z</time></trkpt><trkpt lat="45.6966217" lon="8.57422"><ele>345.20000000000005</ele><time>2026-04-12T11:02:45Z</time></trkpt><trkpt lat="45.6966783" lon="8.5740867"><ele>344.79999999999995</ele><time>2026-04-12T11:02:46.001Z</time></trkpt><trkpt lat="45.6967233" lon="8.5739633"><ele>344.4</ele><time>2026-04-12T11:02:47.001Z</time></trkpt><trkpt lat="45.6967633" lon="8.573845"><ele>344.0</ele><time>2026-04-12T11:02:48Z</time></trkpt><trkpt lat="45.6968067" lon="8.573715"><ele>343.5</ele><time>2026-04-12T11:02:49Z</time></trkpt><trkpt lat="45.6968517" lon="8.5735617"><ele>343.0</ele><time>2026-04-12T11:02:50.001Z</time></trkpt><trkpt lat="45.6968967" lon="8.5734133"><ele>342.5</ele><time>2026-04-12T11:02:51.001Z</time></trkpt><trkpt lat="45.69694" lon="8.5732667"><ele>342.0</ele><time>2026-04-12T11:02:52Z</time></trkpt><trkpt lat="45.6969833" lon="8.57312"><ele>343.6</ele><time>2026-04-12T11:02:53Z</time></trkpt><trkpt lat="45.6970233" lon="8.5729967"><ele>345.20000000000005</ele><time>2026-04-12T11:02:54Z</time></trkpt><trkpt lat="45.6970583" lon="8.5728667"><ele>346.8</ele><time>2026-04-12T11:02:55.001Z</time></trkpt><trkpt lat="45.6970933" lon="8.5727417"><ele>348.4</ele><time>2026-04-12T11:02:56.001Z</time></trkpt><trkpt lat="45.6971233" lon="8.5726083"><ele>350.0</ele><time>2026-04-12T11:02:57Z</time></trkpt><trkpt lat="45.6971633" lon="8.572465"><ele>350.0</ele><time>2026-04-12T11:02:58Z</time></trkpt><trkpt lat="45.697205" lon="8.57232"><ele>350.0</ele><time>2026-04-12T11:02:59Z</time></trkpt><trkpt lat="45.6972517" lon="8.5721767"><ele>350.0</ele><time>2026-04-12T11:03:00Z</time></trkpt><trkpt lat="45.6972983" lon="8.5720383"><ele>350.0</ele><time>2026-04-12T11:03:01Z</time></trkpt><trkpt lat="45.69735" lon="8.5719017"><ele>350.0</ele><time>2026-04-12T11:03:02Z</time></trkpt><trkpt lat="45.6973933" lon="8.5717717"><ele>349.4</ele><time>2026-04-12T11:03:03Z</time></trkpt><trkpt lat="45.6974383" lon="8.5716517"><ele>348.8</ele><time>2026-04-12T11:03:04Z</time></trkpt><trkpt lat="45.6974783" lon="8.5715233"><ele>348.20000000000005</ele><time>2026-04-12T11:03:05Z</time></trkpt><trkpt lat="45.6975133" lon="8.5713933"><ele>347.6</ele><time>2026-04-12T11:03:06Z</time></trkpt><trkpt lat="45.6975433" lon="8.5712717"><ele>347.0</ele><time>2026-04-12T11:03:07Z</time></trkpt><trkpt lat="45.6975683" lon="8.571155"><ele>346.33333333333337</ele><time>2026-04-12T11:03:08Z</time></trkpt><trkpt lat="45.697605" lon="8.57105"><ele>345.6666666666667</ele><time>2026-04-12T11:03:09Z</time></trkpt><trkpt lat="45.6976367" lon="8.5709467"><ele>345.0</ele><time>2026-04-12T11:03:10Z</time></trkpt><trkpt lat="45.697675" lon="8.570835"><ele>344.3333333333333</ele><time>2026-04-12T11:03:11Z</time></trkpt><trkpt lat="45.6977117" lon="8.57072"><ele>343.66666666666663</ele><time>2026-04-12T11:03:12Z</time></trkpt><trkpt lat="45.69775" lon="8.5706117"><ele>343.0</ele><time>2026-04-12T11:03:13Z</time></trkpt><trkpt lat="45.6977883" lon="8.57051"><ele>345.0</ele><time>2026-04-12T11:03:14.001Z</time></trkpt><trkpt lat="45.697815" lon="8.5704117"><ele>347.0</ele><time>2026-04-12T11:03:15.001Z</time></trkpt><trkpt lat="45.6978517" lon="8.57031"><ele>349.0</ele><time>2026-04-12T11:03:16.001Z</time></trkpt><trkpt lat="45.6978883" lon="8.570205"><ele>351.0</ele><time>2026-04-12T11:03:17Z</time></trkpt><trkpt lat="45.6979317" lon="8.570085"><ele>353.0</ele><time>2026-04-12T11:03:18.001Z</time></trkpt><trkpt lat="45.6979717" lon="8.5699833"><ele>355.0</ele><time>2026-04-12T11:03:19.001Z</time></trkpt><trkpt lat="45.6980183" lon="8.5698417"><ele>355.0</ele><time>2026-04-12T11:03:20Z</time></trkpt><trkpt lat="45.69807" lon="8.5696933"><ele>355.0</ele><time>2026-04-12T11:03:21.001Z</time></trkpt><trkpt lat="45.698125" lon="8.5695533"><ele>355.0</ele><time>2026-04-12T11:03:22Z</time></trkpt><trkpt lat="45.6981733" lon="8.5694133"><ele>355.0</ele><time>2026-04-12T11:03:23Z</time></trkpt><trkpt lat="45.6982217" lon="8.5692683"><ele>355.0</ele><time>2026-04-12T11:03:24Z</time></trkpt><trkpt lat="45.6982633" lon="8.5691167"><ele>353.25</ele><time>2026-04-12T11:03:25.001Z</time></trkpt><trkpt lat="45.6982933" lon="8.5689583"><ele>351.5</ele><time>2026-04-12T11:03:26Z</time></trkpt><trkpt lat="45.698325" lon="8.5688017"><ele>349.75</ele><time>2026-04-12T11:03:27.001Z</time></trkpt><trkpt lat="45.6983633" lon="8.5686367"><ele>348.0</ele><time>2026-04-12T11:03:28Z</time></trkpt><trkpt lat="45.6983967" lon="8.56845"><ele>347.5</ele><time>2026-04-12T11:03:29.001Z</time></trkpt><trkpt lat="45.698415" lon="8.5682583"><ele>347.0</ele><time>2026-04-12T11:03:30Z</time></trkpt><trkpt lat="45.6984333" lon="8.5680683"><ele>346.5</ele><time>2026-04-12T11:03:31Z</time></trkpt><trkpt lat="45.6984667" lon="8.5678867"><ele>346.0</ele><time>2026-04-12T11:03:32Z</time></trkpt><trkpt lat="45.69849" lon="8.5677083"><ele>346.0</ele><time>2026-04-12T11:03:33Z</time></trkpt><trkpt lat="45.69852" lon="8.567525"><ele>346.0</ele><time>2026-04-12T11:03:34Z</time></trkpt><trkpt lat="45.6985383" lon="8.567355"><ele>346.0</ele><time>2026-04-12T11:03:35Z</time></trkpt><trkpt lat="45.6985683" lon="8.56718"><ele>346.0</ele><time>2026-04-12T11:03:36Z</time></trkpt><trkpt lat="45.69861" lon="8.5669883"><ele>347.75</ele><time>2026-04-12T11:03:37.001Z</time></trkpt><trkpt lat="45.69865" lon="8.5668"><ele>349.5</ele><time>2026-04-12T11:03:38.001Z</time></trkpt><trkpt lat="45.698675" lon="8.56661"><ele>351.25</ele><time>2026-04-12T11:03:39Z</time></trkpt><trkpt lat="45.6987017" lon="8.566415"><ele>353.0</ele><time>2026-04-12T11:03:40.001Z</time></trkpt><trkpt lat="45.6987533" lon="8.5662233"><ele>353.0</ele><time>2026-04-12T11:03:41Z</time></trkpt><trkpt lat="45.6987867" lon="8.566035"><ele>353.0</ele><time>2026-04-12T11:03:42Z</time></trkpt><trkpt lat="45.6988367" lon="8.5658467"><ele>353.0</ele><time>2026-04-12T11:03:43.001Z</time></trkpt><trkpt lat="45.6988817" lon="8.5656633"><ele>353.0</ele><time>2026-04-12T11:03:44.001Z</time></trkpt><trkpt lat="45.6989267" lon="8.5654683"><ele>352.75</ele><time>2026-04-12T11:03:45Z</time></trkpt><trkpt lat="45.6989667" lon="8.5652733"><ele>352.5</ele><time>2026-04-12T11:03:46.001Z</time></trkpt><trkpt lat="45.6990033" lon="8.5650733"><ele>352.25</ele><time>2026-04-12T11:03:47Z</time></trkpt><trkpt lat="45.6990233" lon="8.5648633"><ele>352.0</ele><time>2026-04-12T11:03:48Z</time></trkpt><trkpt lat="45.69906" lon="8.5646683"><ele>351.25</ele><time>2026-04-12T11:03:49.001Z</time></trkpt><trkpt lat="45.6990833" lon="8.5644867"><ele>350.5</ele><time>2026-04-12T11:03:50.001Z</time></trkpt><trkpt lat="45.6991233" lon="8.5643083"><ele>349.75</ele><time>2026-04-12T11:03:51Z</time></trkpt><trkpt lat="45.6991533" lon="8.5641267"><ele>349.0</ele><time>2026-04-12T11:03:52Z</time></trkpt><trkpt lat="45.6991967" lon="8.5639533"><ele>349.0</ele><time>2026-04-12T11:03:53.001Z</time></trkpt><trkpt lat="45.69924" lon="8.5637933"><ele>349.0</ele><time>2026-04-12T11:03:54Z</time></trkpt><trkpt lat="45.6992833" lon="8.5636267"><ele>349.0</ele><time>2026-04-12T11:03:55Z</time></trkpt><trkpt lat="45.6993283" lon="8.5634717"><ele>349.0</ele><time>2026-04-12T11:03:56Z</time></trkpt><trkpt lat="45.69937" lon="8.5633033"><ele>349.25</ele><time>2026-04-12T11:03:57.001Z</time></trkpt><trkpt lat="45.6994067" lon="8.5631283"><ele>349.5</ele><time>2026-04-12T11:03:58.001Z</time></trkpt><trkpt lat="45.69944" lon="8.5629517"><ele>349.75</ele><time>2026-04-12T11:03:59.001Z</time></trkpt><trkpt lat="45.699485" lon="8.5627833"><ele>350.0</ele><time>2026-04-12T11:04:00Z</time></trkpt><trkpt lat="45.699525" lon="8.5626133"><ele>350.75</ele><time>2026-04-12T11:04:01Z</time></trkpt><trkpt lat="45.6995633" lon="8.5624467"><ele>351.5</ele><time>2026-04-12T11:04:02Z</time></trkpt><trkpt lat="45.6996" lon="8.562275"><ele>352.25</ele><time>2026-04-12T11:04:03.001Z</time></trkpt><trkpt lat="45.69964" lon="8.5620983"><ele>353.0</ele><time>2026-04-12T11:04:04.001Z</time></trkpt><trkpt lat="45.6996783" lon="8.5619183"><ele>353.25</ele><time>2026-04-12T11:04:05.001Z</time></trkpt><trkpt lat="45.6997167" lon="8.5617367"><ele>353.5</ele><time>2026-04-12T11:04:06.001Z</time></trkpt><trkpt lat="45.6997517" lon="8.5615583"><ele>353.75</ele><time>2026-04-12T11:04:07Z</time></trkpt><trkpt lat="45.69978" lon="8.5613783"><ele>354.0</ele><time>2026-04-12T11:04:08Z</time></trkpt><trkpt lat="45.6998067" lon="8.5612017"><ele>354.25</ele><time>2026-04-12T11:04:09Z</time></trkpt><trkpt lat="45.69983" lon="8.56102"><ele>354.5</ele><time>2026-04-12T11:04:10Z</time></trkpt><trkpt lat="45.6998633" lon="8.5608233"><ele>354.75</ele><time>2026-04-12T11:04:11Z</time></trkpt><trkpt lat="45.6998967" lon="8.5606367"><ele>355.0</ele><time>2026-04-12T11:04:12.001Z</time></trkpt><trkpt lat="45.69992" lon="8.56044"><ele>355.0</ele><time>2026-04-12T11:04:13.001Z</time></trkpt><trkpt lat="45.69995" lon="8.5602633"><ele>355.0</ele><time>2026-04-12T11:04:14.001Z</time></trkpt><trkpt lat="45.699985" lon="8.5600817"><ele>355.0</ele><time>2026-04-12T11:04:15Z</time></trkpt><trkpt lat="45.7000083" lon="8.559925"><ele>355.0</ele><time>2026-04-12T11:04:16Z</time></trkpt><trkpt lat="45.700035" lon="8.55975"><ele>355.0</ele><time>2026-04-12T11:04:17Z</time></trkpt><trkpt lat="45.70007" lon="8.5595767"><ele>355.0</ele><time>2026-04-12T11:04:18.001Z</time></trkpt><trkpt lat="45.7001" lon="8.5593967"><ele>355.0</ele><time>2026-04-12T11:04:19Z</time></trkpt><trkpt lat="45.7001267" lon="8.559235"><ele>355.0</ele><time>2026-04-12T11:04:20.001Z</time></trkpt><trkpt lat="45.7001567" lon="8.5590567"><ele>355.0</ele><time>2026-04-12T11:04:21.001Z</time></trkpt><trkpt lat="45.7001883" lon="8.5588917"><ele>355.0</ele><time>2026-04-12T11:04:22.001Z</time></trkpt><trkpt lat="45.7002267" lon="8.5587167"><ele>355.0</ele><time>2026-04-12T11:04:23Z</time></trkpt><trkpt lat="45.7002583" lon="8.5585517"><ele>355.0</ele><time>2026-04-12T11:04:24Z</time></trkpt><trkpt lat="45.7002917" lon="8.5583817"><ele>356.0</ele><time>2026-04-12T11:04:25Z</time></trkpt><trkpt lat="45.700325" lon="8.5582033"><ele>357.0</ele><time>2026-04-12T11:04:26.001Z</time></trkpt><trkpt lat="45.7003583" lon="8.5580367"><ele>358.0</ele><time>2026-04-12T11:04:27.001Z</time></trkpt><trkpt lat="45.7003933" lon="8.5578733"><ele>359.0</ele><time>2026-04-12T11:04:28Z</time></trkpt><trkpt lat="45.7004267" lon="8.5576917"><ele>359.25</ele><time>2026-04-12T11:04:29Z</time></trkpt><trkpt lat="45.7004533" lon="8.557515"><ele>359.5</ele><time>2026-04-12T11:04:30Z</time></trkpt><trkpt lat="45.7004783" lon="8.5573517"><ele>359.75</ele><time>2026-04-12T11:04:31.001Z</time></trkpt><trkpt lat="45.700505" lon="8.5571917"><ele>360.0</ele><time>2026-04-12T11:04:32Z</time></trkpt><trkpt lat="45.7005383" lon="8.5570217"><ele>360.25</ele><time>2026-04-12T11:04:33Z</time></trkpt><trkpt lat="45.7005767" lon="8.5568467"><ele>360.5</ele><time>2026-04-12T11:04:34Z</time></trkpt><trkpt lat="45.7006117" lon="8.5566733"><ele>360.75</ele><time>2026-04-12T11:04:35Z</time></trkpt><trkpt lat="45.700655" lon="8.5564933"><ele>361.0</ele><time>2026-04-12T11:04:36Z</time></trkpt><trkpt lat="45.700695" lon="8.55631"><ele>361.5</ele><time>2026-04-12T11:04:37.001Z</time></trkpt><trkpt lat="45.700735" lon="8.5561117"><ele>362.0</ele><time>2026-04-12T11:04:38Z</time></trkpt><trkpt lat="45.7007733" lon="8.5559333"><ele>362.5</ele><time>2026-04-12T11:04:39.001Z</time></trkpt><trkpt lat="45.7008117" lon="8.555755"><ele>363.0</ele><time>2026-04-12T11:04:40Z</time></trkpt><trkpt lat="45.7008433" lon="8.5555683"><ele>363.0</ele><time>2026-04-12T11:04:41.001Z</time></trkpt><trkpt lat="45.7008767" lon="8.55538"><ele>363.0</ele><time>2026-04-12T11:04:42.001Z</time></trkpt><trkpt lat="45.7009167" lon="8.55519"><ele>363.0</ele><time>2026-04-12T11:04:43.001Z</time></trkpt><trkpt lat="45.700955" lon="8.55501"><ele>363.0</ele><time>2026-04-12T11:04:44Z</time></trkpt><trkpt lat="45.700995" lon="8.55482"><ele>363.0</ele><time>2026-04-12T11:04:45Z</time></trkpt><trkpt lat="45.7010367" lon="8.5546467"><ele>363.0</ele><time>2026-04-12T11:04:46Z</time></trkpt><trkpt lat="45.7010767" lon="8.55448"><ele>363.0</ele><time>2026-04-12T11:04:47.001Z</time></trkpt><trkpt lat="45.7011167" lon="8.554305"><ele>363.0</ele><time>2026-04-12T11:04:48.001Z</time></trkpt><trkpt lat="45.70115" lon="8.5541367"><ele>364.4</ele><time>2026-04-12T11:04:49Z</time></trkpt><trkpt lat="45.7011983" lon="8.5540167"><ele>365.79999999999995</ele><time>2026-04-12T11:04:50.001Z</time></trkpt><trkpt lat="45.701225" lon="8.5538633"><ele>367.2</ele><time>2026-04-12T11:04:51.001Z</time></trkpt><trkpt lat="45.7012633" lon="8.55374"><ele>368.6</ele><time>2026-04-12T11:04:52Z</time></trkpt><trkpt lat="45.70129" lon="8.5536033"><ele>370.0</ele><time>2026-04-12T11:04:53Z</time></trkpt><trkpt lat="45.70131" lon="8.5534783"><ele>370.16666666666663</ele><time>2026-04-12T11:04:54Z</time></trkpt><trkpt lat="45.7013167" lon="8.5533683"><ele>370.3333333333333</ele><time>2026-04-12T11:04:55Z</time></trkpt><trkpt lat="45.7013183" lon="8.5532517"><ele>370.5</ele><time>2026-04-12T11:04:56.001Z</time></trkpt><trkpt lat="45.7013317" lon="8.5531567"><ele>370.6666666666667</ele><time>2026-04-12T11:04:57Z</time></trkpt><trkpt lat="45.70137" lon="8.553025"><ele>370.83333333333337</ele><time>2026-04-12T11:04:59Z</time></trkpt><trkpt lat="45.7014283" lon="8.55296"><ele>371.0</ele><time>2026-04-12T11:05:02.001Z</time></trkpt><trkpt lat="45.7015067" lon="8.5529683"><ele>371.0</ele><time>2026-04-12T11:05:04Z</time></trkpt><trkpt lat="45.7015717" lon="8.55293"><ele>371.0</ele><time>2026-04-12T11:05:06Z</time></trkpt><trkpt lat="45.70163" lon="8.5527967"><ele>371.0</ele><time>2026-04-12T11:05:08Z</time></trkpt><trkpt lat="45.7016483" lon="8.5526967"><ele>371.0</ele><time>2026-04-12T11:05:09Z</time></trkpt><trkpt lat="45.7016683" lon="8.552535"><ele>371.0</ele><time>2026-04-12T11:05:11Z</time></trkpt><trkpt lat="45.70167" lon="8.5523833"><ele>371.0</ele><time>2026-04-12T11:05:13Z</time></trkpt><trkpt lat="45.70166" lon="8.552235"><ele>371.0</ele><time>2026-04-12T11:05:15Z</time></trkpt><trkpt lat="45.70165" lon="8.552145"><ele>371.0</ele><time>2026-04-12T11:05:16Z</time></trkpt><trkpt lat="45.7016483" lon="8.5520517"><ele>371.0</ele><time>2026-04-12T11:05:17.001Z</time></trkpt><trkpt lat="45.7016517" lon="8.5519533"><ele>371.0</ele><time>2026-04-12T11:05:18.001Z</time></trkpt><trkpt lat="45.70165" lon="8.551855"><ele>371.0</ele><time>2026-04-12T11:05:19.001Z</time></trkpt><trkpt lat="45.7016417" lon="8.5517567"><ele>371.0</ele><time>2026-04-12T11:05:20.001Z</time></trkpt><trkpt lat="45.7016283" lon="8.55157"><ele>370.20000000000005</ele><time>2026-04-12T11:05:22Z</time></trkpt><trkpt lat="45.7016283" lon="8.5514767"><ele>369.40000000000003</ele><time>2026-04-12T11:05:23Z</time></trkpt><trkpt lat="45.701635" lon="8.551325"><ele>368.6</ele><time>2026-04-12T11:05:25Z</time></trkpt><trkpt lat="45.7016383" lon="8.5511633"><ele>367.8</ele><time>2026-04-12T11:05:27Z</time></trkpt><trkpt lat="45.7016333" lon="8.5509933"><ele>367.0</ele><time>2026-04-12T11:05:29Z</time></trkpt><trkpt lat="45.7016367" lon="8.5508333"><ele>365.8</ele><time>2026-04-12T11:05:31.001Z</time></trkpt><trkpt lat="45.7016633" lon="8.55072"><ele>364.6</ele><time>2026-04-12T11:05:33Z</time></trkpt><trkpt lat="45.7016883" lon="8.5505933"><ele>363.40000000000003</ele><time>2026-04-12T11:05:35Z</time></trkpt><trkpt lat="45.701705" lon="8.5504717"><ele>362.20000000000005</ele><time>2026-04-12T11:05:37Z</time></trkpt><trkpt lat="45.701705" lon="8.55032"><ele>361.0</ele><time>2026-04-12T11:05:39Z</time></trkpt><trkpt lat="45.7017083" lon="8.5501433"><ele>360.3333333333333</ele><time>2026-04-12T11:05:41.001Z</time></trkpt><trkpt lat="45.701715" lon="8.5499633"><ele>359.66666666666663</ele><time>2026-04-12T11:05:43.001Z</time></trkpt><trkpt lat="45.701715" lon="8.5498683"><ele>359.0</ele><time>2026-04-12T11:05:44Z</time></trkpt><trkpt lat="45.7017267" lon="8.5497683"><ele>358.3333333333333</ele><time>2026-04-12T11:05:45Z</time></trkpt><trkpt lat="45.7017483" lon="8.54967"><ele>357.6666666666667</ele><time>2026-04-12T11:05:46Z</time></trkpt><trkpt lat="45.70177" lon="8.54958"><ele>357.0</ele><time>2026-04-12T11:05:47Z</time></trkpt><trkpt lat="45.7018033" lon="8.5495033"><ele>357.5</ele><time>2026-04-12T11:05:48Z</time></trkpt><trkpt lat="45.7018433" lon="8.5494117"><ele>358.0</ele><time>2026-04-12T11:05:49.001Z</time></trkpt><trkpt lat="45.7018933" lon="8.5493183"><ele>358.5</ele><time>2026-04-12T11:05:50.001Z</time></trkpt><trkpt lat="45.7019433" lon="8.54922"><ele>359.0</ele><time>2026-04-12T11:05:51.001Z</time></trkpt><trkpt lat="45.7019917" lon="8.5491233"><ele>359.5</ele><time>2026-04-12T11:05:52Z</time></trkpt><trkpt lat="45.702035" lon="8.5490283"><ele>360.0</ele><time>2026-04-12T11:05:53.001Z</time></trkpt><trkpt lat="45.7020767" lon="8.5489233"><ele>360.0</ele><time>2026-04-12T11:05:54Z</time></trkpt><trkpt lat="45.7021117" lon="8.5488133"><ele>360.0</ele><time>2026-04-12T11:05:55Z</time></trkpt><trkpt lat="45.7021433" lon="8.5487067"><ele>360.0</ele><time>2026-04-12T11:05:56Z</time></trkpt><trkpt lat="45.702165" lon="8.5486"><ele>360.0</ele><time>2026-04-12T11:05:57.001Z</time></trkpt><trkpt lat="45.7021817" lon="8.5485033"><ele>360.0</ele><time>2026-04-12T11:05:58.001Z</time></trkpt><trkpt lat="45.7021767" lon="8.5483117"><ele>360.0</ele><time>2026-04-12T11:06:00Z</time></trkpt><trkpt lat="45.7021767" lon="8.5481483"><ele>358.5</ele><time>2026-04-12T11:06:02Z</time></trkpt><trkpt lat="45.7022017" lon="8.54802"><ele>357.0</ele><time>2026-04-12T11:06:04.001Z</time></trkpt><trkpt lat="45.7022467" lon="8.5479517"><ele>355.5</ele><time>2026-04-12T11:06:06.001Z</time></trkpt><trkpt lat="45.7023017" lon="8.54784"><ele>354.0</ele><time>2026-04-12T11:06:09.001Z</time></trkpt><trkpt lat="45.702355" lon="8.5477383"><ele>352.5</ele><time>2026-04-12T11:06:11Z</time></trkpt><trkpt lat="45.7024" lon="8.5476067"><ele>351.0</ele><time>2026-04-12T11:06:13.001Z</time></trkpt><trkpt lat="45.70243" lon="8.5474767"><ele>350.14285714285717</ele><time>2026-04-12T11:06:15Z</time></trkpt><trkpt lat="45.7024183" lon="8.5473783"><ele>349.2857142857143</ele><time>2026-04-12T11:06:18Z</time></trkpt><trkpt lat="45.7023567" lon="8.5473167"><ele>348.42857142857144</ele><time>2026-04-12T11:06:20.001Z</time></trkpt><trkpt lat="45.70233" lon="8.5472117"><ele>347.57142857142856</ele><time>2026-04-12T11:06:23Z</time></trkpt><trkpt lat="45.7023367" lon="8.5471033"><ele>346.7142857142857</ele><time>2026-04-12T11:06:26Z</time></trkpt><trkpt lat="45.7023533" lon="8.5470017"><ele>345.8571428571429</ele><time>2026-04-12T11:06:28.001Z</time></trkpt><trkpt lat="45.7023817" lon="8.5469033"><ele>345.0</ele><time>2026-04-12T11:06:30Z</time></trkpt><trkpt lat="45.7024033" lon="8.54681"><ele>343.4</ele><time>2026-04-12T11:06:32Z</time></trkpt><trkpt lat="45.70245" lon="8.5466617"><ele>341.8</ele><time>2026-04-12T11:06:34Z</time></trkpt><trkpt lat="45.702485" lon="8.5465717"><ele>340.20000000000005</ele><time>2026-04-12T11:06:35Z</time></trkpt><trkpt lat="45.7025233" lon="8.5464917"><ele>338.6</ele><time>2026-04-12T11:06:36.001Z</time></trkpt><trkpt lat="45.7025833" lon="8.54635"><ele>337.0</ele><time>2026-04-12T11:06:38Z</time></trkpt><trkpt lat="45.70265" lon="8.5462433"><ele>336.3333333333333</ele><time>2026-04-12T11:06:40.001Z</time></trkpt><trkpt lat="45.7027083" lon="8.5461617"><ele>335.66666666666663</ele><time>2026-04-12T11:06:42.001Z</time></trkpt><trkpt lat="45.7027433" lon="8.5460667"><ele>335.0</ele><time>2026-04-12T11:06:44Z</time></trkpt><trkpt lat="45.70277" lon="8.545975"><ele>334.3333333333333</ele><time>2026-04-12T11:06:46Z</time></trkpt><trkpt lat="45.70278" lon="8.5458833"><ele>333.6666666666667</ele><time>2026-04-12T11:06:48.001Z</time></trkpt><trkpt lat="45.702695" lon="8.5458883"><ele>333.0</ele><time>2026-04-12T11:06:52.001Z</time></trkpt><trkpt lat="45.7025917" lon="8.54591"><ele>332.2</ele><time>2026-04-12T11:07:01Z</time></trkpt><trkpt lat="45.7024933" lon="8.54592"><ele>331.4</ele><time>2026-04-12T11:07:03.001Z</time></trkpt><trkpt lat="45.7023767" lon="8.5458917"><ele>330.59999999999997</ele><time>2026-04-12T11:07:05.001Z</time></trkpt><trkpt lat="45.7022717" lon="8.5458367"><ele>329.79999999999995</ele><time>2026-04-12T11:07:07.001Z</time></trkpt><trkpt lat="45.7021683" lon="8.545755"><ele>329.0</ele><time>2026-04-12T11:07:09.001Z</time></trkpt><trkpt lat="45.7021167" lon="8.5457"><ele>329.0</ele><time>2026-04-12T11:07:10Z</time></trkpt><trkpt lat="45.7020433" lon="8.5456317"><ele>329.0</ele><time>2026-04-12T11:07:12Z</time></trkpt><trkpt lat="45.7019817" lon="8.5455417"><ele>329.0</ele><time>2026-04-12T11:07:24.001Z</time></trkpt><trkpt lat="45.7018767" lon="8.545415"><ele>329.0</ele><time>2026-04-12T11:08:58.001Z</time></trkpt><trkpt lat="45.7018117" lon="8.545335"><ele>329.0</ele><time>2026-04-12T11:08:59Z</time></trkpt><trkpt lat="45.701745" lon="8.5452467"><ele>327.4</ele><time>2026-04-12T11:09:00.001Z</time></trkpt><trkpt lat="45.701675" lon="8.5451783"><ele>325.79999999999995</ele><time>2026-04-12T11:09:01Z</time></trkpt><trkpt lat="45.7016117" lon="8.5451317"><ele>324.20000000000005</ele><time>2026-04-12T11:09:02.001Z</time></trkpt><trkpt lat="45.7015033" lon="8.54509"><ele>322.6</ele><time>2026-04-12T11:09:04.001Z</time></trkpt><trkpt lat="45.70136" lon="8.545135"><ele>321.0</ele><time>2026-04-12T11:09:12Z</time></trkpt><trkpt lat="45.7012367" lon="8.5452"><ele>321.0</ele><time>2026-04-12T11:09:14Z</time></trkpt><trkpt lat="45.701165" lon="8.5452283"><ele>321.0</ele><time>2026-04-12T11:09:15Z</time></trkpt><trkpt lat="45.701095" lon="8.545265"><ele>321.0</ele><time>2026-04-12T11:09:16Z</time></trkpt><trkpt lat="45.7010217" lon="8.5452967"><ele>321.0</ele><time>2026-04-12T11:09:17Z</time></trkpt><trkpt lat="45.7009483" lon="8.54532"><ele>321.0</ele><time>2026-04-12T11:09:18.001Z</time></trkpt><trkpt lat="45.7008483" lon="8.5453683"><ele>321.0</ele><time>2026-04-12T11:09:20Z</time></trkpt><trkpt lat="45.700765" lon="8.545295"><ele>320.2</ele><time>2026-04-12T11:09:28Z</time></trkpt><trkpt lat="45.7007133" lon="8.54517"><ele>319.40000000000003</ele><time>2026-04-12T11:09:30Z</time></trkpt><trkpt lat="45.7006417" lon="8.54503"><ele>318.6</ele><time>2026-04-12T11:09:32Z</time></trkpt><trkpt lat="45.7006" lon="8.5448867"><ele>317.8</ele><time>2026-04-12T11:09:34.001Z</time></trkpt><trkpt lat="45.7005733" lon="8.544805"><ele>317.0</ele><time>2026-04-12T11:09:35Z</time></trkpt><trkpt lat="45.7005233" lon="8.5446333"><ele>315.8</ele><time>2026-04-12T11:09:37Z</time></trkpt><trkpt lat="45.7004867" lon="8.5444817"><ele>314.6</ele><time>2026-04-12T11:09:39.001Z</time></trkpt><trkpt lat="45.7004483" lon="8.544405"><ele>313.40000000000003</ele><time>2026-04-12T11:09:40.001Z</time></trkpt><trkpt lat="45.7003817" lon="8.5442917"><ele>312.2</ele><time>2026-04-12T11:09:42Z</time></trkpt><trkpt lat="45.7003117" lon="8.544175"><ele>311.0</ele><time>2026-04-12T11:09:44Z</time></trkpt><trkpt lat="45.7002517" lon="8.544055"><ele>310.6666666666667</ele><time>2026-04-12T11:09:46.001Z</time></trkpt><trkpt lat="45.7002033" lon="8.5439267"><ele>310.33333333333337</ele><time>2026-04-12T11:09:48Z</time></trkpt><trkpt lat="45.70017" lon="8.5438433"><ele>310.0</ele><time>2026-04-12T11:09:49.001Z</time></trkpt><trkpt lat="45.7001383" lon="8.5437367"><ele>309.6666666666667</ele><time>2026-04-12T11:09:50Z</time></trkpt><trkpt lat="45.7000983" lon="8.5436117"><ele>309.3333333333333</ele><time>2026-04-12T11:09:51Z</time></trkpt><trkpt lat="45.7000633" lon="8.54349"><ele>309.0</ele><time>2026-04-12T11:09:52Z</time></trkpt><trkpt lat="45.7000317" lon="8.5433767"><ele>308.8571428571429</ele><time>2026-04-12T11:09:53Z</time></trkpt><trkpt lat="45.700005" lon="8.5432683"><ele>308.7142857142857</ele><time>2026-04-12T11:09:54Z</time></trkpt><trkpt lat="45.69998" lon="8.54316"><ele>308.57142857142856</ele><time>2026-04-12T11:09:55.001Z</time></trkpt><trkpt lat="45.6999617" lon="8.5430533"><ele>308.42857142857144</ele><time>2026-04-12T11:09:56Z</time></trkpt><trkpt lat="45.6999417" lon="8.5429483"><ele>308.2857142857143</ele><time>2026-04-12T11:09:57Z</time></trkpt><trkpt lat="45.69992" lon="8.5428617"><ele>308.14285714285717</ele><time>2026-04-12T11:09:58Z</time></trkpt><trkpt lat="45.6998883" lon="8.5427833"><ele>308.0</ele><time>2026-04-12T11:09:59.001Z</time></trkpt><trkpt lat="45.699795" lon="8.5426917"><ele>308.0</ele><time>2026-04-12T11:10:01.001Z</time></trkpt><trkpt lat="45.6997267" lon="8.54267"><ele>308.0</ele><time>2026-04-12T11:10:02.001Z</time></trkpt><trkpt lat="45.699645" lon="8.5426517"><ele>308.0</ele><time>2026-04-12T11:10:03Z</time></trkpt><trkpt lat="45.6995633" lon="8.542635"><ele>308.0</ele><time>2026-04-12T11:10:04Z</time></trkpt><trkpt lat="45.6994733" lon="8.5426217"><ele>308.0</ele><time>2026-04-12T11:10:05Z</time></trkpt><trkpt lat="45.6993783" lon="8.5426067"><ele>308.0</ele><time>2026-04-12T11:10:06.001Z</time></trkpt><trkpt lat="45.6992883" lon="8.5425967"><ele>308.33333333333337</ele><time>2026-04-12T11:10:07Z</time></trkpt><trkpt lat="45.6992017" lon="8.542595"><ele>308.6666666666667</ele><time>2026-04-12T11:10:08Z</time></trkpt><trkpt lat="45.699115" lon="8.5425967"><ele>309.0</ele><time>2026-04-12T11:10:09.001Z</time></trkpt><trkpt lat="45.6990267" lon="8.5426133"><ele>309.3333333333333</ele><time>2026-04-12T11:10:10Z</time></trkpt><trkpt lat="45.698945" lon="8.5426567"><ele>309.66666666666663</ele><time>2026-04-12T11:10:11.001Z</time></trkpt><trkpt lat="45.6988733" lon="8.5427217"><ele>310.0</ele><time>2026-04-12T11:10:12.001Z</time></trkpt><trkpt lat="45.6988083" lon="8.5428017"><ele>310.0</ele><time>2026-04-12T11:10:13Z</time></trkpt><trkpt lat="45.6987417" lon="8.5428867"><ele>310.0</ele><time>2026-04-12T11:10:14.001Z</time></trkpt><trkpt lat="45.6986717" lon="8.5429733"><ele>310.0</ele><time>2026-04-12T11:10:15Z</time></trkpt><trkpt lat="45.6986017" lon="8.543065"><ele>310.0</ele><time>2026-04-12T11:10:16.001Z</time></trkpt><trkpt lat="45.69853" lon="8.5431533"><ele>310.0</ele><time>2026-04-12T11:10:17Z</time></trkpt><trkpt lat="45.6984583" lon="8.543235"><ele>310.0</ele><time>2026-04-12T11:10:18Z</time></trkpt><trkpt lat="45.6983817" lon="8.5433033"><ele>310.0</ele><time>2026-04-12T11:10:19Z</time></trkpt><trkpt lat="45.6983167" lon="8.54336"><ele>310.0</ele><time>2026-04-12T11:10:20Z</time></trkpt><trkpt lat="45.69826" lon="8.5434033"><ele>310.0</ele><time>2026-04-12T11:10:21Z</time></trkpt><trkpt lat="45.6981967" lon="8.5434333"><ele>310.0</ele><time>2026-04-12T11:10:22.001Z</time></trkpt><trkpt lat="45.6981283" lon="8.543475"><ele>310.0</ele><time>2026-04-12T11:10:23.001Z</time></trkpt><trkpt lat="45.6980367" lon="8.54349"><ele>310.0</ele><time>2026-04-12T11:10:24Z</time></trkpt><trkpt lat="45.6979383" lon="8.5435117"><ele>310.0</ele><time>2026-04-12T11:10:25Z</time></trkpt><trkpt lat="45.6978283" lon="8.543525"><ele>310.0</ele><time>2026-04-12T11:10:26Z</time></trkpt><trkpt lat="45.6977317" lon="8.5435467"><ele>310.0</ele><time>2026-04-12T11:10:27Z</time></trkpt><trkpt lat="45.6976433" lon="8.543575"><ele>310.0</ele><time>2026-04-12T11:10:28.001Z</time></trkpt><trkpt lat="45.6975717" lon="8.54362"><ele>309.3333333333333</ele><time>2026-04-12T11:10:29.001Z</time></trkpt><trkpt lat="45.69749" lon="8.5436767"><ele>308.66666666666663</ele><time>2026-04-12T11:10:30Z</time></trkpt><trkpt lat="45.6974183" lon="8.5437433"><ele>308.0</ele><time>2026-04-12T11:10:31Z</time></trkpt><trkpt lat="45.6973583" lon="8.5438"><ele>307.3333333333333</ele><time>2026-04-12T11:10:32Z</time></trkpt><trkpt lat="45.6973" lon="8.5438533"><ele>306.6666666666667</ele><time>2026-04-12T11:10:33.001Z</time></trkpt><trkpt lat="45.6972383" lon="8.5439067"><ele>306.0</ele><time>2026-04-12T11:10:34.001Z</time></trkpt><trkpt lat="45.6971733" lon="8.5439583"><ele>306.0</ele><time>2026-04-12T11:10:35.001Z</time></trkpt><trkpt lat="45.6971167" lon="8.5440083"><ele>306.0</ele><time>2026-04-12T11:10:36.001Z</time></trkpt><trkpt lat="45.6970617" lon="8.5440617"><ele>306.0</ele><time>2026-04-12T11:10:38.001Z</time></trkpt><trkpt lat="45.6970133" lon="8.5439333"><ele>306.0</ele><time>2026-04-12T11:10:41Z</time></trkpt><trkpt lat="45.6970033" lon="8.5438367"><ele>306.0</ele><time>2026-04-12T11:10:42Z</time></trkpt><trkpt lat="45.6969833" lon="8.543725"><ele>306.0</ele><time>2026-04-12T11:10:43Z</time></trkpt><trkpt lat="45.69696" lon="8.5435983"><ele>306.0</ele><time>2026-04-12T11:10:44.001Z</time></trkpt><trkpt lat="45.6969383" lon="8.543475"><ele>306.0</ele><time>2026-04-12T11:10:45Z</time></trkpt><trkpt lat="45.696915" lon="8.5433367"><ele>306.0</ele><time>2026-04-12T11:10:46Z</time></trkpt><trkpt lat="45.6968967" lon="8.543195"><ele>306.0</ele><time>2026-04-12T11:10:47Z</time></trkpt><trkpt lat="45.6968767" lon="8.5430517"><ele>306.0</ele><time>2026-04-12T11:10:48.001Z</time></trkpt><trkpt lat="45.6968583" lon="8.542915"><ele>305.6666666666667</ele><time>2026-04-12T11:10:49.001Z</time></trkpt><trkpt lat="45.6968417" lon="8.54279"><ele>305.3333333333333</ele><time>2026-04-12T11:10:50.001Z</time></trkpt><trkpt lat="45.6968267" lon="8.54268"><ele>305.0</ele><time>2026-04-12T11:10:51Z</time></trkpt><trkpt lat="45.69681" lon="8.54258"><ele>304.66666666666663</ele><time>2026-04-12T11:10:52Z</time></trkpt><trkpt lat="45.6968" lon="8.5424733"><ele>304.3333333333333</ele><time>2026-04-12T11:10:53.001Z</time></trkpt><trkpt lat="45.6967883" lon="8.5423633"><ele>304.0</ele><time>2026-04-12T11:10:54Z</time></trkpt><trkpt lat="45.6967767" lon="8.5422567"><ele>304.0</ele><time>2026-04-12T11:10:55Z</time></trkpt><trkpt lat="45.6967617" lon="8.5421433"><ele>304.0</ele><time>2026-04-12T11:10:56.001Z</time></trkpt><trkpt lat="45.69675" lon="8.5420233"><ele>304.0</ele><time>2026-04-12T11:10:57Z</time></trkpt><trkpt lat="45.6967383" lon="8.5418933"><ele>304.0</ele><time>2026-04-12T11:10:58Z</time></trkpt><trkpt lat="45.6967283" lon="8.541765"><ele>304.0</ele><time>2026-04-12T11:10:59Z</time></trkpt><trkpt lat="45.6967317" lon="8.5416367"><ele>304.0</ele><time>2026-04-12T11:11:00Z</time></trkpt><trkpt lat="45.6967317" lon="8.5415067"><ele>304.4</ele><time>2026-04-12T11:11:01Z</time></trkpt><trkpt lat="45.6967367" lon="8.5413717"><ele>304.79999999999995</ele><time>2026-04-12T11:11:02.001Z</time></trkpt><trkpt lat="45.696745" lon="8.5412467"><ele>305.20000000000005</ele><time>2026-04-12T11:11:03Z</time></trkpt><trkpt lat="45.6967583" lon="8.5411117"><ele>305.6</ele><time>2026-04-12T11:11:04Z</time></trkpt><trkpt lat="45.6967683" lon="8.5409833"><ele>306.0</ele><time>2026-04-12T11:11:05Z</time></trkpt><trkpt lat="45.6967883" lon="8.5408467"><ele>306.8</ele><time>2026-04-12T11:11:06Z</time></trkpt><trkpt lat="45.6967967" lon="8.54071"><ele>307.6</ele><time>2026-04-12T11:11:07Z</time></trkpt><trkpt lat="45.6968033" lon="8.5405717"><ele>308.4</ele><time>2026-04-12T11:11:08.001Z</time></trkpt><trkpt lat="45.696805" lon="8.5404267"><ele>309.2</ele><time>2026-04-12T11:11:09Z</time></trkpt><trkpt lat="45.6968117" lon="8.5403"><ele>310.0</ele><time>2026-04-12T11:11:10.001Z</time></trkpt><trkpt lat="45.6968667" lon="8.5401617"><ele>310.8</ele><time>2026-04-12T11:11:11Z</time></trkpt><trkpt lat="45.6968883" lon="8.5400067"><ele>311.6</ele><time>2026-04-12T11:11:13Z</time></trkpt><trkpt lat="45.6968967" lon="8.5399167"><ele>312.4</ele><time>2026-04-12T11:11:14Z</time></trkpt><trkpt lat="45.69689" lon="8.5397567"><ele>313.2</ele><time>2026-04-12T11:11:16.001Z</time></trkpt><trkpt lat="45.69682" lon="8.539695"><ele>314.0</ele><time>2026-04-12T11:11:25.001Z</time></trkpt><trkpt lat="45.6967883" lon="8.539835"><ele>314.0</ele><time>2026-04-12T11:11:27Z</time></trkpt><trkpt lat="45.6967883" lon="8.539935"><ele>314.0</ele><time>2026-04-12T11:11:28Z</time></trkpt><trkpt lat="45.6967967" lon="8.5400617"><ele>314.0</ele><time>2026-04-12T11:11:29Z</time></trkpt><trkpt lat="45.6967917" lon="8.54019"><ele>314.0</ele><time>2026-04-12T11:11:30Z</time></trkpt><trkpt lat="45.6968017" lon="8.5403217"><ele>314.0</ele><time>2026-04-12T11:11:31Z</time></trkpt><trkpt lat="45.6968017" lon="8.5404567"><ele>314.0</ele><time>2026-04-12T11:11:32.001Z</time></trkpt><trkpt lat="45.6967967" lon="8.5405967"><ele>313.2</ele><time>2026-04-12T11:11:33.001Z</time></trkpt><trkpt lat="45.6967917" lon="8.54074"><ele>312.4</ele><time>2026-04-12T11:11:34Z</time></trkpt><trkpt lat="45.696785" lon="8.5409017"><ele>311.6</ele><time>2026-04-12T11:11:35Z</time></trkpt><trkpt lat="45.6967467" lon="8.5410733"><ele>310.8</ele><time>2026-04-12T11:11:36Z</time></trkpt><trkpt lat="45.696755" lon="8.5411833"><ele>310.0</ele><time>2026-04-12T11:11:37Z</time></trkpt><trkpt lat="45.6967283" lon="8.5413367"><ele>309.2</ele><time>2026-04-12T11:11:38Z</time></trkpt><trkpt lat="45.6967183" lon="8.5414717"><ele>308.4</ele><time>2026-04-12T11:11:39Z</time></trkpt><trkpt lat="45.6967133" lon="8.54158"><ele>307.6</ele><time>2026-04-12T11:11:40.001Z</time></trkpt><trkpt lat="45.6966633" lon="8.541685"><ele>306.8</ele><time>2026-04-12T11:11:42.001Z</time></trkpt><trkpt lat="45.6966" lon="8.5415883"><ele>306.0</ele><time>2026-04-12T11:11:44.001Z</time></trkpt><trkpt lat="45.6965483" lon="8.5414317"><ele>306.0</ele><time>2026-04-12T11:11:46Z</time></trkpt><trkpt lat="45.69651" lon="8.5413467"><ele>306.0</ele><time>2026-04-12T11:11:47Z</time></trkpt><trkpt lat="45.6964633" lon="8.5412717"><ele>306.0</ele><time>2026-04-12T11:11:48Z</time></trkpt><trkpt lat="45.69641" lon="8.5412067"><ele>306.0</ele><time>2026-04-12T11:11:49Z</time></trkpt><trkpt lat="45.6963417" lon="8.54116"><ele>306.0</ele><time>2026-04-12T11:11:50.001Z</time></trkpt><trkpt lat="45.6962667" lon="8.5411267"><ele>306.0</ele><time>2026-04-12T11:11:51Z</time></trkpt><trkpt lat="45.6961833" lon="8.5411183"><ele>306.0</ele><time>2026-04-12T11:11:52Z</time></trkpt><trkpt lat="45.6960917" lon="8.5411083"><ele>307.40000000000003</ele><time>2026-04-12T11:11:53.001Z</time></trkpt><trkpt lat="45.696" lon="8.5410917"><ele>308.8</ele><time>2026-04-12T11:11:54.001Z</time></trkpt><trkpt lat="45.6959033" lon="8.5410817"><ele>310.20000000000005</ele><time>2026-04-12T11:11:55.001Z</time></trkpt><trkpt lat="45.6957883" lon="8.5410667"><ele>311.6</ele><time>2026-04-12T11:11:56Z</time></trkpt><trkpt lat="45.69566" lon="8.5410467"><ele>313.0</ele><time>2026-04-12T11:11:57Z</time></trkpt><trkpt lat="45.6955383" lon="8.5410283"><ele>313.0</ele><time>2026-04-12T11:11:58Z</time></trkpt><trkpt lat="45.6954117" lon="8.54102"><ele>313.0</ele><time>2026-04-12T11:11:59Z</time></trkpt><trkpt lat="45.6952767" lon="8.541005"><ele>313.0</ele><time>2026-04-12T11:12:00Z</time></trkpt><trkpt lat="45.6951517" lon="8.5409967"><ele>313.0</ele><time>2026-04-12T11:12:01Z</time></trkpt><trkpt lat="45.69504" lon="8.5409867"><ele>314.2</ele><time>2026-04-12T11:12:02.001Z</time></trkpt><trkpt lat="45.694935" lon="8.5409717"><ele>315.4</ele><time>2026-04-12T11:12:03Z</time></trkpt><trkpt lat="45.6948333" lon="8.5409467"><ele>316.59999999999997</ele><time>2026-04-12T11:12:04Z</time></trkpt><trkpt lat="45.6947367" lon="8.5409283"><ele>317.8</ele><time>2026-04-12T11:12:05.001Z</time></trkpt><trkpt lat="45.6946383" lon="8.5409317"><ele>319.0</ele><time>2026-04-12T11:12:06Z</time></trkpt><trkpt lat="45.6945283" lon="8.5409583"><ele>319.0</ele><time>2026-04-12T11:12:07Z</time></trkpt><trkpt lat="45.6944217" lon="8.5409883"><ele>319.0</ele><time>2026-04-12T11:12:08Z</time></trkpt><trkpt lat="45.6943283" lon="8.54102"><ele>319.0</ele><time>2026-04-12T11:12:09Z</time></trkpt><trkpt lat="45.6942433" lon="8.5410483"><ele>319.0</ele><time>2026-04-12T11:12:10Z</time></trkpt><trkpt lat="45.6941533" lon="8.5410633"><ele>319.0</ele><time>2026-04-12T11:12:11Z</time></trkpt><trkpt lat="45.6940517" lon="8.541075"><ele>319.75</ele><time>2026-04-12T11:12:12Z</time></trkpt><trkpt lat="45.6939433" lon="8.5410867"><ele>320.5</ele><time>2026-04-12T11:12:13Z</time></trkpt><trkpt lat="45.6938233" lon="8.5410983"><ele>321.25</ele><time>2026-04-12T11:12:14.001Z</time></trkpt><trkpt lat="45.6937033" lon="8.5411133"><ele>322.0</ele><time>2026-04-12T11:12:15.001Z</time></trkpt><trkpt lat="45.69358" lon="8.5411267"><ele>322.0</ele><time>2026-04-12T11:12:16.001Z</time></trkpt><trkpt lat="45.6934617" lon="8.5411433"><ele>322.0</ele><time>2026-04-12T11:12:17Z</time></trkpt><trkpt lat="45.693345" lon="8.5411583"><ele>322.0</ele><time>2026-04-12T11:12:18Z</time></trkpt><trkpt lat="45.69324" lon="8.5411867"><ele>322.0</ele><time>2026-04-12T11:12:19.001Z</time></trkpt><trkpt lat="45.6931433" lon="8.5412217"><ele>322.0</ele><time>2026-04-12T11:12:20Z</time></trkpt><trkpt lat="45.6930633" lon="8.5412583"><ele>321.8333333333333</ele><time>2026-04-12T11:12:21Z</time></trkpt><trkpt lat="45.6929933" lon="8.5412883"><ele>321.66666666666663</ele><time>2026-04-12T11:12:22Z</time></trkpt><trkpt lat="45.692925" lon="8.5413183"><ele>321.5</ele><time>2026-04-12T11:12:23Z</time></trkpt><trkpt lat="45.69286" lon="8.5413517"><ele>321.3333333333333</ele><time>2026-04-12T11:12:24Z</time></trkpt><trkpt lat="45.6928017" lon="8.541395"><ele>321.1666666666667</ele><time>2026-04-12T11:12:25Z</time></trkpt><trkpt lat="45.6927083" lon="8.5414633"><ele>321.0</ele><time>2026-04-12T11:12:27.001Z</time></trkpt><trkpt lat="45.6926433" lon="8.5414883"><ele>320.6666666666667</ele><time>2026-04-12T11:12:29Z</time></trkpt><trkpt lat="45.6925967" lon="8.5414133"><ele>320.3333333333333</ele><time>2026-04-12T11:12:31.001Z</time></trkpt><trkpt lat="45.6925667" lon="8.5412867"><ele>320.0</ele><time>2026-04-12T11:12:33Z</time></trkpt><trkpt lat="45.6925283" lon="8.5411133"><ele>319.66666666666663</ele><time>2026-04-12T11:12:35.001Z</time></trkpt><trkpt lat="45.6924933" lon="8.54102"><ele>319.3333333333333</ele><time>2026-04-12T11:12:36Z</time></trkpt><trkpt lat="45.692465" lon="8.54093"><ele>319.0</ele><time>2026-04-12T11:12:37Z</time></trkpt><trkpt lat="45.6924933" lon="8.5407983"><ele>319.0</ele><time>2026-04-12T11:12:38Z</time></trkpt><trkpt lat="45.6925" lon="8.5406767"><ele>319.0</ele><time>2026-04-12T11:12:39.001Z</time></trkpt><trkpt lat="45.6925033" lon="8.540555"><ele>319.0</ele><time>2026-04-12T11:12:40.001Z</time></trkpt><trkpt lat="45.692475" lon="8.5404633"><ele>319.0</ele><time>2026-04-12T11:12:41Z</time></trkpt><trkpt lat="45.692435" lon="8.5403783"><ele>319.0</ele><time>2026-04-12T11:12:42Z</time></trkpt><trkpt lat="45.6923867" lon="8.5403"><ele>319.0</ele><time>2026-04-12T11:12:43Z</time></trkpt><trkpt lat="45.6923417" lon="8.5402033"><ele>319.4</ele><time>2026-04-12T11:12:44Z</time></trkpt><trkpt lat="45.6923083" lon="8.5401033"><ele>319.79999999999995</ele><time>2026-04-12T11:12:45Z</time></trkpt><trkpt lat="45.692275" lon="8.53998"><ele>320.20000000000005</ele><time>2026-04-12T11:12:46.001Z</time></trkpt><trkpt lat="45.6922417" lon="8.5398583"><ele>320.6</ele><time>2026-04-12T11:12:47Z</time></trkpt><trkpt lat="45.6922033" lon="8.5397367"><ele>321.0</ele><time>2026-04-12T11:12:48Z</time></trkpt><trkpt lat="45.6921583" lon="8.539605"><ele>320.75</ele><time>2026-04-12T11:12:49.001Z</time></trkpt><trkpt lat="45.6921117" lon="8.5394617"><ele>320.5</ele><time>2026-04-12T11:12:50Z</time></trkpt><trkpt lat="45.6920683" lon="8.5393183"><ele>320.25</ele><time>2026-04-12T11:12:51.001Z</time></trkpt><trkpt lat="45.6920083" lon="8.5391533"><ele>320.0</ele><time>2026-04-12T11:12:52Z</time></trkpt><trkpt lat="45.6919533" lon="8.5389883"><ele>320.0</ele><time>2026-04-12T11:12:53Z</time></trkpt><trkpt lat="45.6919017" lon="8.53883"><ele>320.0</ele><time>2026-04-12T11:12:54Z</time></trkpt><trkpt lat="45.691845" lon="8.5386767"><ele>320.0</ele><time>2026-04-12T11:12:55Z</time></trkpt><trkpt lat="45.6917867" lon="8.5385217"><ele>320.0</ele><time>2026-04-12T11:12:56Z</time></trkpt><trkpt lat="45.6917267" lon="8.5383633"><ele>320.0</ele><time>2026-04-12T11:12:57Z</time></trkpt><trkpt lat="45.6916633" lon="8.538215"><ele>320.0</ele><time>2026-04-12T11:12:58.001Z</time></trkpt><trkpt lat="45.6916033" lon="8.538075"><ele>320.0</ele><time>2026-04-12T11:12:59Z</time></trkpt><trkpt lat="45.6915417" lon="8.5379283"><ele>320.0</ele><time>2026-04-12T11:13:00Z</time></trkpt><trkpt lat="45.6914733" lon="8.53777"><ele>320.4</ele><time>2026-04-12T11:13:01Z</time></trkpt><trkpt lat="45.6914083" lon="8.5376333"><ele>320.8</ele><time>2026-04-12T11:13:02.001Z</time></trkpt><trkpt lat="45.6913467" lon="8.5375067"><ele>321.20000000000005</ele><time>2026-04-12T11:13:03.001Z</time></trkpt><trkpt lat="45.69129" lon="8.5373917"><ele>321.6</ele><time>2026-04-12T11:13:04Z</time></trkpt><trkpt lat="45.6912367" lon="8.537305"><ele>322.0</ele><time>2026-04-12T11:13:05Z</time></trkpt><trkpt lat="45.6911867" lon="8.5372167"><ele>322.0</ele><time>2026-04-12T11:13:06Z</time></trkpt><trkpt lat="45.6911317" lon="8.5371167"><ele>322.0</ele><time>2026-04-12T11:13:07Z</time></trkpt><trkpt lat="45.6910667" lon="8.53701"><ele>322.0</ele><time>2026-04-12T11:13:08Z</time></trkpt><trkpt lat="45.691015" lon="8.5368933"><ele>322.0</ele><time>2026-04-12T11:13:09.001Z</time></trkpt><trkpt lat="45.6909717" lon="8.5367583"><ele>322.0</ele><time>2026-04-12T11:13:10Z</time></trkpt><trkpt lat="45.6909283" lon="8.53662"><ele>322.8</ele><time>2026-04-12T11:13:11Z</time></trkpt><trkpt lat="45.690895" lon="8.5364867"><ele>323.6</ele><time>2026-04-12T11:13:12Z</time></trkpt><trkpt lat="45.6908767" lon="8.5363433"><ele>324.40000000000003</ele><time>2026-04-12T11:13:13Z</time></trkpt><trkpt lat="45.69088" lon="8.5361967"><ele>325.20000000000005</ele><time>2026-04-12T11:13:14.001Z</time></trkpt><trkpt lat="45.6909" lon="8.53605"><ele>326.0</ele><time>2026-04-12T11:13:15.001Z</time></trkpt><trkpt lat="45.690935" lon="8.5358983"><ele>327.0</ele><time>2026-04-12T11:13:16Z</time></trkpt><trkpt lat="45.6909733" lon="8.53575"><ele>328.0</ele><time>2026-04-12T11:13:17.001Z</time></trkpt><trkpt lat="45.69102" lon="8.5355967"><ele>329.0</ele><time>2026-04-12T11:13:18Z</time></trkpt><trkpt lat="45.6910733" lon="8.5354483"><ele>330.0</ele><time>2026-04-12T11:13:19Z</time></trkpt><trkpt lat="45.69113" lon="8.53531"><ele>330.1666666666667</ele><time>2026-04-12T11:13:20.001Z</time></trkpt><trkpt lat="45.691185" lon="8.5351867"><ele>330.3333333333333</ele><time>2026-04-12T11:13:21.001Z</time></trkpt><trkpt lat="45.6912283" lon="8.5350717"><ele>330.5</ele><time>2026-04-12T11:13:22Z</time></trkpt><trkpt lat="45.6912617" lon="8.53498"><ele>330.66666666666663</ele><time>2026-04-12T11:13:23Z</time></trkpt><trkpt lat="45.6912967" lon="8.53488"><ele>330.8333333333333</ele><time>2026-04-12T11:13:25Z</time></trkpt><trkpt lat="45.691275" lon="8.5347367"><ele>331.0</ele><time>2026-04-12T11:13:27.001Z</time></trkpt><trkpt lat="45.6912333" lon="8.5346467"><ele>332.75</ele><time>2026-04-12T11:13:28Z</time></trkpt><trkpt lat="45.69119" lon="8.53454"><ele>334.5</ele><time>2026-04-12T11:13:29.001Z</time></trkpt><trkpt lat="45.6911483" lon="8.5344017"><ele>336.25</ele><time>2026-04-12T11:13:30Z</time></trkpt><trkpt lat="45.6911017" lon="8.5342333"><ele>338.0</ele><time>2026-04-12T11:13:31.001Z</time></trkpt><trkpt lat="45.6910467" lon="8.53404"><ele>338.5</ele><time>2026-04-12T11:13:32Z</time></trkpt><trkpt lat="45.6909967" lon="8.5338467"><ele>339.0</ele><time>2026-04-12T11:13:33.001Z</time></trkpt><trkpt lat="45.69095" lon="8.533675"><ele>339.5</ele><time>2026-04-12T11:13:34Z</time></trkpt><trkpt lat="45.6909" lon="8.5335483"><ele>340.0</ele><time>2026-04-12T11:13:35Z</time></trkpt><trkpt lat="45.6908517" lon="8.53346"><ele>340.8</ele><time>2026-04-12T11:13:36Z</time></trkpt><trkpt lat="45.6908" lon="8.53339"><ele>341.6</ele><time>2026-04-12T11:13:37.001Z</time></trkpt><trkpt lat="45.6907367" lon="8.5333083"><ele>342.4</ele><time>2026-04-12T11:13:39.001Z</time></trkpt><trkpt lat="45.6906617" lon="8.5332"><ele>343.2</ele><time>2026-04-12T11:14:09Z</time></trkpt><trkpt lat="45.690605" lon="8.533055"><ele>344.0</ele><time>2026-04-12T11:14:11Z</time></trkpt><trkpt lat="45.69056" lon="8.5329117"><ele>344.83333333333337</ele><time>2026-04-12T11:14:13Z</time></trkpt><trkpt lat="45.690585" lon="8.5327783"><ele>345.6666666666667</ele><time>2026-04-12T11:14:15Z</time></trkpt><trkpt lat="45.6906633" lon="8.5326383"><ele>346.5</ele><time>2026-04-12T11:14:17Z</time></trkpt><trkpt lat="45.6907117" lon="8.5325717"><ele>347.3333333333333</ele><time>2026-04-12T11:14:18Z</time></trkpt><trkpt lat="45.6907583" lon="8.5324967"><ele>348.16666666666663</ele><time>2026-04-12T11:14:19.001Z</time></trkpt><trkpt lat="45.6908083" lon="8.532425"><ele>349.0</ele><time>2026-04-12T11:14:20Z</time></trkpt><trkpt lat="45.6908583" lon="8.532345"><ele>349.0</ele><time>2026-04-12T11:14:21Z</time></trkpt><trkpt lat="45.6909067" lon="8.5322733"><ele>349.0</ele><time>2026-04-12T11:14:22Z</time></trkpt><trkpt lat="45.6909533" lon="8.532205"><ele>349.0</ele><time>2026-04-12T11:14:23Z</time></trkpt><trkpt lat="45.6910033" lon="8.5321383"><ele>349.0</ele><time>2026-04-12T11:14:24Z</time></trkpt><trkpt lat="45.6910617" lon="8.5319933"><ele>349.0</ele><time>2026-04-12T11:14:26.001Z</time></trkpt><trkpt lat="45.691095" lon="8.5318167"><ele>349.0</ele><time>2026-04-12T11:14:28.001Z</time></trkpt><trkpt lat="45.69109" lon="8.5317233"><ele>349.2857142857143</ele><time>2026-04-12T11:14:29Z</time></trkpt><trkpt lat="45.6910683" lon="8.531635"><ele>349.57142857142856</ele><time>2026-04-12T11:14:30.001Z</time></trkpt><trkpt lat="45.6910433" lon="8.53155"><ele>349.8571428571429</ele><time>2026-04-12T11:14:31.001Z</time></trkpt><trkpt lat="45.691015" lon="8.5314667"><ele>350.1428571428571</ele><time>2026-04-12T11:14:32Z</time></trkpt><trkpt lat="45.69099" lon="8.531375"><ele>350.42857142857144</ele><time>2026-04-12T11:14:33.001Z</time></trkpt><trkpt lat="45.6909683" lon="8.5312833"><ele>350.7142857142857</ele><time>2026-04-12T11:14:34Z</time></trkpt><trkpt lat="45.6909417" lon="8.5311867"><ele>351.0</ele><time>2026-04-12T11:14:35Z</time></trkpt><trkpt lat="45.69091" lon="8.53108"><ele>351.0</ele><time>2026-04-12T11:14:36.001Z</time></trkpt><trkpt lat="45.6908517" lon="8.5309883"><ele>351.0</ele><time>2026-04-12T11:14:37.001Z</time></trkpt><trkpt lat="45.6907817" lon="8.530915"><ele>351.0</ele><time>2026-04-12T11:14:38.001Z</time></trkpt><trkpt lat="45.6907" lon="8.530855"><ele>351.0</ele><time>2026-04-12T11:14:39Z</time></trkpt><trkpt lat="45.6906217" lon="8.5307817"><ele>351.0</ele><time>2026-04-12T11:14:40Z</time></trkpt><trkpt lat="45.69054" lon="8.5307067"><ele>351.0</ele><time>2026-04-12T11:14:41Z</time></trkpt><trkpt lat="45.6904567" lon="8.53063"><ele>351.0</ele><time>2026-04-12T11:14:42Z</time></trkpt><trkpt lat="45.6903667" lon="8.5305533"><ele>351.0</ele><time>2026-04-12T11:14:43Z</time></trkpt><trkpt lat="45.6902867" lon="8.5304783"><ele>351.0</ele><time>2026-04-12T11:14:44.001Z</time></trkpt><trkpt lat="45.6902017" lon="8.530405"><ele>351.0</ele><time>2026-04-12T11:14:45Z</time></trkpt><trkpt lat="45.6901217" lon="8.5303317"><ele>350.20000000000005</ele><time>2026-04-12T11:14:46Z</time></trkpt><trkpt lat="45.690045" lon="8.530255"><ele>349.40000000000003</ele><time>2026-04-12T11:14:47Z</time></trkpt><trkpt lat="45.6899633" lon="8.5301833"><ele>348.6</ele><time>2026-04-12T11:14:48Z</time></trkpt><trkpt lat="45.6898883" lon="8.530115"><ele>347.8</ele><time>2026-04-12T11:14:49Z</time></trkpt><trkpt lat="45.689815" lon="8.5300483"><ele>347.0</ele><time>2026-04-12T11:14:50Z</time></trkpt><trkpt lat="45.68974" lon="8.52998"><ele>347.0</ele><time>2026-04-12T11:14:51Z</time></trkpt><trkpt lat="45.689675" lon="8.5299133"><ele>347.0</ele><time>2026-04-12T11:14:52Z</time></trkpt><trkpt lat="45.6896133" lon="8.5298467"><ele>347.0</ele><time>2026-04-12T11:14:53Z</time></trkpt><trkpt lat="45.6895483" lon="8.529775"><ele>347.0</ele><time>2026-04-12T11:14:54Z</time></trkpt><trkpt lat="45.6894833" lon="8.5297"><ele>347.0</ele><time>2026-04-12T11:14:55Z</time></trkpt><trkpt lat="45.6894317" lon="8.5296117"><ele>347.0</ele><time>2026-04-12T11:14:56.001Z</time></trkpt><trkpt lat="45.6893917" lon="8.5295117"><ele>347.40000000000003</ele><time>2026-04-12T11:14:57Z</time></trkpt><trkpt lat="45.6893483" lon="8.5294067"><ele>347.8</ele><time>2026-04-12T11:14:58Z</time></trkpt><trkpt lat="45.6893033" lon="8.529285"><ele>348.2</ele><time>2026-04-12T11:14:59.001Z</time></trkpt><trkpt lat="45.6892567" lon="8.52919"><ele>348.6</ele><time>2026-04-12T11:15:00Z</time></trkpt><trkpt lat="45.6891933" lon="8.5290967"><ele>349.0</ele><time>2026-04-12T11:15:01Z</time></trkpt><trkpt lat="45.6891133" lon="8.5290183"><ele>349.0</ele><time>2026-04-12T11:15:02.001Z</time></trkpt><trkpt lat="45.689025" lon="8.52896"><ele>349.0</ele><time>2026-04-12T11:15:03Z</time></trkpt><trkpt lat="45.6889383" lon="8.5289033"><ele>349.0</ele><time>2026-04-12T11:15:04.001Z</time></trkpt><trkpt lat="45.6888483" lon="8.5288483"><ele>349.0</ele><time>2026-04-12T11:15:05Z</time></trkpt><trkpt lat="45.688755" lon="8.5287917"><ele>349.0</ele><time>2026-04-12T11:15:06.001Z</time></trkpt><trkpt lat="45.6886583" lon="8.5287367"><ele>348.75</ele><time>2026-04-12T11:15:07Z</time></trkpt><trkpt lat="45.6885567" lon="8.5286783"><ele>348.5</ele><time>2026-04-12T11:15:08Z</time></trkpt><trkpt lat="45.6884483" lon="8.5286017"><ele>348.25</ele><time>2026-04-12T11:15:09.001Z</time></trkpt><trkpt lat="45.6883467" lon="8.52852"><ele>348.0</ele><time>2026-04-12T11:15:10Z</time></trkpt><trkpt lat="45.6882417" lon="8.528425"><ele>348.0</ele><time>2026-04-12T11:15:11Z</time></trkpt><trkpt lat="45.6881367" lon="8.528355"><ele>348.0</ele><time>2026-04-12T11:15:12.001Z</time></trkpt><trkpt lat="45.6880383" lon="8.5282867"><ele>348.0</ele><time>2026-04-12T11:15:13Z</time></trkpt><trkpt lat="45.6879467" lon="8.5282217"><ele>348.0</ele><time>2026-04-12T11:15:14Z</time></trkpt><trkpt lat="45.68785" lon="8.528155"><ele>348.0</ele><time>2026-04-12T11:15:15Z</time></trkpt><trkpt lat="45.6877417" lon="8.5280883"><ele>347.79999999999995</ele><time>2026-04-12T11:15:16Z</time></trkpt><trkpt lat="45.687645" lon="8.528005"><ele>347.6</ele><time>2026-04-12T11:15:17.001Z</time></trkpt><trkpt lat="45.6875467" lon="8.5279317"><ele>347.4</ele><time>2026-04-12T11:15:18Z</time></trkpt><trkpt lat="45.6874567" lon="8.527875"><ele>347.20000000000005</ele><time>2026-04-12T11:15:19Z</time></trkpt><trkpt lat="45.6873733" lon="8.5278217"><ele>347.0</ele><time>2026-04-12T11:15:20Z</time></trkpt><trkpt lat="45.68731" lon="8.5277767"><ele>347.0</ele><time>2026-04-12T11:15:21Z</time></trkpt><trkpt lat="45.68725" lon="8.5276667"><ele>347.0</ele><time>2026-04-12T11:15:23Z</time></trkpt><trkpt lat="45.6873133" lon="8.5275683"><ele>347.0</ele><time>2026-04-12T11:15:25Z</time></trkpt><trkpt lat="45.6873767" lon="8.527525"><ele>347.0</ele><time>2026-04-12T11:15:26Z</time></trkpt><trkpt lat="45.687475" lon="8.527485"><ele>347.0</ele><time>2026-04-12T11:15:27.001Z</time></trkpt><trkpt lat="45.687585" lon="8.52744"><ele>347.0</ele><time>2026-04-12T11:15:28.001Z</time></trkpt><trkpt lat="45.6877017" lon="8.5274"><ele>347.0</ele><time>2026-04-12T11:15:29Z</time></trkpt><trkpt lat="45.6878183" lon="8.5273517"><ele>347.0</ele><time>2026-04-12T11:15:30Z</time></trkpt><trkpt lat="45.6879433" lon="8.527295"><ele>347.0</ele><time>2026-04-12T11:15:31Z</time></trkpt><trkpt lat="45.6880783" lon="8.5272417"><ele>347.0</ele><time>2026-04-12T11:15:32Z</time></trkpt><trkpt lat="45.6882067" lon="8.5271883"><ele>347.0</ele><time>2026-04-12T11:15:33Z</time></trkpt><trkpt lat="45.6883467" lon="8.527125"><ele>347.0</ele><time>2026-04-12T11:15:34Z</time></trkpt><trkpt lat="45.6884833" lon="8.5270633"><ele>347.0</ele><time>2026-04-12T11:15:35Z</time></trkpt><trkpt lat="45.6886283" lon="8.527005"><ele>347.0</ele><time>2026-04-12T11:15:36.001Z</time></trkpt><trkpt lat="45.6887683" lon="8.5269467"><ele>347.0</ele><time>2026-04-12T11:15:37.001Z</time></trkpt><trkpt lat="45.6889017" lon="8.5268933"><ele>347.0</ele><time>2026-04-12T11:15:38.001Z</time></trkpt><trkpt lat="45.6890367" lon="8.5268417"><ele>347.0</ele><time>2026-04-12T11:15:39Z</time></trkpt><trkpt lat="45.6891683" lon="8.5267917"><ele>347.0</ele><time>2026-04-12T11:15:40Z</time></trkpt><trkpt lat="45.6893017" lon="8.52674"><ele>347.0</ele><time>2026-04-12T11:15:41Z</time></trkpt><trkpt lat="45.68943" lon="8.5266867"><ele>347.0</ele><time>2026-04-12T11:15:42.001Z</time></trkpt><trkpt lat="45.6895583" lon="8.5266367"><ele>347.0</ele><time>2026-04-12T11:15:43Z</time></trkpt><trkpt lat="45.6896867" lon="8.5266017"><ele>347.75</ele><time>2026-04-12T11:15:44Z</time></trkpt><trkpt lat="45.68981" lon="8.5265667"><ele>348.5</ele><time>2026-04-12T11:15:45.001Z</time></trkpt><trkpt lat="45.6899317" lon="8.526535"><ele>349.25</ele><time>2026-04-12T11:15:46Z</time></trkpt><trkpt lat="45.6900433" lon="8.52652"><ele>350.0</ele><time>2026-04-12T11:15:47.001Z</time></trkpt><trkpt lat="45.6901333" lon="8.5265017"><ele>350.0</ele><time>2026-04-12T11:15:48Z</time></trkpt><trkpt lat="45.6902133" lon="8.5264833"><ele>350.0</ele><time>2026-04-12T11:15:49Z</time></trkpt><trkpt lat="45.6903083" lon="8.52644"><ele>350.0</ele><time>2026-04-12T11:15:51Z</time></trkpt><trkpt lat="45.69035" lon="8.5263467"><ele>350.0</ele><time>2026-04-12T11:15:53Z</time></trkpt><trkpt lat="45.6903433" lon="8.52616"><ele>350.0</ele><time>2026-04-12T11:15:55Z</time></trkpt><trkpt lat="45.690345" lon="8.5260467"><ele>350.5</ele><time>2026-04-12T11:15:56Z</time></trkpt><trkpt lat="45.6903467" lon="8.5259283"><ele>351.0</ele><time>2026-04-12T11:15:57Z</time></trkpt><trkpt lat="45.6903483" lon="8.5258167"><ele>351.5</ele><time>2026-04-12T11:15:58Z</time></trkpt><trkpt lat="45.6903483" lon="8.52571"><ele>352.0</ele><time>2026-04-12T11:15:59.001Z</time></trkpt><trkpt lat="45.6903517" lon="8.5256083"><ele>352.5</ele><time>2026-04-12T11:16:00Z</time></trkpt><trkpt lat="45.6903483" lon="8.5255017"><ele>353.0</ele><time>2026-04-12T11:16:01.001Z</time></trkpt><trkpt lat="45.6903467" lon="8.5253983"><ele>352.6666666666667</ele><time>2026-04-12T11:16:02Z</time></trkpt><trkpt lat="45.6903517" lon="8.5252917"><ele>352.33333333333337</ele><time>2026-04-12T11:16:03.001Z</time></trkpt><trkpt lat="45.6903567" lon="8.525185"><ele>352.0</ele><time>2026-04-12T11:16:04Z</time></trkpt><trkpt lat="45.6903667" lon="8.5250833"><ele>351.6666666666667</ele><time>2026-04-12T11:16:05Z</time></trkpt><trkpt lat="45.69038" lon="8.52492"><ele>351.3333333333333</ele><time>2026-04-12T11:16:07.001Z</time></trkpt><trkpt lat="45.6903933" lon="8.5248283"><ele>351.0</ele><time>2026-04-12T11:16:09Z</time></trkpt><trkpt lat="45.6904033" lon="8.524725"><ele>351.0</ele><time>2026-04-12T11:16:20Z</time></trkpt><trkpt lat="45.6904267" lon="8.5245533"><ele>351.0</ele><time>2026-04-12T11:16:22Z</time></trkpt><trkpt lat="45.6904283" lon="8.5244567"><ele>351.0</ele><time>2026-04-12T11:16:22.998Z</time></trkpt><trkpt lat="45.6904267" lon="8.5243633"><ele>351.0</ele><time>2026-04-12T11:16:24Z</time></trkpt><trkpt lat="45.6904167" lon="8.5241783"><ele>351.0</ele><time>2026-04-12T11:16:26.001Z</time></trkpt><trkpt lat="45.6904117" lon="8.5240783"><ele>351.00000000000006</ele><time>2026-04-12T11:16:27Z</time></trkpt><trkpt lat="45.6904083" lon="8.5239783"><ele>351.0</ele><time>2026-04-12T11:16:28.001Z</time></trkpt><trkpt lat="45.690405" lon="8.5238733"><ele>351.0</ele><time>2026-04-12T11:16:29Z</time></trkpt><trkpt lat="45.6904" lon="8.52377"><ele>351.0</ele><time>2026-04-12T11:16:30Z</time></trkpt><trkpt lat="45.6903933" lon="8.52366"><ele>351.0</ele><time>2026-04-12T11:16:31.001Z</time></trkpt><trkpt lat="45.6903933" lon="8.5235633"><ele>351.00000000000006</ele><time>2026-04-12T11:16:32Z</time></trkpt><trkpt lat="45.69039" lon="8.5234483"><ele>351.0</ele><time>2026-04-12T11:16:33Z</time></trkpt><trkpt lat="45.690385" lon="8.5233333"><ele>351.28571428571433</ele><time>2026-04-12T11:16:34.001Z</time></trkpt><trkpt lat="45.6903817" lon="8.52323"><ele>351.57142857142856</ele><time>2026-04-12T11:16:35.001Z</time></trkpt><trkpt lat="45.69037" lon="8.52313"><ele>351.8571428571429</ele><time>2026-04-12T11:16:36Z</time></trkpt><trkpt lat="45.6903633" lon="8.5230283"><ele>352.14285714285717</ele><time>2026-04-12T11:16:37Z</time></trkpt><trkpt lat="45.6903583" lon="8.522925"><ele>352.42857142857144</ele><time>2026-04-12T11:16:38.001Z</time></trkpt><trkpt lat="45.6903467" lon="8.52282"><ele>352.7142857142857</ele><time>2026-04-12T11:16:39.001Z</time></trkpt><trkpt lat="45.6903367" lon="8.5227033"><ele>353.0</ele><time>2026-04-12T11:16:40.001Z</time></trkpt><trkpt lat="45.69033" lon="8.5225917"><ele>353.1428571428571</ele><time>2026-04-12T11:16:41Z</time></trkpt><trkpt lat="45.6903333" lon="8.52249"><ele>353.28571428571433</ele><time>2026-04-12T11:16:42Z</time></trkpt><trkpt lat="45.6903583" lon="8.5223967"><ele>353.42857142857144</ele><time>2026-04-12T11:16:43Z</time></trkpt><trkpt lat="45.6904033" lon="8.5223183"><ele>353.57142857142856</ele><time>2026-04-12T11:16:44.001Z</time></trkpt><trkpt lat="45.69047" lon="8.5222583"><ele>353.71428571428567</ele><time>2026-04-12T11:16:45Z</time></trkpt><trkpt lat="45.6905383" lon="8.522225"><ele>353.8571428571429</ele><time>2026-04-12T11:16:46Z</time></trkpt><trkpt lat="45.690605" lon="8.5222083"><ele>354.0</ele><time>2026-04-12T11:16:47Z</time></trkpt><trkpt lat="45.6906767" lon="8.5222017"><ele>354.0</ele><time>2026-04-12T11:16:48.001Z</time></trkpt><trkpt lat="45.69074" lon="8.5221917"><ele>354.0</ele><time>2026-04-12T11:16:49Z</time></trkpt><trkpt lat="45.6908433" lon="8.5221733"><ele>354.0</ele><time>2026-04-12T11:16:51.001Z</time></trkpt><trkpt lat="45.6909133" lon="8.5221467"><ele>354.0</ele><time>2026-04-12T11:16:53Z</time></trkpt><trkpt lat="45.6909833" lon="8.5222083"><ele>354.0</ele><time>2026-04-12T11:16:57Z</time></trkpt><trkpt lat="45.6910367" lon="8.5223267"><ele>354.0</ele><time>2026-04-12T11:16:59Z</time></trkpt><trkpt lat="45.6910983" lon="8.5224833"><ele>354.0</ele><time>2026-04-12T11:17:01Z</time></trkpt><trkpt lat="45.6911417" lon="8.5225617"><ele>354.0</ele><time>2026-04-12T11:17:02Z</time></trkpt><trkpt lat="45.6911933" lon="8.5226317"><ele>354.0</ele><time>2026-04-12T11:17:03.001Z</time></trkpt><trkpt lat="45.6912517" lon="8.5227067"><ele>354.0</ele><time>2026-04-12T11:17:04Z</time></trkpt><trkpt lat="45.6913083" lon="8.5227883"><ele>354.0</ele><time>2026-04-12T11:17:05.001Z</time></trkpt><trkpt lat="45.6913567" lon="8.5228883"><ele>354.0</ele><time>2026-04-12T11:17:06.001Z</time></trkpt><trkpt lat="45.6914" lon="8.5229817"><ele>354.1666666666667</ele><time>2026-04-12T11:17:07Z</time></trkpt><trkpt lat="45.69143" lon="8.5230667"><ele>354.3333333333333</ele><time>2026-04-12T11:17:08.001Z</time></trkpt><trkpt lat="45.6914733" lon="8.5232117"><ele>354.5</ele><time>2026-04-12T11:17:10.001Z</time></trkpt><trkpt lat="45.6915" lon="8.5233017"><ele>354.66666666666663</ele><time>2026-04-12T11:17:11Z</time></trkpt><trkpt lat="45.6915267" lon="8.5233917"><ele>354.8333333333333</ele><time>2026-04-12T11:17:12Z</time></trkpt><trkpt lat="45.69158" lon="8.5235117"><ele>355.0</ele><time>2026-04-12T11:17:14.001Z</time></trkpt><trkpt lat="45.6916417" lon="8.52355"><ele>355.0</ele><time>2026-04-12T11:17:16.001Z</time></trkpt><trkpt lat="45.6917433" lon="8.5234767"><ele>355.0</ele><time>2026-04-12T11:17:18Z</time></trkpt><trkpt lat="45.6918033" lon="8.523425"><ele>355.0</ele><time>2026-04-12T11:17:19Z</time></trkpt><trkpt lat="45.6918833" lon="8.5233817"><ele>355.0</ele><time>2026-04-12T11:17:19.999Z</time></trkpt><trkpt lat="45.691965" lon="8.5233383"><ele>355.0</ele><time>2026-04-12T11:17:21Z</time></trkpt><trkpt lat="45.6920467" lon="8.523285"><ele>355.0</ele><time>2026-04-12T11:17:21.999Z</time></trkpt><trkpt lat="45.6921033" lon="8.5232117"><ele>355.0</ele><time>2026-04-12T11:17:22.999Z</time></trkpt><trkpt lat="45.69216" lon="8.5231233"><ele>355.0</ele><time>2026-04-12T11:17:24Z</time></trkpt><trkpt lat="45.6922117" lon="8.5230183"><ele>355.0</ele><time>2026-04-12T11:17:24.999Z</time></trkpt><trkpt lat="45.69226" lon="8.5229317"><ele>355.0</ele><time>2026-04-12T11:17:25.999Z</time></trkpt><trkpt lat="45.692315" lon="8.5228567"><ele>355.0</ele><time>2026-04-12T11:17:27Z</time></trkpt><trkpt lat="45.69238" lon="8.52279"><ele>355.0</ele><time>2026-04-12T11:17:28Z</time></trkpt><trkpt lat="45.6924433" lon="8.52272"><ele>355.0</ele><time>2026-04-12T11:17:28.999Z</time></trkpt><trkpt lat="45.6925217" lon="8.5226517"><ele>355.0</ele><time>2026-04-12T11:17:29.999Z</time></trkpt><trkpt lat="45.6926017" lon="8.522595"><ele>355.0</ele><time>2026-04-12T11:17:30.999Z</time></trkpt><trkpt lat="45.69268" lon="8.522545"><ele>355.0</ele><time>2026-04-12T11:17:31.999Z</time></trkpt><trkpt lat="45.69276" lon="8.5225133"><ele>355.0</ele><time>2026-04-12T11:17:33Z</time></trkpt><trkpt lat="45.692835" lon="8.5224767"><ele>355.0</ele><time>2026-04-12T11:17:33.999Z</time></trkpt><trkpt lat="45.692895" lon="8.5224383"><ele>354.66666666666663</ele><time>2026-04-12T11:17:34.999Z</time></trkpt><trkpt lat="45.692995" lon="8.5223933"><ele>354.3333333333333</ele><time>2026-04-12T11:17:37Z</time></trkpt><trkpt lat="45.6930683" lon="8.5223917"><ele>354.0</ele><time>2026-04-12T11:17:38.999Z</time></trkpt><trkpt lat="45.6931433" lon="8.5223267"><ele>353.6666666666667</ele><time>2026-04-12T11:17:42.999Z</time></trkpt><trkpt lat="45.693155" lon="8.5222117"><ele>353.33333333333337</ele><time>2026-04-12T11:17:44.999Z</time></trkpt><trkpt lat="45.6931283" lon="8.5221017"><ele>353.0</ele><time>2026-04-12T11:17:46.999Z</time></trkpt><trkpt lat="45.6930783" lon="8.5219883"><ele>352.83333333333337</ele><time>2026-04-12T11:17:49Z</time></trkpt><trkpt lat="45.6930083" lon="8.52186"><ele>352.6666666666667</ele><time>2026-04-12T11:17:50.999Z</time></trkpt><trkpt lat="45.6929683" lon="8.521775"><ele>352.5</ele><time>2026-04-12T11:17:51.999Z</time></trkpt><trkpt lat="45.6929217" lon="8.5216833"><ele>352.3333333333333</ele><time>2026-04-12T11:17:52.999Z</time></trkpt><trkpt lat="45.6928833" lon="8.52159"><ele>352.16666666666663</ele><time>2026-04-12T11:17:53.999Z</time></trkpt><trkpt lat="45.6928633" lon="8.521485"><ele>352.0</ele><time>2026-04-12T11:17:54.999Z</time></trkpt><trkpt lat="45.69287" lon="8.5213833"><ele>352.0</ele><time>2026-04-12T11:17:55.999Z</time></trkpt><trkpt lat="45.6928983" lon="8.5212883"><ele>352.0</ele><time>2026-04-12T11:17:56.999Z</time></trkpt><trkpt lat="45.6929467" lon="8.521195"><ele>352.0</ele><time>2026-04-12T11:17:58Z</time></trkpt><trkpt lat="45.69301" lon="8.52111"><ele>352.0</ele><time>2026-04-12T11:17:59Z</time></trkpt><trkpt lat="45.69308" lon="8.5210233"><ele>352.0</ele><time>2026-04-12T11:17:59.999Z</time></trkpt><trkpt lat="45.6931467" lon="8.520935"><ele>352.0</ele><time>2026-04-12T11:18:01Z</time></trkpt><trkpt lat="45.6932067" lon="8.520845"><ele>351.8333333333333</ele><time>2026-04-12T11:18:02Z</time></trkpt><trkpt lat="45.6932567" lon="8.5207433"><ele>351.66666666666663</ele><time>2026-04-12T11:18:02.999Z</time></trkpt><trkpt lat="45.6932933" lon="8.520625"><ele>351.5</ele><time>2026-04-12T11:18:03.999Z</time></trkpt><trkpt lat="45.6933" lon="8.5205133"><ele>351.3333333333333</ele><time>2026-04-12T11:18:04.999Z</time></trkpt><trkpt lat="45.6932883" lon="8.5203983"><ele>351.1666666666667</ele><time>2026-04-12T11:18:06Z</time></trkpt><trkpt lat="45.693265" lon="8.5202867"><ele>351.0</ele><time>2026-04-12T11:18:07Z</time></trkpt><trkpt lat="45.693245" lon="8.520175"><ele>350.0</ele><time>2026-04-12T11:18:07.999Z</time></trkpt><trkpt lat="45.6932183" lon="8.5200533"><ele>349.0</ele><time>2026-04-12T11:18:09Z</time></trkpt><trkpt lat="45.69319" lon="8.51993"><ele>348.0</ele><time>2026-04-12T11:18:10Z</time></trkpt><trkpt lat="45.6931683" lon="8.51981"><ele>347.0</ele><time>2026-04-12T11:18:10.999Z</time></trkpt><trkpt lat="45.69315" lon="8.519695"><ele>346.0</ele><time>2026-04-12T11:18:11.999Z</time></trkpt><trkpt lat="45.693135" lon="8.5195833"><ele>345.0</ele><time>2026-04-12T11:18:13Z</time></trkpt><trkpt lat="45.6931233" lon="8.519455"><ele>343.6</ele><time>2026-04-12T11:18:13.999Z</time></trkpt><trkpt lat="45.693135" lon="8.5193117"><ele>342.2</ele><time>2026-04-12T11:18:15Z</time></trkpt><trkpt lat="45.6931733" lon="8.5191883"><ele>340.79999999999995</ele><time>2026-04-12T11:18:15.999Z</time></trkpt><trkpt lat="45.6932267" lon="8.519085"><ele>339.4</ele><time>2026-04-12T11:18:16.999Z</time></trkpt><trkpt lat="45.6932767" lon="8.519005"><ele>338.0</ele><time>2026-04-12T11:18:17.999Z</time></trkpt><trkpt lat="45.6933217" lon="8.5188467"><ele>338.0</ele><time>2026-04-12T11:18:19.999Z</time></trkpt><trkpt lat="45.6933217" lon="8.51874"><ele>338.0</ele><time>2026-04-12T11:18:20.999Z</time></trkpt><trkpt lat="45.6933167" lon="8.5186167"><ele>338.0</ele><time>2026-04-12T11:18:22Z</time></trkpt><trkpt lat="45.6933233" lon="8.5184967"><ele>338.0</ele><time>2026-04-12T11:18:22.999Z</time></trkpt><trkpt lat="45.693345" lon="8.5184017"><ele>338.0</ele><time>2026-04-12T11:18:23.999Z</time></trkpt><trkpt lat="45.693395" lon="8.5182967"><ele>338.0</ele><time>2026-04-12T11:18:24.999Z</time></trkpt><trkpt lat="45.693465" lon="8.5181917"><ele>337.0</ele><time>2026-04-12T11:18:25.999Z</time></trkpt><trkpt lat="45.6935533" lon="8.5180817"><ele>336.0</ele><time>2026-04-12T11:18:26.999Z</time></trkpt><trkpt lat="45.69363" lon="8.51796"><ele>335.0</ele><time>2026-04-12T11:18:28Z</time></trkpt><trkpt lat="45.6937" lon="8.51786"><ele>334.0</ele><time>2026-04-12T11:18:28.999Z</time></trkpt><trkpt lat="45.6937567" lon="8.5177783"><ele>333.0</ele><time>2026-04-12T11:18:29.999Z</time></trkpt><trkpt lat="45.6938083" lon="8.51771"><ele>335.79999999999995</ele><time>2026-04-12T11:18:30.999Z</time></trkpt><trkpt lat="45.6938767" lon="8.51758"><ele>338.6</ele><time>2026-04-12T11:18:32.999Z</time></trkpt><trkpt lat="45.69394" lon="8.5174117"><ele>341.4</ele><time>2026-04-12T11:18:34.999Z</time></trkpt><trkpt lat="45.69399" lon="8.517315"><ele>344.20000000000005</ele><time>2026-04-12T11:18:35.999Z</time></trkpt><trkpt lat="45.6940367" lon="8.5172167"><ele>347.0</ele><time>2026-04-12T11:18:37Z</time></trkpt><trkpt lat="45.6941033" lon="8.5171183"><ele>347.6</ele><time>2026-04-12T11:18:37.999Z</time></trkpt><trkpt lat="45.69417" lon="8.5170067"><ele>348.20000000000005</ele><time>2026-04-12T11:18:38.999Z</time></trkpt><trkpt lat="45.69423" lon="8.51691"><ele>348.8</ele><time>2026-04-12T11:18:39.999Z</time></trkpt><trkpt lat="45.694285" lon="8.5168283"><ele>349.4</ele><time>2026-04-12T11:18:40.999Z</time></trkpt><trkpt lat="45.694385" lon="8.51671"><ele>350.0</ele><time>2026-04-12T11:18:42.999Z</time></trkpt><trkpt lat="45.69444" lon="8.5166367"><ele>350.2857142857143</ele><time>2026-04-12T11:18:44Z</time></trkpt><trkpt lat="45.6944917" lon="8.5165633"><ele>350.57142857142856</ele><time>2026-04-12T11:18:44.999Z</time></trkpt><trkpt lat="45.6945367" lon="8.5164867"><ele>350.8571428571429</ele><time>2026-04-12T11:18:45.999Z</time></trkpt><trkpt lat="45.6945867" lon="8.5164017"><ele>351.1428571428571</ele><time>2026-04-12T11:18:46.999Z</time></trkpt><trkpt lat="45.6946317" lon="8.5163233"><ele>351.42857142857144</ele><time>2026-04-12T11:18:48Z</time></trkpt><trkpt lat="45.69467" lon="8.5162383"><ele>351.7142857142857</ele><time>2026-04-12T11:18:48.999Z</time></trkpt><trkpt lat="45.6947083" lon="8.5161483"><ele>352.0</ele><time>2026-04-12T11:18:49.999Z</time></trkpt><trkpt lat="45.694775" lon="8.5160017"><ele>352.0</ele><time>2026-04-12T11:18:51.999Z</time></trkpt><trkpt lat="45.6948167" lon="8.5159067"><ele>352.0</ele><time>2026-04-12T11:18:53Z</time></trkpt><trkpt lat="45.69486" lon="8.5158067"><ele>352.0</ele><time>2026-04-12T11:18:53.999Z</time></trkpt><trkpt lat="45.6948983" lon="8.5157083"><ele>352.0</ele><time>2026-04-12T11:18:54.999Z</time></trkpt><trkpt lat="45.6949267" lon="8.5156067"><ele>352.0</ele><time>2026-04-12T11:18:56Z</time></trkpt><trkpt lat="45.69495" lon="8.5155183"><ele>352.0</ele><time>2026-04-12T11:18:56.999Z</time></trkpt><trkpt lat="45.6949683" lon="8.5154283"><ele>352.0</ele><time>2026-04-12T11:18:57.999Z</time></trkpt><trkpt lat="45.6949767" lon="8.5153217"><ele>351.0</ele><time>2026-04-12T11:18:58.999Z</time></trkpt><trkpt lat="45.6949683" lon="8.5151183"><ele>350.0</ele><time>2026-04-12T11:19:01Z</time></trkpt><trkpt lat="45.694975" lon="8.5150033"><ele>349.0</ele><time>2026-04-12T11:19:01.999Z</time></trkpt><trkpt lat="45.6949783" lon="8.514875"><ele>348.0</ele><time>2026-04-12T11:19:02.999Z</time></trkpt><trkpt lat="45.6949783" lon="8.5147433"><ele>347.0</ele><time>2026-04-12T11:19:03.999Z</time></trkpt><trkpt lat="45.6949717" lon="8.5146317"><ele>346.0</ele><time>2026-04-12T11:19:04.999Z</time></trkpt><trkpt lat="45.694965" lon="8.5145083"><ele>345.0</ele><time>2026-04-12T11:19:05.999Z</time></trkpt><trkpt lat="45.6949567" lon="8.5143983"><ele>344.0</ele><time>2026-04-12T11:19:06.999Z</time></trkpt><trkpt lat="45.694955" lon="8.5142983"><ele>343.0</ele><time>2026-04-12T11:19:07.999Z</time></trkpt><trkpt lat="45.6949533" lon="8.514195"><ele>342.0</ele><time>2026-04-12T11:19:08.999Z</time></trkpt><trkpt lat="45.69497" lon="8.514085"><ele>341.0</ele><time>2026-04-12T11:19:10Z</time></trkpt><trkpt lat="45.69499" lon="8.5139883"><ele>341.0</ele><time>2026-04-12T11:19:11Z</time></trkpt><trkpt lat="45.69501" lon="8.5138817"><ele>341.0</ele><time>2026-04-12T11:19:11.999Z</time></trkpt><trkpt lat="45.6950267" lon="8.5137767"><ele>341.0</ele><time>2026-04-12T11:19:12.999Z</time></trkpt><trkpt lat="45.6950467" lon="8.51367"><ele>341.0</ele><time>2026-04-12T11:19:14Z</time></trkpt><trkpt lat="45.6950667" lon="8.5135667"><ele>341.0</ele><time>2026-04-12T11:19:14.999Z</time></trkpt><trkpt lat="45.6950867" lon="8.5134733"><ele>341.0</ele><time>2026-04-12T11:19:15.999Z</time></trkpt><trkpt lat="45.6951067" lon="8.51337"><ele>341.0</ele><time>2026-04-12T11:19:16.999Z</time></trkpt><trkpt lat="45.6951233" lon="8.5132717"><ele>340.1428571428571</ele><time>2026-04-12T11:19:17.999Z</time></trkpt><trkpt lat="45.695145" lon="8.5131717"><ele>339.2857142857143</ele><time>2026-04-12T11:19:18.999Z</time></trkpt><trkpt lat="45.69517" lon="8.5130817"><ele>338.42857142857144</ele><time>2026-04-12T11:19:19.999Z</time></trkpt><trkpt lat="45.6952017" lon="8.5129917"><ele>337.57142857142856</ele><time>2026-04-12T11:19:21Z</time></trkpt><trkpt lat="45.6952283" lon="8.5129017"><ele>336.7142857142857</ele><time>2026-04-12T11:19:21.999Z</time></trkpt><trkpt lat="45.6952583" lon="8.512815"><ele>335.85714285714283</ele><time>2026-04-12T11:19:23Z</time></trkpt><trkpt lat="45.6952933" lon="8.5127333"><ele>335.0</ele><time>2026-04-12T11:19:24Z</time></trkpt><trkpt lat="45.6953333" lon="8.5126567"><ele>334.25</ele><time>2026-04-12T11:19:25Z</time></trkpt><trkpt lat="45.6954183" lon="8.512525"><ele>333.5</ele><time>2026-04-12T11:19:27Z</time></trkpt><trkpt lat="45.6955133" lon="8.5124017"><ele>332.75</ele><time>2026-04-12T11:19:28.999Z</time></trkpt><trkpt lat="45.69556" lon="8.51233"><ele>332.0</ele><time>2026-04-12T11:19:29.999Z</time></trkpt><trkpt lat="45.6956417" lon="8.512185"><ele>332.0</ele><time>2026-04-12T11:19:32Z</time></trkpt><trkpt lat="45.6956933" lon="8.5120933"><ele>332.0</ele><time>2026-04-12T11:19:32.999Z</time></trkpt><trkpt lat="45.69574" lon="8.512005"><ele>332.0</ele><time>2026-04-12T11:19:33.999Z</time></trkpt><trkpt lat="45.6957917" lon="8.5119267"><ele>332.0</ele><time>2026-04-12T11:19:34.999Z</time></trkpt><trkpt lat="45.6958467" lon="8.5118433"><ele>332.0</ele><time>2026-04-12T11:19:36Z</time></trkpt><trkpt lat="45.6959083" lon="8.511755"><ele>332.0</ele><time>2026-04-12T11:19:37Z</time></trkpt><trkpt lat="45.6959717" lon="8.5116717"><ele>331.6666666666667</ele><time>2026-04-12T11:19:38Z</time></trkpt><trkpt lat="45.6960333" lon="8.5115783"><ele>331.33333333333337</ele><time>2026-04-12T11:19:38.999Z</time></trkpt><trkpt lat="45.69609" lon="8.5114867"><ele>331.0</ele><time>2026-04-12T11:19:39.999Z</time></trkpt><trkpt lat="45.6961433" lon="8.5113917"><ele>330.6666666666667</ele><time>2026-04-12T11:19:40.999Z</time></trkpt><trkpt lat="45.6962" lon="8.5113"><ele>330.3333333333333</ele><time>2026-04-12T11:19:41.999Z</time></trkpt><trkpt lat="45.6962583" lon="8.5112183"><ele>330.0</ele><time>2026-04-12T11:19:42.999Z</time></trkpt><trkpt lat="45.6963217" lon="8.5111433"><ele>329.8333333333333</ele><time>2026-04-12T11:19:43.999Z</time></trkpt><trkpt lat="45.69638" lon="8.5110633"><ele>329.6666666666667</ele><time>2026-04-12T11:19:44.999Z</time></trkpt><trkpt lat="45.6964367" lon="8.5109683"><ele>329.5</ele><time>2026-04-12T11:19:45.999Z</time></trkpt><trkpt lat="45.69648" lon="8.5108617"><ele>329.33333333333337</ele><time>2026-04-12T11:19:46.999Z</time></trkpt><trkpt lat="45.6965083" lon="8.5107567"><ele>329.1666666666667</ele><time>2026-04-12T11:19:47.999Z</time></trkpt><trkpt lat="45.696535" lon="8.51066"><ele>329.0</ele><time>2026-04-12T11:19:48.999Z</time></trkpt><trkpt lat="45.6965567" lon="8.5105617"><ele>329.0</ele><time>2026-04-12T11:19:50Z</time></trkpt><trkpt lat="45.6965783" lon="8.5104667"><ele>329.0</ele><time>2026-04-12T11:19:50.999Z</time></trkpt><trkpt lat="45.6966" lon="8.5103633"><ele>329.0</ele><time>2026-04-12T11:19:52Z</time></trkpt><trkpt lat="45.6966217" lon="8.5102617"><ele>329.0</ele><time>2026-04-12T11:19:52.999Z</time></trkpt><trkpt lat="45.69664" lon="8.5101633"><ele>329.0</ele><time>2026-04-12T11:19:53.999Z</time></trkpt><trkpt lat="45.6966633" lon="8.5100467"><ele>329.0</ele><time>2026-04-12T11:19:54.999Z</time></trkpt><trkpt lat="45.696685" lon="8.5099117"><ele>328.83333333333337</ele><time>2026-04-12T11:19:55.999Z</time></trkpt><trkpt lat="45.6967033" lon="8.5097717"><ele>328.6666666666667</ele><time>2026-04-12T11:19:56.999Z</time></trkpt><trkpt lat="45.69672" lon="8.509625"><ele>328.5</ele><time>2026-04-12T11:19:58Z</time></trkpt><trkpt lat="45.6967433" lon="8.5094967"><ele>328.3333333333333</ele><time>2026-04-12T11:19:58.999Z</time></trkpt><trkpt lat="45.6967617" lon="8.5094083"><ele>328.16666666666663</ele><time>2026-04-12T11:20:00Z</time></trkpt><trkpt lat="45.696785" lon="8.5093217"><ele>328.0</ele><time>2026-04-12T11:20:01Z</time></trkpt><trkpt lat="45.6968233" lon="8.5092433"><ele>328.0</ele><time>2026-04-12T11:20:02Z</time></trkpt><trkpt lat="45.6968633" lon="8.50916"><ele>328.0</ele><time>2026-04-12T11:20:03Z</time></trkpt><trkpt lat="45.6969167" lon="8.5090917"><ele>328.0</ele><time>2026-04-12T11:20:03.999Z</time></trkpt><trkpt lat="45.6969717" lon="8.509015"><ele>328.0</ele><time>2026-04-12T11:20:04.999Z</time></trkpt><trkpt lat="45.6970383" lon="8.50894"><ele>328.0</ele><time>2026-04-12T11:20:05.999Z</time></trkpt><trkpt lat="45.6971133" lon="8.5088733"><ele>328.0</ele><time>2026-04-12T11:20:06.999Z</time></trkpt><trkpt lat="45.6971917" lon="8.508805"><ele>328.5</ele><time>2026-04-12T11:20:07.999Z</time></trkpt><trkpt lat="45.6972667" lon="8.5087483"><ele>329.0</ele><time>2026-04-12T11:20:08.999Z</time></trkpt><trkpt lat="45.6973433" lon="8.5087067"><ele>329.5</ele><time>2026-04-12T11:20:10Z</time></trkpt><trkpt lat="45.6974083" lon="8.5086567"><ele>330.0</ele><time>2026-04-12T11:20:11Z</time></trkpt><trkpt lat="45.6974683" lon="8.5085933"><ele>330.5</ele><time>2026-04-12T11:20:12Z</time></trkpt><trkpt lat="45.69754" lon="8.508445"><ele>331.0</ele><time>2026-04-12T11:20:13.999Z</time></trkpt><trkpt lat="45.6975483" lon="8.50833"><ele>331.0</ele><time>2026-04-12T11:20:14.999Z</time></trkpt><trkpt lat="45.6975267" lon="8.508205"><ele>331.0</ele><time>2026-04-12T11:20:15.999Z</time></trkpt><trkpt lat="45.69749" lon="8.5080733"><ele>331.0</ele><time>2026-04-12T11:20:17Z</time></trkpt><trkpt lat="45.6974633" lon="8.507965"><ele>331.0</ele><time>2026-04-12T11:20:18Z</time></trkpt><trkpt lat="45.6974267" lon="8.5078517"><ele>331.0</ele><time>2026-04-12T11:20:19Z</time></trkpt><trkpt lat="45.6973817" lon="8.50774"><ele>331.0</ele><time>2026-04-12T11:20:19.999Z</time></trkpt><trkpt lat="45.6973417" lon="8.5076483"><ele>331.0</ele><time>2026-04-12T11:20:20.999Z</time></trkpt><trkpt lat="45.69732" lon="8.5075533"><ele>331.0</ele><time>2026-04-12T11:20:22Z</time></trkpt><trkpt lat="45.6973017" lon="8.507455"><ele>331.0</ele><time>2026-04-12T11:20:23Z</time></trkpt><trkpt lat="45.697305" lon="8.50736"><ele>331.0</ele><time>2026-04-12T11:20:23.999Z</time></trkpt><trkpt lat="45.6973267" lon="8.5072517"><ele>331.0</ele><time>2026-04-12T11:20:25Z</time></trkpt><trkpt lat="45.6973817" lon="8.507165"><ele>331.0</ele><time>2026-04-12T11:20:25.999Z</time></trkpt><trkpt lat="45.6974267" lon="8.5070733"><ele>331.0</ele><time>2026-04-12T11:20:26.999Z</time></trkpt><trkpt lat="45.6974717" lon="8.5069633"><ele>331.0</ele><time>2026-04-12T11:20:27.999Z</time></trkpt><trkpt lat="45.6975183" lon="8.5068567"><ele>331.0</ele><time>2026-04-12T11:20:28.999Z</time></trkpt><trkpt lat="45.69757" lon="8.506765"><ele>331.0</ele><time>2026-04-12T11:20:29.999Z</time></trkpt><trkpt lat="45.69764" lon="8.506685"><ele>331.0</ele><time>2026-04-12T11:20:30.999Z</time></trkpt><trkpt lat="45.6977067" lon="8.5066"><ele>331.0</ele><time>2026-04-12T11:20:31.999Z</time></trkpt><trkpt lat="45.69777" lon="8.5065083"><ele>331.0</ele><time>2026-04-12T11:20:32.999Z</time></trkpt><trkpt lat="45.69783" lon="8.5064067"><ele>330.6</ele><time>2026-04-12T11:20:33.999Z</time></trkpt><trkpt lat="45.6978667" lon="8.5063317"><ele>330.20000000000005</ele><time>2026-04-12T11:20:34.999Z</time></trkpt><trkpt lat="45.6978983" lon="8.5062533"><ele>329.79999999999995</ele><time>2026-04-12T11:20:36Z</time></trkpt><trkpt lat="45.6979367" lon="8.506115"><ele>329.4</ele><time>2026-04-12T11:20:37.999Z</time></trkpt><trkpt lat="45.697975" lon="8.5059617"><ele>329.0</ele><time>2026-04-12T11:20:45.999Z</time></trkpt><trkpt lat="45.69798" lon="8.5057767"><ele>330.2</ele><time>2026-04-12T11:20:47.999Z</time></trkpt><trkpt lat="45.6979867" lon="8.5056583"><ele>331.4</ele><time>2026-04-12T11:20:48.999Z</time></trkpt><trkpt lat="45.69799" lon="8.5055217"><ele>332.6</ele><time>2026-04-12T11:20:50Z</time></trkpt><trkpt lat="45.6979983" lon="8.5053767"><ele>333.8</ele><time>2026-04-12T11:20:51Z</time></trkpt><trkpt lat="45.6979983" lon="8.505235"><ele>335.0</ele><time>2026-04-12T11:20:52Z</time></trkpt><trkpt lat="45.6980017" lon="8.5050983"><ele>335.6</ele><time>2026-04-12T11:20:53Z</time></trkpt><trkpt lat="45.698" lon="8.5049717"><ele>336.2</ele><time>2026-04-12T11:20:53.999Z</time></trkpt><trkpt lat="45.698005" lon="8.5048517"><ele>336.79999999999995</ele><time>2026-04-12T11:20:54.999Z</time></trkpt><trkpt lat="45.6980117" lon="8.5047233"><ele>337.4</ele><time>2026-04-12T11:20:56Z</time></trkpt><trkpt lat="45.6980183" lon="8.5045867"><ele>338.0</ele><time>2026-04-12T11:20:56.999Z</time></trkpt><trkpt lat="45.698025" lon="8.504445"><ele>338.0</ele><time>2026-04-12T11:20:57.999Z</time></trkpt><trkpt lat="45.6980283" lon="8.504305"><ele>338.0</ele><time>2026-04-12T11:20:59Z</time></trkpt><trkpt lat="45.6980367" lon="8.5041667"><ele>338.0</ele><time>2026-04-12T11:21:00Z</time></trkpt><trkpt lat="45.69804" lon="8.5040183"><ele>338.0</ele><time>2026-04-12T11:21:00.999Z</time></trkpt><trkpt lat="45.6980483" lon="8.5038583"><ele>338.0</ele><time>2026-04-12T11:21:01.999Z</time></trkpt><trkpt lat="45.6980583" lon="8.5037117"><ele>338.0</ele><time>2026-04-12T11:21:02.999Z</time></trkpt><trkpt lat="45.6980667" lon="8.5035617"><ele>338.0</ele><time>2026-04-12T11:21:03.999Z</time></trkpt><trkpt lat="45.6980767" lon="8.50342"><ele>338.0</ele><time>2026-04-12T11:21:05Z</time></trkpt><trkpt lat="45.69808" lon="8.5032717"><ele>338.0</ele><time>2026-04-12T11:21:05.999Z</time></trkpt><trkpt lat="45.6980817" lon="8.5031233"><ele>338.0</ele><time>2026-04-12T11:21:07Z</time></trkpt><trkpt lat="45.69808" lon="8.5029583"><ele>337.0</ele><time>2026-04-12T11:21:07.999Z</time></trkpt><trkpt lat="45.69809" lon="8.5028033"><ele>336.0</ele><time>2026-04-12T11:21:08.999Z</time></trkpt><trkpt lat="45.6980983" lon="8.50263"><ele>335.0</ele><time>2026-04-12T11:21:10Z</time></trkpt><trkpt lat="45.6981067" lon="8.5024533"><ele>334.0</ele><time>2026-04-12T11:21:10.999Z</time></trkpt><trkpt lat="45.6981117" lon="8.5022817"><ele>334.0</ele><time>2026-04-12T11:21:11.999Z</time></trkpt><trkpt lat="45.6981133" lon="8.5021083"><ele>334.0</ele><time>2026-04-12T11:21:13Z</time></trkpt><trkpt lat="45.6981183" lon="8.50194"><ele>334.0</ele><time>2026-04-12T11:21:13.999Z</time></trkpt><trkpt lat="45.6981267" lon="8.5017717"><ele>334.0</ele><time>2026-04-12T11:21:14.999Z</time></trkpt><trkpt lat="45.6981283" lon="8.501615"><ele>333.79999999999995</ele><time>2026-04-12T11:21:16Z</time></trkpt><trkpt lat="45.6981267" lon="8.5014633"><ele>333.59999999999997</ele><time>2026-04-12T11:21:16.999Z</time></trkpt><trkpt lat="45.6981083" lon="8.5013067"><ele>333.4</ele><time>2026-04-12T11:21:18Z</time></trkpt><trkpt lat="45.6980633" lon="8.5011733"><ele>333.2</ele><time>2026-04-12T11:21:18.999Z</time></trkpt><trkpt lat="45.697995" lon="8.5010367"><ele>333.0</ele><time>2026-04-12T11:21:19.999Z</time></trkpt><trkpt lat="45.6979217" lon="8.5009067"><ele>333.0</ele><time>2026-04-12T11:21:20.999Z</time></trkpt><trkpt lat="45.697845" lon="8.5007783"><ele>333.0</ele><time>2026-04-12T11:21:21.999Z</time></trkpt><trkpt lat="45.69778" lon="8.5006367"><ele>333.0</ele><time>2026-04-12T11:21:22.999Z</time></trkpt><trkpt lat="45.697715" lon="8.5004983"><ele>333.0</ele><time>2026-04-12T11:21:24Z</time></trkpt><trkpt lat="45.6976533" lon="8.5003783"><ele>332.79999999999995</ele><time>2026-04-12T11:21:24.999Z</time></trkpt><trkpt lat="45.6975917" lon="8.5002583"><ele>332.6</ele><time>2026-04-12T11:21:26Z</time></trkpt><trkpt lat="45.6975417" lon="8.5001433"><ele>332.4</ele><time>2026-04-12T11:21:27Z</time></trkpt><trkpt lat="45.697495" lon="8.5000117"><ele>332.20000000000005</ele><time>2026-04-12T11:21:27.999Z</time></trkpt><trkpt lat="45.697455" lon="8.4998733"><ele>332.0</ele><time>2026-04-12T11:21:28.999Z</time></trkpt><trkpt lat="45.6974267" lon="8.4997333"><ele>332.0</ele><time>2026-04-12T11:21:30Z</time></trkpt><trkpt lat="45.6973983" lon="8.4995867"><ele>332.0</ele><time>2026-04-12T11:21:30.999Z</time></trkpt><trkpt lat="45.69736" lon="8.4994333"><ele>332.0</ele><time>2026-04-12T11:21:31.999Z</time></trkpt><trkpt lat="45.697325" lon="8.4992733"><ele>332.0</ele><time>2026-04-12T11:21:33Z</time></trkpt><trkpt lat="45.6972817" lon="8.4991117"><ele>332.75</ele><time>2026-04-12T11:21:34Z</time></trkpt><trkpt lat="45.69724" lon="8.4989467"><ele>333.5</ele><time>2026-04-12T11:21:35Z</time></trkpt><trkpt lat="45.6972033" lon="8.4987683"><ele>334.25</ele><time>2026-04-12T11:21:35.999Z</time></trkpt><trkpt lat="45.6971567" lon="8.4985983"><ele>335.0</ele><time>2026-04-12T11:21:36.999Z</time></trkpt><trkpt lat="45.6971133" lon="8.4984267"><ele>335.75</ele><time>2026-04-12T11:21:37.999Z</time></trkpt><trkpt lat="45.6970833" lon="8.4982433"><ele>336.5</ele><time>2026-04-12T11:21:39Z</time></trkpt><trkpt lat="45.6970617" lon="8.4980767"><ele>337.25</ele><time>2026-04-12T11:21:39.999Z</time></trkpt><trkpt lat="45.6970583" lon="8.4979017"><ele>338.0</ele><time>2026-04-12T11:21:40.999Z</time></trkpt><trkpt lat="45.6970467" lon="8.49774"><ele>337.79999999999995</ele><time>2026-04-12T11:21:42Z</time></trkpt><trkpt lat="45.6970383" lon="8.497585"><ele>337.6</ele><time>2026-04-12T11:21:42.999Z</time></trkpt><trkpt lat="45.69703" lon="8.4974283"><ele>337.4</ele><time>2026-04-12T11:21:43.999Z</time></trkpt><trkpt lat="45.6970083" lon="8.4972783"><ele>337.20000000000005</ele><time>2026-04-12T11:21:45Z</time></trkpt><trkpt lat="45.6969717" lon="8.49715"><ele>337.0</ele><time>2026-04-12T11:21:45.999Z</time></trkpt><trkpt lat="45.6969317" lon="8.497015"><ele>337.0</ele><time>2026-04-12T11:21:47Z</time></trkpt><trkpt lat="45.6968933" lon="8.49688"><ele>337.0</ele><time>2026-04-12T11:21:47.999Z</time></trkpt><trkpt lat="45.6968667" lon="8.496735"><ele>337.0</ele><time>2026-04-12T11:21:48.999Z</time></trkpt><trkpt lat="45.696855" lon="8.4966117"><ele>337.0</ele><time>2026-04-12T11:21:49.999Z</time></trkpt><trkpt lat="45.6968617" lon="8.49651"><ele>337.0</ele><time>2026-04-12T11:21:50.999Z</time></trkpt><trkpt lat="45.6968883" lon="8.4964083"><ele>337.0</ele><time>2026-04-12T11:21:53Z</time></trkpt><trkpt lat="45.6969433" lon="8.4963"><ele>334.8</ele><time>2026-04-12T11:21:55Z</time></trkpt><trkpt lat="45.6969883" lon="8.49621"><ele>332.6</ele><time>2026-04-12T11:21:55.999Z</time></trkpt><trkpt lat="45.697035" lon="8.496115"><ele>330.40000000000003</ele><time>2026-04-12T11:21:56.999Z</time></trkpt><trkpt lat="45.69709" lon="8.4960017"><ele>328.20000000000005</ele><time>2026-04-12T11:21:57.999Z</time></trkpt><trkpt lat="45.6971467" lon="8.4958833"><ele>326.0</ele><time>2026-04-12T11:21:59Z</time></trkpt><trkpt lat="45.6972083" lon="8.4957617"><ele>326.0</ele><time>2026-04-12T11:21:59.999Z</time></trkpt><trkpt lat="45.69727" lon="8.4956417"><ele>326.0</ele><time>2026-04-12T11:22:01Z</time></trkpt><trkpt lat="45.69734" lon="8.495525"><ele>326.0</ele><time>2026-04-12T11:22:01.999Z</time></trkpt><trkpt lat="45.6974067" lon="8.4953917"><ele>326.0</ele><time>2026-04-12T11:22:02.999Z</time></trkpt><trkpt lat="45.697465" lon="8.49526"><ele>326.0</ele><time>2026-04-12T11:22:04Z</time></trkpt><trkpt lat="45.6975117" lon="8.49512"><ele>324.6</ele><time>2026-04-12T11:22:05Z</time></trkpt><trkpt lat="45.69754" lon="8.49497"><ele>323.20000000000005</ele><time>2026-04-12T11:22:05.999Z</time></trkpt><trkpt lat="45.697555" lon="8.4948233"><ele>321.79999999999995</ele><time>2026-04-12T11:22:07Z</time></trkpt><trkpt lat="45.6975733" lon="8.4946867"><ele>320.4</ele><time>2026-04-12T11:22:07.999Z</time></trkpt><trkpt lat="45.6975967" lon="8.4945683"><ele>319.0</ele><time>2026-04-12T11:22:08.999Z</time></trkpt><trkpt lat="45.6976233" lon="8.4944433"><ele>319.2</ele><time>2026-04-12T11:22:09.999Z</time></trkpt><trkpt lat="45.6976583" lon="8.49432"><ele>319.4</ele><time>2026-04-12T11:22:10.999Z</time></trkpt><trkpt lat="45.6977" lon="8.4942033"><ele>319.6</ele><time>2026-04-12T11:22:11.999Z</time></trkpt><trkpt lat="45.697755" lon="8.49408"><ele>319.8</ele><time>2026-04-12T11:22:12.999Z</time></trkpt><trkpt lat="45.6977983" lon="8.4939633"><ele>320.0</ele><time>2026-04-12T11:22:14Z</time></trkpt><trkpt lat="45.6978433" lon="8.493865"><ele>320.0</ele><time>2026-04-12T11:22:14.999Z</time></trkpt><trkpt lat="45.6978917" lon="8.4937567"><ele>320.0</ele><time>2026-04-12T11:22:15.999Z</time></trkpt><trkpt lat="45.6979317" lon="8.493665"><ele>320.0</ele><time>2026-04-12T11:22:16.999Z</time></trkpt><trkpt lat="45.6979583" lon="8.4935483"><ele>320.0</ele><time>2026-04-12T11:22:17.999Z</time></trkpt><trkpt lat="45.69797" lon="8.4934333"><ele>320.0</ele><time>2026-04-12T11:22:18.999Z</time></trkpt><trkpt lat="45.6979717" lon="8.49331"><ele>320.0</ele><time>2026-04-12T11:22:19.999Z</time></trkpt><trkpt lat="45.6979767" lon="8.49319"><ele>319.5</ele><time>2026-04-12T11:22:20.999Z</time></trkpt><trkpt lat="45.6979883" lon="8.4930633"><ele>319.0</ele><time>2026-04-12T11:22:21.999Z</time></trkpt><trkpt lat="45.6980017" lon="8.4929383"><ele>318.5</ele><time>2026-04-12T11:22:23Z</time></trkpt><trkpt lat="45.6980117" lon="8.4928333"><ele>318.0</ele><time>2026-04-12T11:22:24Z</time></trkpt><trkpt lat="45.6980283" lon="8.492675"><ele>317.5</ele><time>2026-04-12T11:22:26Z</time></trkpt><trkpt lat="45.698045" lon="8.49257"><ele>317.0</ele><time>2026-04-12T11:22:27.999Z</time></trkpt><trkpt lat="45.69806" lon="8.4924467"><ele>317.0</ele><time>2026-04-12T11:22:30Z</time></trkpt><trkpt lat="45.6980617" lon="8.49229"><ele>317.0</ele><time>2026-04-12T11:22:32Z</time></trkpt><trkpt lat="45.6980467" lon="8.492135"><ele>317.0</ele><time>2026-04-12T11:22:33.999Z</time></trkpt><trkpt lat="45.6980367" lon="8.491965"><ele>317.0</ele><time>2026-04-12T11:22:36Z</time></trkpt><trkpt lat="45.6980317" lon="8.4918733"><ele>317.0</ele><time>2026-04-12T11:22:36.999Z</time></trkpt><trkpt lat="45.6980217" lon="8.4917717"><ele>316.8</ele><time>2026-04-12T11:22:37.999Z</time></trkpt><trkpt lat="45.698015" lon="8.4916683"><ele>316.6</ele><time>2026-04-12T11:22:39Z</time></trkpt><trkpt lat="45.6979967" lon="8.4915367"><ele>316.40000000000003</ele><time>2026-04-12T11:22:40.999Z</time></trkpt><trkpt lat="45.6980533" lon="8.4916167"><ele>316.2</ele><time>2026-04-12T11:22:51.999Z</time></trkpt><trkpt lat="45.698195" lon="8.4915633"><ele>316.0</ele><time>2026-04-12T11:22:53.999Z</time></trkpt><trkpt lat="45.6982817" lon="8.491525"><ele>316.0</ele><time>2026-04-12T11:22:55Z</time></trkpt><trkpt lat="45.6983883" lon="8.4914883"><ele>316.0</ele><time>2026-04-12T11:22:55.999Z</time></trkpt><trkpt lat="45.6984967" lon="8.4914533"><ele>316.0</ele><time>2026-04-12T11:22:56.999Z</time></trkpt><trkpt lat="45.6985933" lon="8.4914183"><ele>316.0</ele><time>2026-04-12T11:22:57.999Z</time></trkpt><trkpt lat="45.6986917" lon="8.491385"><ele>316.0</ele><time>2026-04-12T11:22:58.999Z</time></trkpt><trkpt lat="45.69879" lon="8.4913583"><ele>315.66666666666663</ele><time>2026-04-12T11:22:59.999Z</time></trkpt><trkpt lat="45.698885" lon="8.4913433"><ele>315.3333333333333</ele><time>2026-04-12T11:23:00.999Z</time></trkpt><trkpt lat="45.6989667" lon="8.491315"><ele>315.0</ele><time>2026-04-12T11:23:01.999Z</time></trkpt><trkpt lat="45.699035" lon="8.4912983"><ele>314.6666666666667</ele><time>2026-04-12T11:23:02.999Z</time></trkpt><trkpt lat="45.69913" lon="8.4912983"><ele>314.33333333333337</ele><time>2026-04-12T11:23:05Z</time></trkpt><trkpt lat="45.6991733" lon="8.49138"><ele>314.0</ele><time>2026-04-12T11:23:07Z</time></trkpt><trkpt lat="45.6992067" lon="8.4915233"><ele>314.0</ele><time>2026-04-12T11:23:08.999Z</time></trkpt><trkpt lat="45.6992383" lon="8.4916867"><ele>314.0</ele><time>2026-04-12T11:23:11Z</time></trkpt><trkpt lat="45.6992517" lon="8.4917817"><ele>314.0</ele><time>2026-04-12T11:23:11.999Z</time></trkpt><trkpt lat="45.6992717" lon="8.491875"><ele>314.0</ele><time>2026-04-12T11:23:13Z</time></trkpt><trkpt lat="45.6992883" lon="8.4919967"><ele>314.0</ele><time>2026-04-12T11:23:14Z</time></trkpt><trkpt lat="45.69931" lon="8.4921067"><ele>314.0</ele><time>2026-04-12T11:23:14.999Z</time></trkpt><trkpt lat="45.6993317" lon="8.4922083"><ele>314.59999999999997</ele><time>2026-04-12T11:23:15.999Z</time></trkpt><trkpt lat="45.6993717" lon="8.49238"><ele>315.2</ele><time>2026-04-12T11:23:18Z</time></trkpt><trkpt lat="45.699395" lon="8.49253"><ele>315.79999999999995</ele><time>2026-04-12T11:23:20Z</time></trkpt><trkpt lat="45.69946" lon="8.4925633"><ele>316.4</ele><time>2026-04-12T11:23:22.999Z</time></trkpt><trkpt lat="45.69954" lon="8.4924633"><ele>317.0</ele><time>2026-04-12T11:23:24.999Z</time></trkpt><trkpt lat="45.6996317" lon="8.492345"><ele>317.1666666666667</ele><time>2026-04-12T11:23:26.999Z</time></trkpt><trkpt lat="45.6997183" lon="8.4922367"><ele>317.33333333333337</ele><time>2026-04-12T11:23:28.999Z</time></trkpt><trkpt lat="45.6997983" lon="8.4921367"><ele>317.5</ele><time>2026-04-12T11:23:30.999Z</time></trkpt><trkpt lat="45.6998517" lon="8.4920867"><ele>317.6666666666667</ele><time>2026-04-12T11:23:32Z</time></trkpt><trkpt lat="45.6999083" lon="8.49204"><ele>317.8333333333333</ele><time>2026-04-12T11:23:32.999Z</time></trkpt><trkpt lat="45.69997" lon="8.4920117"><ele>318.0</ele><time>2026-04-12T11:23:33.999Z</time></trkpt><trkpt lat="45.7000866" lon="8.4919683"><ele>318.0</ele><time>2026-04-12T11:23:35.999Z</time></trkpt><trkpt lat="45.7001606" lon="8.4919375"><ele>318.0</ele><time>2026-04-12T11:23:36.999Z</time></trkpt><trkpt lat="45.7002398" lon="8.4918994"><ele>318.0</ele><time>2026-04-12T11:23:37.999Z</time></trkpt><trkpt lat="45.7003225" lon="8.491864"><ele>318.0</ele><time>2026-04-12T11:23:38.999Z</time></trkpt><trkpt lat="45.700392" lon="8.491831"><ele>318.0</ele><time>2026-04-12T11:23:39.999Z</time></trkpt><trkpt lat="45.700454" lon="8.4918041"><ele>318.0</ele><time>2026-04-12T11:23:40.999Z</time></trkpt><trkpt lat="45.7005475" lon="8.4918327"><ele>318.8</ele><time>2026-04-12T11:23:42.999Z</time></trkpt><trkpt lat="45.7006124" lon="8.4919583"><ele>319.6</ele><time>2026-04-12T11:23:45Z</time></trkpt><trkpt lat="45.700647" lon="8.4920631"><ele>320.40000000000003</ele><time>2026-04-12T11:23:46.999Z</time></trkpt><trkpt lat="45.7007423" lon="8.4920381"><ele>321.20000000000005</ele><time>2026-04-12T11:23:49.999Z</time></trkpt><trkpt lat="45.7008427" lon="8.4919625"><ele>322.0</ele><time>2026-04-12T11:23:52Z</time></trkpt><trkpt lat="45.7009002" lon="8.491922"><ele>322.0</ele><time>2026-04-12T11:23:52.999Z</time></trkpt><trkpt lat="45.7009651" lon="8.4918961"><ele>322.0</ele><time>2026-04-12T11:23:54Z</time></trkpt><trkpt lat="45.7010364" lon="8.4918737"><ele>322.0</ele><time>2026-04-12T11:23:54.999Z</time></trkpt><trkpt lat="45.7011027" lon="8.4918582"><ele>322.0</ele><time>2026-04-12T11:23:56Z</time></trkpt><trkpt lat="45.7012159" lon="8.4918332"><ele>322.0</ele><time>2026-04-12T11:23:57.999Z</time></trkpt><trkpt lat="45.7012865" lon="8.4917975"><ele>322.0</ele><time>2026-04-12T11:24:00Z</time></trkpt><trkpt lat="45.7012886" lon="8.4916936"><ele>322.3333333333333</ele><time>2026-04-12T11:24:02.999Z</time></trkpt><trkpt lat="45.7012653" lon="8.4915913"><ele>322.66666666666663</ele><time>2026-04-12T11:24:04.999Z</time></trkpt><trkpt lat="45.7012442" lon="8.4914677"><ele>323.0</ele><time>2026-04-12T11:24:06.999Z</time></trkpt><trkpt lat="45.7012332" lon="8.4913548"><ele>323.3333333333333</ele><time>2026-04-12T11:24:08.999Z</time></trkpt><trkpt lat="45.7012141" lon="8.4912319"><ele>323.6666666666667</ele><time>2026-04-12T11:24:10.999Z</time></trkpt><trkpt lat="45.7011903" lon="8.4911068"><ele>324.0</ele><time>2026-04-12T11:24:12.999Z</time></trkpt><trkpt lat="45.7011676" lon="8.4909881"><ele>322.59999999999997</ele><time>2026-04-12T11:24:15Z</time></trkpt><trkpt lat="45.7011352" lon="8.4908108"><ele>321.2</ele><time>2026-04-12T11:24:16.999Z</time></trkpt><trkpt lat="45.7011153" lon="8.4907143"><ele>319.79999999999995</ele><time>2026-04-12T11:24:17.999Z</time></trkpt><trkpt lat="45.7010995" lon="8.4906125"><ele>318.4</ele><time>2026-04-12T11:24:18.999Z</time></trkpt><trkpt lat="45.7010804" lon="8.4904481"><ele>317.0</ele><time>2026-04-12T11:24:21Z</time></trkpt><trkpt lat="45.7010652" lon="8.4902704"><ele>316.8571428571429</ele><time>2026-04-12T11:24:23Z</time></trkpt><trkpt lat="45.7010563" lon="8.4901786"><ele>316.7142857142857</ele><time>2026-04-12T11:24:24Z</time></trkpt><trkpt lat="45.701047" lon="8.4900854"><ele>316.57142857142856</ele><time>2026-04-12T11:24:24.999Z</time></trkpt><trkpt lat="45.7010347" lon="8.4899833"><ele>316.42857142857144</ele><time>2026-04-12T11:24:25.999Z</time></trkpt><trkpt lat="45.7010182" lon="8.4898687"><ele>316.2857142857143</ele><time>2026-04-12T11:24:26.999Z</time></trkpt><trkpt lat="45.701" lon="8.4897493"><ele>316.14285714285717</ele><time>2026-04-12T11:24:27.999Z</time></trkpt><trkpt lat="45.7009883" lon="8.4896441"><ele>316.0</ele><time>2026-04-12T11:24:29Z</time></trkpt><trkpt lat="45.7009788" lon="8.4895499"><ele>315.8333333333333</ele><time>2026-04-12T11:24:29.999Z</time></trkpt><trkpt lat="45.7010104" lon="8.4894507"><ele>315.66666666666663</ele><time>2026-04-12T11:24:31.999Z</time></trkpt><trkpt lat="45.7011151" lon="8.489393"><ele>315.5</ele><time>2026-04-12T11:24:33.999Z</time></trkpt><trkpt lat="45.7011901" lon="8.4893582"><ele>315.3333333333333</ele><time>2026-04-12T11:24:34.999Z</time></trkpt><trkpt lat="45.7012718" lon="8.4893205"><ele>315.1666666666667</ele><time>2026-04-12T11:24:35.999Z</time></trkpt><trkpt lat="45.7013505" lon="8.4892811"><ele>315.0</ele><time>2026-04-12T11:24:36.999Z</time></trkpt><trkpt lat="45.7014333" lon="8.4892345"><ele>315.3333333333333</ele><time>2026-04-12T11:24:37.999Z</time></trkpt><trkpt lat="45.701521" lon="8.4891886"><ele>315.6666666666667</ele><time>2026-04-12T11:24:38.999Z</time></trkpt><trkpt lat="45.7016033" lon="8.4891437"><ele>316.0</ele><time>2026-04-12T11:24:39.999Z</time></trkpt><trkpt lat="45.7016835" lon="8.4890975"><ele>316.33333333333337</ele><time>2026-04-12T11:24:40.999Z</time></trkpt><trkpt lat="45.701763" lon="8.4890458"><ele>316.6666666666667</ele><time>2026-04-12T11:24:42Z</time></trkpt><trkpt lat="45.7018381" lon="8.4890018"><ele>317.0</ele><time>2026-04-12T11:24:43Z</time></trkpt><trkpt lat="45.7019016" lon="8.4889621"><ele>317.1666666666667</ele><time>2026-04-12T11:24:43.999Z</time></trkpt><trkpt lat="45.701995" lon="8.4888913"><ele>317.33333333333337</ele><time>2026-04-12T11:24:46Z</time></trkpt><trkpt lat="45.7020302" lon="8.4888129"><ele>317.5</ele><time>2026-04-12T11:24:47.999Z</time></trkpt><trkpt lat="45.702003" lon="8.4886852"><ele>317.6666666666667</ele><time>2026-04-12T11:24:50Z</time></trkpt><trkpt lat="45.7019786" lon="8.488597"><ele>317.8333333333333</ele><time>2026-04-12T11:24:50.999Z</time></trkpt><trkpt lat="45.7019606" lon="8.4884962"><ele>318.0</ele><time>2026-04-12T11:24:51.999Z</time></trkpt><trkpt lat="45.7019489" lon="8.4883797"><ele>318.0</ele><time>2026-04-12T11:24:52.999Z</time></trkpt><trkpt lat="45.70194" lon="8.4882433"><ele>318.0</ele><time>2026-04-12T11:24:53.999Z</time></trkpt><trkpt lat="45.70193" lon="8.488115"><ele>318.0</ele><time>2026-04-12T11:24:55Z</time></trkpt><trkpt lat="45.70193" lon="8.4879833"><ele>318.0</ele><time>2026-04-12T11:24:55.999Z</time></trkpt><trkpt lat="45.70192" lon="8.48783"><ele>318.0</ele><time>2026-04-12T11:24:56.999Z</time></trkpt><trkpt lat="45.7019083" lon="8.487685"><ele>318.0</ele><time>2026-04-12T11:24:57.999Z</time></trkpt><trkpt lat="45.701895" lon="8.4875417"><ele>318.0</ele><time>2026-04-12T11:24:59Z</time></trkpt><trkpt lat="45.7018817" lon="8.487415"><ele>318.0</ele><time>2026-04-12T11:24:59.999Z</time></trkpt><trkpt lat="45.7018583" lon="8.4872783"><ele>318.0</ele><time>2026-04-12T11:25:00.999Z</time></trkpt><trkpt lat="45.701835" lon="8.4871483"><ele>318.0</ele><time>2026-04-12T11:25:02Z</time></trkpt><trkpt lat="45.701805" lon="8.48702"><ele>318.0</ele><time>2026-04-12T11:25:03Z</time></trkpt><trkpt lat="45.7017783" lon="8.4868933"><ele>318.0</ele><time>2026-04-12T11:25:03.999Z</time></trkpt><trkpt lat="45.7017417" lon="8.486765"><ele>318.0</ele><time>2026-04-12T11:25:04.999Z</time></trkpt><trkpt lat="45.701705" lon="8.4866367"><ele>318.0</ele><time>2026-04-12T11:25:05.999Z</time></trkpt><trkpt lat="45.7016683" lon="8.4865183"><ele>318.0</ele><time>2026-04-12T11:25:07Z</time></trkpt><trkpt lat="45.7016333" lon="8.486415"><ele>318.0</ele><time>2026-04-12T11:25:07.999Z</time></trkpt><trkpt lat="45.7016033" lon="8.4863083"><ele>318.0</ele><time>2026-04-12T11:25:08.999Z</time></trkpt><trkpt lat="45.7015783" lon="8.4861983"><ele>318.0</ele><time>2026-04-12T11:25:09.999Z</time></trkpt><trkpt lat="45.7015567" lon="8.4860917"><ele>318.0</ele><time>2026-04-12T11:25:11Z</time></trkpt><trkpt lat="45.70154" lon="8.485995"><ele>318.0</ele><time>2026-04-12T11:25:12Z</time></trkpt><trkpt lat="45.7015217" lon="8.4858533"><ele>318.0</ele><time>2026-04-12T11:25:13.999Z</time></trkpt><trkpt lat="45.70158" lon="8.4857383"><ele>318.0</ele><time>2026-04-12T11:25:15.999Z</time></trkpt><trkpt lat="45.701635" lon="8.4856667"><ele>318.0</ele><time>2026-04-12T11:25:16.999Z</time></trkpt><trkpt lat="45.7017067" lon="8.4855883"><ele>318.0</ele><time>2026-04-12T11:25:17.999Z</time></trkpt><trkpt lat="45.701785" lon="8.4854967"><ele>318.0</ele><time>2026-04-12T11:25:18.999Z</time></trkpt><trkpt lat="45.7018533" lon="8.4854033"><ele>318.0</ele><time>2026-04-12T11:25:20Z</time></trkpt><trkpt lat="45.7019083" lon="8.4853067"><ele>318.0</ele><time>2026-04-12T11:25:20.999Z</time></trkpt><trkpt lat="45.7019417" lon="8.485205"><ele>318.0</ele><time>2026-04-12T11:25:21.999Z</time></trkpt><trkpt lat="45.7019583" lon="8.4850917"><ele>318.0</ele><time>2026-04-12T11:25:23Z</time></trkpt><trkpt lat="45.7019633" lon="8.484975"><ele>318.0</ele><time>2026-04-12T11:25:24Z</time></trkpt><trkpt lat="45.701935" lon="8.48488"><ele>318.0</ele><time>2026-04-12T11:25:24.999Z</time></trkpt><trkpt lat="45.7018983" lon="8.48477"><ele>318.0</ele><time>2026-04-12T11:25:25.999Z</time></trkpt><trkpt lat="45.7018583" lon="8.48468"><ele>318.0</ele><time>2026-04-12T11:25:26.999Z</time></trkpt><trkpt lat="45.7018233" lon="8.4845933"><ele>317.8333333333333</ele><time>2026-04-12T11:25:27.999Z</time></trkpt><trkpt lat="45.7017817" lon="8.4845183"><ele>317.6666666666667</ele><time>2026-04-12T11:25:28.999Z</time></trkpt><trkpt lat="45.7017533" lon="8.48439"><ele>317.5</ele><time>2026-04-12T11:25:30.999Z</time></trkpt><trkpt lat="45.701755" lon="8.4842467"><ele>317.33333333333337</ele><time>2026-04-12T11:25:33Z</time></trkpt><trkpt lat="45.7017567" lon="8.4841483"><ele>317.1666666666667</ele><time>2026-04-12T11:25:34Z</time></trkpt><trkpt lat="45.7017633" lon="8.483995"><ele>317.0</ele><time>2026-04-12T11:25:35.999Z</time></trkpt><trkpt lat="45.7017883" lon="8.4838117"><ele>317.33333333333337</ele><time>2026-04-12T11:25:44Z</time></trkpt><trkpt lat="45.70181" lon="8.4836933"><ele>317.6666666666667</ele><time>2026-04-12T11:25:44.999Z</time></trkpt><trkpt lat="45.7018483" lon="8.48362"><ele>318.0</ele><time>2026-04-12T11:25:45.999Z</time></trkpt><trkpt lat="45.7019683" lon="8.4836167"><ele>318.3333333333333</ele><time>2026-04-12T11:25:47.999Z</time></trkpt><trkpt lat="45.7020483" lon="8.4836483"><ele>318.66666666666663</ele><time>2026-04-12T11:25:49Z</time></trkpt><trkpt lat="45.7021317" lon="8.4836867"><ele>319.0</ele><time>2026-04-12T11:25:49.999Z</time></trkpt><trkpt lat="45.70222" lon="8.4837383"><ele>319.0</ele><time>2026-04-12T11:25:50.999Z</time></trkpt><trkpt lat="45.7023067" lon="8.483805"><ele>319.0</ele><time>2026-04-12T11:25:51.999Z</time></trkpt><trkpt lat="45.7023967" lon="8.4838767"><ele>319.0</ele><time>2026-04-12T11:25:52.999Z</time></trkpt><trkpt lat="45.7024833" lon="8.4839567"><ele>319.0</ele><time>2026-04-12T11:25:53.999Z</time></trkpt><trkpt lat="45.7025767" lon="8.4840483"><ele>319.0</ele><time>2026-04-12T11:25:54.999Z</time></trkpt><trkpt lat="45.7026567" lon="8.4841333"><ele>319.0</ele><time>2026-04-12T11:25:56Z</time></trkpt><trkpt lat="45.70273" lon="8.4842067"><ele>319.0</ele><time>2026-04-12T11:25:57Z</time></trkpt><trkpt lat="45.7028067" lon="8.48424"><ele>319.0</ele><time>2026-04-12T11:25:58Z</time></trkpt><trkpt lat="45.70289" lon="8.4842583"><ele>319.0</ele><time>2026-04-12T11:25:58.999Z</time></trkpt><trkpt lat="45.7029767" lon="8.4842483"><ele>319.0</ele><time>2026-04-12T11:25:59.999Z</time></trkpt><trkpt lat="45.703055" lon="8.4842517"><ele>319.0</ele><time>2026-04-12T11:26:00.999Z</time></trkpt><trkpt lat="45.703125" lon="8.48427"><ele>319.0</ele><time>2026-04-12T11:26:02Z</time></trkpt><trkpt lat="45.703195" lon="8.4842933"><ele>319.0</ele><time>2026-04-12T11:26:02.999Z</time></trkpt><trkpt lat="45.7032917" lon="8.4843033"><ele>319.0</ele><time>2026-04-12T11:26:03.999Z</time></trkpt><trkpt lat="45.703395" lon="8.48429"><ele>319.0</ele><time>2026-04-12T11:26:05Z</time></trkpt><trkpt lat="45.7034933" lon="8.484265"><ele>319.0</ele><time>2026-04-12T11:26:06Z</time></trkpt><trkpt lat="45.703595" lon="8.4842367"><ele>318.66666666666663</ele><time>2026-04-12T11:26:06.999Z</time></trkpt><trkpt lat="45.7036883" lon="8.4842017"><ele>318.3333333333333</ele><time>2026-04-12T11:26:07.999Z</time></trkpt><trkpt lat="45.703765" lon="8.4841683"><ele>318.0</ele><time>2026-04-12T11:26:08.999Z</time></trkpt><trkpt lat="45.7038467" lon="8.4841383"><ele>317.6666666666667</ele><time>2026-04-12T11:26:11Z</time></trkpt><trkpt lat="45.7039017" lon="8.4840233"><ele>317.33333333333337</ele><time>2026-04-12T11:26:14Z</time></trkpt><trkpt lat="45.703945" lon="8.4839383"><ele>317.0</ele><time>2026-04-12T11:26:14.999Z</time></trkpt><trkpt lat="45.703995" lon="8.48386"><ele>317.0</ele><time>2026-04-12T11:26:16Z</time></trkpt><trkpt lat="45.7040633" lon="8.4838033"><ele>317.0</ele><time>2026-04-12T11:26:16.999Z</time></trkpt><trkpt lat="45.7041367" lon="8.483755"><ele>317.0</ele><time>2026-04-12T11:26:17.999Z</time></trkpt><trkpt lat="45.704225" lon="8.48373"><ele>317.0</ele><time>2026-04-12T11:26:18.999Z</time></trkpt><trkpt lat="45.70431" lon="8.4837283"><ele>317.0</ele><time>2026-04-12T11:26:19.999Z</time></trkpt><trkpt lat="45.70439" lon="8.4837367"><ele>317.0</ele><time>2026-04-12T11:26:21Z</time></trkpt><trkpt lat="45.7044617" lon="8.4837417"><ele>317.83333333333337</ele><time>2026-04-12T11:26:22Z</time></trkpt><trkpt lat="45.704525" lon="8.48374"><ele>318.6666666666667</ele><time>2026-04-12T11:26:23Z</time></trkpt><trkpt lat="45.7046083" lon="8.483735"><ele>319.5</ele><time>2026-04-12T11:26:24Z</time></trkpt><trkpt lat="45.7046933" lon="8.4837217"><ele>320.3333333333333</ele><time>2026-04-12T11:26:25Z</time></trkpt><trkpt lat="45.7047783" lon="8.4837017"><ele>321.16666666666663</ele><time>2026-04-12T11:26:25.999Z</time></trkpt><trkpt lat="45.704855" lon="8.4836883"><ele>322.0</ele><time>2026-04-12T11:26:27Z</time></trkpt><trkpt lat="45.704935" lon="8.483665"><ele>322.0</ele><time>2026-04-12T11:26:27.999Z</time></trkpt><trkpt lat="45.7050133" lon="8.4836317"><ele>322.0</ele><time>2026-04-12T11:26:28.999Z</time></trkpt><trkpt lat="45.705095" lon="8.4836133"><ele>322.0</ele><time>2026-04-12T11:26:29.999Z</time></trkpt><trkpt lat="45.7051583" lon="8.4835917"><ele>322.0</ele><time>2026-04-12T11:26:30.999Z</time></trkpt><trkpt lat="45.7052267" lon="8.4835617"><ele>322.0</ele><time>2026-04-12T11:26:31.999Z</time></trkpt><trkpt lat="45.7052917" lon="8.4835117"><ele>322.0</ele><time>2026-04-12T11:26:32.999Z</time></trkpt><trkpt lat="45.7053417" lon="8.483445"><ele>322.0</ele><time>2026-04-12T11:26:34Z</time></trkpt><trkpt lat="45.7053667" lon="8.4833617"><ele>322.0</ele><time>2026-04-12T11:26:34.999Z</time></trkpt><trkpt lat="45.7053833" lon="8.4832533"><ele>322.0</ele><time>2026-04-12T11:26:35.999Z</time></trkpt><trkpt lat="45.7053917" lon="8.4831267"><ele>322.0</ele><time>2026-04-12T11:26:36.999Z</time></trkpt><trkpt lat="45.70539" lon="8.4829983"><ele>322.0</ele><time>2026-04-12T11:26:37.999Z</time></trkpt><trkpt lat="45.7053967" lon="8.4828783"><ele>322.0</ele><time>2026-04-12T11:26:39Z</time></trkpt><trkpt lat="45.7054" lon="8.48276"><ele>322.0</ele><time>2026-04-12T11:26:39.999Z</time></trkpt><trkpt lat="45.7054133" lon="8.482635"><ele>321.8</ele><time>2026-04-12T11:26:40.999Z</time></trkpt><trkpt lat="45.70543" lon="8.4825117"><ele>321.6</ele><time>2026-04-12T11:26:41.999Z</time></trkpt><trkpt lat="45.70545" lon="8.482385"><ele>321.40000000000003</ele><time>2026-04-12T11:26:42.999Z</time></trkpt><trkpt lat="45.7054717" lon="8.4822583"><ele>321.20000000000005</ele><time>2026-04-12T11:26:43.999Z</time></trkpt><trkpt lat="45.705495" lon="8.4821283"><ele>321.0</ele><time>2026-04-12T11:26:44.999Z</time></trkpt><trkpt lat="45.7055083" lon="8.4819933"><ele>320.8333333333333</ele><time>2026-04-12T11:26:46Z</time></trkpt><trkpt lat="45.7055317" lon="8.4818733"><ele>320.6666666666667</ele><time>2026-04-12T11:26:47Z</time></trkpt><trkpt lat="45.705555" lon="8.481765"><ele>320.5</ele><time>2026-04-12T11:26:47.999Z</time></trkpt><trkpt lat="45.705585" lon="8.4816467"><ele>320.33333333333337</ele><time>2026-04-12T11:26:49Z</time></trkpt><trkpt lat="45.7056133" lon="8.4815117"><ele>320.1666666666667</ele><time>2026-04-12T11:26:50Z</time></trkpt><trkpt lat="45.705635" lon="8.4813983"><ele>320.0</ele><time>2026-04-12T11:26:51Z</time></trkpt><trkpt lat="45.7056633" lon="8.4812867"><ele>320.0</ele><time>2026-04-12T11:26:52Z</time></trkpt><trkpt lat="45.7056933" lon="8.4811867"><ele>320.0</ele><time>2026-04-12T11:26:52.999Z</time></trkpt><trkpt lat="45.7057267" lon="8.4810867"><ele>320.0</ele><time>2026-04-12T11:26:54Z</time></trkpt><trkpt lat="45.7057567" lon="8.4809833"><ele>320.0</ele><time>2026-04-12T11:26:54.999Z</time></trkpt><trkpt lat="45.7057833" lon="8.4808767"><ele>320.0</ele><time>2026-04-12T11:26:55.999Z</time></trkpt><trkpt lat="45.7058" lon="8.4807733"><ele>320.0</ele><time>2026-04-12T11:26:56.999Z</time></trkpt><trkpt lat="45.7058067" lon="8.480675"><ele>320.0</ele><time>2026-04-12T11:26:57.999Z</time></trkpt><trkpt lat="45.7058133" lon="8.480535"><ele>320.0</ele><time>2026-04-12T11:26:59.999Z</time></trkpt><trkpt lat="45.7058967" lon="8.48055"><ele>320.0</ele><time>2026-04-12T11:27:01.999Z</time></trkpt><trkpt lat="45.7059883" lon="8.4806017"><ele>320.0</ele><time>2026-04-12T11:27:03.999Z</time></trkpt><trkpt lat="45.7060717" lon="8.48066"><ele>320.0</ele><time>2026-04-12T11:27:06Z</time></trkpt><trkpt lat="45.70612" lon="8.4807917"><ele>320.2857142857143</ele><time>2026-04-12T11:27:07.999Z</time></trkpt><trkpt lat="45.706125" lon="8.480885"><ele>320.57142857142856</ele><time>2026-04-12T11:27:08.999Z</time></trkpt><trkpt lat="45.7061317" lon="8.4809867"><ele>320.8571428571429</ele><time>2026-04-12T11:27:09.999Z</time></trkpt><trkpt lat="45.7061367" lon="8.4810767"><ele>321.1428571428571</ele><time>2026-04-12T11:27:10.999Z</time></trkpt><trkpt lat="45.7061583" lon="8.481215"><ele>321.42857142857144</ele><time>2026-04-12T11:27:13Z</time></trkpt><trkpt lat="45.7062233" lon="8.481265"><ele>321.7142857142857</ele><time>2026-04-12T11:27:14.999Z</time></trkpt><trkpt lat="45.7063" lon="8.4812667"><ele>322.0</ele><time>2026-04-12T11:27:17Z</time></trkpt><trkpt lat="45.7063682" lon="8.4812388"><ele>322.0</ele><time>2026-04-12T11:36:47.999Z</time></trkpt><trkpt lat="45.7064778" lon="8.4812189"><ele>322.0</ele><time>2026-04-12T11:36:50Z</time></trkpt><trkpt lat="45.7065545" lon="8.4812126"><ele>322.0</ele><time>2026-04-12T11:36:51Z</time></trkpt><trkpt lat="45.706641" lon="8.481202"><ele>322.0</ele><time>2026-04-12T11:36:52Z</time></trkpt><trkpt lat="45.7067376" lon="8.481192"><ele>322.0</ele><time>2026-04-12T11:36:52.999Z</time></trkpt><trkpt lat="45.7068469" lon="8.4811742"><ele>323.25</ele><time>2026-04-12T11:36:54Z</time></trkpt><trkpt lat="45.7069593" lon="8.481155"><ele>324.5</ele><time>2026-04-12T11:36:54.999Z</time></trkpt><trkpt lat="45.7070711" lon="8.4811352"><ele>325.75</ele><time>2026-04-12T11:36:55.999Z</time></trkpt><trkpt lat="45.7071805" lon="8.4811193"><ele>327.0</ele><time>2026-04-12T11:36:57Z</time></trkpt><trkpt lat="45.707296" lon="8.4811107"><ele>327.0</ele><time>2026-04-12T11:36:57.999Z</time></trkpt><trkpt lat="45.707408" lon="8.4810921"><ele>327.0</ele><time>2026-04-12T11:36:58.999Z</time></trkpt><trkpt lat="45.7075101" lon="8.4810708"><ele>327.0</ele><time>2026-04-12T11:36:59.999Z</time></trkpt><trkpt lat="45.7075952" lon="8.4810383"><ele>327.0</ele><time>2026-04-12T11:37:00.999Z</time></trkpt><trkpt lat="45.7076765" lon="8.481007"><ele>327.0</ele><time>2026-04-12T11:37:02Z</time></trkpt><trkpt lat="45.7077491" lon="8.4809875"><ele>327.5</ele><time>2026-04-12T11:37:02.999Z</time></trkpt><trkpt lat="45.7078122" lon="8.4809757"><ele>328.0</ele><time>2026-04-12T11:37:04Z</time></trkpt><trkpt lat="45.7079392" lon="8.4809767"><ele>328.5</ele><time>2026-04-12T11:37:05.999Z</time></trkpt><trkpt lat="45.7080095" lon="8.4809831"><ele>329.0</ele><time>2026-04-12T11:37:07Z</time></trkpt><trkpt lat="45.7080748" lon="8.4809731"><ele>329.5</ele><time>2026-04-12T11:37:07.999Z</time></trkpt><trkpt lat="45.7081732" lon="8.4809176"><ele>330.0</ele><time>2026-04-12T11:37:10Z</time></trkpt><trkpt lat="45.7081949" lon="8.4808223"><ele>330.0</ele><time>2026-04-12T11:37:20Z</time></trkpt><trkpt lat="45.7081638" lon="8.4807378"><ele>330.0</ele><time>2026-04-12T11:37:21.999Z</time></trkpt><trkpt lat="45.7080895" lon="8.4806231"><ele>330.0</ele><time>2026-04-12T11:37:23.999Z</time></trkpt><trkpt lat="45.7080563" lon="8.4805457"><ele>330.0</ele><time>2026-04-12T11:37:25Z</time></trkpt><trkpt lat="45.7080309" lon="8.4804607"><ele>330.0</ele><time>2026-04-12T11:37:25.999Z</time></trkpt><trkpt lat="45.7080006" lon="8.4802923"><ele>330.0</ele><time>2026-04-12T11:37:27.999Z</time></trkpt><trkpt lat="45.7079641" lon="8.4801141"><ele>330.2</ele><time>2026-04-12T11:37:30Z</time></trkpt><trkpt lat="45.7079455" lon="8.480018"><ele>330.4</ele><time>2026-04-12T11:37:30.999Z</time></trkpt><trkpt lat="45.7079149" lon="8.4798611"><ele>330.6</ele><time>2026-04-12T11:37:32.999Z</time></trkpt><trkpt lat="45.7078668" lon="8.4797002"><ele>330.8</ele><time>2026-04-12T11:37:35Z</time></trkpt><trkpt lat="45.7078336" lon="8.4795366"><ele>331.0</ele><time>2026-04-12T11:37:37Z</time></trkpt><trkpt lat="45.7078083" lon="8.4793731"><ele>330.5</ele><time>2026-04-12T11:37:38.999Z</time></trkpt><trkpt lat="45.7077994" lon="8.4792485"><ele>330.0</ele><time>2026-04-12T11:37:39.999Z</time></trkpt><trkpt lat="45.7077795" lon="8.4791156"><ele>329.5</ele><time>2026-04-12T11:37:41Z</time></trkpt><trkpt lat="45.7077506" lon="8.4789076"><ele>329.0</ele><time>2026-04-12T11:37:41.999Z</time></trkpt><trkpt lat="45.7077358" lon="8.4787128"><ele>326.75</ele><time>2026-04-12T11:37:42.999Z</time></trkpt><trkpt lat="45.707714" lon="8.4785275"><ele>324.5</ele><time>2026-04-12T11:37:43.999Z</time></trkpt><trkpt lat="45.7076783" lon="8.4783486"><ele>322.25</ele><time>2026-04-12T11:37:44.999Z</time></trkpt><trkpt lat="45.7076383" lon="8.4781607"><ele>320.0</ele><time>2026-04-12T11:37:45.999Z</time></trkpt><trkpt lat="45.7075992" lon="8.4779862"><ele>319.8</ele><time>2026-04-12T11:37:46.999Z</time></trkpt><trkpt lat="45.7075669" lon="8.4778413"><ele>319.6</ele><time>2026-04-12T11:37:47.999Z</time></trkpt><trkpt lat="45.7075455" lon="8.4777131"><ele>319.4</ele><time>2026-04-12T11:37:48.999Z</time></trkpt><trkpt lat="45.7075246" lon="8.4775804"><ele>319.2</ele><time>2026-04-12T11:37:49.999Z</time></trkpt><trkpt lat="45.7075006" lon="8.4774518"><ele>319.0</ele><time>2026-04-12T11:37:50.999Z</time></trkpt><trkpt lat="45.707481" lon="8.4773563"><ele>319.0</ele><time>2026-04-12T11:37:51.999Z</time></trkpt><trkpt lat="45.7074567" lon="8.477231"><ele>319.0</ele><time>2026-04-12T11:37:52.999Z</time></trkpt><trkpt lat="45.7074267" lon="8.4771198"><ele>319.0</ele><time>2026-04-12T11:37:53.999Z</time></trkpt><trkpt lat="45.7074056" lon="8.4770177"><ele>319.0</ele><time>2026-04-12T11:37:55Z</time></trkpt><trkpt lat="45.7073883" lon="8.4769139"><ele>319.0</ele><time>2026-04-12T11:37:55.999Z</time></trkpt><trkpt lat="45.7073735" lon="8.4768262"><ele>319.0</ele><time>2026-04-12T11:37:56.999Z</time></trkpt><trkpt lat="45.7073758" lon="8.4766688"><ele>319.0</ele><time>2026-04-12T11:37:58.999Z</time></trkpt><trkpt lat="45.707374" lon="8.4765389"><ele>319.0</ele><time>2026-04-12T11:38:01Z</time></trkpt><trkpt lat="45.7073253" lon="8.4764569"><ele>319.0</ele><time>2026-04-12T11:38:03Z</time></trkpt><trkpt lat="45.7072907" lon="8.4763619"><ele>319.0</ele><time>2026-04-12T11:38:04.999Z</time></trkpt><trkpt lat="45.7073767" lon="8.4762849"><ele>319.0</ele><time>2026-04-12T11:38:07.999Z</time></trkpt><trkpt lat="45.7074837" lon="8.4762409"><ele>318.8333333333333</ele><time>2026-04-12T11:38:10Z</time></trkpt><trkpt lat="45.707621" lon="8.4762053"><ele>318.66666666666663</ele><time>2026-04-12T11:38:12Z</time></trkpt><trkpt lat="45.7076999" lon="8.4761936"><ele>318.5</ele><time>2026-04-12T11:38:13Z</time></trkpt><trkpt lat="45.7077668" lon="8.4761859"><ele>318.3333333333333</ele><time>2026-04-12T11:38:13.999Z</time></trkpt><trkpt lat="45.7078424" lon="8.4761775"><ele>318.1666666666667</ele><time>2026-04-12T11:38:14.999Z</time></trkpt><trkpt lat="45.7079166" lon="8.4761562"><ele>318.0</ele><time>2026-04-12T11:38:16Z</time></trkpt><trkpt lat="45.707987" lon="8.4761262"><ele>318.0</ele><time>2026-04-12T11:38:16.999Z</time></trkpt><trkpt lat="45.7080629" lon="8.4760906"><ele>318.0</ele><time>2026-04-12T11:38:17.999Z</time></trkpt><trkpt lat="45.7081416" lon="8.476045"><ele>318.0</ele><time>2026-04-12T11:38:18.999Z</time></trkpt><trkpt lat="45.7082186" lon="8.4759988"><ele>318.0</ele><time>2026-04-12T11:38:19.999Z</time></trkpt><trkpt lat="45.7082965" lon="8.4759546"><ele>318.0</ele><time>2026-04-12T11:38:21Z</time></trkpt><trkpt lat="45.7083688" lon="8.4759141"><ele>318.0</ele><time>2026-04-12T11:38:21.999Z</time></trkpt><trkpt lat="45.7084433" lon="8.4758733"><ele>318.0</ele><time>2026-04-12T11:38:23Z</time></trkpt><trkpt lat="45.7085241" lon="8.475839"><ele>318.0</ele><time>2026-04-12T11:38:23.999Z</time></trkpt><trkpt lat="45.7085999" lon="8.4758118"><ele>318.0</ele><time>2026-04-12T11:38:25Z</time></trkpt><trkpt lat="45.7086861" lon="8.4757796"><ele>318.0</ele><time>2026-04-12T11:38:26Z</time></trkpt><trkpt lat="45.7087647" lon="8.4757472"><ele>318.0</ele><time>2026-04-12T11:38:26.999Z</time></trkpt><trkpt lat="45.7088416" lon="8.475712"><ele>318.0</ele><time>2026-04-12T11:38:28Z</time></trkpt><trkpt lat="45.7089137" lon="8.4756737"><ele>318.3333333333333</ele><time>2026-04-12T11:38:28.999Z</time></trkpt><trkpt lat="45.7089952" lon="8.4756421"><ele>318.6666666666667</ele><time>2026-04-12T11:38:29.999Z</time></trkpt><trkpt lat="45.7090804" lon="8.475617"><ele>319.0</ele><time>2026-04-12T11:38:30.999Z</time></trkpt><trkpt lat="45.709168" lon="8.4755976"><ele>319.33333333333337</ele><time>2026-04-12T11:38:31.999Z</time></trkpt><trkpt lat="45.7092513" lon="8.4755704"><ele>319.6666666666667</ele><time>2026-04-12T11:38:32.999Z</time></trkpt><trkpt lat="45.7093352" lon="8.4755418"><ele>320.0</ele><time>2026-04-12T11:38:33.999Z</time></trkpt><trkpt lat="45.709408" lon="8.4755196"><ele>319.8</ele><time>2026-04-12T11:38:34.999Z</time></trkpt><trkpt lat="45.7095081" lon="8.4754908"><ele>319.6</ele><time>2026-04-12T11:38:36.999Z</time></trkpt><trkpt lat="45.709614" lon="8.4754752"><ele>319.4</ele><time>2026-04-12T11:38:39Z</time></trkpt><trkpt lat="45.7096935" lon="8.4753692"><ele>319.2</ele><time>2026-04-12T11:38:40.999Z</time></trkpt><trkpt lat="45.7097159" lon="8.4752357"><ele>319.0</ele><time>2026-04-12T11:38:43Z</time></trkpt><trkpt lat="45.7096829" lon="8.4751412"><ele>319.0</ele><time>2026-04-12T11:38:43.999Z</time></trkpt><trkpt lat="45.7096288" lon="8.4750147"><ele>319.0</ele><time>2026-04-12T11:38:44.999Z</time></trkpt><trkpt lat="45.709575" lon="8.4748668"><ele>319.0</ele><time>2026-04-12T11:38:46Z</time></trkpt><trkpt lat="45.7095334" lon="8.474703"><ele>319.0</ele><time>2026-04-12T11:38:47Z</time></trkpt><trkpt lat="45.7095017" lon="8.4745408"><ele>318.59999999999997</ele><time>2026-04-12T11:38:48Z</time></trkpt><trkpt lat="45.7094761" lon="8.4743867"><ele>318.2</ele><time>2026-04-12T11:38:48.999Z</time></trkpt><trkpt lat="45.709453" lon="8.4742493"><ele>317.79999999999995</ele><time>2026-04-12T11:38:50Z</time></trkpt><trkpt lat="45.7094371" lon="8.4741301"><ele>317.4</ele><time>2026-04-12T11:38:50.999Z</time></trkpt><trkpt lat="45.7094018" lon="8.4739687"><ele>317.0</ele><time>2026-04-12T11:38:53Z</time></trkpt><trkpt lat="45.7093591" lon="8.4738912"><ele>316.8</ele><time>2026-04-12T11:38:53.999Z</time></trkpt><trkpt lat="45.7092978" lon="8.4738126"><ele>316.6</ele><time>2026-04-12T11:38:54.999Z</time></trkpt><trkpt lat="45.7092301" lon="8.4737046"><ele>316.40000000000003</ele><time>2026-04-12T11:38:55.999Z</time></trkpt><trkpt lat="45.7091655" lon="8.4735826"><ele>316.2</ele><time>2026-04-12T11:38:57Z</time></trkpt><trkpt lat="45.7090944" lon="8.4734521"><ele>316.0</ele><time>2026-04-12T11:38:58Z</time></trkpt><trkpt lat="45.7090221" lon="8.4733227"><ele>316.0</ele><time>2026-04-12T11:38:58.999Z</time></trkpt><trkpt lat="45.7089494" lon="8.4732073"><ele>316.0</ele><time>2026-04-12T11:38:59.999Z</time></trkpt><trkpt lat="45.7088654" lon="8.4730998"><ele>316.0</ele><time>2026-04-12T11:39:01Z</time></trkpt><trkpt lat="45.7087914" lon="8.4729805"><ele>316.0</ele><time>2026-04-12T11:39:01.999Z</time></trkpt><trkpt lat="45.7087249" lon="8.4728506"><ele>316.0</ele><time>2026-04-12T11:39:03Z</time></trkpt><trkpt lat="45.7086645" lon="8.4727216"><ele>316.0</ele><time>2026-04-12T11:39:04Z</time></trkpt><trkpt lat="45.7086107" lon="8.4725896"><ele>316.0</ele><time>2026-04-12T11:39:05Z</time></trkpt><trkpt lat="45.70856" lon="8.4724692"><ele>316.0</ele><time>2026-04-12T11:39:05.999Z</time></trkpt><trkpt lat="45.7085056" lon="8.4723725"><ele>316.0</ele><time>2026-04-12T11:39:06.999Z</time></trkpt><trkpt lat="45.7084423" lon="8.4722936"><ele>316.0</ele><time>2026-04-12T11:39:07.999Z</time></trkpt><trkpt lat="45.7083765" lon="8.4722437"><ele>316.16666666666663</ele><time>2026-04-12T11:39:08.999Z</time></trkpt><trkpt lat="45.7082966" lon="8.472204"><ele>316.3333333333333</ele><time>2026-04-12T11:39:10Z</time></trkpt><trkpt lat="45.7082106" lon="8.4721658"><ele>316.5</ele><time>2026-04-12T11:39:11Z</time></trkpt><trkpt lat="45.7081186" lon="8.4721323"><ele>316.6666666666667</ele><time>2026-04-12T11:39:12Z</time></trkpt><trkpt lat="45.7080359" lon="8.4721066"><ele>316.83333333333337</ele><time>2026-04-12T11:39:13Z</time></trkpt><trkpt lat="45.7079636" lon="8.4720815"><ele>317.0</ele><time>2026-04-12T11:39:13.999Z</time></trkpt><trkpt lat="45.7078914" lon="8.4720623"><ele>317.0</ele><time>2026-04-12T11:39:14.999Z</time></trkpt><trkpt lat="45.7077916" lon="8.4720088"><ele>317.0</ele><time>2026-04-12T11:39:16.999Z</time></trkpt><trkpt lat="45.70775" lon="8.4719077"><ele>317.0</ele><time>2026-04-12T11:39:18.999Z</time></trkpt><trkpt lat="45.7077418" lon="8.4718124"><ele>317.0</ele><time>2026-04-12T11:39:19.999Z</time></trkpt><trkpt lat="45.7077337" lon="8.4716881"><ele>317.0</ele><time>2026-04-12T11:39:20.999Z</time></trkpt><trkpt lat="45.7077344" lon="8.4715391"><ele>317.0</ele><time>2026-04-12T11:39:21.999Z</time></trkpt><trkpt lat="45.7077331" lon="8.471384"><ele>317.0</ele><time>2026-04-12T11:39:23Z</time></trkpt><trkpt lat="45.7077291" lon="8.4712298"><ele>317.0</ele><time>2026-04-12T11:39:24Z</time></trkpt><trkpt lat="45.7077279" lon="8.4710835"><ele>317.0</ele><time>2026-04-12T11:39:24.999Z</time></trkpt><trkpt lat="45.7077257" lon="8.4709484"><ele>317.0</ele><time>2026-04-12T11:39:25.999Z</time></trkpt><trkpt lat="45.7077332" lon="8.4708185"><ele>317.0</ele><time>2026-04-12T11:39:27Z</time></trkpt><trkpt lat="45.7077526" lon="8.4706954"><ele>317.0</ele><time>2026-04-12T11:39:28Z</time></trkpt><trkpt lat="45.7077849" lon="8.4705818"><ele>317.0</ele><time>2026-04-12T11:39:28.999Z</time></trkpt><trkpt lat="45.7078127" lon="8.4704925"><ele>317.0</ele><time>2026-04-12T11:39:29.999Z</time></trkpt><trkpt lat="45.7078533" lon="8.4703803"><ele>317.0</ele><time>2026-04-12T11:39:31.999Z</time></trkpt><trkpt lat="45.7079512" lon="8.4704104"><ele>317.0</ele><time>2026-04-12T11:39:33.999Z</time></trkpt><trkpt lat="45.7080095" lon="8.4704636"><ele>317.0</ele><time>2026-04-12T11:39:35Z</time></trkpt><trkpt lat="45.7080624" lon="8.4705195"><ele>317.0</ele><time>2026-04-12T11:39:35.999Z</time></trkpt><trkpt lat="45.7081459" lon="8.4706056"><ele>317.0</ele><time>2026-04-12T11:39:37.999Z</time></trkpt><trkpt lat="45.7082057" lon="8.4706541"><ele>317.0</ele><time>2026-04-12T11:39:39.999Z</time></trkpt><trkpt lat="45.7082505" lon="8.4705845"><ele>317.0</ele><time>2026-04-12T11:39:55.999Z</time></trkpt><trkpt lat="45.7082192" lon="8.4704399"><ele>317.0</ele><time>2026-04-12T11:39:58Z</time></trkpt><trkpt lat="45.7081167" lon="8.4703275"><ele>317.0</ele><time>2026-04-12T11:40:00Z</time></trkpt><trkpt lat="45.7080594" lon="8.4702737"><ele>317.0</ele><time>2026-04-12T11:40:00.999Z</time></trkpt><trkpt lat="45.7080054" lon="8.4702081"><ele>317.0</ele><time>2026-04-12T11:40:01.999Z</time></trkpt><trkpt lat="45.7079383" lon="8.4701383"><ele>317.0</ele><time>2026-04-12T11:40:03Z</time></trkpt><trkpt lat="45.7078633" lon="8.4700717"><ele>317.0</ele><time>2026-04-12T11:40:03.999Z</time></trkpt><trkpt lat="45.7077983" lon="8.4700217"><ele>317.0</ele><time>2026-04-12T11:40:04.999Z</time></trkpt><trkpt lat="45.7077433" lon="8.469975"><ele>317.0</ele><time>2026-04-12T11:40:06Z</time></trkpt><trkpt lat="45.7077083" lon="8.46988"><ele>317.0</ele><time>2026-04-12T11:40:07.999Z</time></trkpt><trkpt lat="45.7077633" lon="8.46979"><ele>317.0</ele><time>2026-04-12T11:40:09.999Z</time></trkpt><trkpt lat="45.7078167" lon="8.4696417"><ele>317.0</ele><time>2026-04-12T11:40:11.999Z</time></trkpt><trkpt lat="45.7078233" lon="8.4695417"><ele>317.0</ele><time>2026-04-12T11:40:12.999Z</time></trkpt><trkpt lat="45.7078083" lon="8.4694467"><ele>317.0</ele><time>2026-04-12T11:40:14Z</time></trkpt><trkpt lat="45.70777" lon="8.4693433"><ele>317.0</ele><time>2026-04-12T11:40:14.999Z</time></trkpt><trkpt lat="45.7077217" lon="8.4692317"><ele>316.8</ele><time>2026-04-12T11:40:15.999Z</time></trkpt><trkpt lat="45.7076733" lon="8.4691333"><ele>316.6</ele><time>2026-04-12T11:40:16.999Z</time></trkpt><trkpt lat="45.7076267" lon="8.46901"><ele>316.40000000000003</ele><time>2026-04-12T11:40:17.999Z</time></trkpt><trkpt lat="45.7075717" lon="8.468885"><ele>316.2</ele><time>2026-04-12T11:40:19Z</time></trkpt><trkpt lat="45.7075167" lon="8.468755"><ele>316.0</ele><time>2026-04-12T11:40:19.999Z</time></trkpt><trkpt lat="45.707455" lon="8.4686217"><ele>315.8</ele><time>2026-04-12T11:40:21Z</time></trkpt><trkpt lat="45.7073867" lon="8.468495"><ele>315.6</ele><time>2026-04-12T11:40:21.999Z</time></trkpt><trkpt lat="45.7073267" lon="8.4683667"><ele>315.4</ele><time>2026-04-12T11:40:22.999Z</time></trkpt><trkpt lat="45.7072667" lon="8.4682317"><ele>315.2</ele><time>2026-04-12T11:40:24Z</time></trkpt><trkpt lat="45.7072067" lon="8.4680883"><ele>315.0</ele><time>2026-04-12T11:40:25Z</time></trkpt><trkpt lat="45.7071467" lon="8.4679483"><ele>314.5</ele><time>2026-04-12T11:40:25.999Z</time></trkpt><trkpt lat="45.7070767" lon="8.467795"><ele>314.0</ele><time>2026-04-12T11:40:27Z</time></trkpt><trkpt lat="45.7070033" lon="8.4676317"><ele>313.5</ele><time>2026-04-12T11:40:27.999Z</time></trkpt><trkpt lat="45.7069283" lon="8.46747"><ele>313.0</ele><time>2026-04-12T11:40:28.999Z</time></trkpt><trkpt lat="45.7068533" lon="8.4673183"><ele>313.0</ele><time>2026-04-12T11:40:29.999Z</time></trkpt><trkpt lat="45.706775" lon="8.467175"><ele>313.0</ele><time>2026-04-12T11:40:30.999Z</time></trkpt><trkpt lat="45.7067017" lon="8.4670283"><ele>313.0</ele><time>2026-04-12T11:40:31.999Z</time></trkpt><trkpt lat="45.7066183" lon="8.466885"><ele>313.0</ele><time>2026-04-12T11:40:32.999Z</time></trkpt><trkpt lat="45.7065367" lon="8.4667517"><ele>313.2</ele><time>2026-04-12T11:40:34Z</time></trkpt><trkpt lat="45.70646" lon="8.4666283"><ele>313.4</ele><time>2026-04-12T11:40:35Z</time></trkpt><trkpt lat="45.7063833" lon="8.4665083"><ele>313.59999999999997</ele><time>2026-04-12T11:40:35.999Z</time></trkpt><trkpt lat="45.706305" lon="8.4663917"><ele>313.8</ele><time>2026-04-12T11:40:36.999Z</time></trkpt><trkpt lat="45.706225" lon="8.4662917"><ele>314.0</ele><time>2026-04-12T11:40:37.999Z</time></trkpt><trkpt lat="45.7061483" lon="8.4661917"><ele>314.0</ele><time>2026-04-12T11:40:38.999Z</time></trkpt><trkpt lat="45.7060767" lon="8.4660967"><ele>314.0</ele><time>2026-04-12T11:40:39.999Z</time></trkpt><trkpt lat="45.706005" lon="8.4660183"><ele>314.0</ele><time>2026-04-12T11:40:41Z</time></trkpt><trkpt lat="45.7059417" lon="8.465955"><ele>314.0</ele><time>2026-04-12T11:40:41.999Z</time></trkpt><trkpt lat="45.7058717" lon="8.4658583"><ele>314.0</ele><time>2026-04-12T11:40:44Z</time></trkpt><trkpt lat="45.7059183" lon="8.4657683"><ele>314.0</ele><time>2026-04-12T11:40:47Z</time></trkpt><trkpt lat="45.70598" lon="8.4657433"><ele>314.0</ele><time>2026-04-12T11:40:47.999Z</time></trkpt><trkpt lat="45.7060583" lon="8.4657183"><ele>314.0</ele><time>2026-04-12T11:40:48.999Z</time></trkpt><trkpt lat="45.706155" lon="8.4657117"><ele>314.0</ele><time>2026-04-12T11:40:49.999Z</time></trkpt><trkpt lat="45.7062617" lon="8.4657083"><ele>314.0</ele><time>2026-04-12T11:40:50.999Z</time></trkpt><trkpt lat="45.7063683" lon="8.46569"><ele>314.0</ele><time>2026-04-12T11:40:52Z</time></trkpt><trkpt lat="45.7064717" lon="8.4656633"><ele>314.2</ele><time>2026-04-12T11:40:53Z</time></trkpt><trkpt lat="45.70658" lon="8.46563"><ele>314.4</ele><time>2026-04-12T11:40:54Z</time></trkpt><trkpt lat="45.7066883" lon="8.4655883"><ele>314.6</ele><time>2026-04-12T11:40:55Z</time></trkpt><trkpt lat="45.7067917" lon="8.4655667"><ele>314.8</ele><time>2026-04-12T11:40:55.999Z</time></trkpt><trkpt lat="45.7068917" lon="8.465545"><ele>315.0</ele><time>2026-04-12T11:40:56.999Z</time></trkpt><trkpt lat="45.70699" lon="8.465505"><ele>315.0</ele><time>2026-04-12T11:40:58Z</time></trkpt><trkpt lat="45.7070833" lon="8.4654817"><ele>315.0</ele><time>2026-04-12T11:40:59Z</time></trkpt><trkpt lat="45.707155" lon="8.4654567"><ele>315.0</ele><time>2026-04-12T11:40:59.999Z</time></trkpt><trkpt lat="45.7072183" lon="8.465455"><ele>315.0</ele><time>2026-04-12T11:41:00.999Z</time></trkpt><trkpt lat="45.7073483" lon="8.46544"><ele>315.0</ele><time>2026-04-12T11:41:03Z</time></trkpt><trkpt lat="45.7074267" lon="8.4654417"><ele>315.0</ele><time>2026-04-12T11:41:03.999Z</time></trkpt><trkpt lat="45.707505" lon="8.4654483"><ele>315.14285714285717</ele><time>2026-04-12T11:41:04.999Z</time></trkpt><trkpt lat="45.70757" lon="8.4654733"><ele>315.2857142857143</ele><time>2026-04-12T11:41:05.999Z</time></trkpt><trkpt lat="45.7076283" lon="8.4655083"><ele>315.42857142857144</ele><time>2026-04-12T11:41:06.999Z</time></trkpt><trkpt lat="45.7076883" lon="8.4655617"><ele>315.57142857142856</ele><time>2026-04-12T11:41:07.999Z</time></trkpt><trkpt lat="45.7077383" lon="8.4656267"><ele>315.7142857142857</ele><time>2026-04-12T11:41:08.999Z</time></trkpt><trkpt lat="45.7077817" lon="8.46571"><ele>315.8571428571429</ele><time>2026-04-12T11:41:09.999Z</time></trkpt><trkpt lat="45.7078117" lon="8.4657933"><ele>316.0</ele><time>2026-04-12T11:41:10.999Z</time></trkpt><trkpt lat="45.7078933" lon="8.46588"><ele>316.0</ele><time>2026-04-12T11:41:13Z</time></trkpt><trkpt lat="45.7080217" lon="8.4658933"><ele>316.0</ele><time>2026-04-12T11:41:14.999Z</time></trkpt><trkpt lat="45.7080917" lon="8.4658883"><ele>316.0</ele><time>2026-04-12T11:41:15.999Z</time></trkpt><trkpt lat="45.7081817" lon="8.4658967"><ele>316.0</ele><time>2026-04-12T11:41:16.999Z</time></trkpt><trkpt lat="45.7082667" lon="8.4659083"><ele>316.0</ele><time>2026-04-12T11:41:17.999Z</time></trkpt><trkpt lat="45.708365" lon="8.465915"><ele>316.0</ele><time>2026-04-12T11:41:18.999Z</time></trkpt><trkpt lat="45.708465" lon="8.4659333"><ele>316.0</ele><time>2026-04-12T11:41:19.999Z</time></trkpt><trkpt lat="45.708585" lon="8.4659383"><ele>316.0</ele><time>2026-04-12T11:41:20.999Z</time></trkpt><trkpt lat="45.7087083" lon="8.46593"><ele>316.0</ele><time>2026-04-12T11:41:21.999Z</time></trkpt><trkpt lat="45.7088167" lon="8.4659317"><ele>316.40000000000003</ele><time>2026-04-12T11:41:22.999Z</time></trkpt><trkpt lat="45.7089283" lon="8.4659383"><ele>316.8</ele><time>2026-04-12T11:41:24Z</time></trkpt><trkpt lat="45.7090383" lon="8.465955"><ele>317.20000000000005</ele><time>2026-04-12T11:41:25Z</time></trkpt><trkpt lat="45.7091433" lon="8.46597"><ele>317.6</ele><time>2026-04-12T11:41:25.999Z</time></trkpt><trkpt lat="45.7092567" lon="8.46598"><ele>318.0</ele><time>2026-04-12T11:41:26.999Z</time></trkpt><trkpt lat="45.7093733" lon="8.4659833"><ele>317.8</ele><time>2026-04-12T11:41:27.999Z</time></trkpt><trkpt lat="45.70948" lon="8.4659917"><ele>317.6</ele><time>2026-04-12T11:41:29Z</time></trkpt><trkpt lat="45.7095833" lon="8.46599"><ele>317.4</ele><time>2026-04-12T11:41:30Z</time></trkpt><trkpt lat="45.7096967" lon="8.4659917"><ele>317.2</ele><time>2026-04-12T11:41:30.999Z</time></trkpt><trkpt lat="45.7098117" lon="8.465995"><ele>317.0</ele><time>2026-04-12T11:41:31.999Z</time></trkpt><trkpt lat="45.70992" lon="8.4660067"><ele>317.0</ele><time>2026-04-12T11:41:32.999Z</time></trkpt><trkpt lat="45.7100317" lon="8.4660117"><ele>317.0</ele><time>2026-04-12T11:41:34Z</time></trkpt><trkpt lat="45.7101333" lon="8.4660183"><ele>317.0</ele><time>2026-04-12T11:41:34.999Z</time></trkpt><trkpt lat="45.7102333" lon="8.4660233"><ele>317.0</ele><time>2026-04-12T11:41:35.999Z</time></trkpt><trkpt lat="45.710335" lon="8.4660233"><ele>317.0</ele><time>2026-04-12T11:41:37Z</time></trkpt><trkpt lat="45.7104317" lon="8.4660317"><ele>317.4</ele><time>2026-04-12T11:41:37.999Z</time></trkpt><trkpt lat="45.7105333" lon="8.466025"><ele>317.79999999999995</ele><time>2026-04-12T11:41:38.999Z</time></trkpt><trkpt lat="45.710605" lon="8.4660267"><ele>318.2</ele><time>2026-04-12T11:41:39.999Z</time></trkpt><trkpt lat="45.7107117" lon="8.466045"><ele>318.59999999999997</ele><time>2026-04-12T11:41:41.999Z</time></trkpt><trkpt lat="45.7107983" lon="8.4659933"><ele>319.0</ele><time>2026-04-12T11:41:43.999Z</time></trkpt><trkpt lat="45.7108567" lon="8.465865"><ele>319.0</ele><time>2026-04-12T11:41:46Z</time></trkpt><trkpt lat="45.7109517" lon="8.465755"><ele>319.0</ele><time>2026-04-12T11:41:47.999Z</time></trkpt><trkpt lat="45.7110167" lon="8.465705"><ele>319.0</ele><time>2026-04-12T11:41:48.999Z</time></trkpt><trkpt lat="45.7110933" lon="8.4656583"><ele>319.0</ele><time>2026-04-12T11:41:49.999Z</time></trkpt><trkpt lat="45.7111683" lon="8.4656117"><ele>319.0</ele><time>2026-04-12T11:41:51Z</time></trkpt><trkpt lat="45.7112517" lon="8.4655767"><ele>319.0</ele><time>2026-04-12T11:41:51.999Z</time></trkpt><trkpt lat="45.7113267" lon="8.4655483"><ele>319.6</ele><time>2026-04-12T11:41:53Z</time></trkpt><trkpt lat="45.711405" lon="8.4655283"><ele>320.2</ele><time>2026-04-12T11:41:53.999Z</time></trkpt><trkpt lat="45.711495" lon="8.4655083"><ele>320.8</ele><time>2026-04-12T11:41:55Z</time></trkpt><trkpt lat="45.7115833" lon="8.4654783"><ele>321.40000000000003</ele><time>2026-04-12T11:41:55.999Z</time></trkpt><trkpt lat="45.7116783" lon="8.4654583"><ele>322.0</ele><time>2026-04-12T11:41:57Z</time></trkpt><trkpt lat="45.7117817" lon="8.4654383"><ele>322.0</ele><time>2026-04-12T11:41:57.999Z</time></trkpt><trkpt lat="45.7118883" lon="8.4654117"><ele>322.0</ele><time>2026-04-12T11:41:58.999Z</time></trkpt><trkpt lat="45.71198" lon="8.465395"><ele>322.0</ele><time>2026-04-12T11:42:00Z</time></trkpt><trkpt lat="45.712065" lon="8.4653667"><ele>322.0</ele><time>2026-04-12T11:42:01Z</time></trkpt><trkpt lat="45.7121517" lon="8.465335"><ele>322.0</ele><time>2026-04-12T11:42:02Z</time></trkpt><trkpt lat="45.7122433" lon="8.4653067"><ele>322.25</ele><time>2026-04-12T11:42:02.999Z</time></trkpt><trkpt lat="45.7123583" lon="8.46526"><ele>322.5</ele><time>2026-04-12T11:42:03.999Z</time></trkpt><trkpt lat="45.7124633" lon="8.4652117"><ele>322.75</ele><time>2026-04-12T11:42:04.999Z</time></trkpt><trkpt lat="45.7125667" lon="8.4651633"><ele>323.0</ele><time>2026-04-12T11:42:06Z</time></trkpt><trkpt lat="45.712675" lon="8.46511"><ele>322.59999999999997</ele><time>2026-04-12T11:42:06.999Z</time></trkpt><trkpt lat="45.71278" lon="8.465055"><ele>322.2</ele><time>2026-04-12T11:42:07.999Z</time></trkpt><trkpt lat="45.7128733" lon="8.4650067"><ele>321.8</ele><time>2026-04-12T11:42:08.999Z</time></trkpt><trkpt lat="45.71298" lon="8.4649517"><ele>321.4</ele><time>2026-04-12T11:42:09.999Z</time></trkpt><trkpt lat="45.71308" lon="8.4648783"><ele>321.0</ele><time>2026-04-12T11:42:11Z</time></trkpt><trkpt lat="45.713185" lon="8.4647983"><ele>321.0</ele><time>2026-04-12T11:42:11.999Z</time></trkpt><trkpt lat="45.7132867" lon="8.46471"><ele>321.0</ele><time>2026-04-12T11:42:12.999Z</time></trkpt><trkpt lat="45.713385" lon="8.46463"><ele>321.0</ele><time>2026-04-12T11:42:13.999Z</time></trkpt><trkpt lat="45.7134867" lon="8.464555"><ele>321.0</ele><time>2026-04-12T11:42:15Z</time></trkpt><trkpt lat="45.713595" lon="8.46448"><ele>321.75</ele><time>2026-04-12T11:42:15.999Z</time></trkpt><trkpt lat="45.7137017" lon="8.4643983"><ele>322.5</ele><time>2026-04-12T11:42:16.999Z</time></trkpt><trkpt lat="45.7138033" lon="8.464315"><ele>323.25</ele><time>2026-04-12T11:42:18Z</time></trkpt><trkpt lat="45.7139017" lon="8.4642283"><ele>324.0</ele><time>2026-04-12T11:42:18.999Z</time></trkpt><trkpt lat="45.71399" lon="8.464145"><ele>324.0</ele><time>2026-04-12T11:42:19.999Z</time></trkpt><trkpt lat="45.7140767" lon="8.46407"><ele>324.0</ele><time>2026-04-12T11:42:20.999Z</time></trkpt><trkpt lat="45.7141583" lon="8.4640067"><ele>324.0</ele><time>2026-04-12T11:42:21.999Z</time></trkpt><trkpt lat="45.7142533" lon="8.46394"><ele>324.0</ele><time>2026-04-12T11:42:22.999Z</time></trkpt><trkpt lat="45.7143583" lon="8.463875"><ele>324.0</ele><time>2026-04-12T11:42:23.999Z</time></trkpt><trkpt lat="45.7144533" lon="8.463815"><ele>323.79999999999995</ele><time>2026-04-12T11:42:25Z</time></trkpt><trkpt lat="45.714565" lon="8.4637517"><ele>323.59999999999997</ele><time>2026-04-12T11:42:25.999Z</time></trkpt><trkpt lat="45.71467" lon="8.4636983"><ele>323.4</ele><time>2026-04-12T11:42:26.999Z</time></trkpt><trkpt lat="45.71477" lon="8.4636517"><ele>323.2</ele><time>2026-04-12T11:42:27.999Z</time></trkpt><trkpt lat="45.7148717" lon="8.46361"><ele>323.0</ele><time>2026-04-12T11:42:28.999Z</time></trkpt><trkpt lat="45.7149683" lon="8.46357"><ele>323.0</ele><time>2026-04-12T11:42:29.999Z</time></trkpt><trkpt lat="45.7150633" lon="8.4635433"><ele>323.0</ele><time>2026-04-12T11:42:31Z</time></trkpt><trkpt lat="45.7151417" lon="8.46353"><ele>323.0</ele><time>2026-04-12T11:42:32Z</time></trkpt><trkpt lat="45.7152583" lon="8.46345"><ele>323.0</ele><time>2026-04-12T11:42:33.999Z</time></trkpt><trkpt lat="45.7153117" lon="8.4633783"><ele>323.0</ele><time>2026-04-12T11:42:34.999Z</time></trkpt><trkpt lat="45.715365" lon="8.4633"><ele>323.5</ele><time>2026-04-12T11:42:35.999Z</time></trkpt><trkpt lat="45.7154167" lon="8.4632267"><ele>324.0</ele><time>2026-04-12T11:42:37Z</time></trkpt><trkpt lat="45.7154583" lon="8.4631533"><ele>324.5</ele><time>2026-04-12T11:42:37.999Z</time></trkpt><trkpt lat="45.715515" lon="8.46307"><ele>325.0</ele><time>2026-04-12T11:42:39Z</time></trkpt><trkpt lat="45.7155833" lon="8.4629767"><ele>325.5</ele><time>2026-04-12T11:42:40Z</time></trkpt><trkpt lat="45.7156483" lon="8.4628783"><ele>326.0</ele><time>2026-04-12T11:42:40.999Z</time></trkpt><trkpt lat="45.7157083" lon="8.4627967"><ele>326.1666666666667</ele><time>2026-04-12T11:42:42Z</time></trkpt><trkpt lat="45.715765" lon="8.4627333"><ele>326.33333333333337</ele><time>2026-04-12T11:42:42.999Z</time></trkpt><trkpt lat="45.71583" lon="8.4626733"><ele>326.5</ele><time>2026-04-12T11:42:43.999Z</time></trkpt><trkpt lat="45.7158983" lon="8.4626117"><ele>326.6666666666667</ele><time>2026-04-12T11:42:45Z</time></trkpt><trkpt lat="45.7159533" lon="8.4625333"><ele>326.8333333333333</ele><time>2026-04-12T11:42:45.999Z</time></trkpt><trkpt lat="45.716005" lon="8.46244"><ele>327.0</ele><time>2026-04-12T11:42:46.999Z</time></trkpt><trkpt lat="45.7160683" lon="8.46234"><ele>326.8333333333333</ele><time>2026-04-12T11:42:47.999Z</time></trkpt><trkpt lat="45.7161267" lon="8.4622567"><ele>326.6666666666667</ele><time>2026-04-12T11:42:49Z</time></trkpt><trkpt lat="45.71619" lon="8.4622"><ele>326.5</ele><time>2026-04-12T11:42:49.999Z</time></trkpt><trkpt lat="45.7162517" lon="8.4621133"><ele>326.33333333333337</ele><time>2026-04-12T11:42:51Z</time></trkpt><trkpt lat="45.7163083" lon="8.462025"><ele>326.1666666666667</ele><time>2026-04-12T11:42:52Z</time></trkpt><trkpt lat="45.71636" lon="8.4619383"><ele>326.0</ele><time>2026-04-12T11:42:52.999Z</time></trkpt><trkpt lat="45.716415" lon="8.4618617"><ele>326.0</ele><time>2026-04-12T11:42:54Z</time></trkpt><trkpt lat="45.7164833" lon="8.4617883"><ele>326.0</ele><time>2026-04-12T11:42:54.999Z</time></trkpt><trkpt lat="45.716555" lon="8.461715"><ele>326.0</ele><time>2026-04-12T11:42:55.999Z</time></trkpt><trkpt lat="45.7166083" lon="8.461655"><ele>326.0</ele><time>2026-04-12T11:42:56.999Z</time></trkpt><trkpt lat="45.716675" lon="8.461575"><ele>326.0</ele><time>2026-04-12T11:42:58Z</time></trkpt><trkpt lat="45.7167367" lon="8.4614983"><ele>326.0</ele><time>2026-04-12T11:42:58.999Z</time></trkpt><trkpt lat="45.7168133" lon="8.46144"><ele>326.0</ele><time>2026-04-12T11:43:00Z</time></trkpt><trkpt lat="45.716895" lon="8.4613867"><ele>326.0</ele><time>2026-04-12T11:43:00.999Z</time></trkpt><trkpt lat="45.7169717" lon="8.4613533"><ele>326.0</ele><time>2026-04-12T11:43:02Z</time></trkpt><trkpt lat="45.7170417" lon="8.4613283"><ele>326.0</ele><time>2026-04-12T11:43:03Z</time></trkpt><trkpt lat="45.71712" lon="8.46128"><ele>326.0</ele><time>2026-04-12T11:43:04.999Z</time></trkpt><trkpt lat="45.7172083" lon="8.4612867"><ele>326.0</ele><time>2026-04-12T11:43:08.999Z</time></trkpt><trkpt lat="45.7172783" lon="8.4612383"><ele>326.0</ele><time>2026-04-12T11:43:10.999Z</time></trkpt><trkpt lat="45.7173433" lon="8.4611833"><ele>326.0</ele><time>2026-04-12T11:43:17.999Z</time></trkpt><trkpt lat="45.71745" lon="8.4610733"><ele>326.0</ele><time>2026-04-12T11:43:19.999Z</time></trkpt><trkpt lat="45.7175117" lon="8.4610217"><ele>326.0</ele><time>2026-04-12T11:43:20.999Z</time></trkpt><trkpt lat="45.7175933" lon="8.4609867"><ele>326.0</ele><time>2026-04-12T11:43:21.999Z</time></trkpt><trkpt lat="45.717655" lon="8.46096"><ele>326.0</ele><time>2026-04-12T11:43:22.999Z</time></trkpt><trkpt lat="45.7177183" lon="8.46092"><ele>326.0</ele><time>2026-04-12T11:43:24Z</time></trkpt><trkpt lat="45.7177917" lon="8.4608667"><ele>326.0</ele><time>2026-04-12T11:43:25Z</time></trkpt><trkpt lat="45.7178683" lon="8.460815"><ele>326.0</ele><time>2026-04-12T11:43:26Z</time></trkpt><trkpt lat="45.7179383" lon="8.460755"><ele>326.0</ele><time>2026-04-12T11:43:26.999Z</time></trkpt><trkpt lat="45.7180133" lon="8.460705"><ele>326.0</ele><time>2026-04-12T11:43:27.999Z</time></trkpt><trkpt lat="45.71809" lon="8.46065"><ele>326.0</ele><time>2026-04-12T11:43:28.999Z</time></trkpt><trkpt lat="45.7181733" lon="8.4605867"><ele>326.0</ele><time>2026-04-12T11:43:29.999Z</time></trkpt><trkpt lat="45.7182583" lon="8.460525"><ele>326.0</ele><time>2026-04-12T11:43:30.999Z</time></trkpt><trkpt lat="45.7183383" lon="8.46046"><ele>326.0</ele><time>2026-04-12T11:43:32Z</time></trkpt><trkpt lat="45.7184033" lon="8.4604033"><ele>326.0</ele><time>2026-04-12T11:43:33Z</time></trkpt><trkpt lat="45.7184633" lon="8.460345"><ele>326.0</ele><time>2026-04-12T11:43:33.999Z</time></trkpt><trkpt lat="45.7185217" lon="8.460295"><ele>326.0</ele><time>2026-04-12T11:43:35Z</time></trkpt><trkpt lat="45.7185933" lon="8.46027"><ele>326.14285714285717</ele><time>2026-04-12T11:43:35.999Z</time></trkpt><trkpt lat="45.71866" lon="8.460265"><ele>326.2857142857143</ele><time>2026-04-12T11:43:36.999Z</time></trkpt><trkpt lat="45.71873" lon="8.460265"><ele>326.42857142857144</ele><time>2026-04-12T11:43:37.999Z</time></trkpt><trkpt lat="45.7187967" lon="8.460275"><ele>326.57142857142856</ele><time>2026-04-12T11:43:38.999Z</time></trkpt><trkpt lat="45.7188667" lon="8.4603017"><ele>326.7142857142857</ele><time>2026-04-12T11:43:39.999Z</time></trkpt><trkpt lat="45.718935" lon="8.4603283"><ele>326.85714285714283</ele><time>2026-04-12T11:43:40.999Z</time></trkpt><trkpt lat="45.7189967" lon="8.4603717"><ele>327.0</ele><time>2026-04-12T11:43:41.999Z</time></trkpt><trkpt lat="45.7190917" lon="8.4604"><ele>327.0</ele><time>2026-04-12T11:43:43.999Z</time></trkpt><trkpt lat="45.7192083" lon="8.460315"><ele>327.0</ele><time>2026-04-12T11:43:45.999Z</time></trkpt><trkpt lat="45.7193" lon="8.46027"><ele>327.0</ele><time>2026-04-12T11:43:46.999Z</time></trkpt><trkpt lat="45.719405" lon="8.4602167"><ele>327.0</ele><time>2026-04-12T11:43:47.999Z</time></trkpt><trkpt lat="45.7195117" lon="8.4601683"><ele>327.20000000000005</ele><time>2026-04-12T11:43:48.999Z</time></trkpt><trkpt lat="45.71961" lon="8.4601017"><ele>327.4</ele><time>2026-04-12T11:43:49.999Z</time></trkpt><trkpt lat="45.7197083" lon="8.460035"><ele>327.6</ele><time>2026-04-12T11:43:50.999Z</time></trkpt><trkpt lat="45.7198067" lon="8.459965"><ele>327.79999999999995</ele><time>2026-04-12T11:43:51.999Z</time></trkpt><trkpt lat="45.7199083" lon="8.4598917"><ele>328.0</ele><time>2026-04-12T11:43:53Z</time></trkpt><trkpt lat="45.7199867" lon="8.4598067"><ele>328.0</ele><time>2026-04-12T11:43:53.999Z</time></trkpt><trkpt lat="45.7200617" lon="8.4597433"><ele>328.0</ele><time>2026-04-12T11:43:54.999Z</time></trkpt><trkpt lat="45.720155" lon="8.4596683"><ele>328.0</ele><time>2026-04-12T11:43:55.999Z</time></trkpt><trkpt lat="45.7202483" lon="8.4595867"><ele>328.0</ele><time>2026-04-12T11:43:57Z</time></trkpt><trkpt lat="45.72033" lon="8.4594933"><ele>328.0</ele><time>2026-04-12T11:43:57.999Z</time></trkpt><trkpt lat="45.7204017" lon="8.4593933"><ele>328.16666666666663</ele><time>2026-04-12T11:43:59Z</time></trkpt><trkpt lat="45.7204717" lon="8.4592983"><ele>328.3333333333333</ele><time>2026-04-12T11:43:59.999Z</time></trkpt><trkpt lat="45.7205383" lon="8.4592083"><ele>328.5</ele><time>2026-04-12T11:44:01Z</time></trkpt><trkpt lat="45.720615" lon="8.4591367"><ele>328.6666666666667</ele><time>2026-04-12T11:44:01.999Z</time></trkpt><trkpt lat="45.7206817" lon="8.459095"><ele>328.83333333333337</ele><time>2026-04-12T11:44:02.999Z</time></trkpt><trkpt lat="45.7207517" lon="8.4590717"><ele>329.0</ele><time>2026-04-12T11:44:04Z</time></trkpt><trkpt lat="45.7208317" lon="8.4590667"><ele>329.0</ele><time>2026-04-12T11:44:04.999Z</time></trkpt><trkpt lat="45.7209133" lon="8.4590733"><ele>329.0</ele><time>2026-04-12T11:44:05.999Z</time></trkpt><trkpt lat="45.7209883" lon="8.4590767"><ele>329.0</ele><time>2026-04-12T11:44:06.999Z</time></trkpt><trkpt lat="45.7210633" lon="8.459055"><ele>329.0</ele><time>2026-04-12T11:44:08Z</time></trkpt><trkpt lat="45.7211467" lon="8.45902"><ele>329.0</ele><time>2026-04-12T11:44:08.999Z</time></trkpt><trkpt lat="45.72123" lon="8.4589767"><ele>329.0</ele><time>2026-04-12T11:44:09.999Z</time></trkpt><trkpt lat="45.7213183" lon="8.4589233"><ele>329.4</ele><time>2026-04-12T11:44:10.999Z</time></trkpt><trkpt lat="45.7214083" lon="8.4588717"><ele>329.79999999999995</ele><time>2026-04-12T11:44:11.999Z</time></trkpt><trkpt lat="45.7215067" lon="8.4588033"><ele>330.20000000000005</ele><time>2026-04-12T11:44:12.999Z</time></trkpt><trkpt lat="45.721605" lon="8.4587533"><ele>330.6</ele><time>2026-04-12T11:44:14Z</time></trkpt><trkpt lat="45.7217183" lon="8.45871"><ele>331.0</ele><time>2026-04-12T11:44:14.999Z</time></trkpt><trkpt lat="45.721835" lon="8.4586783"><ele>331.0</ele><time>2026-04-12T11:44:15.999Z</time></trkpt><trkpt lat="45.7219583" lon="8.45866"><ele>331.0</ele><time>2026-04-12T11:44:16.999Z</time></trkpt><trkpt lat="45.72207" lon="8.4586383"><ele>331.0</ele><time>2026-04-12T11:44:17.999Z</time></trkpt><trkpt lat="45.7221817" lon="8.45862"><ele>331.0</ele><time>2026-04-12T11:44:19Z</time></trkpt><trkpt lat="45.7222917" lon="8.4585817"><ele>331.0</ele><time>2026-04-12T11:44:19.999Z</time></trkpt><trkpt lat="45.7223933" lon="8.45855"><ele>331.0</ele><time>2026-04-12T11:44:21Z</time></trkpt><trkpt lat="45.7224833" lon="8.4585167"><ele>331.0</ele><time>2026-04-12T11:44:21.999Z</time></trkpt><trkpt lat="45.7225667" lon="8.4584933"><ele>331.0</ele><time>2026-04-12T11:44:23Z</time></trkpt><trkpt lat="45.7226417" lon="8.4584583"><ele>331.0</ele><time>2026-04-12T11:44:24Z</time></trkpt><trkpt lat="45.7227083" lon="8.45843"><ele>331.0</ele><time>2026-04-12T11:44:25Z</time></trkpt><trkpt lat="45.72277" lon="8.4583933"><ele>331.3333333333333</ele><time>2026-04-12T11:44:25.999Z</time></trkpt><trkpt lat="45.7228167" lon="8.4583283"><ele>331.66666666666663</ele><time>2026-04-12T11:44:26.999Z</time></trkpt><trkpt lat="45.7228167" lon="8.458185"><ele>332.0</ele><time>2026-04-12T11:44:29Z</time></trkpt><trkpt lat="45.7227883" lon="8.4581017"><ele>332.3333333333333</ele><time>2026-04-12T11:44:29.999Z</time></trkpt><trkpt lat="45.7228017" lon="8.4579567"><ele>332.6666666666667</ele><time>2026-04-12T11:44:31.999Z</time></trkpt><trkpt lat="45.7228883" lon="8.45787"><ele>333.0</ele><time>2026-04-12T11:44:33.999Z</time></trkpt><trkpt lat="45.722955" lon="8.45786"><ele>333.0</ele><time>2026-04-12T11:44:34.999Z</time></trkpt><trkpt lat="45.7230283" lon="8.4578367"><ele>333.0</ele><time>2026-04-12T11:44:35.999Z</time></trkpt><trkpt lat="45.723105" lon="8.4578217"><ele>333.0</ele><time>2026-04-12T11:44:36.999Z</time></trkpt><trkpt lat="45.7231833" lon="8.4577983"><ele>333.0</ele><time>2026-04-12T11:44:37.999Z</time></trkpt><trkpt lat="45.72327" lon="8.4577617"><ele>333.0</ele><time>2026-04-12T11:44:38.999Z</time></trkpt><trkpt lat="45.7233533" lon="8.4577167"><ele>333.0</ele><time>2026-04-12T11:44:39.999Z</time></trkpt><trkpt lat="45.7234383" lon="8.4576767"><ele>333.0</ele><time>2026-04-12T11:44:40.999Z</time></trkpt><trkpt lat="45.723525" lon="8.4576367"><ele>333.0</ele><time>2026-04-12T11:44:41.999Z</time></trkpt><trkpt lat="45.72361" lon="8.457595"><ele>333.0</ele><time>2026-04-12T11:44:42.999Z</time></trkpt><trkpt lat="45.72369" lon="8.45755"><ele>333.0</ele><time>2026-04-12T11:44:44Z</time></trkpt><trkpt lat="45.7237983" lon="8.4574767"><ele>333.0</ele><time>2026-04-12T11:44:44.999Z</time></trkpt><trkpt lat="45.7238917" lon="8.457405"><ele>333.4</ele><time>2026-04-12T11:44:45.999Z</time></trkpt><trkpt lat="45.7239833" lon="8.4573433"><ele>333.79999999999995</ele><time>2026-04-12T11:44:46.999Z</time></trkpt><trkpt lat="45.7240717" lon="8.4572817"><ele>334.2</ele><time>2026-04-12T11:44:48Z</time></trkpt><trkpt lat="45.7241683" lon="8.45723"><ele>334.6</ele><time>2026-04-12T11:44:49Z</time></trkpt><trkpt lat="45.7242467" lon="8.457195"><ele>335.0</ele><time>2026-04-12T11:44:49.999Z</time></trkpt><trkpt lat="45.7243217" lon="8.4571583"><ele>335.4</ele><time>2026-04-12T11:44:50.999Z</time></trkpt><trkpt lat="45.724405" lon="8.4571167"><ele>335.8</ele><time>2026-04-12T11:44:51.999Z</time></trkpt><trkpt lat="45.7244817" lon="8.457045"><ele>336.20000000000005</ele><time>2026-04-12T11:44:52.999Z</time></trkpt><trkpt lat="45.7245417" lon="8.4569467"><ele>336.6</ele><time>2026-04-12T11:44:53.999Z</time></trkpt><trkpt lat="45.724605" lon="8.4568433"><ele>337.0</ele><time>2026-04-12T11:44:54.999Z</time></trkpt><trkpt lat="45.72469" lon="8.45675"><ele>337.0</ele><time>2026-04-12T11:44:56Z</time></trkpt><trkpt lat="45.7247767" lon="8.456665"><ele>337.0</ele><time>2026-04-12T11:44:56.999Z</time></trkpt><trkpt lat="45.7248583" lon="8.4565983"><ele>337.0</ele><time>2026-04-12T11:44:58Z</time></trkpt><trkpt lat="45.7249217" lon="8.45654"><ele>337.0</ele><time>2026-04-12T11:44:58.999Z</time></trkpt><trkpt lat="45.7249917" lon="8.4564783"><ele>337.0</ele><time>2026-04-12T11:44:59.999Z</time></trkpt><trkpt lat="45.7250467" lon="8.45641"><ele>337.0</ele><time>2026-04-12T11:45:00.999Z</time></trkpt><trkpt lat="45.7251083" lon="8.4563067"><ele>337.0</ele><time>2026-04-12T11:45:01.999Z</time></trkpt><trkpt lat="45.7251567" lon="8.4561983"><ele>337.0</ele><time>2026-04-12T11:45:03Z</time></trkpt><trkpt lat="45.7252083" lon="8.4561083"><ele>337.0</ele><time>2026-04-12T11:45:04Z</time></trkpt><trkpt lat="45.7252717" lon="8.4560217"><ele>337.0</ele><time>2026-04-12T11:45:04.999Z</time></trkpt><trkpt lat="45.7253533" lon="8.4559417"><ele>337.0</ele><time>2026-04-12T11:45:05.999Z</time></trkpt><trkpt lat="45.7254467" lon="8.4558683"><ele>336.8</ele><time>2026-04-12T11:45:07Z</time></trkpt><trkpt lat="45.7255483" lon="8.4557933"><ele>336.6</ele><time>2026-04-12T11:45:08Z</time></trkpt><trkpt lat="45.7256417" lon="8.45571"><ele>336.40000000000003</ele><time>2026-04-12T11:45:08.999Z</time></trkpt><trkpt lat="45.7257267" lon="8.455615"><ele>336.20000000000005</ele><time>2026-04-12T11:45:10Z</time></trkpt><trkpt lat="45.72581" lon="8.4555267"><ele>336.0</ele><time>2026-04-12T11:45:10.999Z</time></trkpt><trkpt lat="45.7258767" lon="8.455445"><ele>336.0</ele><time>2026-04-12T11:45:11.999Z</time></trkpt><trkpt lat="45.7259533" lon="8.455375"><ele>336.0</ele><time>2026-04-12T11:45:13Z</time></trkpt><trkpt lat="45.7260333" lon="8.4553017"><ele>336.0</ele><time>2026-04-12T11:45:14Z</time></trkpt><trkpt lat="45.726115" lon="8.4552267"><ele>336.0</ele><time>2026-04-12T11:45:14.999Z</time></trkpt><trkpt lat="45.7261983" lon="8.4551717"><ele>336.0</ele><time>2026-04-12T11:45:15.999Z</time></trkpt><trkpt lat="45.726295" lon="8.45511"><ele>335.6</ele><time>2026-04-12T11:45:16.999Z</time></trkpt><trkpt lat="45.726395" lon="8.4550733"><ele>335.20000000000005</ele><time>2026-04-12T11:45:18Z</time></trkpt><trkpt lat="45.7264983" lon="8.4550517"><ele>334.79999999999995</ele><time>2026-04-12T11:45:19Z</time></trkpt><trkpt lat="45.7266033" lon="8.45502"><ele>334.4</ele><time>2026-04-12T11:45:19.999Z</time></trkpt><trkpt lat="45.726705" lon="8.45499"><ele>334.0</ele><time>2026-04-12T11:45:20.999Z</time></trkpt><trkpt lat="45.72679" lon="8.45496"><ele>334.0</ele><time>2026-04-12T11:45:21.999Z</time></trkpt><trkpt lat="45.7268683" lon="8.454925"><ele>334.0</ele><time>2026-04-12T11:45:23Z</time></trkpt><trkpt lat="45.726935" lon="8.4548967"><ele>334.0</ele><time>2026-04-12T11:45:24Z</time></trkpt><trkpt lat="45.72704" lon="8.4548717"><ele>334.0</ele><time>2026-04-12T11:45:25.999Z</time></trkpt><trkpt lat="45.72713" lon="8.4549583"><ele>334.0</ele><time>2026-04-12T11:45:27.999Z</time></trkpt><trkpt lat="45.7271717" lon="8.455055"><ele>334.0</ele><time>2026-04-12T11:45:28.999Z</time></trkpt><trkpt lat="45.7272217" lon="8.45515"><ele>334.2</ele><time>2026-04-12T11:45:30Z</time></trkpt><trkpt lat="45.727255" lon="8.455245"><ele>334.4</ele><time>2026-04-12T11:45:30.999Z</time></trkpt><trkpt lat="45.72732" lon="8.455355"><ele>334.6</ele><time>2026-04-12T11:45:32.999Z</time></trkpt><trkpt lat="45.7274067" lon="8.455365"><ele>334.8</ele><time>2026-04-12T11:45:34.999Z</time></trkpt><trkpt lat="45.7275167" lon="8.455245"><ele>335.0</ele><time>2026-04-12T11:45:36.999Z</time></trkpt><trkpt lat="45.7275833" lon="8.4551383"><ele>335.0</ele><time>2026-04-12T11:45:37.999Z</time></trkpt><trkpt lat="45.7276633" lon="8.4550233"><ele>335.0</ele><time>2026-04-12T11:45:39Z</time></trkpt><trkpt lat="45.7277467" lon="8.4549167"><ele>335.0</ele><time>2026-04-12T11:45:39.999Z</time></trkpt><trkpt lat="45.7278217" lon="8.45482"><ele>335.0</ele><time>2026-04-12T11:45:40.999Z</time></trkpt><trkpt lat="45.7279017" lon="8.4547167"><ele>335.0</ele><time>2026-04-12T11:45:42Z</time></trkpt><trkpt lat="45.7279867" lon="8.4546083"><ele>335.2</ele><time>2026-04-12T11:45:42.999Z</time></trkpt><trkpt lat="45.72806" lon="8.4544967"><ele>335.4</ele><time>2026-04-12T11:45:44Z</time></trkpt><trkpt lat="45.72812" lon="8.45438"><ele>335.6</ele><time>2026-04-12T11:45:45Z</time></trkpt><trkpt lat="45.72818" lon="8.45427"><ele>335.8</ele><time>2026-04-12T11:45:46Z</time></trkpt><trkpt lat="45.72824" lon="8.4541717"><ele>336.0</ele><time>2026-04-12T11:45:46.999Z</time></trkpt><trkpt lat="45.7283033" lon="8.4540767"><ele>336.0</ele><time>2026-04-12T11:45:48Z</time></trkpt><trkpt lat="45.7283817" lon="8.4540117"><ele>336.0</ele><time>2026-04-12T11:45:48.999Z</time></trkpt><trkpt lat="45.728475" lon="8.4539617"><ele>336.0</ele><time>2026-04-12T11:45:49.999Z</time></trkpt><trkpt lat="45.7285633" lon="8.4538883"><ele>336.0</ele><time>2026-04-12T11:45:51Z</time></trkpt><trkpt lat="45.7286483" lon="8.4537967"><ele>336.0</ele><time>2026-04-12T11:45:51.999Z</time></trkpt><trkpt lat="45.728735" lon="8.453695"><ele>336.20000000000005</ele><time>2026-04-12T11:45:52.999Z</time></trkpt><trkpt lat="45.7288067" lon="8.4535817"><ele>336.40000000000003</ele><time>2026-04-12T11:45:53.999Z</time></trkpt><trkpt lat="45.7288667" lon="8.4534783"><ele>336.6</ele><time>2026-04-12T11:45:55Z</time></trkpt><trkpt lat="45.7289283" lon="8.4533783"><ele>336.8</ele><time>2026-04-12T11:45:55.999Z</time></trkpt><trkpt lat="45.7289967" lon="8.4532917"><ele>337.0</ele><time>2026-04-12T11:45:56.999Z</time></trkpt><trkpt lat="45.72907" lon="8.45321"><ele>337.0</ele><time>2026-04-12T11:45:57.999Z</time></trkpt><trkpt lat="45.7291333" lon="8.4531333"><ele>337.0</ele><time>2026-04-12T11:45:59Z</time></trkpt><trkpt lat="45.7292033" lon="8.45307"><ele>337.0</ele><time>2026-04-12T11:45:59.999Z</time></trkpt><trkpt lat="45.7292983" lon="8.4530267"><ele>337.0</ele><time>2026-04-12T11:46:01Z</time></trkpt><trkpt lat="45.7294067" lon="8.4530233"><ele>337.0</ele><time>2026-04-12T11:46:01.999Z</time></trkpt><trkpt lat="45.7295267" lon="8.4530383"><ele>337.25</ele><time>2026-04-12T11:46:03Z</time></trkpt><trkpt lat="45.7296467" lon="8.45307"><ele>337.5</ele><time>2026-04-12T11:46:03.999Z</time></trkpt><trkpt lat="45.7297667" lon="8.4530867"><ele>337.75</ele><time>2026-04-12T11:46:05Z</time></trkpt><trkpt lat="45.7298867" lon="8.453085"><ele>338.0</ele><time>2026-04-12T11:46:06Z</time></trkpt><trkpt lat="45.729995" lon="8.4530833"><ele>338.0</ele><time>2026-04-12T11:46:06.999Z</time></trkpt><trkpt lat="45.730105" lon="8.4530867"><ele>338.0</ele><time>2026-04-12T11:46:07.999Z</time></trkpt><trkpt lat="45.730215" lon="8.4530617"><ele>338.0</ele><time>2026-04-12T11:46:08.999Z</time></trkpt><trkpt lat="45.7303117" lon="8.453015"><ele>338.0</ele><time>2026-04-12T11:46:09.999Z</time></trkpt><trkpt lat="45.7304267" lon="8.4529833"><ele>338.0</ele><time>2026-04-12T11:46:10.999Z</time></trkpt><trkpt lat="45.7305283" lon="8.45293"><ele>337.75</ele><time>2026-04-12T11:46:11.999Z</time></trkpt><trkpt lat="45.730635" lon="8.4528883"><ele>337.5</ele><time>2026-04-12T11:46:12.999Z</time></trkpt><trkpt lat="45.7307483" lon="8.452845"><ele>337.25</ele><time>2026-04-12T11:46:13.999Z</time></trkpt><trkpt lat="45.7308683" lon="8.452815"><ele>337.0</ele><time>2026-04-12T11:46:14.999Z</time></trkpt><trkpt lat="45.730975" lon="8.4527733"><ele>337.16666666666663</ele><time>2026-04-12T11:46:15.999Z</time></trkpt><trkpt lat="45.73107" lon="8.4527467"><ele>337.3333333333333</ele><time>2026-04-12T11:46:16.999Z</time></trkpt><trkpt lat="45.73115" lon="8.4527183"><ele>337.5</ele><time>2026-04-12T11:46:17.999Z</time></trkpt><trkpt lat="45.7312183" lon="8.4527033"><ele>337.6666666666667</ele><time>2026-04-12T11:46:19Z</time></trkpt><trkpt lat="45.731295" lon="8.4526667"><ele>337.83333333333337</ele><time>2026-04-12T11:46:20.999Z</time></trkpt><trkpt lat="45.7313783" lon="8.4527867"><ele>338.0</ele><time>2026-04-12T11:46:24Z</time></trkpt><trkpt lat="45.7314067" lon="8.4528783"><ele>338.33333333333337</ele><time>2026-04-12T11:46:24.999Z</time></trkpt><trkpt lat="45.7314383" lon="8.4529883"><ele>338.6666666666667</ele><time>2026-04-12T11:46:25.999Z</time></trkpt><trkpt lat="45.7314683" lon="8.453095"><ele>339.0</ele><time>2026-04-12T11:46:27Z</time></trkpt><trkpt lat="45.7315033" lon="8.453185"><ele>339.3333333333333</ele><time>2026-04-12T11:46:27.999Z</time></trkpt><trkpt lat="45.73155" lon="8.4532983"><ele>339.66666666666663</ele><time>2026-04-12T11:46:29.999Z</time></trkpt><trkpt lat="45.731635" lon="8.4533033"><ele>340.0</ele><time>2026-04-12T11:46:35Z</time></trkpt><trkpt lat="45.73176" lon="8.4531783"><ele>340.0</ele><time>2026-04-12T11:46:36.999Z</time></trkpt><trkpt lat="45.7318317" lon="8.4530933"><ele>340.0</ele><time>2026-04-12T11:46:38Z</time></trkpt><trkpt lat="45.7319067" lon="8.45299"><ele>340.0</ele><time>2026-04-12T11:46:38.999Z</time></trkpt><trkpt lat="45.7319883" lon="8.4528967"><ele>340.0</ele><time>2026-04-12T11:46:40Z</time></trkpt><trkpt lat="45.7320733" lon="8.4528167"><ele>340.0</ele><time>2026-04-12T11:46:40.999Z</time></trkpt><trkpt lat="45.7321433" lon="8.45273"><ele>339.8333333333333</ele><time>2026-04-12T11:46:42Z</time></trkpt><trkpt lat="45.732215" lon="8.45265"><ele>339.66666666666663</ele><time>2026-04-12T11:46:43Z</time></trkpt><trkpt lat="45.732275" lon="8.4525667"><ele>339.5</ele><time>2026-04-12T11:46:43.999Z</time></trkpt><trkpt lat="45.7323383" lon="8.4524867"><ele>339.3333333333333</ele><time>2026-04-12T11:46:44.999Z</time></trkpt><trkpt lat="45.7324033" lon="8.45242"><ele>339.1666666666667</ele><time>2026-04-12T11:46:46Z</time></trkpt><trkpt lat="45.73246" lon="8.4523483"><ele>339.0</ele><time>2026-04-12T11:46:46.999Z</time></trkpt><trkpt lat="45.7325217" lon="8.4522783"><ele>339.0</ele><time>2026-04-12T11:46:48Z</time></trkpt><trkpt lat="45.73258" lon="8.4522017"><ele>339.0</ele><time>2026-04-12T11:46:48.999Z</time></trkpt><trkpt lat="45.732635" lon="8.452135"><ele>339.0</ele><time>2026-04-12T11:46:50Z</time></trkpt><trkpt lat="45.73269" lon="8.4520683"><ele>339.0</ele><time>2026-04-12T11:46:50.999Z</time></trkpt><trkpt lat="45.732745" lon="8.452015"><ele>339.0</ele><time>2026-04-12T11:46:51.999Z</time></trkpt><trkpt lat="45.7328117" lon="8.451935"><ele>339.0</ele><time>2026-04-12T11:46:53.999Z</time></trkpt><trkpt lat="45.7328617" lon="8.4518417"><ele>339.4</ele><time>2026-04-12T11:46:56.999Z</time></trkpt><trkpt lat="45.7329567" lon="8.4517733"><ele>339.79999999999995</ele><time>2026-04-12T11:46:58.999Z</time></trkpt><trkpt lat="45.7330233" lon="8.45173"><ele>340.20000000000005</ele><time>2026-04-12T11:47:00Z</time></trkpt><trkpt lat="45.7331167" lon="8.4516867"><ele>340.6</ele><time>2026-04-12T11:47:00.999Z</time></trkpt><trkpt lat="45.7332233" lon="8.451645"><ele>341.0</ele><time>2026-04-12T11:47:02Z</time></trkpt><trkpt lat="45.7333333" lon="8.4516"><ele>341.0</ele><time>2026-04-12T11:47:02.999Z</time></trkpt><trkpt lat="45.73345" lon="8.4515567"><ele>341.0</ele><time>2026-04-12T11:47:03.999Z</time></trkpt><trkpt lat="45.7335817" lon="8.451525"><ele>341.0</ele><time>2026-04-12T11:47:04.999Z</time></trkpt><trkpt lat="45.7337017" lon="8.4514833"><ele>341.0</ele><time>2026-04-12T11:47:05.999Z</time></trkpt><trkpt lat="45.733825" lon="8.4514467"><ele>341.0</ele><time>2026-04-12T11:47:06.999Z</time></trkpt><trkpt lat="45.7339467" lon="8.451405"><ele>341.0</ele><time>2026-04-12T11:47:07.999Z</time></trkpt><trkpt lat="45.7340633" lon="8.45137"><ele>341.0</ele><time>2026-04-12T11:47:08.999Z</time></trkpt><trkpt lat="45.7341633" lon="8.451335"><ele>341.0</ele><time>2026-04-12T11:47:10Z</time></trkpt><trkpt lat="45.7342383" lon="8.4513233"><ele>341.0</ele><time>2026-04-12T11:47:10.999Z</time></trkpt><trkpt lat="45.7343217" lon="8.4512733"><ele>341.0</ele><time>2026-04-12T11:47:12.999Z</time></trkpt><trkpt lat="45.734235" lon="8.4512533"><ele>341.0</ele><time>2026-04-12T11:47:16.999Z</time></trkpt><trkpt lat="45.73414" lon="8.4512917"><ele>341.0</ele><time>2026-04-12T11:47:17.999Z</time></trkpt><trkpt lat="45.7340183" lon="8.4513367"><ele>341.0</ele><time>2026-04-12T11:47:18.999Z</time></trkpt><trkpt lat="45.733875" lon="8.4513867"><ele>341.0</ele><time>2026-04-12T11:47:20Z</time></trkpt><trkpt lat="45.7337117" lon="8.4514483"><ele>341.0</ele><time>2026-04-12T11:47:21Z</time></trkpt><trkpt lat="45.7335567" lon="8.4514933"><ele>341.0</ele><time>2026-04-12T11:47:21.999Z</time></trkpt><trkpt lat="45.7334383" lon="8.4515333"><ele>341.0</ele><time>2026-04-12T11:47:23Z</time></trkpt><trkpt lat="45.733345" lon="8.4515417"><ele>341.0</ele><time>2026-04-12T11:47:23.999Z</time></trkpt><trkpt lat="45.733235" lon="8.45157"><ele>341.0</ele><time>2026-04-12T11:47:25.999Z</time></trkpt><trkpt lat="45.7331483" lon="8.4516283"><ele>341.0</ele><time>2026-04-12T11:47:27.999Z</time></trkpt><trkpt lat="45.7331017" lon="8.45169"><ele>341.0</ele><time>2026-04-12T11:47:31Z</time></trkpt><trkpt lat="45.7332233" lon="8.45166"><ele>341.0</ele><time>2026-04-12T11:47:41.999Z</time></trkpt><trkpt lat="45.733355" lon="8.4516033"><ele>341.0</ele><time>2026-04-12T11:47:43.999Z</time></trkpt><trkpt lat="45.733435" lon="8.4515683"><ele>341.0</ele><time>2026-04-12T11:47:45Z</time></trkpt><trkpt lat="45.73353" lon="8.4515367"><ele>341.0</ele><time>2026-04-12T11:47:46Z</time></trkpt><trkpt lat="45.7336283" lon="8.4515067"><ele>341.0</ele><time>2026-04-12T11:47:46.999Z</time></trkpt><trkpt lat="45.733735" lon="8.45147"><ele>341.0</ele><time>2026-04-12T11:47:47.999Z</time></trkpt><trkpt lat="45.7338483" lon="8.4514517"><ele>341.0</ele><time>2026-04-12T11:47:49Z</time></trkpt><trkpt lat="45.7339633" lon="8.4514033"><ele>341.0</ele><time>2026-04-12T11:47:50Z</time></trkpt><trkpt lat="45.7340717" lon="8.4513517"><ele>341.0</ele><time>2026-04-12T11:47:50.999Z</time></trkpt><trkpt lat="45.7341767" lon="8.4513083"><ele>341.0</ele><time>2026-04-12T11:47:52Z</time></trkpt><trkpt lat="45.734285" lon="8.4512667"><ele>341.0</ele><time>2026-04-12T11:47:52.999Z</time></trkpt><trkpt lat="45.73441" lon="8.4512317"><ele>341.0</ele><time>2026-04-12T11:47:53.999Z</time></trkpt><trkpt lat="45.734535" lon="8.4512"><ele>341.0</ele><time>2026-04-12T11:47:55Z</time></trkpt><trkpt lat="45.7346667" lon="8.4511617"><ele>341.0</ele><time>2026-04-12T11:47:55.999Z</time></trkpt><trkpt lat="45.7347983" lon="8.4511033"><ele>341.0</ele><time>2026-04-12T11:47:56.999Z</time></trkpt><trkpt lat="45.734935" lon="8.4510533"><ele>341.0</ele><time>2026-04-12T11:47:57.999Z</time></trkpt><trkpt lat="45.7350733" lon="8.4510067"><ele>341.0</ele><time>2026-04-12T11:47:59Z</time></trkpt><trkpt lat="45.735205" lon="8.4509567"><ele>341.0</ele><time>2026-04-12T11:47:59.999Z</time></trkpt><trkpt lat="45.73534" lon="8.4509083"><ele>341.75</ele><time>2026-04-12T11:48:01Z</time></trkpt><trkpt lat="45.7354783" lon="8.450855"><ele>342.5</ele><time>2026-04-12T11:48:02Z</time></trkpt><trkpt lat="45.73562" lon="8.4508117"><ele>343.25</ele><time>2026-04-12T11:48:02.999Z</time></trkpt><trkpt lat="45.7357567" lon="8.450765"><ele>344.0</ele><time>2026-04-12T11:48:03.999Z</time></trkpt><trkpt lat="45.7358917" lon="8.4507233"><ele>344.0</ele><time>2026-04-12T11:48:04.999Z</time></trkpt><trkpt lat="45.7360217" lon="8.4506867"><ele>344.0</ele><time>2026-04-12T11:48:06Z</time></trkpt><trkpt lat="45.7361717" lon="8.4506717"><ele>344.0</ele><time>2026-04-12T11:48:06.999Z</time></trkpt><trkpt lat="45.7363117" lon="8.4506417"><ele>344.0</ele><time>2026-04-12T11:48:07.999Z</time></trkpt><trkpt lat="45.7364567" lon="8.4506067"><ele>344.25</ele><time>2026-04-12T11:48:08.999Z</time></trkpt><trkpt lat="45.7366033" lon="8.4505667"><ele>344.5</ele><time>2026-04-12T11:48:10Z</time></trkpt><trkpt lat="45.7367417" lon="8.4505283"><ele>344.75</ele><time>2026-04-12T11:48:10.999Z</time></trkpt><trkpt lat="45.736875" lon="8.450485"><ele>345.0</ele><time>2026-04-12T11:48:12Z</time></trkpt><trkpt lat="45.736985" lon="8.450445"><ele>345.0</ele><time>2026-04-12T11:48:12.999Z</time></trkpt><trkpt lat="45.7370917" lon="8.4504033"><ele>345.0</ele><time>2026-04-12T11:48:13.999Z</time></trkpt><trkpt lat="45.7371783" lon="8.4503633"><ele>345.0</ele><time>2026-04-12T11:48:14.999Z</time></trkpt><trkpt lat="45.7372617" lon="8.45036"><ele>345.0</ele><time>2026-04-12T11:48:15.999Z</time></trkpt><trkpt lat="45.7373267" lon="8.4503783"><ele>345.0</ele><time>2026-04-12T11:48:16.999Z</time></trkpt><trkpt lat="45.7373917" lon="8.4504133"><ele>345.0</ele><time>2026-04-12T11:48:17.999Z</time></trkpt><trkpt lat="45.73746" lon="8.4504367"><ele>345.0</ele><time>2026-04-12T11:48:18.999Z</time></trkpt><trkpt lat="45.7375467" lon="8.4503583"><ele>345.0</ele><time>2026-04-12T11:48:20.999Z</time></trkpt><trkpt lat="45.737565" lon="8.4502517"><ele>345.0</ele><time>2026-04-12T11:48:21.999Z</time></trkpt><trkpt lat="45.7375817" lon="8.45011"><ele>345.0</ele><time>2026-04-12T11:48:23Z</time></trkpt><trkpt lat="45.7376067" lon="8.4499617"><ele>345.0</ele><time>2026-04-12T11:48:23.999Z</time></trkpt><trkpt lat="45.7376483" lon="8.4498133"><ele>345.0</ele><time>2026-04-12T11:48:24.999Z</time></trkpt><trkpt lat="45.7377067" lon="8.449675"><ele>345.0</ele><time>2026-04-12T11:48:26Z</time></trkpt><trkpt lat="45.7377733" lon="8.4495217"><ele>345.0</ele><time>2026-04-12T11:48:26.999Z</time></trkpt><trkpt lat="45.737845" lon="8.4493683"><ele>345.0</ele><time>2026-04-12T11:48:28Z</time></trkpt><trkpt lat="45.7379117" lon="8.449215"><ele>345.0</ele><time>2026-04-12T11:48:28.999Z</time></trkpt><trkpt lat="45.7379717" lon="8.449065"><ele>345.0</ele><time>2026-04-12T11:48:29.999Z</time></trkpt><trkpt lat="45.7380367" lon="8.4489117"><ele>345.0</ele><time>2026-04-12T11:48:30.999Z</time></trkpt><trkpt lat="45.73811" lon="8.4487583"><ele>345.0</ele><time>2026-04-12T11:48:31.999Z</time></trkpt><trkpt lat="45.7381917" lon="8.4485933"><ele>345.25</ele><time>2026-04-12T11:48:32.999Z</time></trkpt><trkpt lat="45.73827" lon="8.4484267"><ele>345.5</ele><time>2026-04-12T11:48:34Z</time></trkpt><trkpt lat="45.738355" lon="8.4482583"><ele>345.75</ele><time>2026-04-12T11:48:34.999Z</time></trkpt><trkpt lat="45.7384283" lon="8.448085"><ele>346.0</ele><time>2026-04-12T11:48:35.999Z</time></trkpt><trkpt lat="45.7385067" lon="8.4479183"><ele>348.5</ele><time>2026-04-12T11:48:36.999Z</time></trkpt><trkpt lat="45.7385883" lon="8.4477383"><ele>351.0</ele><time>2026-04-12T11:48:37.999Z</time></trkpt><trkpt lat="45.738665" lon="8.4475733"><ele>353.5</ele><time>2026-04-12T11:48:38.999Z</time></trkpt><trkpt lat="45.73873" lon="8.4474017"><ele>356.0</ele><time>2026-04-12T11:48:39.999Z</time></trkpt><trkpt lat="45.738805" lon="8.4472383"><ele>354.75</ele><time>2026-04-12T11:48:40.999Z</time></trkpt><trkpt lat="45.7388783" lon="8.4470783"><ele>353.5</ele><time>2026-04-12T11:48:41.999Z</time></trkpt><trkpt lat="45.7389517" lon="8.4469167"><ele>352.25</ele><time>2026-04-12T11:48:43Z</time></trkpt><trkpt lat="45.7390267" lon="8.446755"><ele>351.0</ele><time>2026-04-12T11:48:43.999Z</time></trkpt><trkpt lat="45.739105" lon="8.4465867"><ele>351.0</ele><time>2026-04-12T11:48:44.999Z</time></trkpt><trkpt lat="45.73919" lon="8.4464167"><ele>351.0</ele><time>2026-04-12T11:48:45.999Z</time></trkpt><trkpt lat="45.7392633" lon="8.4462583"><ele>351.0</ele><time>2026-04-12T11:48:46.999Z</time></trkpt><trkpt lat="45.7393283" lon="8.4461117"><ele>351.0</ele><time>2026-04-12T11:48:47.999Z</time></trkpt><trkpt lat="45.73938" lon="8.4459767"><ele>350.8333333333333</ele><time>2026-04-12T11:48:49Z</time></trkpt><trkpt lat="45.7394317" lon="8.4458467"><ele>350.6666666666667</ele><time>2026-04-12T11:48:49.999Z</time></trkpt><trkpt lat="45.73949" lon="8.4457367"><ele>350.5</ele><time>2026-04-12T11:48:51Z</time></trkpt><trkpt lat="45.7395367" lon="8.4456483"><ele>350.33333333333337</ele><time>2026-04-12T11:48:52Z</time></trkpt><trkpt lat="45.7395867" lon="8.4455767"><ele>350.1666666666667</ele><time>2026-04-12T11:48:52.999Z</time></trkpt><trkpt lat="45.7396633" lon="8.445565"><ele>350.0</ele><time>2026-04-12T11:48:54Z</time></trkpt><trkpt lat="45.7397433" lon="8.4455817"><ele>350.0</ele><time>2026-04-12T11:48:55Z</time></trkpt><trkpt lat="45.7398383" lon="8.4456133"><ele>350.0</ele><time>2026-04-12T11:48:55.999Z</time></trkpt><trkpt lat="45.739945" lon="8.4456567"><ele>350.0</ele><time>2026-04-12T11:48:56.999Z</time></trkpt><trkpt lat="45.7400367" lon="8.4456983"><ele>350.0</ele><time>2026-04-12T11:48:57.999Z</time></trkpt><trkpt lat="45.7401267" lon="8.4457117"><ele>350.0</ele><time>2026-04-12T11:48:58.999Z</time></trkpt><trkpt lat="45.740225" lon="8.44569"><ele>350.25</ele><time>2026-04-12T11:49:00Z</time></trkpt><trkpt lat="45.7403183" lon="8.44562"><ele>350.5</ele><time>2026-04-12T11:49:00.999Z</time></trkpt><trkpt lat="45.7404067" lon="8.44553"><ele>350.75</ele><time>2026-04-12T11:49:01.999Z</time></trkpt><trkpt lat="45.74051" lon="8.4454467"><ele>351.0</ele><time>2026-04-12T11:49:02.999Z</time></trkpt><trkpt lat="45.740625" lon="8.44537"><ele>349.75</ele><time>2026-04-12T11:49:04Z</time></trkpt><trkpt lat="45.7407333" lon="8.4452983"><ele>348.5</ele><time>2026-04-12T11:49:04.999Z</time></trkpt><trkpt lat="45.740845" lon="8.445215"><ele>347.25</ele><time>2026-04-12T11:49:06Z</time></trkpt><trkpt lat="45.7409567" lon="8.44513"><ele>346.0</ele><time>2026-04-12T11:49:06.999Z</time></trkpt><trkpt lat="45.741075" lon="8.44503"><ele>346.0</ele><time>2026-04-12T11:49:07.999Z</time></trkpt><trkpt lat="45.7411883" lon="8.4449267"><ele>346.0</ele><time>2026-04-12T11:49:08.999Z</time></trkpt><trkpt lat="45.7412917" lon="8.444825"><ele>346.0</ele><time>2026-04-12T11:49:09.999Z</time></trkpt><trkpt lat="45.7413933" lon="8.4447367"><ele>346.0</ele><time>2026-04-12T11:49:11Z</time></trkpt><trkpt lat="45.74149" lon="8.4446583"><ele>345.8</ele><time>2026-04-12T11:49:11.999Z</time></trkpt><trkpt lat="45.7415683" lon="8.444595"><ele>345.6</ele><time>2026-04-12T11:49:12.999Z</time></trkpt><trkpt lat="45.7416417" lon="8.4445417"><ele>345.4</ele><time>2026-04-12T11:49:14Z</time></trkpt><trkpt lat="45.741725" lon="8.4444817"><ele>345.2</ele><time>2026-04-12T11:49:15Z</time></trkpt><trkpt lat="45.7418083" lon="8.44441"><ele>345.0</ele><time>2026-04-12T11:49:16Z</time></trkpt><trkpt lat="45.741905" lon="8.44433"><ele>345.0</ele><time>2026-04-12T11:49:16.999Z</time></trkpt><trkpt lat="45.7420133" lon="8.4442467"><ele>345.0</ele><time>2026-04-12T11:49:18Z</time></trkpt><trkpt lat="45.742115" lon="8.4441633"><ele>345.0</ele><time>2026-04-12T11:49:18.999Z</time></trkpt><trkpt lat="45.7422233" lon="8.4440733"><ele>345.0</ele><time>2026-04-12T11:49:20Z</time></trkpt><trkpt lat="45.742325" lon="8.4439783"><ele>345.0</ele><time>2026-04-12T11:49:20.999Z</time></trkpt><trkpt lat="45.7424233" lon="8.44389"><ele>345.0</ele><time>2026-04-12T11:49:22Z</time></trkpt><trkpt lat="45.7425183" lon="8.4437967"><ele>345.0</ele><time>2026-04-12T11:49:22.999Z</time></trkpt><trkpt lat="45.7426167" lon="8.4436867"><ele>345.0</ele><time>2026-04-12T11:49:23.999Z</time></trkpt><trkpt lat="45.7427017" lon="8.4435683"><ele>347.0</ele><time>2026-04-12T11:49:25Z</time></trkpt><trkpt lat="45.742795" lon="8.4434383"><ele>349.0</ele><time>2026-04-12T11:49:26Z</time></trkpt><trkpt lat="45.742885" lon="8.443315"><ele>351.0</ele><time>2026-04-12T11:49:26.999Z</time></trkpt><trkpt lat="45.742975" lon="8.44319"><ele>353.0</ele><time>2026-04-12T11:49:28Z</time></trkpt><trkpt lat="45.7430633" lon="8.4430667"><ele>352.75</ele><time>2026-04-12T11:49:28.999Z</time></trkpt><trkpt lat="45.7431383" lon="8.4429333"><ele>352.5</ele><time>2026-04-12T11:49:29.999Z</time></trkpt><trkpt lat="45.7432033" lon="8.4427833"><ele>352.25</ele><time>2026-04-12T11:49:31Z</time></trkpt><trkpt lat="45.74326" lon="8.4426333"><ele>352.0</ele><time>2026-04-12T11:49:31.999Z</time></trkpt><trkpt lat="45.74331" lon="8.4424817"><ele>352.0</ele><time>2026-04-12T11:49:33Z</time></trkpt><trkpt lat="45.7433517" lon="8.442345"><ele>352.0</ele><time>2026-04-12T11:49:33.999Z</time></trkpt><trkpt lat="45.7433933" lon="8.4422183"><ele>352.0</ele><time>2026-04-12T11:49:35Z</time></trkpt><trkpt lat="45.7434483" lon="8.442105"><ele>352.0</ele><time>2026-04-12T11:49:36Z</time></trkpt><trkpt lat="45.7435083" lon="8.4420033"><ele>352.0</ele><time>2026-04-12T11:49:37Z</time></trkpt><trkpt lat="45.7435833" lon="8.4419183"><ele>351.20000000000005</ele><time>2026-04-12T11:49:37.999Z</time></trkpt><trkpt lat="45.7436667" lon="8.441855"><ele>350.4</ele><time>2026-04-12T11:49:39Z</time></trkpt><trkpt lat="45.7437717" lon="8.4418"><ele>349.6</ele><time>2026-04-12T11:49:40Z</time></trkpt><trkpt lat="45.7438783" lon="8.44176"><ele>348.79999999999995</ele><time>2026-04-12T11:49:40.999Z</time></trkpt><trkpt lat="45.7439933" lon="8.441725"><ele>348.0</ele><time>2026-04-12T11:49:41.999Z</time></trkpt><trkpt lat="45.7441117" lon="8.4416983"><ele>348.0</ele><time>2026-04-12T11:49:42.999Z</time></trkpt><trkpt lat="45.7442383" lon="8.4416667"><ele>348.0</ele><time>2026-04-12T11:49:43.999Z</time></trkpt><trkpt lat="45.7443667" lon="8.441655"><ele>348.0</ele><time>2026-04-12T11:49:44.999Z</time></trkpt><trkpt lat="45.7444967" lon="8.4416467"><ele>348.0</ele><time>2026-04-12T11:49:45.999Z</time></trkpt><trkpt lat="45.7446167" lon="8.441635"><ele>348.0</ele><time>2026-04-12T11:49:46.999Z</time></trkpt><trkpt lat="45.744735" lon="8.4416367"><ele>348.0</ele><time>2026-04-12T11:49:47.999Z</time></trkpt><trkpt lat="45.7448467" lon="8.4416367"><ele>348.0</ele><time>2026-04-12T11:49:48.999Z</time></trkpt><trkpt lat="45.7449667" lon="8.4416267"><ele>348.0</ele><time>2026-04-12T11:49:49.999Z</time></trkpt><trkpt lat="45.7450867" lon="8.44161"><ele>348.0</ele><time>2026-04-12T11:49:50.999Z</time></trkpt><trkpt lat="45.7452083" lon="8.4415967"><ele>348.0</ele><time>2026-04-12T11:49:51.999Z</time></trkpt><trkpt lat="45.7453233" lon="8.4415817"><ele>348.0</ele><time>2026-04-12T11:49:52.999Z</time></trkpt><trkpt lat="45.7454367" lon="8.4415617"><ele>348.0</ele><time>2026-04-12T11:49:53.999Z</time></trkpt><trkpt lat="45.7455483" lon="8.44156"><ele>348.2</ele><time>2026-04-12T11:49:55Z</time></trkpt><trkpt lat="45.7456533" lon="8.4415567"><ele>348.4</ele><time>2026-04-12T11:49:55.999Z</time></trkpt><trkpt lat="45.745745" lon="8.4415683"><ele>348.59999999999997</ele><time>2026-04-12T11:49:56.999Z</time></trkpt><trkpt lat="45.7458267" lon="8.4415617"><ele>348.79999999999995</ele><time>2026-04-12T11:49:57.999Z</time></trkpt><trkpt lat="45.745945" lon="8.441595"><ele>349.0</ele><time>2026-04-12T11:49:59.999Z</time></trkpt><trkpt lat="45.746035" lon="8.4417067"><ele>349.0</ele><time>2026-04-12T11:50:01.999Z</time></trkpt><trkpt lat="45.7460467" lon="8.44183"><ele>349.0</ele><time>2026-04-12T11:50:03.999Z</time></trkpt><trkpt lat="45.7460283" lon="8.4420033"><ele>349.0</ele><time>2026-04-12T11:50:05.999Z</time></trkpt><trkpt lat="45.7460367" lon="8.442095"><ele>349.0</ele><time>2026-04-12T11:50:06.999Z</time></trkpt><trkpt lat="45.7461067" lon="8.4421933"><ele>349.0</ele><time>2026-04-12T11:50:08.999Z</time></trkpt><trkpt lat="45.746195" lon="8.4421317"><ele>349.8333333333333</ele><time>2026-04-12T11:50:10.999Z</time></trkpt><trkpt lat="45.7462233" lon="8.4420183"><ele>350.66666666666663</ele><time>2026-04-12T11:50:11.999Z</time></trkpt><trkpt lat="45.746225" lon="8.441905"><ele>351.5</ele><time>2026-04-12T11:50:12.999Z</time></trkpt><trkpt lat="45.746215" lon="8.4418033"><ele>352.3333333333333</ele><time>2026-04-12T11:50:14Z</time></trkpt><trkpt lat="45.746225" lon="8.4416733"><ele>353.1666666666667</ele><time>2026-04-12T11:50:15.999Z</time></trkpt><trkpt lat="45.7463067" lon="8.4415783"><ele>354.0</ele><time>2026-04-12T11:50:24.999Z</time></trkpt><trkpt lat="45.7463617" lon="8.441505"><ele>354.0</ele><time>2026-04-12T11:50:25.999Z</time></trkpt><trkpt lat="45.7464283" lon="8.441415"><ele>354.0</ele><time>2026-04-12T11:50:26.999Z</time></trkpt><trkpt lat="45.7464933" lon="8.44132"><ele>354.0</ele><time>2026-04-12T11:50:28Z</time></trkpt><trkpt lat="45.74656" lon="8.4412217"><ele>354.0</ele><time>2026-04-12T11:50:28.999Z</time></trkpt><trkpt lat="45.7466267" lon="8.441125"><ele>354.0</ele><time>2026-04-12T11:50:29.999Z</time></trkpt><trkpt lat="45.7466967" lon="8.44102"><ele>353.3333333333333</ele><time>2026-04-12T11:50:30.999Z</time></trkpt><trkpt lat="45.7467667" lon="8.4409183"><ele>352.6666666666667</ele><time>2026-04-12T11:50:31.999Z</time></trkpt><trkpt lat="45.74683" lon="8.4408283"><ele>352.0</ele><time>2026-04-12T11:50:32.999Z</time></trkpt><trkpt lat="45.7469" lon="8.4407533"><ele>351.33333333333337</ele><time>2026-04-12T11:50:33.999Z</time></trkpt><trkpt lat="45.7469683" lon="8.4406867"><ele>350.6666666666667</ele><time>2026-04-12T11:50:34.999Z</time></trkpt><trkpt lat="45.7470333" lon="8.4406433"><ele>350.0</ele><time>2026-04-12T11:50:36Z</time></trkpt><trkpt lat="45.747105" lon="8.4406167"><ele>350.0</ele><time>2026-04-12T11:50:36.999Z</time></trkpt><trkpt lat="45.7471917" lon="8.4405983"><ele>350.0</ele><time>2026-04-12T11:50:37.999Z</time></trkpt><trkpt lat="45.7472817" lon="8.4405767"><ele>350.0</ele><time>2026-04-12T11:50:39Z</time></trkpt><trkpt lat="45.7473767" lon="8.4405383"><ele>350.0</ele><time>2026-04-12T11:50:40Z</time></trkpt><trkpt lat="45.747475" lon="8.4405017"><ele>350.0</ele><time>2026-04-12T11:50:41Z</time></trkpt><trkpt lat="45.7475867" lon="8.4404683"><ele>350.75</ele><time>2026-04-12T11:50:41.999Z</time></trkpt><trkpt lat="45.7477067" lon="8.4404483"><ele>351.5</ele><time>2026-04-12T11:50:42.999Z</time></trkpt><trkpt lat="45.7478167" lon="8.4404267"><ele>352.25</ele><time>2026-04-12T11:50:44Z</time></trkpt><trkpt lat="45.7479233" lon="8.4404117"><ele>353.0</ele><time>2026-04-12T11:50:44.999Z</time></trkpt><trkpt lat="45.74804" lon="8.4403883"><ele>353.0</ele><time>2026-04-12T11:50:45.999Z</time></trkpt><trkpt lat="45.7481383" lon="8.4403817"><ele>353.0</ele><time>2026-04-12T11:50:47Z</time></trkpt><trkpt lat="45.7482283" lon="8.4403867"><ele>353.0</ele><time>2026-04-12T11:50:48Z</time></trkpt><trkpt lat="45.74831" lon="8.4404133"><ele>353.0</ele><time>2026-04-12T11:50:48.999Z</time></trkpt><trkpt lat="45.7483983" lon="8.440465"><ele>353.0</ele><time>2026-04-12T11:50:49.999Z</time></trkpt><trkpt lat="45.7484817" lon="8.440505"><ele>354.33333333333337</ele><time>2026-04-12T11:50:50.999Z</time></trkpt><trkpt lat="45.7485667" lon="8.440545"><ele>355.6666666666667</ele><time>2026-04-12T11:50:51.999Z</time></trkpt><trkpt lat="45.7486467" lon="8.44056"><ele>357.0</ele><time>2026-04-12T11:50:52.999Z</time></trkpt><trkpt lat="45.748725" lon="8.44055"><ele>358.3333333333333</ele><time>2026-04-12T11:50:54Z</time></trkpt><trkpt lat="45.7488017" lon="8.4405333"><ele>359.66666666666663</ele><time>2026-04-12T11:50:54.999Z</time></trkpt><trkpt lat="45.7488667" lon="8.4405167"><ele>361.0</ele><time>2026-04-12T11:50:55.999Z</time></trkpt><trkpt lat="45.748935" lon="8.44049"><ele>361.0</ele><time>2026-04-12T11:50:56.999Z</time></trkpt><trkpt lat="45.7490033" lon="8.4404817"><ele>361.0</ele><time>2026-04-12T11:50:57.999Z</time></trkpt><trkpt lat="45.7490817" lon="8.4404983"><ele>361.0</ele><time>2026-04-12T11:50:58.999Z</time></trkpt><trkpt lat="45.74915" lon="8.4405317"><ele>361.0</ele><time>2026-04-12T11:51:00Z</time></trkpt><trkpt lat="45.7492183" lon="8.440575"><ele>361.0</ele><time>2026-04-12T11:51:01Z</time></trkpt><trkpt lat="45.7492983" lon="8.440615"><ele>361.0</ele><time>2026-04-12T11:51:02Z</time></trkpt><trkpt lat="45.7493917" lon="8.4406467"><ele>360.4</ele><time>2026-04-12T11:51:03Z</time></trkpt><trkpt lat="45.7494917" lon="8.4406717"><ele>359.8</ele><time>2026-04-12T11:51:04Z</time></trkpt><trkpt lat="45.7495867" lon="8.4406967"><ele>359.2</ele><time>2026-04-12T11:51:04.999Z</time></trkpt><trkpt lat="45.7496833" lon="8.4407033"><ele>358.59999999999997</ele><time>2026-04-12T11:51:05.999Z</time></trkpt><trkpt lat="45.74978" lon="8.440695"><ele>358.0</ele><time>2026-04-12T11:51:06.999Z</time></trkpt><trkpt lat="45.7498783" lon="8.4406833"><ele>358.0</ele><time>2026-04-12T11:51:07.999Z</time></trkpt><trkpt lat="45.74998" lon="8.440685"><ele>358.0</ele><time>2026-04-12T11:51:08.999Z</time></trkpt><trkpt lat="45.7500783" lon="8.44069"><ele>358.0</ele><time>2026-04-12T11:51:09.999Z</time></trkpt><trkpt lat="45.7501833" lon="8.4406933"><ele>358.0</ele><time>2026-04-12T11:51:10.999Z</time></trkpt><trkpt lat="45.75028" lon="8.440695"><ele>358.0</ele><time>2026-04-12T11:51:11.999Z</time></trkpt><trkpt lat="45.7503833" lon="8.4406883"><ele>358.4</ele><time>2026-04-12T11:51:12.999Z</time></trkpt><trkpt lat="45.7504983" lon="8.4406933"><ele>358.79999999999995</ele><time>2026-04-12T11:51:14Z</time></trkpt><trkpt lat="45.750605" lon="8.4406983"><ele>359.2</ele><time>2026-04-12T11:51:14.999Z</time></trkpt><trkpt lat="45.7507017" lon="8.4407167"><ele>359.6</ele><time>2026-04-12T11:51:16Z</time></trkpt><trkpt lat="45.7507767" lon="8.4407233"><ele>360.0</ele><time>2026-04-12T11:51:16.999Z</time></trkpt><trkpt lat="45.7508633" lon="8.440715"><ele>360.0</ele><time>2026-04-12T11:51:20Z</time></trkpt><trkpt lat="45.7509317" lon="8.4407433"><ele>360.0</ele><time>2026-04-12T11:51:21.999Z</time></trkpt><trkpt lat="45.751035" lon="8.4408383"><ele>360.0</ele><time>2026-04-12T11:51:23.999Z</time></trkpt><trkpt lat="45.7510883" lon="8.4409067"><ele>360.0</ele><time>2026-04-12T11:51:25Z</time></trkpt><trkpt lat="45.7511483" lon="8.440965"><ele>360.0</ele><time>2026-04-12T11:51:25.999Z</time></trkpt><trkpt lat="45.7512033" lon="8.44102"><ele>360.0</ele><time>2026-04-12T11:51:27Z</time></trkpt><trkpt lat="45.75126" lon="8.44106"><ele>360.0</ele><time>2026-04-12T11:51:27.999Z</time></trkpt><trkpt lat="45.7513217" lon="8.4410917"><ele>360.0</ele><time>2026-04-12T11:51:28.999Z</time></trkpt><trkpt lat="45.7513867" lon="8.4411033"><ele>360.0</ele><time>2026-04-12T11:51:30Z</time></trkpt><trkpt lat="45.75145" lon="8.4411033"><ele>360.0</ele><time>2026-04-12T11:51:30.999Z</time></trkpt><trkpt lat="45.7515217" lon="8.441095"><ele>360.0</ele><time>2026-04-12T11:51:31.999Z</time></trkpt><trkpt lat="45.7515917" lon="8.4410883"><ele>360.0</ele><time>2026-04-12T11:51:33Z</time></trkpt><trkpt lat="45.7516633" lon="8.4411"><ele>360.0</ele><time>2026-04-12T11:51:33.999Z</time></trkpt><trkpt lat="45.7517317" lon="8.4411167"><ele>360.0</ele><time>2026-04-12T11:51:34.999Z</time></trkpt><trkpt lat="45.7518" lon="8.4411433"><ele>360.0</ele><time>2026-04-12T11:51:35.999Z</time></trkpt><trkpt lat="45.7518817" lon="8.4411733"><ele>360.0</ele><time>2026-04-12T11:51:36.999Z</time></trkpt><trkpt lat="45.7519617" lon="8.4412083"><ele>360.0</ele><time>2026-04-12T11:51:38Z</time></trkpt><trkpt lat="45.7520267" lon="8.4412367"><ele>360.0</ele><time>2026-04-12T11:51:38.999Z</time></trkpt><trkpt lat="45.75216" lon="8.4412417"><ele>360.0</ele><time>2026-04-12T11:51:41Z</time></trkpt><trkpt lat="45.7522717" lon="8.441205"><ele>359.3333333333333</ele><time>2026-04-12T11:51:43Z</time></trkpt><trkpt lat="45.7523467" lon="8.4411683"><ele>358.6666666666667</ele><time>2026-04-12T11:51:43.999Z</time></trkpt><trkpt lat="45.7524267" lon="8.4411483"><ele>358.0</ele><time>2026-04-12T11:51:44.999Z</time></trkpt><trkpt lat="45.7525083" lon="8.441125"><ele>357.33333333333337</ele><time>2026-04-12T11:51:45.999Z</time></trkpt><trkpt lat="45.7525883" lon="8.4410867"><ele>356.6666666666667</ele><time>2026-04-12T11:51:47.999Z</time></trkpt><trkpt lat="45.7526767" lon="8.4410717"><ele>356.0</ele><time>2026-04-12T11:51:48.999Z</time></trkpt><trkpt lat="45.752755" lon="8.4410583"><ele>356.0</ele><time>2026-04-12T11:51:50Z</time></trkpt><trkpt lat="45.7528367" lon="8.4410717"><ele>356.0</ele><time>2026-04-12T11:51:51Z</time></trkpt><trkpt lat="45.7529217" lon="8.4411117"><ele>356.0</ele><time>2026-04-12T11:51:51.999Z</time></trkpt><trkpt lat="45.7530017" lon="8.4411533"><ele>356.0</ele><time>2026-04-12T11:51:53Z</time></trkpt><trkpt lat="45.7530717" lon="8.4411833"><ele>356.0</ele><time>2026-04-12T11:51:53.999Z</time></trkpt><trkpt lat="45.7531317" lon="8.4412333"><ele>356.0</ele><time>2026-04-12T11:51:55Z</time></trkpt><trkpt lat="45.7531867" lon="8.4412883"><ele>357.0</ele><time>2026-04-12T11:51:55.999Z</time></trkpt><trkpt lat="45.7532217" lon="8.4413667"><ele>358.0</ele><time>2026-04-12T11:51:56.999Z</time></trkpt><trkpt lat="45.75324" lon="8.44147"><ele>359.0</ele><time>2026-04-12T11:51:58Z</time></trkpt><trkpt lat="45.7532683" lon="8.4415733"><ele>360.0</ele><time>2026-04-12T11:51:58.999Z</time></trkpt><trkpt lat="45.753315" lon="8.4416517"><ele>361.0</ele><time>2026-04-12T11:51:59.999Z</time></trkpt><trkpt lat="45.7533667" lon="8.44171"><ele>362.0</ele><time>2026-04-12T11:52:00.999Z</time></trkpt><trkpt lat="45.753495" lon="8.44178"><ele>362.0</ele><time>2026-04-12T11:52:02.999Z</time></trkpt><trkpt lat="45.7535567" lon="8.4418017"><ele>362.0</ele><time>2026-04-12T11:52:03.999Z</time></trkpt><trkpt lat="45.753645" lon="8.4417717"><ele>362.0</ele><time>2026-04-12T11:52:06Z</time></trkpt><trkpt lat="45.753665" lon="8.4416833"><ele>362.0</ele><time>2026-04-12T11:52:07.999Z</time></trkpt><trkpt lat="45.7535933" lon="8.441635"><ele>362.0</ele><time>2026-04-12T11:52:11Z</time></trkpt><trkpt lat="45.753515" lon="8.441625"><ele>362.0</ele><time>2026-04-12T11:52:12.999Z</time></trkpt><trkpt lat="45.7534467" lon="8.4415417"><ele>362.0</ele><time>2026-04-12T11:52:16Z</time></trkpt><trkpt lat="45.7534017" lon="8.4414617"><ele>362.0</ele><time>2026-04-12T11:52:19Z</time></trkpt><trkpt lat="45.75338" lon="8.4413667"><ele>362.0</ele><time>2026-04-12T11:52:28.999Z</time></trkpt><trkpt lat="45.753355" lon="8.4412667"><ele>362.0</ele><time>2026-04-12T11:52:29.999Z</time></trkpt><trkpt lat="45.75332" lon="8.44114"><ele>362.0</ele><time>2026-04-12T11:52:30.999Z</time></trkpt><trkpt lat="45.7532767" lon="8.441015"><ele>362.0</ele><time>2026-04-12T11:52:31.999Z</time></trkpt><trkpt lat="45.7532317" lon="8.4408817"><ele>360.8</ele><time>2026-04-12T11:52:32.999Z</time></trkpt><trkpt lat="45.7531933" lon="8.4407517"><ele>359.6</ele><time>2026-04-12T11:52:34Z</time></trkpt><trkpt lat="45.75315" lon="8.44061"><ele>358.40000000000003</ele><time>2026-04-12T11:52:34.999Z</time></trkpt><trkpt lat="45.7531133" lon="8.4404883"><ele>357.20000000000005</ele><time>2026-04-12T11:52:36Z</time></trkpt><trkpt lat="45.7530717" lon="8.440345"><ele>356.0</ele><time>2026-04-12T11:52:37Z</time></trkpt><trkpt lat="45.7529983" lon="8.4402333"><ele>355.0</ele><time>2026-04-12T11:52:37.999Z</time></trkpt><trkpt lat="45.7529583" lon="8.440125"><ele>354.0</ele><time>2026-04-12T11:52:38.999Z</time></trkpt><trkpt lat="45.75292" lon="8.4400117"><ele>353.0</ele><time>2026-04-12T11:52:39.999Z</time></trkpt><trkpt lat="45.752865" lon="8.439905"><ele>352.0</ele><time>2026-04-12T11:52:41Z</time></trkpt><trkpt lat="45.75281" lon="8.4397967"><ele>351.0</ele><time>2026-04-12T11:52:41.999Z</time></trkpt><trkpt lat="45.7527417" lon="8.439685"><ele>351.0</ele><time>2026-04-12T11:52:43Z</time></trkpt><trkpt lat="45.75269" lon="8.4395833"><ele>351.0</ele><time>2026-04-12T11:52:43.999Z</time></trkpt><trkpt lat="45.75264" lon="8.4394833"><ele>351.0</ele><time>2026-04-12T11:52:44.999Z</time></trkpt><trkpt lat="45.7525867" lon="8.4393967"><ele>351.0</ele><time>2026-04-12T11:52:45.999Z</time></trkpt><trkpt lat="45.7525383" lon="8.4393133"><ele>351.0</ele><time>2026-04-12T11:52:46.999Z</time></trkpt><trkpt lat="45.75249" lon="8.43924"><ele>351.0</ele><time>2026-04-12T11:52:48Z</time></trkpt><trkpt lat="45.75248" lon="8.4391283"><ele>351.0</ele><time>2026-04-12T11:52:49.999Z</time></trkpt><trkpt lat="45.7525467" lon="8.439105"><ele>351.0</ele><time>2026-04-12T11:52:51.999Z</time></trkpt><trkpt lat="45.752665" lon="8.4391217"><ele>351.0</ele><time>2026-04-12T11:52:53.999Z</time></trkpt><trkpt lat="45.7527433" lon="8.43914"><ele>351.0</ele><time>2026-04-12T11:52:54.999Z</time></trkpt><trkpt lat="45.7528117" lon="8.4391467"><ele>351.0</ele><time>2026-04-12T11:52:55.999Z</time></trkpt><trkpt lat="45.75289" lon="8.439145"><ele>351.0</ele><time>2026-04-12T11:52:56.999Z</time></trkpt><trkpt lat="45.7529667" lon="8.43913"><ele>351.3333333333333</ele><time>2026-04-12T11:52:58Z</time></trkpt><trkpt lat="45.7530467" lon="8.4391267"><ele>351.6666666666667</ele><time>2026-04-12T11:52:58.999Z</time></trkpt><trkpt lat="45.7531183" lon="8.43911"><ele>352.0</ele><time>2026-04-12T11:53:00Z</time></trkpt><trkpt lat="45.753195" lon="8.43909"><ele>352.33333333333337</ele><time>2026-04-12T11:53:00.999Z</time></trkpt><trkpt lat="45.75327" lon="8.4390733"><ele>352.6666666666667</ele><time>2026-04-12T11:53:01.999Z</time></trkpt><trkpt lat="45.7533533" lon="8.4390667"><ele>353.0</ele><time>2026-04-12T11:53:02.999Z</time></trkpt><trkpt lat="45.7534333" lon="8.4390617"><ele>353.0</ele><time>2026-04-12T11:53:03.999Z</time></trkpt><trkpt lat="45.7535017" lon="8.439045"><ele>353.0</ele><time>2026-04-12T11:53:05Z</time></trkpt><trkpt lat="45.7535667" lon="8.4390283"><ele>353.0</ele><time>2026-04-12T11:53:06Z</time></trkpt><trkpt lat="45.75367" lon="8.4390317"><ele>353.0</ele><time>2026-04-12T11:53:07.999Z</time></trkpt><trkpt lat="45.753735" lon="8.439045"><ele>353.0</ele><time>2026-04-12T11:53:09Z</time></trkpt><trkpt lat="45.7538017" lon="8.4390583"><ele>353.0</ele><time>2026-04-12T11:53:09.999Z</time></trkpt><trkpt lat="45.7539" lon="8.4391283"><ele>353.33333333333337</ele><time>2026-04-12T11:53:11.999Z</time></trkpt><trkpt lat="45.753975" lon="8.4392183"><ele>353.6666666666667</ele><time>2026-04-12T11:53:13.999Z</time></trkpt><trkpt lat="45.7540483" lon="8.43927"><ele>354.0</ele><time>2026-04-12T11:53:15.999Z</time></trkpt><trkpt lat="45.7541067" lon="8.43934"><ele>354.3333333333333</ele><time>2026-04-12T11:53:18Z</time></trkpt><trkpt lat="45.7541717" lon="8.4394167"><ele>354.66666666666663</ele><time>2026-04-12T11:53:19.999Z</time></trkpt><trkpt lat="45.7542417" lon="8.4394933"><ele>355.0</ele><time>2026-04-12T11:53:21.999Z</time></trkpt><trkpt lat="45.7542983" lon="8.4395683"><ele>355.16666666666663</ele><time>2026-04-12T11:53:23.999Z</time></trkpt><trkpt lat="45.7543833" lon="8.4396667"><ele>355.3333333333333</ele><time>2026-04-12T11:53:25.999Z</time></trkpt><trkpt lat="45.7544383" lon="8.43973"><ele>355.5</ele><time>2026-04-12T11:53:26.999Z</time></trkpt><trkpt lat="45.754505" lon="8.4397983"><ele>355.6666666666667</ele><time>2026-04-12T11:53:27.999Z</time></trkpt><trkpt lat="45.7545733" lon="8.4398583"><ele>355.83333333333337</ele><time>2026-04-12T11:53:29Z</time></trkpt><trkpt lat="45.7546333" lon="8.4399083"><ele>356.0</ele><time>2026-04-12T11:53:29.999Z</time></trkpt><trkpt lat="45.7546933" lon="8.4399567"><ele>355.99999999999994</ele><time>2026-04-12T11:53:31Z</time></trkpt><trkpt lat="45.7547617" lon="8.4399983"><ele>356.0</ele><time>2026-04-12T11:53:31.999Z</time></trkpt><trkpt lat="45.75483" lon="8.4400417"><ele>356.0</ele><time>2026-04-12T11:53:33Z</time></trkpt><trkpt lat="45.7548967" lon="8.440075"><ele>356.0</ele><time>2026-04-12T11:53:33.999Z</time></trkpt><trkpt lat="45.7549617" lon="8.4401083"><ele>356.0</ele><time>2026-04-12T11:53:34.999Z</time></trkpt><trkpt lat="45.7550167" lon="8.4401567"><ele>355.99999999999994</ele><time>2026-04-12T11:53:35.999Z</time></trkpt><trkpt lat="45.75508" lon="8.4401867"><ele>356.0</ele><time>2026-04-12T11:53:36.999Z</time></trkpt><trkpt lat="45.7551533" lon="8.4402117"><ele>356.20000000000005</ele><time>2026-04-12T11:53:37.999Z</time></trkpt><trkpt lat="45.7552333" lon="8.4402383"><ele>356.40000000000003</ele><time>2026-04-12T11:53:38.999Z</time></trkpt><trkpt lat="45.7553283" lon="8.440265"><ele>356.6</ele><time>2026-04-12T11:53:39.999Z</time></trkpt><trkpt lat="45.7554283" lon="8.4402867"><ele>356.8</ele><time>2026-04-12T11:53:41Z</time></trkpt><trkpt lat="45.7555333" lon="8.4403067"><ele>357.0</ele><time>2026-04-12T11:53:41.999Z</time></trkpt><trkpt lat="45.7556433" lon="8.4403267"><ele>357.0</ele><time>2026-04-12T11:53:43Z</time></trkpt><trkpt lat="45.7557617" lon="8.44034"><ele>357.0</ele><time>2026-04-12T11:53:43.999Z</time></trkpt><trkpt lat="45.7558867" lon="8.44036"><ele>357.0</ele><time>2026-04-12T11:53:44.999Z</time></trkpt><trkpt lat="45.7560133" lon="8.44038"><ele>357.0</ele><time>2026-04-12T11:53:45.999Z</time></trkpt><trkpt lat="45.7561317" lon="8.4404083"><ele>357.5</ele><time>2026-04-12T11:53:46.999Z</time></trkpt><trkpt lat="45.7562517" lon="8.4404267"><ele>358.0</ele><time>2026-04-12T11:53:47.999Z</time></trkpt><trkpt lat="45.7563767" lon="8.440445"><ele>358.5</ele><time>2026-04-12T11:53:48.999Z</time></trkpt><trkpt lat="45.7565" lon="8.4404417"><ele>359.0</ele><time>2026-04-12T11:53:49.999Z</time></trkpt><trkpt lat="45.756635" lon="8.4404367"><ele>359.0</ele><time>2026-04-12T11:53:51Z</time></trkpt><trkpt lat="45.75677" lon="8.4404283"><ele>359.0</ele><time>2026-04-12T11:53:51.999Z</time></trkpt><trkpt lat="45.7568983" lon="8.4404317"><ele>359.0</ele><time>2026-04-12T11:53:52.999Z</time></trkpt><trkpt lat="45.7570217" lon="8.4404417"><ele>359.0</ele><time>2026-04-12T11:53:54Z</time></trkpt><trkpt lat="45.7571483" lon="8.44045"><ele>359.0</ele><time>2026-04-12T11:53:54.999Z</time></trkpt><trkpt lat="45.7572717" lon="8.44045"><ele>359.0</ele><time>2026-04-12T11:53:55.999Z</time></trkpt><trkpt lat="45.75739" lon="8.44045"><ele>359.0</ele><time>2026-04-12T11:53:56.999Z</time></trkpt><trkpt lat="45.7575083" lon="8.4404367"><ele>359.0</ele><time>2026-04-12T11:53:58Z</time></trkpt><trkpt lat="45.7576383" lon="8.4404283"><ele>359.25</ele><time>2026-04-12T11:53:58.999Z</time></trkpt><trkpt lat="45.7577633" lon="8.44039"><ele>359.5</ele><time>2026-04-12T11:53:59.999Z</time></trkpt><trkpt lat="45.75788" lon="8.4403267"><ele>359.75</ele><time>2026-04-12T11:54:00.999Z</time></trkpt><trkpt lat="45.7579917" lon="8.4402483"><ele>360.0</ele><time>2026-04-12T11:54:02Z</time></trkpt><trkpt lat="45.7581" lon="8.4401767"><ele>360.0</ele><time>2026-04-12T11:54:02.999Z</time></trkpt><trkpt lat="45.7581967" lon="8.440115"><ele>360.0</ele><time>2026-04-12T11:54:04Z</time></trkpt><trkpt lat="45.75829" lon="8.4400467"><ele>360.0</ele><time>2026-04-12T11:54:04.999Z</time></trkpt><trkpt lat="45.7583933" lon="8.440005"><ele>360.0</ele><time>2026-04-12T11:54:05.999Z</time></trkpt><trkpt lat="45.7585017" lon="8.4399633"><ele>360.0</ele><time>2026-04-12T11:54:06.999Z</time></trkpt><trkpt lat="45.758615" lon="8.4399567"><ele>360.5</ele><time>2026-04-12T11:54:07.999Z</time></trkpt><trkpt lat="45.75873" lon="8.4399467"><ele>361.0</ele><time>2026-04-12T11:54:08.999Z</time></trkpt><trkpt lat="45.758855" lon="8.4399383"><ele>361.5</ele><time>2026-04-12T11:54:10Z</time></trkpt><trkpt lat="45.7589783" lon="8.4399167"><ele>362.0</ele><time>2026-04-12T11:54:10.999Z</time></trkpt><trkpt lat="45.75909" lon="8.4398967"><ele>362.0</ele><time>2026-04-12T11:54:12Z</time></trkpt><trkpt lat="45.7591883" lon="8.4398867"><ele>362.0</ele><time>2026-04-12T11:54:13Z</time></trkpt><trkpt lat="45.7592633" lon="8.439885"><ele>362.0</ele><time>2026-04-12T11:54:14Z</time></trkpt><trkpt lat="45.7593283" lon="8.439865"><ele>362.0</ele><time>2026-04-12T11:54:15.999Z</time></trkpt><trkpt lat="45.7593367" lon="8.43977"><ele>362.0</ele><time>2026-04-12T11:54:18.999Z</time></trkpt><trkpt lat="45.7593067" lon="8.4396817"><ele>362.0</ele><time>2026-04-12T11:54:19.999Z</time></trkpt><trkpt lat="45.7592617" lon="8.4395983"><ele>362.0</ele><time>2026-04-12T11:54:21Z</time></trkpt><trkpt lat="45.7592617" lon="8.4394967"><ele>362.1666666666667</ele><time>2026-04-12T11:54:23Z</time></trkpt><trkpt lat="45.75933" lon="8.439505"><ele>362.33333333333337</ele><time>2026-04-12T11:54:24.999Z</time></trkpt><trkpt lat="45.7594633" lon="8.4395417"><ele>362.5</ele><time>2026-04-12T11:54:26.999Z</time></trkpt><trkpt lat="45.75955" lon="8.4395533"><ele>362.6666666666667</ele><time>2026-04-12T11:54:28Z</time></trkpt><trkpt lat="45.759625" lon="8.4395583"><ele>362.8333333333333</ele><time>2026-04-12T11:54:29Z</time></trkpt><trkpt lat="45.7596983" lon="8.4395083"><ele>363.0</ele><time>2026-04-12T11:54:29.999Z</time></trkpt><trkpt lat="45.7597783" lon="8.4394683"><ele>363.2</ele><time>2026-04-12T11:54:31Z</time></trkpt><trkpt lat="45.75987" lon="8.4394333"><ele>363.4</ele><time>2026-04-12T11:54:31.999Z</time></trkpt><trkpt lat="45.7599583" lon="8.4393983"><ele>363.59999999999997</ele><time>2026-04-12T11:54:32.999Z</time></trkpt><trkpt lat="45.7600433" lon="8.4393817"><ele>363.79999999999995</ele><time>2026-04-12T11:54:33.999Z</time></trkpt><trkpt lat="45.7601333" lon="8.4393733"><ele>364.0</ele><time>2026-04-12T11:54:35Z</time></trkpt><trkpt lat="45.7602217" lon="8.43938"><ele>364.3333333333333</ele><time>2026-04-12T11:54:35.999Z</time></trkpt><trkpt lat="45.7603117" lon="8.4393883"><ele>364.66666666666663</ele><time>2026-04-12T11:54:36.999Z</time></trkpt><trkpt lat="45.760405" lon="8.439405"><ele>365.0</ele><time>2026-04-12T11:54:37.999Z</time></trkpt><trkpt lat="45.7604833" lon="8.4394333"><ele>365.3333333333333</ele><time>2026-04-12T11:54:39Z</time></trkpt><trkpt lat="45.760545" lon="8.439485"><ele>365.6666666666667</ele><time>2026-04-12T11:54:40Z</time></trkpt><trkpt lat="45.7606133" lon="8.4395217"><ele>366.0</ele><time>2026-04-12T11:54:40.999Z</time></trkpt><trkpt lat="45.76068" lon="8.4395567"><ele>366.0</ele><time>2026-04-12T11:54:41.999Z</time></trkpt><trkpt lat="45.76075" lon="8.4396017"><ele>366.0</ele><time>2026-04-12T11:54:43Z</time></trkpt><trkpt lat="45.7608283" lon="8.4396433"><ele>366.0</ele><time>2026-04-12T11:54:44Z</time></trkpt><trkpt lat="45.76091" lon="8.43967"><ele>366.0</ele><time>2026-04-12T11:54:44.999Z</time></trkpt><trkpt lat="45.761005" lon="8.4396733"><ele>366.0</ele><time>2026-04-12T11:54:46Z</time></trkpt><trkpt lat="45.7611133" lon="8.4396867"><ele>366.0</ele><time>2026-04-12T11:54:46.999Z</time></trkpt><trkpt lat="45.7612333" lon="8.4397067"><ele>366.75</ele><time>2026-04-12T11:54:47.999Z</time></trkpt><trkpt lat="45.7613567" lon="8.4397267"><ele>367.5</ele><time>2026-04-12T11:54:48.999Z</time></trkpt><trkpt lat="45.7614867" lon="8.4397567"><ele>368.25</ele><time>2026-04-12T11:54:50Z</time></trkpt><trkpt lat="45.7616117" lon="8.4397767"><ele>369.0</ele><time>2026-04-12T11:54:50.999Z</time></trkpt><trkpt lat="45.7617333" lon="8.4398217"><ele>369.0</ele><time>2026-04-12T11:54:51.999Z</time></trkpt><trkpt lat="45.7618617" lon="8.4398517"><ele>369.0</ele><time>2026-04-12T11:54:53Z</time></trkpt><trkpt lat="45.7619817" lon="8.43988"><ele>369.0</ele><time>2026-04-12T11:54:54Z</time></trkpt><trkpt lat="45.7620983" lon="8.4399117"><ele>369.0</ele><time>2026-04-12T11:54:55Z</time></trkpt><trkpt lat="45.7622233" lon="8.439955"><ele>370.75</ele><time>2026-04-12T11:54:56Z</time></trkpt><trkpt lat="45.762345" lon="8.4400067"><ele>372.5</ele><time>2026-04-12T11:54:56.999Z</time></trkpt><trkpt lat="45.7624633" lon="8.4400683"><ele>374.25</ele><time>2026-04-12T11:54:57.999Z</time></trkpt><trkpt lat="45.76257" lon="8.44013"><ele>376.0</ele><time>2026-04-12T11:54:58.999Z</time></trkpt><trkpt lat="45.7626883" lon="8.4402"><ele>378.75</ele><time>2026-04-12T11:54:59.999Z</time></trkpt><trkpt lat="45.7628133" lon="8.4402583"><ele>381.5</ele><time>2026-04-12T11:55:01Z</time></trkpt><trkpt lat="45.7629433" lon="8.4403133"><ele>384.25</ele><time>2026-04-12T11:55:02Z</time></trkpt><trkpt lat="45.76307" lon="8.4403517"><ele>387.0</ele><time>2026-04-12T11:55:02.999Z</time></trkpt><trkpt lat="45.7631817" lon="8.440395"><ele>387.0</ele><time>2026-04-12T11:55:03.999Z</time></trkpt><trkpt lat="45.7632967" lon="8.4404467"><ele>387.0</ele><time>2026-04-12T11:55:05Z</time></trkpt><trkpt lat="45.7634067" lon="8.4405"><ele>387.0</ele><time>2026-04-12T11:55:05.999Z</time></trkpt><trkpt lat="45.7635133" lon="8.4405483"><ele>387.0</ele><time>2026-04-12T11:55:06.999Z</time></trkpt><trkpt lat="45.7636167" lon="8.4405817"><ele>384.75</ele><time>2026-04-12T11:55:08Z</time></trkpt><trkpt lat="45.76373" lon="8.44063"><ele>382.5</ele><time>2026-04-12T11:55:09Z</time></trkpt><trkpt lat="45.763855" lon="8.4406767"><ele>380.25</ele><time>2026-04-12T11:55:09.999Z</time></trkpt><trkpt lat="45.7639733" lon="8.4407217"><ele>378.0</ele><time>2026-04-12T11:55:10.999Z</time></trkpt><trkpt lat="45.7640933" lon="8.44077"><ele>378.0</ele><time>2026-04-12T11:55:11.999Z</time></trkpt><trkpt lat="45.7642183" lon="8.440815"><ele>378.0</ele><time>2026-04-12T11:55:12.999Z</time></trkpt><trkpt lat="45.7643483" lon="8.4408433"><ele>378.0</ele><time>2026-04-12T11:55:13.999Z</time></trkpt><trkpt lat="45.7644767" lon="8.44083"><ele>378.0</ele><time>2026-04-12T11:55:15Z</time></trkpt><trkpt lat="45.7645933" lon="8.4408067"><ele>377.0</ele><time>2026-04-12T11:55:15.999Z</time></trkpt><trkpt lat="45.7647" lon="8.4407783"><ele>376.0</ele><time>2026-04-12T11:55:16.999Z</time></trkpt><trkpt lat="45.7648" lon="8.44074"><ele>375.0</ele><time>2026-04-12T11:55:17.999Z</time></trkpt><trkpt lat="45.7649" lon="8.4407033"><ele>374.0</ele><time>2026-04-12T11:55:19Z</time></trkpt><trkpt lat="45.7650017" lon="8.4406517"><ele>373.0</ele><time>2026-04-12T11:55:20Z</time></trkpt><trkpt lat="45.7650867" lon="8.44059"><ele>373.0</ele><time>2026-04-12T11:55:20.999Z</time></trkpt><trkpt lat="45.7651767" lon="8.44051"><ele>373.0</ele><time>2026-04-12T11:55:22Z</time></trkpt><trkpt lat="45.7652567" lon="8.440425"><ele>373.0</ele><time>2026-04-12T11:55:22.999Z</time></trkpt><trkpt lat="45.76535" lon="8.4403283"><ele>373.0</ele><time>2026-04-12T11:55:23.999Z</time></trkpt><trkpt lat="45.76544" lon="8.4402367"><ele>373.0</ele><time>2026-04-12T11:55:24.999Z</time></trkpt><trkpt lat="45.7655267" lon="8.4401433"><ele>373.4</ele><time>2026-04-12T11:55:25.999Z</time></trkpt><trkpt lat="45.7656133" lon="8.4400533"><ele>373.79999999999995</ele><time>2026-04-12T11:55:26.999Z</time></trkpt><trkpt lat="45.76569" lon="8.4399683"><ele>374.2</ele><time>2026-04-12T11:55:28Z</time></trkpt><trkpt lat="45.7657583" lon="8.4398833"><ele>374.6</ele><time>2026-04-12T11:55:28.999Z</time></trkpt><trkpt lat="45.7658267" lon="8.439795"><ele>375.0</ele><time>2026-04-12T11:55:29.999Z</time></trkpt><trkpt lat="45.7658817" lon="8.4397033"><ele>375.2</ele><time>2026-04-12T11:55:30.999Z</time></trkpt><trkpt lat="45.7659433" lon="8.439615"><ele>375.4</ele><time>2026-04-12T11:55:32Z</time></trkpt><trkpt lat="45.766015" lon="8.43952"><ele>375.6</ele><time>2026-04-12T11:55:33Z</time></trkpt><trkpt lat="45.7661" lon="8.4394217"><ele>375.8</ele><time>2026-04-12T11:55:33.999Z</time></trkpt><trkpt lat="45.7661917" lon="8.4393133"><ele>376.0</ele><time>2026-04-12T11:55:34.999Z</time></trkpt><trkpt lat="45.766285" lon="8.4392017"><ele>376.0</ele><time>2026-04-12T11:55:35.999Z</time></trkpt><trkpt lat="45.7663733" lon="8.4390833"><ele>376.0</ele><time>2026-04-12T11:55:36.999Z</time></trkpt><trkpt lat="45.7664617" lon="8.43898"><ele>376.0</ele><time>2026-04-12T11:55:38Z</time></trkpt><trkpt lat="45.7665367" lon="8.438885"><ele>376.0</ele><time>2026-04-12T11:55:38.999Z</time></trkpt><trkpt lat="45.766605" lon="8.4387983"><ele>376.0</ele><time>2026-04-12T11:55:39.999Z</time></trkpt><trkpt lat="45.766685" lon="8.4387083"><ele>376.0</ele><time>2026-04-12T11:55:40.999Z</time></trkpt><trkpt lat="45.76676" lon="8.4386117"><ele>376.0</ele><time>2026-04-12T11:55:41.999Z</time></trkpt><trkpt lat="45.7668317" lon="8.4385133"><ele>376.0</ele><time>2026-04-12T11:55:42.999Z</time></trkpt><trkpt lat="45.766895" lon="8.4384"><ele>376.0</ele><time>2026-04-12T11:55:44Z</time></trkpt><trkpt lat="45.7669383" lon="8.438285"><ele>376.0</ele><time>2026-04-12T11:55:45Z</time></trkpt><trkpt lat="45.766995" lon="8.43817"><ele>376.0</ele><time>2026-04-12T11:55:45.999Z</time></trkpt><trkpt lat="45.767035" lon="8.4380683"><ele>376.0</ele><time>2026-04-12T11:55:46.999Z</time></trkpt><trkpt lat="45.7670733" lon="8.4379467"><ele>376.0</ele><time>2026-04-12T11:55:47.999Z</time></trkpt><trkpt lat="45.7671117" lon="8.4378217"><ele>376.0</ele><time>2026-04-12T11:55:48.999Z</time></trkpt><trkpt lat="45.7671267" lon="8.4377083"><ele>376.0</ele><time>2026-04-12T11:55:49.999Z</time></trkpt><trkpt lat="45.7671283" lon="8.43759"><ele>376.0</ele><time>2026-04-12T11:55:51Z</time></trkpt><trkpt lat="45.767135" lon="8.4374433"><ele>377.5</ele><time>2026-04-12T11:55:51.999Z</time></trkpt><trkpt lat="45.7671317" lon="8.4372933"><ele>379.0</ele><time>2026-04-12T11:55:52.999Z</time></trkpt><trkpt lat="45.7671433" lon="8.4371217"><ele>380.5</ele><time>2026-04-12T11:55:53.999Z</time></trkpt><trkpt lat="45.76717" lon="8.436935"><ele>382.0</ele><time>2026-04-12T11:55:54.999Z</time></trkpt><trkpt lat="45.7671883" lon="8.4367633"><ele>383.0</ele><time>2026-04-12T11:55:55.999Z</time></trkpt><trkpt lat="45.7672133" lon="8.4366017"><ele>384.0</ele><time>2026-04-12T11:55:56.999Z</time></trkpt><trkpt lat="45.7672467" lon="8.4364333"><ele>385.0</ele><time>2026-04-12T11:55:58Z</time></trkpt><trkpt lat="45.7672833" lon="8.4362633"><ele>386.0</ele><time>2026-04-12T11:55:59Z</time></trkpt><trkpt lat="45.76732" lon="8.43611"><ele>386.8</ele><time>2026-04-12T11:55:59.999Z</time></trkpt><trkpt lat="45.767365" lon="8.4359633"><ele>387.6</ele><time>2026-04-12T11:56:01Z</time></trkpt><trkpt lat="45.767415" lon="8.4358267"><ele>388.4</ele><time>2026-04-12T11:56:01.999Z</time></trkpt><trkpt lat="45.7674833" lon="8.4356983"><ele>389.2</ele><time>2026-04-12T11:56:02.999Z</time></trkpt><trkpt lat="45.76755" lon="8.4355767"><ele>390.0</ele><time>2026-04-12T11:56:03.999Z</time></trkpt><trkpt lat="45.7676233" lon="8.4354717"><ele>388.2</ele><time>2026-04-12T11:56:05Z</time></trkpt><trkpt lat="45.767705" lon="8.4353667"><ele>386.4</ele><time>2026-04-12T11:56:06Z</time></trkpt><trkpt lat="45.7677883" lon="8.43527"><ele>384.6</ele><time>2026-04-12T11:56:06.999Z</time></trkpt><trkpt lat="45.7678733" lon="8.4351667"><ele>382.8</ele><time>2026-04-12T11:56:07.999Z</time></trkpt><trkpt lat="45.7679617" lon="8.4350633"><ele>381.0</ele><time>2026-04-12T11:56:08.999Z</time></trkpt><trkpt lat="45.7680467" lon="8.4349517"><ele>381.0</ele><time>2026-04-12T11:56:09.999Z</time></trkpt><trkpt lat="45.7681267" lon="8.4348433"><ele>381.0</ele><time>2026-04-12T11:56:10.999Z</time></trkpt><trkpt lat="45.7682017" lon="8.43474"><ele>381.0</ele><time>2026-04-12T11:56:11.999Z</time></trkpt><trkpt lat="45.7682683" lon="8.434645"><ele>381.0</ele><time>2026-04-12T11:56:12.999Z</time></trkpt><trkpt lat="45.7683117" lon="8.4345783"><ele>381.0</ele><time>2026-04-12T11:56:13.999Z</time></trkpt><trkpt lat="45.7683667" lon="8.4344933"><ele>380.1666666666667</ele><time>2026-04-12T11:56:15Z</time></trkpt><trkpt lat="45.7684267" lon="8.4343983"><ele>379.3333333333333</ele><time>2026-04-12T11:56:15.999Z</time></trkpt><trkpt lat="45.7684817" lon="8.4342917"><ele>378.5</ele><time>2026-04-12T11:56:17Z</time></trkpt><trkpt lat="45.7685233" lon="8.43418"><ele>377.66666666666663</ele><time>2026-04-12T11:56:18Z</time></trkpt><trkpt lat="45.76855" lon="8.4340817"><ele>376.8333333333333</ele><time>2026-04-12T11:56:19Z</time></trkpt><trkpt lat="45.768565" lon="8.4339933"><ele>376.0</ele><time>2026-04-12T11:56:19.999Z</time></trkpt><trkpt lat="45.768575" lon="8.4338867"><ele>375.66666666666663</ele><time>2026-04-12T11:56:20.999Z</time></trkpt><trkpt lat="45.7686267" lon="8.43376"><ele>375.3333333333333</ele><time>2026-04-12T11:56:22.999Z</time></trkpt><trkpt lat="45.768695" lon="8.4336783"><ele>375.0</ele><time>2026-04-12T11:56:25Z</time></trkpt><trkpt lat="45.7687717" lon="8.43362"><ele>374.6666666666667</ele><time>2026-04-12T11:56:26.999Z</time></trkpt><trkpt lat="45.7688433" lon="8.433545"><ele>374.33333333333337</ele><time>2026-04-12T11:56:29.999Z</time></trkpt><trkpt lat="45.7689117" lon="8.4335233"><ele>374.0</ele><time>2026-04-12T11:56:31.999Z</time></trkpt><trkpt lat="45.76901" lon="8.433505"><ele>374.0</ele><time>2026-04-12T11:56:33.999Z</time></trkpt><trkpt lat="45.769075" lon="8.4334917"><ele>374.0</ele><time>2026-04-12T11:56:34.999Z</time></trkpt><trkpt lat="45.7691517" lon="8.4334933"><ele>374.0</ele><time>2026-04-12T11:56:35.999Z</time></trkpt><trkpt lat="45.7692433" lon="8.4335117"><ele>374.0</ele><time>2026-04-12T11:56:36.999Z</time></trkpt><trkpt lat="45.7693367" lon="8.4335667"><ele>374.0</ele><time>2026-04-12T11:56:37.999Z</time></trkpt><trkpt lat="45.7694133" lon="8.43366"><ele>374.0</ele><time>2026-04-12T11:56:38.999Z</time></trkpt><trkpt lat="45.7694817" lon="8.433795"><ele>379.75</ele><time>2026-04-12T11:56:39.999Z</time></trkpt><trkpt lat="45.7695233" lon="8.4339617"><ele>385.5</ele><time>2026-04-12T11:56:40.999Z</time></trkpt><trkpt lat="45.7695533" lon="8.434135"><ele>391.25</ele><time>2026-04-12T11:56:41.999Z</time></trkpt><trkpt lat="45.7695883" lon="8.4342967"><ele>397.0</ele><time>2026-04-12T11:56:43Z</time></trkpt><trkpt lat="45.7696233" lon="8.4344767"><ele>394.5</ele><time>2026-04-12T11:56:43.999Z</time></trkpt><trkpt lat="45.7696733" lon="8.434655"><ele>392.0</ele><time>2026-04-12T11:56:44.999Z</time></trkpt><trkpt lat="45.7697333" lon="8.4348233"><ele>389.5</ele><time>2026-04-12T11:56:45.999Z</time></trkpt><trkpt lat="45.7697883" lon="8.4349917"><ele>387.0</ele><time>2026-04-12T11:56:46.999Z</time></trkpt><trkpt lat="45.7698433" lon="8.4351617"><ele>387.0</ele><time>2026-04-12T11:56:47.999Z</time></trkpt><trkpt lat="45.7698933" lon="8.4353283"><ele>387.0</ele><time>2026-04-12T11:56:48.999Z</time></trkpt><trkpt lat="45.7699417" lon="8.4354933"><ele>387.0</ele><time>2026-04-12T11:56:50Z</time></trkpt><trkpt lat="45.769995" lon="8.4356583"><ele>387.0</ele><time>2026-04-12T11:56:50.999Z</time></trkpt><trkpt lat="45.7700517" lon="8.435825"><ele>385.5</ele><time>2026-04-12T11:56:52Z</time></trkpt><trkpt lat="45.7701033" lon="8.4359967"><ele>384.0</ele><time>2026-04-12T11:56:52.999Z</time></trkpt><trkpt lat="45.7701517" lon="8.4361633"><ele>382.5</ele><time>2026-04-12T11:56:54Z</time></trkpt><trkpt lat="45.77019" lon="8.4363133"><ele>381.0</ele><time>2026-04-12T11:56:55Z</time></trkpt><trkpt lat="45.7702383" lon="8.4364533"><ele>380.0</ele><time>2026-04-12T11:56:55.999Z</time></trkpt><trkpt lat="45.770285" lon="8.4365817"><ele>379.0</ele><time>2026-04-12T11:56:56.999Z</time></trkpt><trkpt lat="45.7703367" lon="8.4366883"><ele>378.0</ele><time>2026-04-12T11:56:57.999Z</time></trkpt><trkpt lat="45.7703933" lon="8.4367833"><ele>377.0</ele><time>2026-04-12T11:56:59Z</time></trkpt><trkpt lat="45.7704467" lon="8.4368533"><ele>376.0</ele><time>2026-04-12T11:57:00Z</time></trkpt><trkpt lat="45.7704983" lon="8.436905"><ele>375.0</ele><time>2026-04-12T11:57:00.999Z</time></trkpt><trkpt lat="45.7705917" lon="8.436925"><ele>375.0</ele><time>2026-04-12T11:57:03Z</time></trkpt><trkpt lat="45.77063" lon="8.4368333"><ele>375.0</ele><time>2026-04-12T11:57:11Z</time></trkpt><trkpt lat="45.770535" lon="8.436835"><ele>375.0</ele><time>2026-04-12T11:57:12.999Z</time></trkpt><trkpt lat="45.770455" lon="8.4367883"><ele>375.0</ele><time>2026-04-12T11:57:14.999Z</time></trkpt><trkpt lat="45.7703983" lon="8.4367"><ele>375.0</ele><time>2026-04-12T11:57:16.999Z</time></trkpt><trkpt lat="45.7704583" lon="8.43656"><ele>375.0</ele><time>2026-04-12T11:57:24.999Z</time></trkpt><trkpt lat="45.7705567" lon="8.4364733"><ele>375.0</ele><time>2026-04-12T11:57:27Z</time></trkpt><trkpt lat="45.7706567" lon="8.43639"><ele>375.0</ele><time>2026-04-12T11:57:28.999Z</time></trkpt><trkpt lat="45.7707483" lon="8.436275"><ele>375.0</ele><time>2026-04-12T11:57:30.999Z</time></trkpt><trkpt lat="45.770795" lon="8.4362133"><ele>375.0</ele><time>2026-04-12T11:57:31.999Z</time></trkpt><trkpt lat="45.7708383" lon="8.4361467"><ele>374.8</ele><time>2026-04-12T11:57:32.999Z</time></trkpt><trkpt lat="45.7708883" lon="8.4360833"><ele>374.6</ele><time>2026-04-12T11:57:34Z</time></trkpt><trkpt lat="45.770975" lon="8.436"><ele>374.4</ele><time>2026-04-12T11:57:36Z</time></trkpt><trkpt lat="45.7710617" lon="8.4359133"><ele>374.2</ele><time>2026-04-12T11:57:37.999Z</time></trkpt><trkpt lat="45.7711433" lon="8.4358083"><ele>374.0</ele><time>2026-04-12T11:57:40Z</time></trkpt><trkpt lat="45.7712317" lon="8.4357217"><ele>374.33333333333337</ele><time>2026-04-12T11:57:42Z</time></trkpt><trkpt lat="45.7713167" lon="8.435635"><ele>374.6666666666667</ele><time>2026-04-12T11:57:43.999Z</time></trkpt><trkpt lat="45.7714083" lon="8.43554"><ele>375.0</ele><time>2026-04-12T11:57:45.999Z</time></trkpt><trkpt lat="45.7714567" lon="8.43548"><ele>375.3333333333333</ele><time>2026-04-12T11:57:46.999Z</time></trkpt><trkpt lat="45.7715167" lon="8.4354317"><ele>375.66666666666663</ele><time>2026-04-12T11:57:47.999Z</time></trkpt><trkpt lat="45.7715767" lon="8.4353933"><ele>376.0</ele><time>2026-04-12T11:57:48.999Z</time></trkpt><trkpt lat="45.7716483" lon="8.43536"><ele>374.8333333333333</ele><time>2026-04-12T11:57:49.999Z</time></trkpt><trkpt lat="45.7717083" lon="8.43533"><ele>373.66666666666663</ele><time>2026-04-12T11:57:51Z</time></trkpt><trkpt lat="45.771805" lon="8.4353067"><ele>372.5</ele><time>2026-04-12T11:57:53Z</time></trkpt><trkpt lat="45.7718683" lon="8.4352567"><ele>371.3333333333333</ele><time>2026-04-12T11:57:54.999Z</time></trkpt><trkpt lat="45.7719233" lon="8.4351983"><ele>370.1666666666667</ele><time>2026-04-12T11:57:56.999Z</time></trkpt><trkpt lat="45.771985" lon="8.4351667"><ele>369.0</ele><time>2026-04-12T11:57:58.999Z</time></trkpt><trkpt lat="45.7720817" lon="8.4351183"><ele>369.0</ele><time>2026-04-12T11:58:00.999Z</time></trkpt><trkpt lat="45.7721967" lon="8.4350683"><ele>369.0</ele><time>2026-04-12T11:58:03Z</time></trkpt><trkpt lat="45.7722967" lon="8.4350233"><ele>369.0</ele><time>2026-04-12T11:58:05Z</time></trkpt><trkpt lat="45.772375" lon="8.4349817"><ele>369.0</ele><time>2026-04-12T11:58:07Z</time></trkpt><trkpt lat="45.7724633" lon="8.434935"><ele>369.0</ele><time>2026-04-12T11:58:08.999Z</time></trkpt><trkpt lat="45.7725617" lon="8.4348767"><ele>369.0</ele><time>2026-04-12T11:58:10.999Z</time></trkpt><trkpt lat="45.7726533" lon="8.4348267"><ele>369.0</ele><time>2026-04-12T11:58:12.999Z</time></trkpt><trkpt lat="45.7727133" lon="8.4347867"><ele>369.0</ele><time>2026-04-12T11:58:13.999Z</time></trkpt><trkpt lat="45.7728117" lon="8.434675"><ele>369.0</ele><time>2026-04-12T11:58:15.999Z</time></trkpt><trkpt lat="45.7728567" lon="8.4346083"><ele>369.0</ele><time>2026-04-12T11:58:17Z</time></trkpt><trkpt lat="45.7728983" lon="8.43453"><ele>369.0</ele><time>2026-04-12T11:58:18Z</time></trkpt><trkpt lat="45.7729467" lon="8.4344533"><ele>369.7142857142857</ele><time>2026-04-12T11:58:18.999Z</time></trkpt><trkpt lat="45.773005" lon="8.4343817"><ele>370.42857142857144</ele><time>2026-04-12T11:58:19.999Z</time></trkpt><trkpt lat="45.7730633" lon="8.4343133"><ele>371.1428571428571</ele><time>2026-04-12T11:58:20.999Z</time></trkpt><trkpt lat="45.773115" lon="8.4342517"><ele>371.8571428571429</ele><time>2026-04-12T11:58:21.999Z</time></trkpt><trkpt lat="45.773175" lon="8.434195"><ele>372.5714285714286</ele><time>2026-04-12T11:58:22.999Z</time></trkpt><trkpt lat="45.773235" lon="8.4341317"><ele>373.2857142857143</ele><time>2026-04-12T11:58:24Z</time></trkpt><trkpt lat="45.773295" lon="8.4340633"><ele>374.0</ele><time>2026-04-12T11:58:24.999Z</time></trkpt><trkpt lat="45.7733517" lon="8.434005"><ele>374.0</ele><time>2026-04-12T11:58:25.999Z</time></trkpt><trkpt lat="45.7734083" lon="8.4339483"><ele>374.0</ele><time>2026-04-12T11:58:26.999Z</time></trkpt><trkpt lat="45.7734633" lon="8.4338867"><ele>374.0</ele><time>2026-04-12T11:58:27.999Z</time></trkpt><trkpt lat="45.7735217" lon="8.4338333"><ele>374.0</ele><time>2026-04-12T11:58:28.999Z</time></trkpt><trkpt lat="45.7735867" lon="8.4337767"><ele>374.0</ele><time>2026-04-12T11:58:30Z</time></trkpt><trkpt lat="45.7736533" lon="8.4337233"><ele>374.0</ele><time>2026-04-12T11:58:30.999Z</time></trkpt><trkpt lat="45.773715" lon="8.433675"><ele>374.0</ele><time>2026-04-12T11:58:31.999Z</time></trkpt><trkpt lat="45.7737733" lon="8.4336267"><ele>373.7142857142857</ele><time>2026-04-12T11:58:32.999Z</time></trkpt><trkpt lat="45.773825" lon="8.4335633"><ele>373.42857142857144</ele><time>2026-04-12T11:58:33.999Z</time></trkpt><trkpt lat="45.7738917" lon="8.4335"><ele>373.14285714285717</ele><time>2026-04-12T11:58:35Z</time></trkpt><trkpt lat="45.77396" lon="8.433435"><ele>372.8571428571429</ele><time>2026-04-12T11:58:36Z</time></trkpt><trkpt lat="45.77403" lon="8.4333883"><ele>372.57142857142856</ele><time>2026-04-12T11:58:36.999Z</time></trkpt><trkpt lat="45.7740867" lon="8.43334"><ele>372.28571428571433</ele><time>2026-04-12T11:58:37.999Z</time></trkpt><trkpt lat="45.7741467" lon="8.4332833"><ele>372.0</ele><time>2026-04-12T11:58:39Z</time></trkpt><trkpt lat="45.7742" lon="8.4332333"><ele>372.00000000000006</ele><time>2026-04-12T11:58:39.999Z</time></trkpt><trkpt lat="45.7742567" lon="8.4331633"><ele>372.0</ele><time>2026-04-12T11:58:40.999Z</time></trkpt><trkpt lat="45.77432" lon="8.4330917"><ele>372.0</ele><time>2026-04-12T11:58:42Z</time></trkpt><trkpt lat="45.7743783" lon="8.4330217"><ele>372.0</ele><time>2026-04-12T11:58:42.999Z</time></trkpt><trkpt lat="45.7744333" lon="8.4329533"><ele>372.0</ele><time>2026-04-12T11:58:44Z</time></trkpt><trkpt lat="45.7744867" lon="8.4328867"><ele>372.00000000000006</ele><time>2026-04-12T11:58:45Z</time></trkpt><trkpt lat="45.77453" lon="8.4328167"><ele>372.0</ele><time>2026-04-12T11:58:45.999Z</time></trkpt><trkpt lat="45.774605" lon="8.4326867"><ele>373.3333333333333</ele><time>2026-04-12T11:58:47.999Z</time></trkpt><trkpt lat="45.7746517" lon="8.4326183"><ele>374.6666666666667</ele><time>2026-04-12T11:58:49Z</time></trkpt><trkpt lat="45.7747467" lon="8.4324967"><ele>376.0</ele><time>2026-04-12T11:58:51Z</time></trkpt><trkpt lat="45.7747967" lon="8.4324383"><ele>377.33333333333337</ele><time>2026-04-12T11:58:51.999Z</time></trkpt><trkpt lat="45.7748517" lon="8.4323783"><ele>378.6666666666667</ele><time>2026-04-12T11:58:52.999Z</time></trkpt><trkpt lat="45.7749017" lon="8.4323083"><ele>380.0</ele><time>2026-04-12T11:58:53.999Z</time></trkpt><trkpt lat="45.7749467" lon="8.4322433"><ele>379.0</ele><time>2026-04-12T11:58:54.999Z</time></trkpt><trkpt lat="45.7750317" lon="8.4321267"><ele>378.0</ele><time>2026-04-12T11:58:56.999Z</time></trkpt><trkpt lat="45.7751267" lon="8.4320433"><ele>377.0</ele><time>2026-04-12T11:58:58.999Z</time></trkpt><trkpt lat="45.7752283" lon="8.43197"><ele>376.0</ele><time>2026-04-12T11:59:01Z</time></trkpt><trkpt lat="45.7753267" lon="8.4318883"><ele>376.0</ele><time>2026-04-12T11:59:02.999Z</time></trkpt><trkpt lat="45.775415" lon="8.4317933"><ele>376.0</ele><time>2026-04-12T11:59:05Z</time></trkpt><trkpt lat="45.77547" lon="8.4317333"><ele>376.0</ele><time>2026-04-12T11:59:05.999Z</time></trkpt><trkpt lat="45.7755317" lon="8.4316667"><ele>376.0</ele><time>2026-04-12T11:59:07Z</time></trkpt><trkpt lat="45.775585" lon="8.431595"><ele>376.0</ele><time>2026-04-12T11:59:07.999Z</time></trkpt><trkpt lat="45.77565" lon="8.4315267"><ele>376.0</ele><time>2026-04-12T11:59:08.999Z</time></trkpt><trkpt lat="45.7757167" lon="8.4314567"><ele>376.0</ele><time>2026-04-12T11:59:09.999Z</time></trkpt><trkpt lat="45.7757817" lon="8.4313883"><ele>376.0</ele><time>2026-04-12T11:59:10.999Z</time></trkpt><trkpt lat="45.77584" lon="8.4313067"><ele>376.0</ele><time>2026-04-12T11:59:12Z</time></trkpt><trkpt lat="45.7759067" lon="8.4312417"><ele>376.0</ele><time>2026-04-12T11:59:12.999Z</time></trkpt><trkpt lat="45.7759667" lon="8.4311783"><ele>376.0</ele><time>2026-04-12T11:59:13.999Z</time></trkpt><trkpt lat="45.77602" lon="8.4311167"><ele>376.0</ele><time>2026-04-12T11:59:14.999Z</time></trkpt><trkpt lat="45.7761183" lon="8.4310267"><ele>376.20000000000005</ele><time>2026-04-12T11:59:16.999Z</time></trkpt><trkpt lat="45.77618" lon="8.4309083"><ele>376.40000000000003</ele><time>2026-04-12T11:59:18.999Z</time></trkpt><trkpt lat="45.7762383" lon="8.4307883"><ele>376.6</ele><time>2026-04-12T11:59:21Z</time></trkpt><trkpt lat="45.7763133" lon="8.4306383"><ele>376.8</ele><time>2026-04-12T11:59:22.999Z</time></trkpt><trkpt lat="45.77635" lon="8.43056"><ele>377.0</ele><time>2026-04-12T11:59:24Z</time></trkpt><trkpt lat="45.7763883" lon="8.4304867"><ele>373.6666666666667</ele><time>2026-04-12T11:59:25Z</time></trkpt><trkpt lat="45.776415" lon="8.4304033"><ele>370.33333333333337</ele><time>2026-04-12T11:59:25.999Z</time></trkpt><trkpt lat="45.7764283" lon="8.4302983"><ele>367.0</ele><time>2026-04-12T11:59:27Z</time></trkpt><trkpt lat="45.7764467" lon="8.4302067"><ele>363.6666666666667</ele><time>2026-04-12T11:59:28Z</time></trkpt><trkpt lat="45.7764617" lon="8.4301117"><ele>360.3333333333333</ele><time>2026-04-12T11:59:28.999Z</time></trkpt><trkpt lat="45.7764917" lon="8.43003"><ele>357.0</ele><time>2026-04-12T11:59:29.999Z</time></trkpt><trkpt lat="45.7765467" lon="8.4298717"><ele>357.0</ele><time>2026-04-12T11:59:32Z</time></trkpt><trkpt lat="45.7766233" lon="8.42974"><ele>357.0</ele><time>2026-04-12T11:59:33.999Z</time></trkpt><trkpt lat="45.7766783" lon="8.42966"><ele>357.0</ele><time>2026-04-12T11:59:35.999Z</time></trkpt><trkpt lat="45.7767317" lon="8.42958"><ele>357.0</ele><time>2026-04-12T11:59:37.999Z</time></trkpt><trkpt lat="45.7767983" lon="8.4294667"><ele>357.0</ele><time>2026-04-12T11:59:39.999Z</time></trkpt><trkpt lat="45.7768533" lon="8.429415"><ele>357.0</ele><time>2026-04-12T11:59:40.999Z</time></trkpt><trkpt lat="45.7769083" lon="8.4293483"><ele>356.20000000000005</ele><time>2026-04-12T11:59:41.999Z</time></trkpt><trkpt lat="45.7770017" lon="8.4292267"><ele>355.4</ele><time>2026-04-12T11:59:44Z</time></trkpt><trkpt lat="45.7770983" lon="8.4291367"><ele>354.6</ele><time>2026-04-12T11:59:45.999Z</time></trkpt><trkpt lat="45.7771683" lon="8.4290717"><ele>353.79999999999995</ele><time>2026-04-12T11:59:47.999Z</time></trkpt><trkpt lat="45.7772233" lon="8.4289983"><ele>353.0</ele><time>2026-04-12T11:59:50Z</time></trkpt><trkpt lat="45.7772867" lon="8.42892"><ele>353.0</ele><time>2026-04-12T11:59:52Z</time></trkpt><trkpt lat="45.7773533" lon="8.4288567"><ele>353.0</ele><time>2026-04-12T11:59:54Z</time></trkpt><trkpt lat="45.777415" lon="8.4287833"><ele>353.0</ele><time>2026-04-12T11:59:55.999Z</time></trkpt><trkpt lat="45.7774933" lon="8.4286867"><ele>353.0</ele><time>2026-04-12T11:59:57.999Z</time></trkpt><trkpt lat="45.777605" lon="8.428605"><ele>353.0</ele><time>2026-04-12T11:59:59.999Z</time></trkpt><trkpt lat="45.7777183" lon="8.4285183"><ele>351.1666666666667</ele><time>2026-04-12T12:00:01.999Z</time></trkpt><trkpt lat="45.7777883" lon="8.4284767"><ele>349.33333333333337</ele><time>2026-04-12T12:00:02.999Z</time></trkpt><trkpt lat="45.7778733" lon="8.4284467"><ele>347.5</ele><time>2026-04-12T12:00:03.999Z</time></trkpt><trkpt lat="45.7779583" lon="8.42842"><ele>345.6666666666667</ele><time>2026-04-12T12:00:05Z</time></trkpt><trkpt lat="45.7780467" lon="8.42839"><ele>343.8333333333333</ele><time>2026-04-12T12:00:06Z</time></trkpt><trkpt lat="45.7781217" lon="8.4283583"><ele>342.0</ele><time>2026-04-12T12:00:07Z</time></trkpt><trkpt lat="45.7782033" lon="8.4283367"><ele>342.0</ele><time>2026-04-12T12:00:08Z</time></trkpt><trkpt lat="45.7782867" lon="8.4283067"><ele>342.0</ele><time>2026-04-12T12:00:08.999Z</time></trkpt><trkpt lat="45.7783717" lon="8.4282783"><ele>342.0</ele><time>2026-04-12T12:00:09.999Z</time></trkpt><trkpt lat="45.77847" lon="8.42825"><ele>342.0</ele><time>2026-04-12T12:00:10.999Z</time></trkpt><trkpt lat="45.7785533" lon="8.4282133"><ele>342.0</ele><time>2026-04-12T12:00:11.999Z</time></trkpt><trkpt lat="45.7786333" lon="8.42819"><ele>342.0</ele><time>2026-04-12T12:00:12.999Z</time></trkpt><trkpt lat="45.778715" lon="8.4281667"><ele>343.3333333333333</ele><time>2026-04-12T12:00:13.999Z</time></trkpt><trkpt lat="45.7787967" lon="8.4281533"><ele>344.6666666666667</ele><time>2026-04-12T12:00:14.999Z</time></trkpt><trkpt lat="45.77888" lon="8.42815"><ele>346.0</ele><time>2026-04-12T12:00:15.999Z</time></trkpt><trkpt lat="45.7789567" lon="8.4281567"><ele>347.33333333333337</ele><time>2026-04-12T12:00:16.999Z</time></trkpt><trkpt lat="45.7790299" lon="8.4281623"><ele>348.6666666666667</ele><time>2026-04-12T12:00:17.999Z</time></trkpt><trkpt lat="45.7791008" lon="8.4281744"><ele>350.0</ele><time>2026-04-12T12:00:18.999Z</time></trkpt><trkpt lat="45.7791735" lon="8.4281861"><ele>350.0</ele><time>2026-04-12T12:00:19.999Z</time></trkpt><trkpt lat="45.7792415" lon="8.4281899"><ele>350.0</ele><time>2026-04-12T12:00:20.999Z</time></trkpt><trkpt lat="45.7793617" lon="8.4281826"><ele>350.0</ele><time>2026-04-12T12:00:23Z</time></trkpt><trkpt lat="45.7794806" lon="8.4281645"><ele>350.0</ele><time>2026-04-12T12:00:24.999Z</time></trkpt><trkpt lat="45.779583" lon="8.4282339"><ele>350.0</ele><time>2026-04-12T12:00:26.999Z</time></trkpt><trkpt lat="45.7796207" lon="8.4283258"><ele>350.6666666666667</ele><time>2026-04-12T12:00:29Z</time></trkpt><trkpt lat="45.7796469" lon="8.4284446"><ele>351.33333333333337</ele><time>2026-04-12T12:00:30.999Z</time></trkpt><trkpt lat="45.7796904" lon="8.4285113"><ele>352.0</ele><time>2026-04-12T12:00:33Z</time></trkpt><trkpt lat="45.779784" lon="8.4285193"><ele>352.6666666666667</ele><time>2026-04-12T12:00:35Z</time></trkpt><trkpt lat="45.7799152" lon="8.428527"><ele>353.3333333333333</ele><time>2026-04-12T12:00:37Z</time></trkpt><trkpt lat="45.7799847" lon="8.4285323"><ele>354.0</ele><time>2026-04-12T12:00:37.999Z</time></trkpt><trkpt lat="45.7800568" lon="8.4285376"><ele>354.0</ele><time>2026-04-12T12:00:38.999Z</time></trkpt><trkpt lat="45.7801255" lon="8.428541"><ele>354.0</ele><time>2026-04-12T12:00:40Z</time></trkpt><trkpt lat="45.78019" lon="8.4285617"><ele>354.0</ele><time>2026-04-12T12:00:40.999Z</time></trkpt><trkpt lat="45.7802767" lon="8.4286327"><ele>354.0</ele><time>2026-04-12T12:00:43Z</time></trkpt><trkpt lat="45.7802819" lon="8.4287279"><ele>354.0</ele><time>2026-04-12T12:00:47Z</time></trkpt><trkpt lat="45.7802113" lon="8.4287845"><ele>354.0</ele><time>2026-04-12T12:00:49Z</time></trkpt><trkpt lat="45.7801" lon="8.4288767"><ele>356.8333333333333</ele><time>2026-04-12T12:00:50.999Z</time></trkpt><trkpt lat="45.7799967" lon="8.4289333"><ele>359.6666666666667</ele><time>2026-04-12T12:00:53Z</time></trkpt><trkpt lat="45.7799067" lon="8.4289633"><ele>362.5</ele><time>2026-04-12T12:00:54.999Z</time></trkpt><trkpt lat="45.7798467" lon="8.4290467"><ele>365.33333333333337</ele><time>2026-04-12T12:00:58Z</time></trkpt><trkpt lat="45.779875" lon="8.4291467"><ele>368.1666666666667</ele><time>2026-04-12T12:00:59.999Z</time></trkpt><trkpt lat="45.77994" lon="8.4292267"><ele>371.0</ele><time>2026-04-12T12:01:02Z</time></trkpt><trkpt lat="45.7800267" lon="8.4292233"><ele>371.0</ele><time>2026-04-12T12:01:03.999Z</time></trkpt><trkpt lat="45.78008" lon="8.4291733"><ele>371.0</ele><time>2026-04-12T12:01:05Z</time></trkpt><trkpt lat="45.78016" lon="8.4290867"><ele>371.0</ele><time>2026-04-12T12:01:06.999Z</time></trkpt><trkpt lat="45.78029" lon="8.4290367"><ele>371.0</ele><time>2026-04-12T12:01:09Z</time></trkpt><trkpt lat="45.7803633" lon="8.4290267"><ele>371.0</ele><time>2026-04-12T12:01:09.999Z</time></trkpt><trkpt lat="45.78044" lon="8.4290033"><ele>372.33333333333337</ele><time>2026-04-12T12:01:10.999Z</time></trkpt><trkpt lat="45.7805083" lon="8.4289767"><ele>373.6666666666667</ele><time>2026-04-12T12:01:11.999Z</time></trkpt><trkpt lat="45.7806117" lon="8.4289233"><ele>375.0</ele><time>2026-04-12T12:01:14Z</time></trkpt><trkpt lat="45.78067" lon="8.428965"><ele>376.3333333333333</ele><time>2026-04-12T12:01:15.999Z</time></trkpt><trkpt lat="45.7806983" lon="8.4290683"><ele>377.66666666666663</ele><time>2026-04-12T12:01:17.999Z</time></trkpt><trkpt lat="45.7807633" lon="8.4291333"><ele>379.0</ele><time>2026-04-12T12:01:19.999Z</time></trkpt><trkpt lat="45.7808267" lon="8.4291633"><ele>379.0</ele><time>2026-04-12T12:01:20.999Z</time></trkpt><trkpt lat="45.7808967" lon="8.429195"><ele>379.0</ele><time>2026-04-12T12:01:22Z</time></trkpt><trkpt lat="45.7809717" lon="8.4292217"><ele>379.0</ele><time>2026-04-12T12:01:22.999Z</time></trkpt><trkpt lat="45.7810417" lon="8.4292183"><ele>379.0</ele><time>2026-04-12T12:01:24Z</time></trkpt><trkpt lat="45.7811367" lon="8.4291767"><ele>379.0</ele><time>2026-04-12T12:01:26Z</time></trkpt><trkpt lat="45.7812317" lon="8.4291117"><ele>379.0</ele><time>2026-04-12T12:01:27.999Z</time></trkpt><trkpt lat="45.781285" lon="8.4290633"><ele>377.66666666666663</ele><time>2026-04-12T12:01:29Z</time></trkpt><trkpt lat="45.781345" lon="8.4290167"><ele>376.3333333333333</ele><time>2026-04-12T12:01:29.999Z</time></trkpt><trkpt lat="45.7814017" lon="8.428965"><ele>375.0</ele><time>2026-04-12T12:01:30.999Z</time></trkpt><trkpt lat="45.7814633" lon="8.4289217"><ele>373.6666666666667</ele><time>2026-04-12T12:01:31.999Z</time></trkpt><trkpt lat="45.7815717" lon="8.4288683"><ele>372.33333333333337</ele><time>2026-04-12T12:01:33.999Z</time></trkpt><trkpt lat="45.781675" lon="8.4288133"><ele>371.0</ele><time>2026-04-12T12:01:35.999Z</time></trkpt><trkpt lat="45.78178" lon="8.4287317"><ele>377.0</ele><time>2026-04-12T12:01:37.999Z</time></trkpt><trkpt lat="45.781905" lon="8.4286717"><ele>383.0</ele><time>2026-04-12T12:01:39.999Z</time></trkpt><trkpt lat="45.7819683" lon="8.4286117"><ele>389.0</ele><time>2026-04-12T12:01:40.999Z</time></trkpt><trkpt lat="45.7820417" lon="8.42855"><ele>395.0</ele><time>2026-04-12T12:01:41.999Z</time></trkpt><trkpt lat="45.78211" lon="8.4284767"><ele>401.0</ele><time>2026-04-12T12:01:42.999Z</time></trkpt><trkpt lat="45.7821783" lon="8.4284017"><ele>400.99999999999994</ele><time>2026-04-12T12:01:43.999Z</time></trkpt><trkpt lat="45.7822467" lon="8.42833"><ele>401.0</ele><time>2026-04-12T12:01:44.999Z</time></trkpt><trkpt lat="45.7823267" lon="8.4282633"><ele>401.0</ele><time>2026-04-12T12:01:45.999Z</time></trkpt><trkpt lat="45.7824033" lon="8.4282117"><ele>401.0</ele><time>2026-04-12T12:01:46.999Z</time></trkpt><trkpt lat="45.7824783" lon="8.42816"><ele>400.99999999999994</ele><time>2026-04-12T12:01:47.999Z</time></trkpt><trkpt lat="45.7825417" lon="8.4281183"><ele>401.0</ele><time>2026-04-12T12:01:48.999Z</time></trkpt><trkpt lat="45.7826017" lon="8.4280783"><ele>400.99999999999994</ele><time>2026-04-12T12:01:50Z</time></trkpt><trkpt lat="45.7826683" lon="8.4280283"><ele>401.0</ele><time>2026-04-12T12:01:51Z</time></trkpt><trkpt lat="45.78273" lon="8.4279333"><ele>401.0</ele><time>2026-04-12T12:01:51.999Z</time></trkpt><trkpt lat="45.7827983" lon="8.4278467"><ele>401.0</ele><time>2026-04-12T12:01:52.999Z</time></trkpt><trkpt lat="45.78287" lon="8.4277683"><ele>400.99999999999994</ele><time>2026-04-12T12:01:53.999Z</time></trkpt><trkpt lat="45.7829383" lon="8.42768"><ele>401.0</ele><time>2026-04-12T12:01:55Z</time></trkpt><trkpt lat="45.783" lon="8.4276067"><ele>402.16666666666663</ele><time>2026-04-12T12:01:55.999Z</time></trkpt><trkpt lat="45.78306" lon="8.4275417"><ele>403.3333333333333</ele><time>2026-04-12T12:01:57Z</time></trkpt><trkpt lat="45.7831183" lon="8.42747"><ele>404.5</ele><time>2026-04-12T12:01:57.999Z</time></trkpt><trkpt lat="45.783185" lon="8.42739"><ele>405.66666666666663</ele><time>2026-04-12T12:01:59Z</time></trkpt><trkpt lat="45.7832533" lon="8.4273217"><ele>406.8333333333333</ele><time>2026-04-12T12:01:59.999Z</time></trkpt><trkpt lat="45.7833283" lon="8.4272567"><ele>408.0</ele><time>2026-04-12T12:02:01Z</time></trkpt><trkpt lat="45.7834" lon="8.4271883"><ele>409.2</ele><time>2026-04-12T12:02:01.999Z</time></trkpt><trkpt lat="45.7834767" lon="8.427125"><ele>410.4</ele><time>2026-04-12T12:02:02.999Z</time></trkpt><trkpt lat="45.7835433" lon="8.42703"><ele>411.59999999999997</ele><time>2026-04-12T12:02:03.999Z</time></trkpt><trkpt lat="45.7836217" lon="8.426955"><ele>412.79999999999995</ele><time>2026-04-12T12:02:05Z</time></trkpt><trkpt lat="45.7837117" lon="8.42691"><ele>414.0</ele><time>2026-04-12T12:02:05.999Z</time></trkpt><trkpt lat="45.783795" lon="8.4268567"><ele>414.00000000000006</ele><time>2026-04-12T12:02:06.999Z</time></trkpt><trkpt lat="45.7838583" lon="8.426815"><ele>414.0</ele><time>2026-04-12T12:02:07.999Z</time></trkpt><trkpt lat="45.7839183" lon="8.42676"><ele>414.0</ele><time>2026-04-12T12:02:09Z</time></trkpt><trkpt lat="45.783975" lon="8.426695"><ele>414.0</ele><time>2026-04-12T12:02:10Z</time></trkpt><trkpt lat="45.78403" lon="8.4266333"><ele>414.0</ele><time>2026-04-12T12:02:10.999Z</time></trkpt><trkpt lat="45.7840917" lon="8.4265833"><ele>414.00000000000006</ele><time>2026-04-12T12:02:11.999Z</time></trkpt><trkpt lat="45.78415" lon="8.42652"><ele>414.0</ele><time>2026-04-12T12:02:13Z</time></trkpt><trkpt lat="45.7842183" lon="8.4264783"><ele>414.0</ele><time>2026-04-12T12:02:13.999Z</time></trkpt><trkpt lat="45.784285" lon="8.4264083"><ele>414.0</ele><time>2026-04-12T12:02:14.999Z</time></trkpt><trkpt lat="45.7843633" lon="8.4263583"><ele>414.0</ele><time>2026-04-12T12:02:15.999Z</time></trkpt><trkpt lat="45.7844533" lon="8.4263083"><ele>414.0</ele><time>2026-04-12T12:02:16.999Z</time></trkpt><trkpt lat="45.7845367" lon="8.4262733"><ele>414.0</ele><time>2026-04-12T12:02:17.999Z</time></trkpt><trkpt lat="45.7846283" lon="8.4262317"><ele>414.0</ele><time>2026-04-12T12:02:18.999Z</time></trkpt><trkpt lat="45.7847367" lon="8.4262117"><ele>413.3333333333333</ele><time>2026-04-12T12:02:19.999Z</time></trkpt><trkpt lat="45.7848233" lon="8.4261533"><ele>412.66666666666663</ele><time>2026-04-12T12:02:20.999Z</time></trkpt><trkpt lat="45.7849" lon="8.4260883"><ele>412.0</ele><time>2026-04-12T12:02:21.999Z</time></trkpt><trkpt lat="45.78497" lon="8.42603"><ele>411.3333333333333</ele><time>2026-04-12T12:02:22.999Z</time></trkpt><trkpt lat="45.7850633" lon="8.4259667"><ele>410.66666666666663</ele><time>2026-04-12T12:02:25Z</time></trkpt><trkpt lat="45.78512" lon="8.4260083"><ele>410.0</ele><time>2026-04-12T12:02:26.999Z</time></trkpt><trkpt lat="45.78518" lon="8.4261417"><ele>410.0</ele><time>2026-04-12T12:02:28.999Z</time></trkpt><trkpt lat="45.785225" lon="8.42623"><ele>410.0</ele><time>2026-04-12T12:02:29.999Z</time></trkpt><trkpt lat="45.785275" lon="8.4263133"><ele>410.0</ele><time>2026-04-12T12:02:30.999Z</time></trkpt><trkpt lat="45.7853283" lon="8.426395"><ele>410.0</ele><time>2026-04-12T12:02:31.999Z</time></trkpt><trkpt lat="45.7853733" lon="8.4264667"><ele>410.0</ele><time>2026-04-12T12:02:33Z</time></trkpt><trkpt lat="45.785415" lon="8.4265367"><ele>410.0</ele><time>2026-04-12T12:02:34Z</time></trkpt><trkpt lat="45.7854267" lon="8.4266433"><ele>410.0</ele><time>2026-04-12T12:02:35.999Z</time></trkpt><trkpt lat="45.7853533" lon="8.4267117"><ele>413.49999999999994</ele><time>2026-04-12T12:02:38Z</time></trkpt><trkpt lat="45.78528" lon="8.42676"><ele>417.0</ele><time>2026-04-12T12:02:39.999Z</time></trkpt><trkpt lat="45.785265" lon="8.4268683"><ele>420.5</ele><time>2026-04-12T12:02:41.999Z</time></trkpt><trkpt lat="45.7853017" lon="8.426955"><ele>424.0</ele><time>2026-04-12T12:02:44Z</time></trkpt><trkpt lat="45.7853933" lon="8.42704"><ele>427.49999999999994</ele><time>2026-04-12T12:02:46Z</time></trkpt><trkpt lat="45.7854483" lon="8.4270917"><ele>431.0</ele><time>2026-04-12T12:02:46.999Z</time></trkpt><trkpt lat="45.7854317" lon="8.4272"><ele>433.66666666666663</ele><time>2026-04-12T12:02:50Z</time></trkpt><trkpt lat="45.7853233" lon="8.4272167"><ele>436.3333333333333</ele><time>2026-04-12T12:02:52Z</time></trkpt><trkpt lat="45.78526" lon="8.42723"><ele>439.0</ele><time>2026-04-12T12:02:52.999Z</time></trkpt><trkpt lat="45.7851417" lon="8.4272783"><ele>441.66666666666663</ele><time>2026-04-12T12:02:54.999Z</time></trkpt><trkpt lat="45.7850833" lon="8.4273183"><ele>444.3333333333333</ele><time>2026-04-12T12:02:55.999Z</time></trkpt><trkpt lat="45.785025" lon="8.4273967"><ele>447.0</ele><time>2026-04-12T12:02:57Z</time></trkpt><trkpt lat="45.7849717" lon="8.4274617"><ele>447.0</ele><time>2026-04-12T12:02:58Z</time></trkpt><trkpt lat="45.7849117" lon="8.427515"><ele>447.0</ele><time>2026-04-12T12:02:58.999Z</time></trkpt><trkpt lat="45.7848567" lon="8.4275683"><ele>447.0</ele><time>2026-04-12T12:03:00Z</time></trkpt><trkpt lat="45.7848133" lon="8.4276383"><ele>447.0</ele><time>2026-04-12T12:03:01Z</time></trkpt><trkpt lat="45.7847967" lon="8.4277683"><ele>447.0</ele><time>2026-04-12T12:03:02.999Z</time></trkpt><trkpt lat="45.7848433" lon="8.42784"><ele>447.0</ele><time>2026-04-12T12:03:04.999Z</time></trkpt><trkpt lat="45.7849483" lon="8.42786"><ele>447.0</ele><time>2026-04-12T12:03:07Z</time></trkpt><trkpt lat="45.7850233" lon="8.4279233"><ele>447.0</ele><time>2026-04-12T12:03:08.999Z</time></trkpt><trkpt lat="45.7849817" lon="8.4279983"><ele>447.0</ele><time>2026-04-12T12:03:10.999Z</time></trkpt><trkpt lat="45.78486" lon="8.4280433"><ele>447.0</ele><time>2026-04-12T12:03:13Z</time></trkpt><trkpt lat="45.784795" lon="8.428085"><ele>447.0</ele><time>2026-04-12T12:03:13.999Z</time></trkpt><trkpt lat="45.7847483" lon="8.4281567"><ele>447.0</ele><time>2026-04-12T12:03:15Z</time></trkpt><trkpt lat="45.7847267" lon="8.4282533"><ele>449.1666666666667</ele><time>2026-04-12T12:03:15.999Z</time></trkpt><trkpt lat="45.7847233" lon="8.4283583"><ele>451.33333333333337</ele><time>2026-04-12T12:03:16.999Z</time></trkpt><trkpt lat="45.784725" lon="8.4284767"><ele>453.5</ele><time>2026-04-12T12:03:17.999Z</time></trkpt><trkpt lat="45.7847317" lon="8.428605"><ele>455.6666666666667</ele><time>2026-04-12T12:03:18.999Z</time></trkpt><trkpt lat="45.7847467" lon="8.42874"><ele>457.83333333333337</ele><time>2026-04-12T12:03:19.999Z</time></trkpt><trkpt lat="45.78476" lon="8.4288483"><ele>460.0</ele><time>2026-04-12T12:03:21Z</time></trkpt><trkpt lat="45.7847667" lon="8.42894"><ele>463.4</ele><time>2026-04-12T12:03:21.999Z</time></trkpt><trkpt lat="45.7847967" lon="8.4290367"><ele>466.8</ele><time>2026-04-12T12:03:25Z</time></trkpt><trkpt lat="45.7848633" lon="8.4290267"><ele>470.20000000000005</ele><time>2026-04-12T12:03:26.999Z</time></trkpt><trkpt lat="45.785" lon="8.428955"><ele>473.6</ele><time>2026-04-12T12:03:29Z</time></trkpt><trkpt lat="45.7850967" lon="8.4289"><ele>477.0</ele><time>2026-04-12T12:03:29.999Z</time></trkpt><trkpt lat="45.78521" lon="8.4288533"><ele>476.0</ele><time>2026-04-12T12:03:30.999Z</time></trkpt><trkpt lat="45.7853233" lon="8.42881"><ele>475.0</ele><time>2026-04-12T12:03:31.999Z</time></trkpt><trkpt lat="45.7854333" lon="8.42878"><ele>474.0</ele><time>2026-04-12T12:03:33Z</time></trkpt><trkpt lat="45.7855517" lon="8.4287433"><ele>473.0</ele><time>2026-04-12T12:03:33.999Z</time></trkpt><trkpt lat="45.7856517" lon="8.4287267"><ele>473.0</ele><time>2026-04-12T12:03:34.999Z</time></trkpt><trkpt lat="45.785745" lon="8.4287283"><ele>473.0</ele><time>2026-04-12T12:03:36Z</time></trkpt><trkpt lat="45.7858433" lon="8.4287483"><ele>473.0</ele><time>2026-04-12T12:03:37Z</time></trkpt><trkpt lat="45.7859617" lon="8.42887"><ele>473.0</ele><time>2026-04-12T12:03:37.999Z</time></trkpt><trkpt lat="45.78607" lon="8.42895"><ele>475.59999999999997</ele><time>2026-04-12T12:03:39Z</time></trkpt><trkpt lat="45.7861867" lon="8.429035"><ele>478.19999999999993</ele><time>2026-04-12T12:03:39.999Z</time></trkpt><trkpt lat="45.7862867" lon="8.4291083"><ele>480.8</ele><time>2026-04-12T12:03:41Z</time></trkpt><trkpt lat="45.7863833" lon="8.429145"><ele>483.4</ele><time>2026-04-12T12:03:42Z</time></trkpt><trkpt lat="45.7864483" lon="8.429205"><ele>486.0</ele><time>2026-04-12T12:03:42.999Z</time></trkpt><trkpt lat="45.7865233" lon="8.429245"><ele>486.0</ele><time>2026-04-12T12:03:43.999Z</time></trkpt><trkpt lat="45.7865917" lon="8.4292833"><ele>486.0</ele><time>2026-04-12T12:03:45Z</time></trkpt><trkpt lat="45.786665" lon="8.429325"><ele>486.0</ele><time>2026-04-12T12:03:45.999Z</time></trkpt><trkpt lat="45.7867383" lon="8.4293633"><ele>486.0</ele><time>2026-04-12T12:03:47Z</time></trkpt><trkpt lat="45.7868083" lon="8.4293933"><ele>486.0</ele><time>2026-04-12T12:03:47.999Z</time></trkpt><trkpt lat="45.7868733" lon="8.429415"><ele>486.0</ele><time>2026-04-12T12:03:48.999Z</time></trkpt><trkpt lat="45.7869517" lon="8.4294217"><ele>486.0</ele><time>2026-04-12T12:03:51Z</time></trkpt><trkpt lat="45.7870267" lon="8.4293383"><ele>486.1666666666667</ele><time>2026-04-12T12:03:56Z</time></trkpt><trkpt lat="45.7870917" lon="8.429285"><ele>486.33333333333337</ele><time>2026-04-12T12:03:57Z</time></trkpt><trkpt lat="45.787165" lon="8.42923"><ele>486.5</ele><time>2026-04-12T12:03:58Z</time></trkpt><trkpt lat="45.787225" lon="8.4291933"><ele>486.6666666666667</ele><time>2026-04-12T12:03:58.999Z</time></trkpt><trkpt lat="45.7873117" lon="8.4291567"><ele>486.83333333333337</ele><time>2026-04-12T12:04:00.999Z</time></trkpt><trkpt lat="45.7873817" lon="8.42913"><ele>487.0</ele><time>2026-04-12T12:04:02.999Z</time></trkpt><trkpt lat="45.7875067" lon="8.4291667"><ele>487.0</ele><time>2026-04-12T12:04:04.999Z</time></trkpt><trkpt lat="45.787615" lon="8.4292067"><ele>487.00000000000006</ele><time>2026-04-12T12:04:06.999Z</time></trkpt><trkpt lat="45.7877183" lon="8.4292867"><ele>487.00000000000006</ele><time>2026-04-12T12:04:09Z</time></trkpt><trkpt lat="45.78779" lon="8.4293533"><ele>487.0</ele><time>2026-04-12T12:04:10Z</time></trkpt><trkpt lat="45.78787" lon="8.429395"><ele>487.0</ele><time>2026-04-12T12:04:11Z</time></trkpt><trkpt lat="45.7879583" lon="8.42941"><ele>486.8</ele><time>2026-04-12T12:04:12Z</time></trkpt><trkpt lat="45.7880467" lon="8.42942"><ele>486.6</ele><time>2026-04-12T12:04:13Z</time></trkpt><trkpt lat="45.788145" lon="8.4294233"><ele>486.40000000000003</ele><time>2026-04-12T12:04:14Z</time></trkpt><trkpt lat="45.7882467" lon="8.4294017"><ele>486.20000000000005</ele><time>2026-04-12T12:04:14.999Z</time></trkpt><trkpt lat="45.7883483" lon="8.42939"><ele>486.0</ele><time>2026-04-12T12:04:15.999Z</time></trkpt><trkpt lat="45.788425" lon="8.42935"><ele>485.5</ele><time>2026-04-12T12:04:16.999Z</time></trkpt><trkpt lat="45.7885467" lon="8.4293283"><ele>485.0</ele><time>2026-04-12T12:04:18.999Z</time></trkpt><trkpt lat="45.7886217" lon="8.4293483"><ele>484.5</ele><time>2026-04-12T12:04:19.999Z</time></trkpt><trkpt lat="45.7886983" lon="8.42939"><ele>484.0</ele><time>2026-04-12T12:04:21Z</time></trkpt><trkpt lat="45.7887667" lon="8.42944"><ele>483.5</ele><time>2026-04-12T12:04:22Z</time></trkpt><trkpt lat="45.788835" lon="8.4294917"><ele>483.0</ele><time>2026-04-12T12:04:23Z</time></trkpt><trkpt lat="45.7889067" lon="8.4295317"><ele>483.0</ele><time>2026-04-12T12:04:23.999Z</time></trkpt><trkpt lat="45.788975" lon="8.4295983"><ele>483.0</ele><time>2026-04-12T12:04:25Z</time></trkpt><trkpt lat="45.7890433" lon="8.4296367"><ele>483.0</ele><time>2026-04-12T12:04:25.999Z</time></trkpt><trkpt lat="45.7891167" lon="8.4296767"><ele>483.0</ele><time>2026-04-12T12:04:26.999Z</time></trkpt><trkpt lat="45.7891917" lon="8.4296967"><ele>483.0</ele><time>2026-04-12T12:04:27.999Z</time></trkpt><trkpt lat="45.78927" lon="8.4297083"><ele>483.0</ele><time>2026-04-12T12:04:28.999Z</time></trkpt><trkpt lat="45.7893517" lon="8.4297217"><ele>484.8333333333333</ele><time>2026-04-12T12:04:29.999Z</time></trkpt><trkpt lat="45.7894317" lon="8.4297283"><ele>486.66666666666663</ele><time>2026-04-12T12:04:30.999Z</time></trkpt><trkpt lat="45.7895233" lon="8.4297417"><ele>488.5</ele><time>2026-04-12T12:04:31.999Z</time></trkpt><trkpt lat="45.7896117" lon="8.42974"><ele>490.3333333333333</ele><time>2026-04-12T12:04:32.999Z</time></trkpt><trkpt lat="45.789695" lon="8.4297317"><ele>492.16666666666663</ele><time>2026-04-12T12:04:33.999Z</time></trkpt><trkpt lat="45.7897767" lon="8.4297267"><ele>494.0</ele><time>2026-04-12T12:04:34.999Z</time></trkpt><trkpt lat="45.789855" lon="8.429725"><ele>494.0</ele><time>2026-04-12T12:04:36Z</time></trkpt><trkpt lat="45.7899383" lon="8.4297233"><ele>494.0</ele><time>2026-04-12T12:04:37Z</time></trkpt><trkpt lat="45.790025" lon="8.4297183"><ele>494.0</ele><time>2026-04-12T12:04:38Z</time></trkpt><trkpt lat="45.7901167" lon="8.4297117"><ele>494.0</ele><time>2026-04-12T12:04:39Z</time></trkpt><trkpt lat="45.7902067" lon="8.4297267"><ele>494.0</ele><time>2026-04-12T12:04:40Z</time></trkpt><trkpt lat="45.7903083" lon="8.4297167"><ele>493.0</ele><time>2026-04-12T12:04:41Z</time></trkpt><trkpt lat="45.79041" lon="8.4296883"><ele>492.0</ele><time>2026-04-12T12:04:41.999Z</time></trkpt><trkpt lat="45.79051" lon="8.4296583"><ele>491.0</ele><time>2026-04-12T12:04:42.999Z</time></trkpt><trkpt lat="45.7906067" lon="8.4296417"><ele>490.0</ele><time>2026-04-12T12:04:43.999Z</time></trkpt><trkpt lat="45.7906967" lon="8.4296133"><ele>489.0</ele><time>2026-04-12T12:04:44.999Z</time></trkpt><trkpt lat="45.7907783" lon="8.429585"><ele>489.0</ele><time>2026-04-12T12:04:46Z</time></trkpt><trkpt lat="45.7908617" lon="8.429545"><ele>489.0</ele><time>2026-04-12T12:04:47Z</time></trkpt><trkpt lat="45.79095" lon="8.429525"><ele>489.0</ele><time>2026-04-12T12:04:48Z</time></trkpt><trkpt lat="45.7910433" lon="8.42955"><ele>489.0</ele><time>2026-04-12T12:04:49Z</time></trkpt><trkpt lat="45.7911383" lon="8.4295667"><ele>489.0</ele><time>2026-04-12T12:04:49.999Z</time></trkpt><trkpt lat="45.7912333" lon="8.4296033"><ele>490.1666666666667</ele><time>2026-04-12T12:04:50.999Z</time></trkpt><trkpt lat="45.7913317" lon="8.4296317"><ele>491.33333333333337</ele><time>2026-04-12T12:04:52Z</time></trkpt><trkpt lat="45.7914133" lon="8.4296667"><ele>492.5</ele><time>2026-04-12T12:04:53Z</time></trkpt><trkpt lat="45.79149" lon="8.429685"><ele>493.6666666666667</ele><time>2026-04-12T12:04:53.999Z</time></trkpt><trkpt lat="45.791565" lon="8.4296967"><ele>494.83333333333337</ele><time>2026-04-12T12:04:54.999Z</time></trkpt><trkpt lat="45.7916283" lon="8.4297017"><ele>496.0</ele><time>2026-04-12T12:04:55.999Z</time></trkpt><trkpt lat="45.7917583" lon="8.4296283"><ele>497.33333333333337</ele><time>2026-04-12T12:04:58Z</time></trkpt><trkpt lat="45.7918417" lon="8.4295833"><ele>498.6666666666667</ele><time>2026-04-12T12:04:58.999Z</time></trkpt><trkpt lat="45.79193" lon="8.429545"><ele>500.0</ele><time>2026-04-12T12:04:59.999Z</time></trkpt><trkpt lat="45.7920117" lon="8.429505"><ele>501.33333333333337</ele><time>2026-04-12T12:05:00.999Z</time></trkpt><trkpt lat="45.7921033" lon="8.4294733"><ele>502.6666666666667</ele><time>2026-04-12T12:05:01.999Z</time></trkpt><trkpt lat="45.7921717" lon="8.4294183"><ele>504.0</ele><time>2026-04-12T12:05:03Z</time></trkpt><trkpt lat="45.7922467" lon="8.4293917"><ele>504.0</ele><time>2026-04-12T12:05:03.999Z</time></trkpt><trkpt lat="45.7923233" lon="8.4293617"><ele>504.0</ele><time>2026-04-12T12:05:04.999Z</time></trkpt><trkpt lat="45.7923917" lon="8.429315"><ele>504.0</ele><time>2026-04-12T12:05:05.999Z</time></trkpt><trkpt lat="45.79247" lon="8.4292683"><ele>504.0</ele><time>2026-04-12T12:05:07Z</time></trkpt><trkpt lat="45.79256" lon="8.42924"><ele>504.0</ele><time>2026-04-12T12:05:08Z</time></trkpt><trkpt lat="45.7926533" lon="8.42923"><ele>504.0</ele><time>2026-04-12T12:05:08.999Z</time></trkpt><trkpt lat="45.7927333" lon="8.4292233"><ele>505.6</ele><time>2026-04-12T12:05:09.999Z</time></trkpt><trkpt lat="45.7928" lon="8.429215"><ele>507.2</ele><time>2026-04-12T12:05:10.999Z</time></trkpt><trkpt lat="45.792915" lon="8.4291867"><ele>508.80000000000007</ele><time>2026-04-12T12:05:13Z</time></trkpt><trkpt lat="45.7930033" lon="8.429165"><ele>510.40000000000003</ele><time>2026-04-12T12:05:14Z</time></trkpt><trkpt lat="45.793095" lon="8.4291317"><ele>512.0</ele><time>2026-04-12T12:05:14.999Z</time></trkpt><trkpt lat="45.79318" lon="8.4290983"><ele>512.0</ele><time>2026-04-12T12:05:15.999Z</time></trkpt><trkpt lat="45.793275" lon="8.4290717"><ele>512.0</ele><time>2026-04-12T12:05:17Z</time></trkpt><trkpt lat="45.7933633" lon="8.42904"><ele>512.0</ele><time>2026-04-12T12:05:17.999Z</time></trkpt><trkpt lat="45.7934617" lon="8.429015"><ele>512.0</ele><time>2026-04-12T12:05:18.999Z</time></trkpt><trkpt lat="45.79358" lon="8.4289867"><ele>512.0</ele><time>2026-04-12T12:05:19.999Z</time></trkpt><trkpt lat="45.7937017" lon="8.428965"><ele>513.2</ele><time>2026-04-12T12:05:20.999Z</time></trkpt><trkpt lat="45.79381" lon="8.42896"><ele>514.4000000000001</ele><time>2026-04-12T12:05:21.999Z</time></trkpt><trkpt lat="45.7939117" lon="8.4289433"><ele>515.5999999999999</ele><time>2026-04-12T12:05:22.999Z</time></trkpt><trkpt lat="45.7940183" lon="8.428925"><ele>516.8</ele><time>2026-04-12T12:05:23.999Z</time></trkpt><trkpt lat="45.7941117" lon="8.4289133"><ele>518.0</ele><time>2026-04-12T12:05:24.999Z</time></trkpt><trkpt lat="45.7941983" lon="8.4288983"><ele>518.0</ele><time>2026-04-12T12:05:25.999Z</time></trkpt><trkpt lat="45.7942867" lon="8.4289033"><ele>518.0</ele><time>2026-04-12T12:05:26.999Z</time></trkpt><trkpt lat="45.7943733" lon="8.4288983"><ele>518.0</ele><time>2026-04-12T12:05:27.999Z</time></trkpt><trkpt lat="45.7944767" lon="8.4288883"><ele>518.0</ele><time>2026-04-12T12:05:29Z</time></trkpt><trkpt lat="45.7945733" lon="8.4288717"><ele>518.0</ele><time>2026-04-12T12:05:29.999Z</time></trkpt><trkpt lat="45.7946667" lon="8.428865"><ele>518.6</ele><time>2026-04-12T12:05:31Z</time></trkpt><trkpt lat="45.794755" lon="8.428865"><ele>519.1999999999999</ele><time>2026-04-12T12:05:31.999Z</time></trkpt><trkpt lat="45.7948483" lon="8.4288583"><ele>519.8</ele><time>2026-04-12T12:05:33Z</time></trkpt><trkpt lat="45.79494" lon="8.4288617"><ele>520.4</ele><time>2026-04-12T12:05:33.999Z</time></trkpt><trkpt lat="45.7950317" lon="8.42887"><ele>521.0</ele><time>2026-04-12T12:05:34.999Z</time></trkpt><trkpt lat="45.7951317" lon="8.4288833"><ele>519.8</ele><time>2026-04-12T12:05:36Z</time></trkpt><trkpt lat="45.79522" lon="8.428905"><ele>518.6</ele><time>2026-04-12T12:05:37Z</time></trkpt><trkpt lat="45.7953117" lon="8.4289333"><ele>517.4</ele><time>2026-04-12T12:05:37.999Z</time></trkpt><trkpt lat="45.795405" lon="8.4289667"><ele>516.2</ele><time>2026-04-12T12:05:39Z</time></trkpt><trkpt lat="45.795495" lon="8.4289917"><ele>515.0</ele><time>2026-04-12T12:05:40Z</time></trkpt><trkpt lat="45.79558" lon="8.4290167"><ele>515.0</ele><time>2026-04-12T12:05:40.999Z</time></trkpt><trkpt lat="45.795675" lon="8.42903"><ele>515.0</ele><time>2026-04-12T12:05:42Z</time></trkpt><trkpt lat="45.79575" lon="8.4290467"><ele>515.0</ele><time>2026-04-12T12:05:42.999Z</time></trkpt><trkpt lat="45.79582" lon="8.42906"><ele>515.0</ele><time>2026-04-12T12:05:43.999Z</time></trkpt><trkpt lat="45.795925" lon="8.4291067"><ele>515.0</ele><time>2026-04-12T12:05:46Z</time></trkpt><trkpt lat="45.7960383" lon="8.4291783"><ele>515.0</ele><time>2026-04-12T12:05:47.999Z</time></trkpt><trkpt lat="45.79609" lon="8.4292367"><ele>515.0</ele><time>2026-04-12T12:05:48.999Z</time></trkpt><trkpt lat="45.7961267" lon="8.429315"><ele>515.0</ele><time>2026-04-12T12:05:50Z</time></trkpt><trkpt lat="45.7961617" lon="8.4294033"><ele>515.0</ele><time>2026-04-12T12:05:51Z</time></trkpt><trkpt lat="45.7962117" lon="8.4295417"><ele>515.0</ele><time>2026-04-12T12:05:52.999Z</time></trkpt><trkpt lat="45.7962183" lon="8.4296733"><ele>515.0</ele><time>2026-04-12T12:05:54.999Z</time></trkpt><trkpt lat="45.7962017" lon="8.4298267"><ele>515.0</ele><time>2026-04-12T12:05:56.999Z</time></trkpt><trkpt lat="45.7961867" lon="8.4299317"><ele>515.0</ele><time>2026-04-12T12:05:57.999Z</time></trkpt><trkpt lat="45.796165" lon="8.4300483"><ele>515.0</ele><time>2026-04-12T12:05:58.999Z</time></trkpt><trkpt lat="45.796155" lon="8.430175"><ele>515.0</ele><time>2026-04-12T12:05:59.999Z</time></trkpt><trkpt lat="45.79614" lon="8.43029"><ele>515.0</ele><time>2026-04-12T12:06:00.999Z</time></trkpt><trkpt lat="45.7961383" lon="8.430455"><ele>515.0</ele><time>2026-04-12T12:06:03Z</time></trkpt><trkpt lat="45.796175" lon="8.4306183"><ele>515.0</ele><time>2026-04-12T12:06:04.999Z</time></trkpt><trkpt lat="45.7962183" lon="8.4307017"><ele>515.0</ele><time>2026-04-12T12:06:06Z</time></trkpt><trkpt lat="45.7962667" lon="8.4307783"><ele>515.0</ele><time>2026-04-12T12:06:06.999Z</time></trkpt><trkpt lat="45.7963217" lon="8.4308583"><ele>515.0</ele><time>2026-04-12T12:06:08Z</time></trkpt><trkpt lat="45.7963633" lon="8.4309417"><ele>515.0</ele><time>2026-04-12T12:06:08.999Z</time></trkpt><trkpt lat="45.7964017" lon="8.43102"><ele>515.0</ele><time>2026-04-12T12:06:09.999Z</time></trkpt><trkpt lat="45.7964567" lon="8.4311267"><ele>515.0</ele><time>2026-04-12T12:06:12Z</time></trkpt><trkpt lat="45.7965167" lon="8.43122"><ele>515.0</ele><time>2026-04-12T12:06:16.999Z</time></trkpt><trkpt lat="45.7966217" lon="8.4312133"><ele>515.0</ele><time>2026-04-12T12:06:19Z</time></trkpt><trkpt lat="45.79673" lon="8.4312133"><ele>515.0</ele><time>2026-04-12T12:06:20.999Z</time></trkpt><trkpt lat="45.7968533" lon="8.431205"><ele>515.0</ele><time>2026-04-12T12:06:23Z</time></trkpt><trkpt lat="45.7969217" lon="8.43121"><ele>514.4</ele><time>2026-04-12T12:06:23.999Z</time></trkpt><trkpt lat="45.7970333" lon="8.43123"><ele>513.8</ele><time>2026-04-12T12:06:25.999Z</time></trkpt><trkpt lat="45.7971117" lon="8.4312617"><ele>513.2</ele><time>2026-04-12T12:06:28.999Z</time></trkpt><trkpt lat="45.7971917" lon="8.4313983"><ele>512.6</ele><time>2026-04-12T12:06:34.999Z</time></trkpt><trkpt lat="45.7972383" lon="8.4315067"><ele>512.0</ele><time>2026-04-12T12:06:35.999Z</time></trkpt><trkpt lat="45.7972933" lon="8.4316183"><ele>511.66666666666663</ele><time>2026-04-12T12:06:36.999Z</time></trkpt><trkpt lat="45.7973433" lon="8.4317067"><ele>511.3333333333333</ele><time>2026-04-12T12:06:37.999Z</time></trkpt><trkpt lat="45.79742" lon="8.4318033"><ele>511.0</ele><time>2026-04-12T12:06:40Z</time></trkpt><trkpt lat="45.7974967" lon="8.4318167"><ele>510.66666666666663</ele><time>2026-04-12T12:06:41.999Z</time></trkpt><trkpt lat="45.7975567" lon="8.4318733"><ele>510.3333333333333</ele><time>2026-04-12T12:06:54Z</time></trkpt><trkpt lat="45.79766" lon="8.43188"><ele>510.0</ele><time>2026-04-12T12:06:55.999Z</time></trkpt><trkpt lat="45.7977433" lon="8.4318633"><ele>508.6666666666667</ele><time>2026-04-12T12:06:56.999Z</time></trkpt><trkpt lat="45.7978367" lon="8.4318583"><ele>507.33333333333337</ele><time>2026-04-12T12:06:57.999Z</time></trkpt><trkpt lat="45.797925" lon="8.4318533"><ele>506.0</ele><time>2026-04-12T12:06:58.999Z</time></trkpt><trkpt lat="45.7980067" lon="8.4318467"><ele>504.6666666666667</ele><time>2026-04-12T12:07:00Z</time></trkpt><trkpt lat="45.798075" lon="8.431835"><ele>503.33333333333337</ele><time>2026-04-12T12:07:00.999Z</time></trkpt><trkpt lat="45.7981733" lon="8.4317967"><ele>502.0</ele><time>2026-04-12T12:07:02.999Z</time></trkpt><trkpt lat="45.7982633" lon="8.4318017"><ele>502.0</ele><time>2026-04-12T12:07:04.999Z</time></trkpt><trkpt lat="45.7983467" lon="8.4318667"><ele>502.0</ele><time>2026-04-12T12:07:06.999Z</time></trkpt><trkpt lat="45.798445" lon="8.4319517"><ele>502.0</ele><time>2026-04-12T12:07:09Z</time></trkpt><trkpt lat="45.7985417" lon="8.4320433"><ele>502.0</ele><time>2026-04-12T12:07:10.999Z</time></trkpt><trkpt lat="45.7986483" lon="8.4321833"><ele>500.8571428571428</ele><time>2026-04-12T12:07:13Z</time></trkpt><trkpt lat="45.7987083" lon="8.4322367"><ele>499.71428571428567</ele><time>2026-04-12T12:07:14Z</time></trkpt><trkpt lat="45.798765" lon="8.4322933"><ele>498.57142857142856</ele><time>2026-04-12T12:07:15Z</time></trkpt><trkpt lat="45.79883" lon="8.4323467"><ele>497.4285714285714</ele><time>2026-04-12T12:07:15.999Z</time></trkpt><trkpt lat="45.7988917" lon="8.4324"><ele>496.2857142857142</ele><time>2026-04-12T12:07:16.999Z</time></trkpt><trkpt lat="45.7989583" lon="8.43246"><ele>495.14285714285717</ele><time>2026-04-12T12:07:17.999Z</time></trkpt><trkpt lat="45.7990267" lon="8.432525"><ele>494.0</ele><time>2026-04-12T12:07:18.999Z</time></trkpt><trkpt lat="45.7990933" lon="8.432585"><ele>493.99999999999994</ele><time>2026-04-12T12:07:20Z</time></trkpt><trkpt lat="45.7991717" lon="8.4326633"><ele>494.0</ele><time>2026-04-12T12:07:21Z</time></trkpt><trkpt lat="45.7992283" lon="8.432745"><ele>494.0</ele><time>2026-04-12T12:07:21.999Z</time></trkpt><trkpt lat="45.7992783" lon="8.43282"><ele>494.0</ele><time>2026-04-12T12:07:22.999Z</time></trkpt><trkpt lat="45.7993467" lon="8.4328983"><ele>493.99999999999994</ele><time>2026-04-12T12:07:23.999Z</time></trkpt><trkpt lat="45.79942" lon="8.4329667"><ele>494.0</ele><time>2026-04-12T12:07:24.999Z</time></trkpt><trkpt lat="45.7995117" lon="8.4330417"><ele>491.66666666666663</ele><time>2026-04-12T12:07:26Z</time></trkpt><trkpt lat="45.7995967" lon="8.4331083"><ele>489.3333333333333</ele><time>2026-04-12T12:07:27Z</time></trkpt><trkpt lat="45.7996567" lon="8.4331583"><ele>487.0</ele><time>2026-04-12T12:07:28Z</time></trkpt><trkpt lat="45.7997383" lon="8.43322"><ele>484.66666666666663</ele><time>2026-04-12T12:07:30Z</time></trkpt><trkpt lat="45.7997467" lon="8.43332"><ele>482.3333333333333</ele><time>2026-04-12T12:07:31.999Z</time></trkpt><trkpt lat="45.7997533" lon="8.433485"><ele>480.0</ele><time>2026-04-12T12:07:33.999Z</time></trkpt><trkpt lat="45.7997683" lon="8.4335817"><ele>480.0</ele><time>2026-04-12T12:07:35Z</time></trkpt><trkpt lat="45.7997867" lon="8.4336867"><ele>480.0</ele><time>2026-04-12T12:07:35.999Z</time></trkpt><trkpt lat="45.7998183" lon="8.4337967"><ele>480.0</ele><time>2026-04-12T12:07:36.999Z</time></trkpt><trkpt lat="45.799845" lon="8.4339017"><ele>480.0</ele><time>2026-04-12T12:07:37.999Z</time></trkpt><trkpt lat="45.79987" lon="8.434"><ele>480.0</ele><time>2026-04-12T12:07:38.999Z</time></trkpt><trkpt lat="45.79991" lon="8.4340883"><ele>480.0</ele><time>2026-04-12T12:07:39.999Z</time></trkpt><trkpt lat="45.7999367" lon="8.434185"><ele>479.8333333333333</ele><time>2026-04-12T12:07:41Z</time></trkpt><trkpt lat="45.7999667" lon="8.4342783"><ele>479.66666666666663</ele><time>2026-04-12T12:07:41.999Z</time></trkpt><trkpt lat="45.7999933" lon="8.4343833"><ele>479.5</ele><time>2026-04-12T12:07:42.999Z</time></trkpt><trkpt lat="45.8000233" lon="8.4344733"><ele>479.3333333333333</ele><time>2026-04-12T12:07:43.999Z</time></trkpt><trkpt lat="45.80005" lon="8.43457"><ele>479.16666666666663</ele><time>2026-04-12T12:07:44.999Z</time></trkpt><trkpt lat="45.8001217" lon="8.4347067"><ele>479.0</ele><time>2026-04-12T12:07:46.999Z</time></trkpt><trkpt lat="45.800185" lon="8.43477"><ele>478.42857142857144</ele><time>2026-04-12T12:07:47.999Z</time></trkpt><trkpt lat="45.8002483" lon="8.4348367"><ele>477.8571428571429</ele><time>2026-04-12T12:07:48.999Z</time></trkpt><trkpt lat="45.800305" lon="8.4349033"><ele>477.28571428571433</ele><time>2026-04-12T12:07:49.999Z</time></trkpt><trkpt lat="45.80035" lon="8.4349683"><ele>476.7142857142857</ele><time>2026-04-12T12:07:50.999Z</time></trkpt><trkpt lat="45.8004083" lon="8.4350033"><ele>476.1428571428572</ele><time>2026-04-12T12:07:51.999Z</time></trkpt><trkpt lat="45.8004517" lon="8.4350733"><ele>475.5714285714286</ele><time>2026-04-12T12:07:52.999Z</time></trkpt><trkpt lat="45.800495" lon="8.4351567"><ele>475.0</ele><time>2026-04-12T12:07:54Z</time></trkpt><trkpt lat="45.8005383" lon="8.435225"><ele>475.0</ele><time>2026-04-12T12:07:54.999Z</time></trkpt><trkpt lat="45.80063" lon="8.43533"><ele>475.0</ele><time>2026-04-12T12:07:56.999Z</time></trkpt><trkpt lat="45.8007267" lon="8.435315"><ele>475.0</ele><time>2026-04-12T12:07:59Z</time></trkpt><trkpt lat="45.800825" lon="8.4352767"><ele>475.0</ele><time>2026-04-12T12:08:00.999Z</time></trkpt><trkpt lat="45.8009233" lon="8.4352767"><ele>475.0</ele><time>2026-04-12T12:08:03Z</time></trkpt><trkpt lat="45.80102" lon="8.4352933"><ele>474.83333333333337</ele><time>2026-04-12T12:08:04.999Z</time></trkpt><trkpt lat="45.80112" lon="8.43536"><ele>474.6666666666667</ele><time>2026-04-12T12:08:06.999Z</time></trkpt><trkpt lat="45.8011883" lon="8.435405"><ele>474.5</ele><time>2026-04-12T12:08:07.999Z</time></trkpt><trkpt lat="45.8012533" lon="8.435455"><ele>474.33333333333337</ele><time>2026-04-12T12:08:08.999Z</time></trkpt><trkpt lat="45.8013083" lon="8.4355117"><ele>474.1666666666667</ele><time>2026-04-12T12:08:09.999Z</time></trkpt><trkpt lat="45.801375" lon="8.4355667"><ele>474.0</ele><time>2026-04-12T12:08:10.999Z</time></trkpt><trkpt lat="45.8014433" lon="8.4356217"><ele>474.3333333333333</ele><time>2026-04-12T12:08:12Z</time></trkpt><trkpt lat="45.8015083" lon="8.4356567"><ele>474.66666666666663</ele><time>2026-04-12T12:08:12.999Z</time></trkpt><trkpt lat="45.80158" lon="8.43569"><ele>475.0</ele><time>2026-04-12T12:08:14Z</time></trkpt><trkpt lat="45.80166" lon="8.4357333"><ele>475.3333333333333</ele><time>2026-04-12T12:08:14.999Z</time></trkpt><trkpt lat="45.8017333" lon="8.4357817"><ele>475.66666666666663</ele><time>2026-04-12T12:08:15.999Z</time></trkpt><trkpt lat="45.8017933" lon="8.4358367"><ele>476.0</ele><time>2026-04-12T12:08:17Z</time></trkpt><trkpt lat="45.8018533" lon="8.4358983"><ele>475.3333333333333</ele><time>2026-04-12T12:08:18Z</time></trkpt><trkpt lat="45.8019167" lon="8.43596"><ele>474.66666666666663</ele><time>2026-04-12T12:08:18.999Z</time></trkpt><trkpt lat="45.802005" lon="8.4360383"><ele>474.0</ele><time>2026-04-12T12:08:21Z</time></trkpt><trkpt lat="45.8021233" lon="8.4360717"><ele>473.33333333333337</ele><time>2026-04-12T12:08:23Z</time></trkpt><trkpt lat="45.8021967" lon="8.4360883"><ele>472.6666666666667</ele><time>2026-04-12T12:08:23.999Z</time></trkpt><trkpt lat="45.8022683" lon="8.4361133"><ele>472.0</ele><time>2026-04-12T12:08:25Z</time></trkpt><trkpt lat="45.8023417" lon="8.43614"><ele>472.00000000000006</ele><time>2026-04-12T12:08:25.999Z</time></trkpt><trkpt lat="45.8024133" lon="8.43618"><ele>472.0</ele><time>2026-04-12T12:08:26.999Z</time></trkpt><trkpt lat="45.80248" lon="8.4362183"><ele>472.0</ele><time>2026-04-12T12:08:27.999Z</time></trkpt><trkpt lat="45.8025833" lon="8.43621"><ele>472.0</ele><time>2026-04-12T12:08:29.999Z</time></trkpt><trkpt lat="45.8026383" lon="8.436085"><ele>472.00000000000006</ele><time>2026-04-12T12:08:32Z</time></trkpt><trkpt lat="45.802675" lon="8.4359883"><ele>472.0</ele><time>2026-04-12T12:08:33.999Z</time></trkpt><trkpt lat="45.80274" lon="8.43596"><ele>472.1666666666667</ele><time>2026-04-12T12:08:35.999Z</time></trkpt><trkpt lat="45.8028383" lon="8.4359217"><ele>472.33333333333337</ele><time>2026-04-12T12:08:37.999Z</time></trkpt><trkpt lat="45.8028967" lon="8.435795"><ele>472.5</ele><time>2026-04-12T12:08:39.999Z</time></trkpt><trkpt lat="45.80292" lon="8.435705"><ele>472.66666666666663</ele><time>2026-04-12T12:08:40.999Z</time></trkpt><trkpt lat="45.802945" lon="8.43561"><ele>472.8333333333333</ele><time>2026-04-12T12:08:41.999Z</time></trkpt><trkpt lat="45.8029717" lon="8.4355183"><ele>473.0</ele><time>2026-04-12T12:08:43Z</time></trkpt><trkpt lat="45.8030017" lon="8.435415"><ele>473.0</ele><time>2026-04-12T12:08:43.999Z</time></trkpt><trkpt lat="45.8030383" lon="8.4352983"><ele>472.99999999999994</ele><time>2026-04-12T12:08:44.999Z</time></trkpt><trkpt lat="45.80307" lon="8.4351783"><ele>472.99999999999994</ele><time>2026-04-12T12:08:45.999Z</time></trkpt><trkpt lat="45.803115" lon="8.4350483"><ele>473.0</ele><time>2026-04-12T12:08:46.999Z</time></trkpt><trkpt lat="45.803175" lon="8.4349433"><ele>473.0</ele><time>2026-04-12T12:08:48Z</time></trkpt><trkpt lat="45.803225" lon="8.4348317"><ele>473.0</ele><time>2026-04-12T12:08:49Z</time></trkpt><trkpt lat="45.8032783" lon="8.434715"><ele>472.99999999999994</ele><time>2026-04-12T12:08:49.999Z</time></trkpt><trkpt lat="45.8033183" lon="8.4346"><ele>472.99999999999994</ele><time>2026-04-12T12:08:50.999Z</time></trkpt><trkpt lat="45.8033617" lon="8.4344767"><ele>473.0</ele><time>2026-04-12T12:08:52Z</time></trkpt><trkpt lat="45.8034033" lon="8.43437"><ele>473.0</ele><time>2026-04-12T12:08:53Z</time></trkpt><trkpt lat="45.8034317" lon="8.4342567"><ele>473.99999999999994</ele><time>2026-04-12T12:08:53.998Z</time></trkpt><trkpt lat="45.8034467" lon="8.4341467"><ele>475.0</ele><time>2026-04-12T12:08:54.998Z</time></trkpt><trkpt lat="45.8034533" lon="8.4340283"><ele>476.0</ele><time>2026-04-12T12:08:55.998Z</time></trkpt><trkpt lat="45.8034483" lon="8.4339067"><ele>477.0</ele><time>2026-04-12T12:08:56.998Z</time></trkpt><trkpt lat="45.8034433" lon="8.4337983"><ele>477.99999999999994</ele><time>2026-04-12T12:08:57.999Z</time></trkpt><trkpt lat="45.803445" lon="8.4336517"><ele>479.0</ele><time>2026-04-12T12:08:59.998Z</time></trkpt><trkpt lat="45.8034767" lon="8.4335467"><ele>479.49999999999994</ele><time>2026-04-12T12:09:03.998Z</time></trkpt><trkpt lat="45.8034633" lon="8.4334417"><ele>480.0</ele><time>2026-04-12T12:09:05.998Z</time></trkpt><trkpt lat="45.8034283" lon="8.4332867"><ele>480.5</ele><time>2026-04-12T12:09:07.998Z</time></trkpt><trkpt lat="45.803415" lon="8.4331983"><ele>481.0</ele><time>2026-04-12T12:09:08.999Z</time></trkpt><trkpt lat="45.8034067" lon="8.433095"><ele>481.49999999999994</ele><time>2026-04-12T12:09:09.999Z</time></trkpt><trkpt lat="45.8034017" lon="8.4329883"><ele>482.0</ele><time>2026-04-12T12:09:10.998Z</time></trkpt><trkpt lat="45.8034017" lon="8.4328833"><ele>481.40000000000003</ele><time>2026-04-12T12:09:11.998Z</time></trkpt><trkpt lat="45.8034" lon="8.4327233"><ele>480.80000000000007</ele><time>2026-04-12T12:09:13.998Z</time></trkpt><trkpt lat="45.80345" lon="8.43262"><ele>480.2</ele><time>2026-04-12T12:09:15.998Z</time></trkpt><trkpt lat="45.803555" lon="8.432515"><ele>479.6</ele><time>2026-04-12T12:09:17.998Z</time></trkpt><trkpt lat="45.8036117" lon="8.4324567"><ele>479.0</ele><time>2026-04-12T12:09:18.999Z</time></trkpt><trkpt lat="45.8036817" lon="8.43239"><ele>479.0</ele><time>2026-04-12T12:09:19.998Z</time></trkpt><trkpt lat="45.8037517" lon="8.43232"><ele>479.0</ele><time>2026-04-12T12:09:20.998Z</time></trkpt><trkpt lat="45.8038267" lon="8.4322517"><ele>479.0</ele><time>2026-04-12T12:09:21.998Z</time></trkpt><trkpt lat="45.8039117" lon="8.4321817"><ele>479.0</ele><time>2026-04-12T12:09:22.998Z</time></trkpt><trkpt lat="45.8039867" lon="8.4321083"><ele>479.0</ele><time>2026-04-12T12:09:23.998Z</time></trkpt><trkpt lat="45.8040633" lon="8.43204"><ele>479.6</ele><time>2026-04-12T12:09:24.998Z</time></trkpt><trkpt lat="45.8041467" lon="8.4319833"><ele>480.2</ele><time>2026-04-12T12:09:25.998Z</time></trkpt><trkpt lat="45.8042433" lon="8.43194"><ele>480.80000000000007</ele><time>2026-04-12T12:09:26.998Z</time></trkpt><trkpt lat="45.8043433" lon="8.4319133"><ele>481.40000000000003</ele><time>2026-04-12T12:09:27.998Z</time></trkpt><trkpt lat="45.8044417" lon="8.4318867"><ele>482.0</ele><time>2026-04-12T12:09:28.999Z</time></trkpt><trkpt lat="45.804535" lon="8.4318633"><ele>482.0</ele><time>2026-04-12T12:09:29.998Z</time></trkpt><trkpt lat="45.8046317" lon="8.4318517"><ele>482.00000000000006</ele><time>2026-04-12T12:09:30.999Z</time></trkpt><trkpt lat="45.804725" lon="8.4318283"><ele>482.00000000000006</ele><time>2026-04-12T12:09:31.998Z</time></trkpt><trkpt lat="45.804825" lon="8.4318117"><ele>482.0</ele><time>2026-04-12T12:09:32.998Z</time></trkpt><trkpt lat="45.8049217" lon="8.4317967"><ele>482.0</ele><time>2026-04-12T12:09:33.998Z</time></trkpt><trkpt lat="45.8050283" lon="8.43177"><ele>482.0</ele><time>2026-04-12T12:09:34.998Z</time></trkpt><trkpt lat="45.8051333" lon="8.4317483"><ele>482.00000000000006</ele><time>2026-04-12T12:09:35.998Z</time></trkpt><trkpt lat="45.805235" lon="8.43172"><ele>482.00000000000006</ele><time>2026-04-12T12:09:36.999Z</time></trkpt><trkpt lat="45.8053267" lon="8.4317"><ele>482.0</ele><time>2026-04-12T12:09:37.999Z</time></trkpt><trkpt lat="45.805415" lon="8.4316633"><ele>482.0</ele><time>2026-04-12T12:09:38.998Z</time></trkpt><trkpt lat="45.8055083" lon="8.431645"><ele>481.20000000000005</ele><time>2026-04-12T12:09:39.998Z</time></trkpt><trkpt lat="45.8055983" lon="8.4316367"><ele>480.40000000000003</ele><time>2026-04-12T12:09:40.998Z</time></trkpt><trkpt lat="45.8057017" lon="8.43162"><ele>479.59999999999997</ele><time>2026-04-12T12:09:41.999Z</time></trkpt><trkpt lat="45.8058017" lon="8.4315917"><ele>478.79999999999995</ele><time>2026-04-12T12:09:42.999Z</time></trkpt><trkpt lat="45.80591" lon="8.4315383"><ele>478.0</ele><time>2026-04-12T12:09:43.998Z</time></trkpt><trkpt lat="45.806015" lon="8.4314633"><ele>476.0</ele><time>2026-04-12T12:09:44.999Z</time></trkpt><trkpt lat="45.8061167" lon="8.4313883"><ele>474.0</ele><time>2026-04-12T12:09:45.998Z</time></trkpt><trkpt lat="45.806225" lon="8.43131"><ele>472.0</ele><time>2026-04-12T12:09:46.998Z</time></trkpt><trkpt lat="45.8063383" lon="8.43124"><ele>470.0</ele><time>2026-04-12T12:09:47.998Z</time></trkpt><trkpt lat="45.8064567" lon="8.431195"><ele>470.0</ele><time>2026-04-12T12:09:48.998Z</time></trkpt><trkpt lat="45.8065733" lon="8.4311767"><ele>470.0</ele><time>2026-04-12T12:09:49.998Z</time></trkpt><trkpt lat="45.8066917" lon="8.4312167"><ele>470.0</ele><time>2026-04-12T12:09:50.999Z</time></trkpt><trkpt lat="45.8067917" lon="8.43128"><ele>470.0</ele><time>2026-04-12T12:09:51.998Z</time></trkpt><trkpt lat="45.8068983" lon="8.4313467"><ele>469.8</ele><time>2026-04-12T12:09:52.999Z</time></trkpt><trkpt lat="45.8070033" lon="8.4314033"><ele>469.6</ele><time>2026-04-12T12:09:53.998Z</time></trkpt><trkpt lat="45.8071117" lon="8.431445"><ele>469.4</ele><time>2026-04-12T12:09:54.998Z</time></trkpt><trkpt lat="45.8072117" lon="8.4314717"><ele>469.2</ele><time>2026-04-12T12:09:55.998Z</time></trkpt><trkpt lat="45.807305" lon="8.4314983"><ele>469.0</ele><time>2026-04-12T12:09:56.999Z</time></trkpt><trkpt lat="45.8074" lon="8.43152"><ele>469.0</ele><time>2026-04-12T12:09:57.998Z</time></trkpt><trkpt lat="45.8074817" lon="8.4315467"><ele>469.0</ele><time>2026-04-12T12:09:58.998Z</time></trkpt><trkpt lat="45.8075867" lon="8.431585"><ele>469.0</ele><time>2026-04-12T12:10:00.998Z</time></trkpt><trkpt lat="45.807715" lon="8.4315717"><ele>469.0</ele><time>2026-04-12T12:10:02.998Z</time></trkpt><trkpt lat="45.8077817" lon="8.4315283"><ele>469.0</ele><time>2026-04-12T12:10:03.998Z</time></trkpt><trkpt lat="45.807845" lon="8.43147"><ele>468.83333333333337</ele><time>2026-04-12T12:10:04.999Z</time></trkpt><trkpt lat="45.8078983" lon="8.4314"><ele>468.6666666666667</ele><time>2026-04-12T12:10:05.998Z</time></trkpt><trkpt lat="45.8079383" lon="8.431325"><ele>468.5</ele><time>2026-04-12T12:10:06.998Z</time></trkpt><trkpt lat="45.8079933" lon="8.43122"><ele>468.33333333333337</ele><time>2026-04-12T12:10:08.999Z</time></trkpt><trkpt lat="45.8080433" lon="8.4311417"><ele>468.1666666666667</ele><time>2026-04-12T12:10:10.999Z</time></trkpt><trkpt lat="45.8079583" lon="8.4312333"><ele>468.0</ele><time>2026-04-12T12:10:16.998Z</time></trkpt><trkpt lat="45.8078967" lon="8.43132"><ele>468.6666666666667</ele><time>2026-04-12T12:10:18.998Z</time></trkpt><trkpt lat="45.8079517" lon="8.4314483"><ele>469.33333333333337</ele><time>2026-04-12T12:10:28.999Z</time></trkpt><trkpt lat="45.808" lon="8.431515"><ele>470.0</ele><time>2026-04-12T12:10:29.999Z</time></trkpt><trkpt lat="45.8080633" lon="8.4315833"><ele>470.6666666666667</ele><time>2026-04-12T12:10:30.998Z</time></trkpt><trkpt lat="45.8081333" lon="8.43164"><ele>471.33333333333337</ele><time>2026-04-12T12:10:31.999Z</time></trkpt><trkpt lat="45.8082133" lon="8.43169"><ele>472.0</ele><time>2026-04-12T12:10:32.999Z</time></trkpt><trkpt lat="45.8082883" lon="8.431745"><ele>472.00000000000006</ele><time>2026-04-12T12:10:33.998Z</time></trkpt><trkpt lat="45.808365" lon="8.4318017"><ele>472.0</ele><time>2026-04-12T12:10:34.998Z</time></trkpt><trkpt lat="45.8084433" lon="8.4318483"><ele>472.0</ele><time>2026-04-12T12:10:35.998Z</time></trkpt><trkpt lat="45.8085267" lon="8.4318967"><ele>472.0</ele><time>2026-04-12T12:10:36.999Z</time></trkpt><trkpt lat="45.8086083" lon="8.431925"><ele>472.00000000000006</ele><time>2026-04-12T12:10:37.998Z</time></trkpt><trkpt lat="45.8086967" lon="8.4319567"><ele>472.0</ele><time>2026-04-12T12:10:38.999Z</time></trkpt><trkpt lat="45.8087833" lon="8.43199"><ele>471.83333333333337</ele><time>2026-04-12T12:10:39.998Z</time></trkpt><trkpt lat="45.8088683" lon="8.4320317"><ele>471.6666666666667</ele><time>2026-04-12T12:10:40.999Z</time></trkpt><trkpt lat="45.8089467" lon="8.4320733"><ele>471.5</ele><time>2026-04-12T12:10:41.998Z</time></trkpt><trkpt lat="45.8090183" lon="8.4321133"><ele>471.33333333333337</ele><time>2026-04-12T12:10:42.999Z</time></trkpt><trkpt lat="45.809095" lon="8.4321467"><ele>471.1666666666667</ele><time>2026-04-12T12:10:43.998Z</time></trkpt><trkpt lat="45.8091717" lon="8.4321617"><ele>471.0</ele><time>2026-04-12T12:10:44.998Z</time></trkpt><trkpt lat="45.8092383" lon="8.4321733"><ele>472.20000000000005</ele><time>2026-04-12T12:10:45.999Z</time></trkpt><trkpt lat="45.8093533" lon="8.4322017"><ele>473.40000000000003</ele><time>2026-04-12T12:10:47.998Z</time></trkpt><trkpt lat="45.8094533" lon="8.4322083"><ele>474.6</ele><time>2026-04-12T12:10:49.998Z</time></trkpt><trkpt lat="45.80956" lon="8.432165"><ele>475.8</ele><time>2026-04-12T12:10:51.999Z</time></trkpt><trkpt lat="45.8096267" lon="8.43213"><ele>477.0</ele><time>2026-04-12T12:10:52.999Z</time></trkpt><trkpt lat="45.8096933" lon="8.4320967"><ele>477.0</ele><time>2026-04-12T12:10:53.998Z</time></trkpt><trkpt lat="45.8097733" lon="8.4320767"><ele>477.00000000000006</ele><time>2026-04-12T12:10:54.999Z</time></trkpt><trkpt lat="45.8098533" lon="8.432055"><ele>477.00000000000006</ele><time>2026-04-12T12:10:55.999Z</time></trkpt><trkpt lat="45.8099417" lon="8.4320267"><ele>477.0</ele><time>2026-04-12T12:10:56.998Z</time></trkpt><trkpt lat="45.81001" lon="8.4319967"><ele>477.0</ele><time>2026-04-12T12:10:57.998Z</time></trkpt><trkpt lat="45.8101233" lon="8.4319167"><ele>480.5</ele><time>2026-04-12T12:10:59.998Z</time></trkpt><trkpt lat="45.8101783" lon="8.4318683"><ele>484.0</ele><time>2026-04-12T12:11:00.998Z</time></trkpt><trkpt lat="45.8102467" lon="8.431815"><ele>487.5</ele><time>2026-04-12T12:11:01.999Z</time></trkpt><trkpt lat="45.8103217" lon="8.4317683"><ele>491.0</ele><time>2026-04-12T12:11:02.998Z</time></trkpt><trkpt lat="45.810395" lon="8.4317183"><ele>494.5</ele><time>2026-04-12T12:11:03.999Z</time></trkpt><trkpt lat="45.8104683" lon="8.431665"><ele>498.0</ele><time>2026-04-12T12:11:04.998Z</time></trkpt><trkpt lat="45.8105483" lon="8.4316183"><ele>498.0</ele><time>2026-04-12T12:11:05.998Z</time></trkpt><trkpt lat="45.8106233" lon="8.4315617"><ele>497.99999999999994</ele><time>2026-04-12T12:11:06.999Z</time></trkpt><trkpt lat="45.810695" lon="8.4315183"><ele>498.0</ele><time>2026-04-12T12:11:07.998Z</time></trkpt><trkpt lat="45.8107633" lon="8.4314833"><ele>498.0</ele><time>2026-04-12T12:11:08.998Z</time></trkpt><trkpt lat="45.8108333" lon="8.43145"><ele>497.99999999999994</ele><time>2026-04-12T12:11:09.999Z</time></trkpt><trkpt lat="45.8108983" lon="8.4314167"><ele>498.0</ele><time>2026-04-12T12:11:10.999Z</time></trkpt><trkpt lat="45.8109633" lon="8.4313967"><ele>498.0</ele><time>2026-04-12T12:11:11.999Z</time></trkpt><trkpt lat="45.8110333" lon="8.4313667"><ele>499.5</ele><time>2026-04-12T12:11:12.998Z</time></trkpt><trkpt lat="45.8111067" lon="8.4313617"><ele>501.0</ele><time>2026-04-12T12:11:13.998Z</time></trkpt><trkpt lat="45.81119" lon="8.4313633"><ele>502.5</ele><time>2026-04-12T12:11:14.999Z</time></trkpt><trkpt lat="45.811275" lon="8.431375"><ele>504.0</ele><time>2026-04-12T12:11:15.998Z</time></trkpt><trkpt lat="45.8113483" lon="8.4313767"><ele>505.5</ele><time>2026-04-12T12:11:16.999Z</time></trkpt><trkpt lat="45.8114367" lon="8.4313667"><ele>507.0</ele><time>2026-04-12T12:11:17.998Z</time></trkpt><trkpt lat="45.8115083" lon="8.431355"><ele>507.0</ele><time>2026-04-12T12:11:18.999Z</time></trkpt><trkpt lat="45.811595" lon="8.431345"><ele>507.0</ele><time>2026-04-12T12:11:19.998Z</time></trkpt><trkpt lat="45.8116917" lon="8.4313283"><ele>507.0</ele><time>2026-04-12T12:11:20.998Z</time></trkpt><trkpt lat="45.8117833" lon="8.4313067"><ele>507.0</ele><time>2026-04-12T12:11:21.999Z</time></trkpt><trkpt lat="45.8118667" lon="8.4312683"><ele>507.0</ele><time>2026-04-12T12:11:22.998Z</time></trkpt><trkpt lat="45.81195" lon="8.431255"><ele>507.0</ele><time>2026-04-12T12:11:23.999Z</time></trkpt><trkpt lat="45.8120383" lon="8.431225"><ele>503.1666666666667</ele><time>2026-04-12T12:11:24.998Z</time></trkpt><trkpt lat="45.8121367" lon="8.4311983"><ele>499.33333333333337</ele><time>2026-04-12T12:11:25.999Z</time></trkpt><trkpt lat="45.8122267" lon="8.4311717"><ele>495.5</ele><time>2026-04-12T12:11:26.999Z</time></trkpt><trkpt lat="45.8123117" lon="8.4311467"><ele>491.6666666666667</ele><time>2026-04-12T12:11:27.998Z</time></trkpt><trkpt lat="45.812395" lon="8.431125"><ele>487.83333333333337</ele><time>2026-04-12T12:11:28.998Z</time></trkpt><trkpt lat="45.8124633" lon="8.4310967"><ele>484.0</ele><time>2026-04-12T12:11:29.998Z</time></trkpt><trkpt lat="45.8125317" lon="8.4311033"><ele>484.0</ele><time>2026-04-12T12:11:30.998Z</time></trkpt><trkpt lat="45.8126" lon="8.43112"><ele>483.99999999999994</ele><time>2026-04-12T12:11:31.999Z</time></trkpt><trkpt lat="45.8126633" lon="8.4311417"><ele>484.0</ele><time>2026-04-12T12:11:32.998Z</time></trkpt><trkpt lat="45.812725" lon="8.43119"><ele>484.0</ele><time>2026-04-12T12:11:33.998Z</time></trkpt><trkpt lat="45.8127917" lon="8.4312433"><ele>483.99999999999994</ele><time>2026-04-12T12:11:34.998Z</time></trkpt><trkpt lat="45.8128567" lon="8.4313233"><ele>484.0</ele><time>2026-04-12T12:11:35.999Z</time></trkpt><trkpt lat="45.81292" lon="8.4313983"><ele>484.0</ele><time>2026-04-12T12:11:36.998Z</time></trkpt><trkpt lat="45.8129783" lon="8.431475"><ele>484.6666666666667</ele><time>2026-04-12T12:11:37.999Z</time></trkpt><trkpt lat="45.8130467" lon="8.4315617"><ele>485.33333333333337</ele><time>2026-04-12T12:11:38.999Z</time></trkpt><trkpt lat="45.813095" lon="8.4316583"><ele>486.0</ele><time>2026-04-12T12:11:39.998Z</time></trkpt><trkpt lat="45.8131483" lon="8.4317467"><ele>486.66666666666663</ele><time>2026-04-12T12:11:40.998Z</time></trkpt><trkpt lat="45.8131817" lon="8.43185"><ele>487.3333333333333</ele><time>2026-04-12T12:11:41.999Z</time></trkpt><trkpt lat="45.81322" lon="8.4319467"><ele>488.0</ele><time>2026-04-12T12:11:42.999Z</time></trkpt><trkpt lat="45.81324" lon="8.432035"><ele>487.99999999999994</ele><time>2026-04-12T12:11:43.998Z</time></trkpt><trkpt lat="45.8132717" lon="8.4321217"><ele>488.0</ele><time>2026-04-12T12:11:44.999Z</time></trkpt><trkpt lat="45.813325" lon="8.4322"><ele>488.0</ele><time>2026-04-12T12:11:45.999Z</time></trkpt><trkpt lat="45.8133783" lon="8.4322917"><ele>488.0</ele><time>2026-04-12T12:11:46.999Z</time></trkpt><trkpt lat="45.8134433" lon="8.4323817"><ele>487.99999999999994</ele><time>2026-04-12T12:11:47.998Z</time></trkpt><trkpt lat="45.8134967" lon="8.4324667"><ele>488.0</ele><time>2026-04-12T12:11:48.998Z</time></trkpt><trkpt lat="45.813555" lon="8.43255"><ele>488.16666666666663</ele><time>2026-04-12T12:11:49.998Z</time></trkpt><trkpt lat="45.8136167" lon="8.432635"><ele>488.3333333333333</ele><time>2026-04-12T12:11:50.999Z</time></trkpt><trkpt lat="45.8136633" lon="8.4327167"><ele>488.5</ele><time>2026-04-12T12:11:51.999Z</time></trkpt><trkpt lat="45.813715" lon="8.4328167"><ele>488.66666666666663</ele><time>2026-04-12T12:11:52.998Z</time></trkpt><trkpt lat="45.8137867" lon="8.4329167"><ele>488.8333333333333</ele><time>2026-04-12T12:11:53.999Z</time></trkpt><trkpt lat="45.81386" lon="8.4330067"><ele>489.0</ele><time>2026-04-12T12:11:55Z</time></trkpt><trkpt lat="45.8139333" lon="8.4330933"><ele>489.0</ele><time>2026-04-12T12:11:55.999Z</time></trkpt><trkpt lat="45.8140117" lon="8.4331717"><ele>489.0</ele><time>2026-04-12T12:11:56.999Z</time></trkpt><trkpt lat="45.8140867" lon="8.4332517"><ele>489.0</ele><time>2026-04-12T12:11:57.999Z</time></trkpt><trkpt lat="45.8141567" lon="8.433325"><ele>489.0</ele><time>2026-04-12T12:11:59Z</time></trkpt><trkpt lat="45.8142267" lon="8.4333783"><ele>489.0</ele><time>2026-04-12T12:11:59.999Z</time></trkpt><trkpt lat="45.814295" lon="8.43341"><ele>489.0</ele><time>2026-04-12T12:12:01Z</time></trkpt><trkpt lat="45.81439" lon="8.433455"><ele>489.4</ele><time>2026-04-12T12:12:02Z</time></trkpt><trkpt lat="45.8144833" lon="8.43349"><ele>489.79999999999995</ele><time>2026-04-12T12:12:02.999Z</time></trkpt><trkpt lat="45.814585" lon="8.433525"><ele>490.20000000000005</ele><time>2026-04-12T12:12:04Z</time></trkpt><trkpt lat="45.8146933" lon="8.4335417"><ele>490.6</ele><time>2026-04-12T12:12:05Z</time></trkpt><trkpt lat="45.8148033" lon="8.433545"><ele>491.0</ele><time>2026-04-12T12:12:06Z</time></trkpt><trkpt lat="45.8149033" lon="8.4335533"><ele>490.99999999999994</ele><time>2026-04-12T12:12:06.999Z</time></trkpt><trkpt lat="45.8150017" lon="8.4335667"><ele>491.0</ele><time>2026-04-12T12:12:07.999Z</time></trkpt><trkpt lat="45.8150733" lon="8.4335783"><ele>491.0</ele><time>2026-04-12T12:12:09Z</time></trkpt><trkpt lat="45.81516" lon="8.4335683"><ele>491.0</ele><time>2026-04-12T12:12:10.999Z</time></trkpt><trkpt lat="45.8151633" lon="8.4334267"><ele>490.99999999999994</ele><time>2026-04-12T12:12:14Z</time></trkpt><trkpt lat="45.8151783" lon="8.4333167"><ele>491.0</ele><time>2026-04-12T12:12:15.999Z</time></trkpt><trkpt lat="45.815265" lon="8.4333517"><ele>491.2857142857143</ele><time>2026-04-12T12:12:18.999Z</time></trkpt><trkpt lat="45.8153233" lon="8.4333867"><ele>491.57142857142856</ele><time>2026-04-12T12:12:19.999Z</time></trkpt><trkpt lat="45.81539" lon="8.4334217"><ele>491.85714285714283</ele><time>2026-04-12T12:12:20.999Z</time></trkpt><trkpt lat="45.8154617" lon="8.43346"><ele>492.1428571428571</ele><time>2026-04-12T12:12:21.999Z</time></trkpt><trkpt lat="45.8155367" lon="8.4335083"><ele>492.42857142857144</ele><time>2026-04-12T12:12:22.999Z</time></trkpt><trkpt lat="45.8156083" lon="8.43356"><ele>492.71428571428567</ele><time>2026-04-12T12:12:23.999Z</time></trkpt><trkpt lat="45.815675" lon="8.4336133"><ele>493.0</ele><time>2026-04-12T12:12:24.999Z</time></trkpt><trkpt lat="45.8157167" lon="8.4336833"><ele>493.00000000000006</ele><time>2026-04-12T12:12:25.999Z</time></trkpt><trkpt lat="45.8157583" lon="8.433815"><ele>493.0</ele><time>2026-04-12T12:12:28Z</time></trkpt><trkpt lat="45.81581" lon="8.4338767"><ele>493.0</ele><time>2026-04-12T12:12:29.999Z</time></trkpt><trkpt lat="45.8157967" lon="8.4337717"><ele>493.0</ele><time>2026-04-12T12:12:32.999Z</time></trkpt><trkpt lat="45.8157583" lon="8.4336933"><ele>493.00000000000006</ele><time>2026-04-12T12:12:34Z</time></trkpt><trkpt lat="45.8157133" lon="8.43358"><ele>493.0</ele><time>2026-04-12T12:12:36Z</time></trkpt><trkpt lat="45.815775" lon="8.4335483"><ele>493.00000000000006</ele><time>2026-04-12T12:12:45Z</time></trkpt><trkpt lat="45.8158567" lon="8.4334483"><ele>493.0</ele><time>2026-04-12T12:12:47Z</time></trkpt><trkpt lat="45.8159233" lon="8.4334"><ele>493.0</ele><time>2026-04-12T12:12:48Z</time></trkpt><trkpt lat="45.8160017" lon="8.4333617"><ele>493.0</ele><time>2026-04-12T12:12:48.999Z</time></trkpt><trkpt lat="45.8160683" lon="8.43335"><ele>493.00000000000006</ele><time>2026-04-12T12:12:50Z</time></trkpt><trkpt lat="45.8161433" lon="8.43337"><ele>493.0</ele><time>2026-04-12T12:12:51Z</time></trkpt><trkpt lat="45.8162217" lon="8.4333967"><ele>492.83333333333337</ele><time>2026-04-12T12:12:51.999Z</time></trkpt><trkpt lat="45.8163017" lon="8.43341"><ele>492.6666666666667</ele><time>2026-04-12T12:12:53Z</time></trkpt><trkpt lat="45.81638" lon="8.4334183"><ele>492.5</ele><time>2026-04-12T12:12:53.999Z</time></trkpt><trkpt lat="45.8164567" lon="8.4334167"><ele>492.33333333333337</ele><time>2026-04-12T12:12:54.999Z</time></trkpt><trkpt lat="45.8165283" lon="8.4334033"><ele>492.1666666666667</ele><time>2026-04-12T12:12:55.999Z</time></trkpt><trkpt lat="45.816625" lon="8.433375"><ele>492.0</ele><time>2026-04-12T12:12:56.999Z</time></trkpt><trkpt lat="45.816705" lon="8.4333667"><ele>492.0</ele><time>2026-04-12T12:12:57.999Z</time></trkpt><trkpt lat="45.8167883" lon="8.43337"><ele>492.0</ele><time>2026-04-12T12:12:58.999Z</time></trkpt><trkpt lat="45.81687" lon="8.4333683"><ele>492.0</ele><time>2026-04-12T12:12:59.999Z</time></trkpt><trkpt lat="45.8169717" lon="8.4333767"><ele>492.0</ele><time>2026-04-12T12:13:00.999Z</time></trkpt><trkpt lat="45.8170567" lon="8.4333883"><ele>492.0</ele><time>2026-04-12T12:13:01.999Z</time></trkpt><trkpt lat="45.81714" lon="8.43341"><ele>492.0</ele><time>2026-04-12T12:13:02.999Z</time></trkpt><trkpt lat="45.8172183" lon="8.4334217"><ele>492.1666666666667</ele><time>2026-04-12T12:13:04Z</time></trkpt><trkpt lat="45.8172983" lon="8.433435"><ele>492.33333333333337</ele><time>2026-04-12T12:13:04.999Z</time></trkpt><trkpt lat="45.81738" lon="8.4334467"><ele>492.5</ele><time>2026-04-12T12:13:05.999Z</time></trkpt><trkpt lat="45.817475" lon="8.4334667"><ele>492.6666666666667</ele><time>2026-04-12T12:13:07Z</time></trkpt><trkpt lat="45.8175617" lon="8.4335083"><ele>492.83333333333337</ele><time>2026-04-12T12:13:07.999Z</time></trkpt><trkpt lat="45.8176533" lon="8.433535"><ele>493.0</ele><time>2026-04-12T12:13:08.999Z</time></trkpt><trkpt lat="45.8177333" lon="8.43356"><ele>493.6666666666667</ele><time>2026-04-12T12:13:10Z</time></trkpt><trkpt lat="45.8178083" lon="8.433595"><ele>494.33333333333337</ele><time>2026-04-12T12:13:11Z</time></trkpt><trkpt lat="45.81788" lon="8.4336267"><ele>495.0</ele><time>2026-04-12T12:13:12Z</time></trkpt><trkpt lat="45.81797" lon="8.43367"><ele>495.66666666666663</ele><time>2026-04-12T12:13:12.999Z</time></trkpt><trkpt lat="45.8180667" lon="8.4337117"><ele>496.3333333333333</ele><time>2026-04-12T12:13:14Z</time></trkpt><trkpt lat="45.81815" lon="8.4337367"><ele>497.0</ele><time>2026-04-12T12:13:14.999Z</time></trkpt><trkpt lat="45.8182433" lon="8.433785"><ele>497.20000000000005</ele><time>2026-04-12T12:13:15.999Z</time></trkpt><trkpt lat="45.8183533" lon="8.4338183"><ele>497.40000000000003</ele><time>2026-04-12T12:13:16.999Z</time></trkpt><trkpt lat="45.8184567" lon="8.4338317"><ele>497.59999999999997</ele><time>2026-04-12T12:13:17.999Z</time></trkpt><trkpt lat="45.81855" lon="8.433845"><ele>497.79999999999995</ele><time>2026-04-12T12:13:18.999Z</time></trkpt><trkpt lat="45.8186567" lon="8.43382"><ele>498.0</ele><time>2026-04-12T12:13:19.999Z</time></trkpt><trkpt lat="45.8187483" lon="8.4337683"><ele>498.79999999999995</ele><time>2026-04-12T12:13:20.999Z</time></trkpt><trkpt lat="45.8188317" lon="8.433705"><ele>499.59999999999997</ele><time>2026-04-12T12:13:21.999Z</time></trkpt><trkpt lat="45.8189117" lon="8.4336633"><ele>500.40000000000003</ele><time>2026-04-12T12:13:22.999Z</time></trkpt><trkpt lat="45.8190117" lon="8.433645"><ele>501.20000000000005</ele><time>2026-04-12T12:13:23.999Z</time></trkpt><trkpt lat="45.8191133" lon="8.4336583"><ele>502.0</ele><time>2026-04-12T12:13:24.999Z</time></trkpt><trkpt lat="45.819215" lon="8.433685"><ele>502.0</ele><time>2026-04-12T12:13:26Z</time></trkpt><trkpt lat="45.8193133" lon="8.4337183"><ele>502.00000000000006</ele><time>2026-04-12T12:13:26.999Z</time></trkpt><trkpt lat="45.8193983" lon="8.4337467"><ele>502.00000000000006</ele><time>2026-04-12T12:13:27.999Z</time></trkpt><trkpt lat="45.8194667" lon="8.43377"><ele>502.0</ele><time>2026-04-12T12:13:28.999Z</time></trkpt><trkpt lat="45.8195717" lon="8.4338317"><ele>502.0</ele><time>2026-04-12T12:13:31Z</time></trkpt><trkpt lat="45.819655" lon="8.4338617"><ele>501.8</ele><time>2026-04-12T12:13:32.999Z</time></trkpt><trkpt lat="45.8197767" lon="8.433915"><ele>501.6</ele><time>2026-04-12T12:13:35Z</time></trkpt><trkpt lat="45.819855" lon="8.4339417"><ele>501.40000000000003</ele><time>2026-04-12T12:13:35.999Z</time></trkpt><trkpt lat="45.8199467" lon="8.43397"><ele>501.20000000000005</ele><time>2026-04-12T12:13:37Z</time></trkpt><trkpt lat="45.8200217" lon="8.433995"><ele>501.0</ele><time>2026-04-12T12:13:37.999Z</time></trkpt><trkpt lat="45.8200967" lon="8.4340183"><ele>500.8</ele><time>2026-04-12T12:13:38.999Z</time></trkpt><trkpt lat="45.82016" lon="8.4340217"><ele>500.6</ele><time>2026-04-12T12:13:39.999Z</time></trkpt><trkpt lat="45.82028" lon="8.43399"><ele>500.4</ele><time>2026-04-12T12:13:41.999Z</time></trkpt><trkpt lat="45.8203883" lon="8.4339283"><ele>500.2</ele><time>2026-04-12T12:13:44Z</time></trkpt><trkpt lat="45.8204733" lon="8.433885"><ele>500.0</ele><time>2026-04-12T12:13:45.999Z</time></trkpt><trkpt lat="45.8205433" lon="8.43393"><ele>500.0</ele><time>2026-04-12T12:13:47.999Z</time></trkpt><trkpt lat="45.82058" lon="8.4340867"><ele>500.0</ele><time>2026-04-12T12:13:50Z</time></trkpt><trkpt lat="45.820655" lon="8.4341633"><ele>500.0</ele><time>2026-04-12T12:13:51.999Z</time></trkpt><trkpt lat="45.8207367" lon="8.43413"><ele>500.0</ele><time>2026-04-12T12:13:53.999Z</time></trkpt><trkpt lat="45.8208267" lon="8.4340567"><ele>500.0</ele><time>2026-04-12T12:13:55.999Z</time></trkpt><trkpt lat="45.82096" lon="8.4340683"><ele>501.4</ele><time>2026-04-12T12:13:58Z</time></trkpt><trkpt lat="45.8210367" lon="8.4340917"><ele>502.8</ele><time>2026-04-12T12:13:58.999Z</time></trkpt><trkpt lat="45.821155" lon="8.4340917"><ele>504.20000000000005</ele><time>2026-04-12T12:14:00.999Z</time></trkpt><trkpt lat="45.821255" lon="8.4340167"><ele>505.6</ele><time>2026-04-12T12:14:03.999Z</time></trkpt><trkpt lat="45.821325" lon="8.4339867"><ele>507.0</ele><time>2026-04-12T12:14:05Z</time></trkpt><trkpt lat="45.8213983" lon="8.433955"><ele>507.0</ele><time>2026-04-12T12:14:05.999Z</time></trkpt><trkpt lat="45.8214783" lon="8.4339317"><ele>507.0</ele><time>2026-04-12T12:14:06.999Z</time></trkpt><trkpt lat="45.8215633" lon="8.433935"><ele>507.0</ele><time>2026-04-12T12:14:07.999Z</time></trkpt><trkpt lat="45.8216417" lon="8.433955"><ele>507.0</ele><time>2026-04-12T12:14:09Z</time></trkpt><trkpt lat="45.8217317" lon="8.4339767"><ele>507.0</ele><time>2026-04-12T12:14:09.999Z</time></trkpt><trkpt lat="45.8218167" lon="8.4340133"><ele>507.0</ele><time>2026-04-12T12:14:10.999Z</time></trkpt><trkpt lat="45.8219017" lon="8.43406"><ele>508.20000000000005</ele><time>2026-04-12T12:14:12Z</time></trkpt><trkpt lat="45.82197" lon="8.43411"><ele>509.40000000000003</ele><time>2026-04-12T12:14:12.999Z</time></trkpt><trkpt lat="45.8220317" lon="8.434135"><ele>510.59999999999997</ele><time>2026-04-12T12:14:14Z</time></trkpt><trkpt lat="45.8221283" lon="8.43414"><ele>511.79999999999995</ele><time>2026-04-12T12:14:15.999Z</time></trkpt><trkpt lat="45.8222333" lon="8.4340117"><ele>513.0</ele><time>2026-04-12T12:14:18Z</time></trkpt><trkpt lat="45.8223067" lon="8.4339283"><ele>513.0</ele><time>2026-04-12T12:14:19Z</time></trkpt><trkpt lat="45.8223783" lon="8.43386"><ele>513.0</ele><time>2026-04-12T12:14:20Z</time></trkpt><trkpt lat="45.822455" lon="8.4338"><ele>513.0</ele><time>2026-04-12T12:14:20.999Z</time></trkpt><trkpt lat="45.8225417" lon="8.433755"><ele>513.0</ele><time>2026-04-12T12:14:21.999Z</time></trkpt><trkpt lat="45.8226467" lon="8.4337517"><ele>513.0</ele><time>2026-04-12T12:14:22.999Z</time></trkpt><trkpt lat="45.822755" lon="8.4337667"><ele>512.6</ele><time>2026-04-12T12:14:23.999Z</time></trkpt><trkpt lat="45.8228533" lon="8.433795"><ele>512.1999999999999</ele><time>2026-04-12T12:14:24.999Z</time></trkpt><trkpt lat="45.8229583" lon="8.4338117"><ele>511.8</ele><time>2026-04-12T12:14:26Z</time></trkpt><trkpt lat="45.8230683" lon="8.4338267"><ele>511.4</ele><time>2026-04-12T12:14:26.999Z</time></trkpt><trkpt lat="45.82318" lon="8.433835"><ele>511.0</ele><time>2026-04-12T12:14:27.999Z</time></trkpt><trkpt lat="45.8232883" lon="8.43383"><ele>512.8</ele><time>2026-04-12T12:14:28.999Z</time></trkpt><trkpt lat="45.8233933" lon="8.4338117"><ele>514.6</ele><time>2026-04-12T12:14:29.999Z</time></trkpt><trkpt lat="45.8234867" lon="8.4337967"><ele>516.4</ele><time>2026-04-12T12:14:31Z</time></trkpt><trkpt lat="45.823575" lon="8.4337883"><ele>518.2</ele><time>2026-04-12T12:14:32Z</time></trkpt><trkpt lat="45.823685" lon="8.4337867"><ele>520.0</ele><time>2026-04-12T12:14:33.999Z</time></trkpt><trkpt lat="45.82375" lon="8.4337583"><ele>520.4</ele><time>2026-04-12T12:14:35.999Z</time></trkpt><trkpt lat="45.8238167" lon="8.4336217"><ele>520.8</ele><time>2026-04-12T12:14:37.999Z</time></trkpt><trkpt lat="45.823855" lon="8.4335233"><ele>521.2</ele><time>2026-04-12T12:14:39Z</time></trkpt><trkpt lat="45.8238917" lon="8.43341"><ele>521.6</ele><time>2026-04-12T12:14:40Z</time></trkpt><trkpt lat="45.82393" lon="8.433275"><ele>522.0</ele><time>2026-04-12T12:14:40.999Z</time></trkpt><trkpt lat="45.8239733" lon="8.4331267"><ele>522.0</ele><time>2026-04-12T12:14:41.999Z</time></trkpt><trkpt lat="45.824025" lon="8.4329767"><ele>522.0</ele><time>2026-04-12T12:14:42.999Z</time></trkpt><trkpt lat="45.8240833" lon="8.4328217"><ele>522.0</ele><time>2026-04-12T12:14:44Z</time></trkpt><trkpt lat="45.824145" lon="8.4326717"><ele>522.0</ele><time>2026-04-12T12:14:44.999Z</time></trkpt><trkpt lat="45.824215" lon="8.4325267"><ele>520.75</ele><time>2026-04-12T12:14:45.999Z</time></trkpt><trkpt lat="45.824285" lon="8.4323717"><ele>519.5</ele><time>2026-04-12T12:14:46.999Z</time></trkpt><trkpt lat="45.8243633" lon="8.432225"><ele>518.25</ele><time>2026-04-12T12:14:48Z</time></trkpt><trkpt lat="45.8244467" lon="8.432075"><ele>517.0</ele><time>2026-04-12T12:14:48.999Z</time></trkpt><trkpt lat="45.82453" lon="8.4319433"><ele>517.0</ele><time>2026-04-12T12:14:49.999Z</time></trkpt><trkpt lat="45.824605" lon="8.4318183"><ele>517.0</ele><time>2026-04-12T12:14:50.999Z</time></trkpt><trkpt lat="45.8246733" lon="8.431695"><ele>517.0</ele><time>2026-04-12T12:14:51.999Z</time></trkpt><trkpt lat="45.8247383" lon="8.4315733"><ele>517.0</ele><time>2026-04-12T12:14:52.999Z</time></trkpt><trkpt lat="45.8248067" lon="8.431445"><ele>517.0</ele><time>2026-04-12T12:14:54Z</time></trkpt><trkpt lat="45.82488" lon="8.4313167"><ele>517.2</ele><time>2026-04-12T12:14:54.999Z</time></trkpt><trkpt lat="45.8249517" lon="8.4312"><ele>517.4000000000001</ele><time>2026-04-12T12:14:55.999Z</time></trkpt><trkpt lat="45.825025" lon="8.4310867"><ele>517.5999999999999</ele><time>2026-04-12T12:14:57Z</time></trkpt><trkpt lat="45.8251083" lon="8.4309767"><ele>517.8</ele><time>2026-04-12T12:14:57.999Z</time></trkpt><trkpt lat="45.8251967" lon="8.43088"><ele>518.0</ele><time>2026-04-12T12:14:58.999Z</time></trkpt><trkpt lat="45.825285" lon="8.430795"><ele>518.0</ele><time>2026-04-12T12:15:00Z</time></trkpt><trkpt lat="45.825355" lon="8.4307233"><ele>518.0</ele><time>2026-04-12T12:15:00.999Z</time></trkpt><trkpt lat="45.825415" lon="8.4306733"><ele>518.0</ele><time>2026-04-12T12:15:01.999Z</time></trkpt><trkpt lat="45.8254683" lon="8.4306217"><ele>518.0</ele><time>2026-04-12T12:15:03Z</time></trkpt><trkpt lat="45.8255567" lon="8.4305417"><ele>518.0</ele><time>2026-04-12T12:15:04.999Z</time></trkpt><trkpt lat="45.8254683" lon="8.4305183"><ele>518.0</ele><time>2026-04-12T12:15:10Z</time></trkpt><trkpt lat="45.8253833" lon="8.4305817"><ele>518.0</ele><time>2026-04-12T12:15:11.999Z</time></trkpt><trkpt lat="45.8252733" lon="8.4305733"><ele>518.0</ele><time>2026-04-12T12:15:13.999Z</time></trkpt><trkpt lat="45.8252133" lon="8.430545"><ele>518.0</ele><time>2026-04-12T12:15:14.999Z</time></trkpt><trkpt lat="45.8251467" lon="8.4304867"><ele>518.0</ele><time>2026-04-12T12:15:15.999Z</time></trkpt><trkpt lat="45.82508" lon="8.4304117"><ele>518.0</ele><time>2026-04-12T12:15:16.999Z</time></trkpt><trkpt lat="45.8250117" lon="8.43032"><ele>518.0</ele><time>2026-04-12T12:15:17.999Z</time></trkpt><trkpt lat="45.8249583" lon="8.4302417"><ele>513.6</ele><time>2026-04-12T12:15:19Z</time></trkpt><trkpt lat="45.8248717" lon="8.430125"><ele>509.19999999999993</ele><time>2026-04-12T12:15:20.999Z</time></trkpt><trkpt lat="45.8247883" lon="8.43008"><ele>504.8</ele><time>2026-04-12T12:15:23Z</time></trkpt><trkpt lat="45.8246783" lon="8.430125"><ele>500.4</ele><time>2026-04-12T12:15:24.999Z</time></trkpt><trkpt lat="45.8246133" lon="8.4301567"><ele>496.0</ele><time>2026-04-12T12:15:26Z</time></trkpt><trkpt lat="45.8245433" lon="8.4301833"><ele>496.00000000000006</ele><time>2026-04-12T12:15:26.999Z</time></trkpt><trkpt lat="45.82447" lon="8.43021"><ele>496.0</ele><time>2026-04-12T12:15:27.999Z</time></trkpt><trkpt lat="45.824405" lon="8.4302267"><ele>496.0</ele><time>2026-04-12T12:15:28.999Z</time></trkpt><trkpt lat="45.82428" lon="8.430265"><ele>496.0</ele><time>2026-04-12T12:15:30.999Z</time></trkpt><trkpt lat="45.8242033" lon="8.43029"><ele>496.00000000000006</ele><time>2026-04-12T12:15:31.999Z</time></trkpt><trkpt lat="45.8241283" lon="8.43033"><ele>496.0</ele><time>2026-04-12T12:15:33Z</time></trkpt><trkpt lat="45.82405" lon="8.4303883"><ele>496.00000000000006</ele><time>2026-04-12T12:15:33.999Z</time></trkpt><trkpt lat="45.8239867" lon="8.4304683"><ele>496.0</ele><time>2026-04-12T12:15:34.999Z</time></trkpt><trkpt lat="45.8239233" lon="8.430535"><ele>496.0</ele><time>2026-04-12T12:15:35.999Z</time></trkpt><trkpt lat="45.823865" lon="8.430585"><ele>496.0</ele><time>2026-04-12T12:15:37Z</time></trkpt><trkpt lat="45.8238" lon="8.43061"><ele>496.00000000000006</ele><time>2026-04-12T12:15:37.999Z</time></trkpt><trkpt lat="45.8236917" lon="8.4305917"><ele>496.0</ele><time>2026-04-12T12:15:39.999Z</time></trkpt><trkpt lat="45.8236017" lon="8.4305283"><ele>496.00000000000006</ele><time>2026-04-12T12:15:42Z</time></trkpt><trkpt lat="45.8235283" lon="8.430555"><ele>496.0</ele><time>2026-04-12T12:15:44Z</time></trkpt><trkpt lat="45.8234183" lon="8.4306383"><ele>496.0</ele><time>2026-04-12T12:15:46Z</time></trkpt><trkpt lat="45.8233517" lon="8.43067"><ele>496.0</ele><time>2026-04-12T12:15:47Z</time></trkpt><trkpt lat="45.823275" lon="8.430685"><ele>496.00000000000006</ele><time>2026-04-12T12:15:47.999Z</time></trkpt><trkpt lat="45.8232017" lon="8.4306883"><ele>496.0</ele><time>2026-04-12T12:15:48.999Z</time></trkpt><trkpt lat="45.8231233" lon="8.4306767"><ele>493.1666666666667</ele><time>2026-04-12T12:15:50Z</time></trkpt><trkpt lat="45.8230283" lon="8.4306867"><ele>490.33333333333337</ele><time>2026-04-12T12:15:51.999Z</time></trkpt><trkpt lat="45.8230333" lon="8.4305533"><ele>487.5</ele><time>2026-04-12T12:15:54.999Z</time></trkpt><trkpt lat="45.8230867" lon="8.4304983"><ele>484.66666666666663</ele><time>2026-04-12T12:15:56Z</time></trkpt><trkpt lat="45.82314" lon="8.43045"><ele>481.8333333333333</ele><time>2026-04-12T12:15:56.999Z</time></trkpt><trkpt lat="45.8232283" lon="8.430325"><ele>479.0</ele><time>2026-04-12T12:15:58.999Z</time></trkpt><trkpt lat="45.8232817" lon="8.4301933"><ele>475.79999999999995</ele><time>2026-04-12T12:16:00.999Z</time></trkpt><trkpt lat="45.8233067" lon="8.430065"><ele>472.59999999999997</ele><time>2026-04-12T12:16:02.999Z</time></trkpt><trkpt lat="45.8233317" lon="8.4299033"><ele>469.4</ele><time>2026-04-12T12:16:04.999Z</time></trkpt><trkpt lat="45.8233817" lon="8.4297433"><ele>466.2</ele><time>2026-04-12T12:16:07Z</time></trkpt><trkpt lat="45.82341" lon="8.42966"><ele>463.0</ele><time>2026-04-12T12:16:07.999Z</time></trkpt><trkpt lat="45.8234383" lon="8.429575"><ele>463.83333333333337</ele><time>2026-04-12T12:16:08.999Z</time></trkpt><trkpt lat="45.8234617" lon="8.4294783"><ele>464.6666666666667</ele><time>2026-04-12T12:16:09.999Z</time></trkpt><trkpt lat="45.8234817" lon="8.4293867"><ele>465.5</ele><time>2026-04-12T12:16:11Z</time></trkpt><trkpt lat="45.8235067" lon="8.42925"><ele>466.33333333333337</ele><time>2026-04-12T12:16:13Z</time></trkpt><trkpt lat="45.8234767" lon="8.4291267"><ele>467.1666666666667</ele><time>2026-04-12T12:16:15Z</time></trkpt><trkpt lat="45.8234017" lon="8.429075"><ele>468.0</ele><time>2026-04-12T12:16:16.999Z</time></trkpt><trkpt lat="45.823255" lon="8.4290817"><ele>464.6666666666667</ele><time>2026-04-12T12:16:18.999Z</time></trkpt><trkpt lat="45.8231833" lon="8.4290983"><ele>461.33333333333337</ele><time>2026-04-12T12:16:19.999Z</time></trkpt><trkpt lat="45.823115" lon="8.42909"><ele>458.0</ele><time>2026-04-12T12:16:21Z</time></trkpt><trkpt lat="45.8230533" lon="8.4290683"><ele>454.6666666666667</ele><time>2026-04-12T12:16:22Z</time></trkpt><trkpt lat="45.822945" lon="8.4289767"><ele>451.33333333333337</ele><time>2026-04-12T12:16:24Z</time></trkpt><trkpt lat="45.8228967" lon="8.4289083"><ele>448.0</ele><time>2026-04-12T12:16:25Z</time></trkpt><trkpt lat="45.8228433" lon="8.4288317"><ele>445.50000000000006</ele><time>2026-04-12T12:16:25.999Z</time></trkpt><trkpt lat="45.8227917" lon="8.4287417"><ele>443.0</ele><time>2026-04-12T12:16:26.999Z</time></trkpt><trkpt lat="45.822745" lon="8.4286383"><ele>440.5</ele><time>2026-04-12T12:16:28Z</time></trkpt><trkpt lat="45.82269" lon="8.4285467"><ele>438.0</ele><time>2026-04-12T12:16:28.999Z</time></trkpt><trkpt lat="45.82265" lon="8.4284617"><ele>435.50000000000006</ele><time>2026-04-12T12:16:29.999Z</time></trkpt><trkpt lat="45.8226117" lon="8.4283867"><ele>433.0</ele><time>2026-04-12T12:16:30.999Z</time></trkpt><trkpt lat="45.8225617" lon="8.4283167"><ele>432.50000000000006</ele><time>2026-04-12T12:16:31.999Z</time></trkpt><trkpt lat="45.822495" lon="8.4282683"><ele>432.0</ele><time>2026-04-12T12:16:32.999Z</time></trkpt><trkpt lat="45.822425" lon="8.4282233"><ele>431.5</ele><time>2026-04-12T12:16:33.999Z</time></trkpt><trkpt lat="45.8223583" lon="8.4281683"><ele>431.0</ele><time>2026-04-12T12:16:34.999Z</time></trkpt><trkpt lat="45.822295" lon="8.428105"><ele>430.50000000000006</ele><time>2026-04-12T12:16:35.999Z</time></trkpt><trkpt lat="45.822235" lon="8.428045"><ele>430.0</ele><time>2026-04-12T12:16:36.999Z</time></trkpt><trkpt lat="45.8221767" lon="8.4279833"><ele>428.1666666666667</ele><time>2026-04-12T12:16:37.999Z</time></trkpt><trkpt lat="45.8221283" lon="8.4279217"><ele>426.33333333333337</ele><time>2026-04-12T12:16:38.999Z</time></trkpt><trkpt lat="45.822085" lon="8.4277817"><ele>424.5</ele><time>2026-04-12T12:16:40.999Z</time></trkpt><trkpt lat="45.8220967" lon="8.427605"><ele>422.66666666666663</ele><time>2026-04-12T12:16:42.999Z</time></trkpt><trkpt lat="45.822095" lon="8.427505"><ele>420.8333333333333</ele><time>2026-04-12T12:16:43.999Z</time></trkpt><trkpt lat="45.8220867" lon="8.427405"><ele>419.0</ele><time>2026-04-12T12:16:45Z</time></trkpt><trkpt lat="45.8220683" lon="8.4273"><ele>418.99999999999994</ele><time>2026-04-12T12:16:46Z</time></trkpt><trkpt lat="45.82204" lon="8.4271967"><ele>419.0</ele><time>2026-04-12T12:16:47Z</time></trkpt><trkpt lat="45.822005" lon="8.4270983"><ele>419.0</ele><time>2026-04-12T12:16:49Z</time></trkpt><trkpt lat="45.82197" lon="8.42702"><ele>419.0</ele><time>2026-04-12T12:16:50.999Z</time></trkpt><trkpt lat="45.8219083" lon="8.4269517"><ele>418.99999999999994</ele><time>2026-04-12T12:17:02.999Z</time></trkpt><trkpt lat="45.8219567" lon="8.4270533"><ele>419.0</ele><time>2026-04-12T12:17:05.999Z</time></trkpt><trkpt lat="45.8220283" lon="8.4271567"><ele>418.99999999999994</ele><time>2026-04-12T12:17:18.999Z</time></trkpt><trkpt lat="45.8220633" lon="8.4272567"><ele>419.0</ele><time>2026-04-12T12:17:20.999Z</time></trkpt><trkpt lat="45.8221" lon="8.4273717"><ele>419.0</ele><time>2026-04-12T12:17:22.999Z</time></trkpt><trkpt lat="45.82212" lon="8.42747"><ele>419.0</ele><time>2026-04-12T12:17:24.999Z</time></trkpt><trkpt lat="45.8221267" lon="8.4275833"><ele>418.99999999999994</ele><time>2026-04-12T12:17:27Z</time></trkpt><trkpt lat="45.8221117" lon="8.4277117"><ele>419.0</ele><time>2026-04-12T12:17:28.999Z</time></trkpt><trkpt lat="45.8221083" lon="8.4278283"><ele>418.99999999999994</ele><time>2026-04-12T12:17:30.999Z</time></trkpt><trkpt lat="45.8220117" lon="8.4277983"><ele>419.0</ele><time>2026-04-12T12:17:54Z</time></trkpt><trkpt lat="45.8219333" lon="8.4277583"><ele>419.0</ele><time>2026-04-12T12:17:56Z</time></trkpt><trkpt lat="45.82186" lon="8.4277183"><ele>419.0</ele><time>2026-04-12T12:17:57.999Z</time></trkpt><trkpt lat="45.8218" lon="8.427685"><ele>418.99999999999994</ele><time>2026-04-12T12:18:00Z</time></trkpt><trkpt lat="45.8217283" lon="8.4276317"><ele>419.0</ele><time>2026-04-12T12:18:02.999Z</time></trkpt><trkpt lat="45.82181" lon="8.4276983"><ele>419.0</ele><time>2026-04-12T12:18:12Z</time></trkpt><trkpt lat="45.821915" lon="8.42774"><ele>419.0</ele><time>2026-04-12T12:18:14Z</time></trkpt><trkpt lat="45.822015" lon="8.42778"><ele>419.0</ele><time>2026-04-12T12:18:15.999Z</time></trkpt><trkpt lat="45.8220633" lon="8.42785"><ele>419.0</ele><time>2026-04-12T12:18:18.999Z</time></trkpt><trkpt lat="45.822115" lon="8.4279383"><ele>419.0</ele><time>2026-04-12T12:18:24Z</time></trkpt><trkpt lat="45.8222167" lon="8.42804"><ele>421.2</ele><time>2026-04-12T12:18:25.999Z</time></trkpt><trkpt lat="45.8223167" lon="8.4281667"><ele>423.4</ele><time>2026-04-12T12:18:27.999Z</time></trkpt><trkpt lat="45.8223667" lon="8.4282217"><ele>425.6</ele><time>2026-04-12T12:18:29Z</time></trkpt><trkpt lat="45.8224217" lon="8.4282683"><ele>427.8</ele><time>2026-04-12T12:18:30Z</time></trkpt><trkpt lat="45.8225367" lon="8.4283333"><ele>430.0</ele><time>2026-04-12T12:18:31.999Z</time></trkpt><trkpt lat="45.8226233" lon="8.4284533"><ele>430.50000000000006</ele><time>2026-04-12T12:18:33.999Z</time></trkpt><trkpt lat="45.8226667" lon="8.4285267"><ele>431.0</ele><time>2026-04-12T12:18:34.999Z</time></trkpt><trkpt lat="45.8226983" lon="8.4286117"><ele>431.5</ele><time>2026-04-12T12:18:35.999Z</time></trkpt><trkpt lat="45.822735" lon="8.42869"><ele>432.0</ele><time>2026-04-12T12:18:37Z</time></trkpt><trkpt lat="45.8228217" lon="8.428815"><ele>432.50000000000006</ele><time>2026-04-12T12:18:38.999Z</time></trkpt><trkpt lat="45.822895" lon="8.4288983"><ele>433.0</ele><time>2026-04-12T12:18:40.999Z</time></trkpt><trkpt lat="45.8228483" lon="8.4290067"><ele>434.1666666666667</ele><time>2026-04-12T12:19:04.999Z</time></trkpt><trkpt lat="45.8227533" lon="8.4291267"><ele>435.33333333333337</ele><time>2026-04-12T12:19:06.999Z</time></trkpt><trkpt lat="45.8226867" lon="8.4291767"><ele>436.5</ele><time>2026-04-12T12:19:07.999Z</time></trkpt><trkpt lat="45.8226217" lon="8.42923"><ele>437.66666666666663</ele><time>2026-04-12T12:19:08.999Z</time></trkpt><trkpt lat="45.822565" lon="8.4293"><ele>438.8333333333333</ele><time>2026-04-12T12:19:09.999Z</time></trkpt><trkpt lat="45.8225217" lon="8.4293733"><ele>440.0</ele><time>2026-04-12T12:19:10.999Z</time></trkpt><trkpt lat="45.8224933" lon="8.4295233"><ele>440.0</ele><time>2026-04-12T12:19:12.999Z</time></trkpt><trkpt lat="45.8225033" lon="8.42962"><ele>440.0</ele><time>2026-04-12T12:19:14.999Z</time></trkpt><trkpt lat="45.8225433" lon="8.4297417"><ele>440.0</ele><time>2026-04-12T12:19:29Z</time></trkpt><trkpt lat="45.8226433" lon="8.4298767"><ele>440.0</ele><time>2026-04-12T12:19:31Z</time></trkpt><trkpt lat="45.8227367" lon="8.4299383"><ele>440.0</ele><time>2026-04-12T12:19:32Z</time></trkpt><trkpt lat="45.8228383" lon="8.4299817"><ele>444.6</ele><time>2026-04-12T12:19:32.999Z</time></trkpt><trkpt lat="45.8229417" lon="8.4300317"><ele>449.2</ele><time>2026-04-12T12:19:34Z</time></trkpt><trkpt lat="45.82302" lon="8.4300817"><ele>453.79999999999995</ele><time>2026-04-12T12:19:35Z</time></trkpt><trkpt lat="45.8230983" lon="8.4301033"><ele>458.4</ele><time>2026-04-12T12:19:35.999Z</time></trkpt><trkpt lat="45.8232083" lon="8.430115"><ele>463.0</ele><time>2026-04-12T12:19:38Z</time></trkpt><trkpt lat="45.8232383" lon="8.4302"><ele>463.00000000000006</ele><time>2026-04-12T12:19:39.999Z</time></trkpt><trkpt lat="45.8232167" lon="8.4303283"><ele>463.0</ele><time>2026-04-12T12:19:41.999Z</time></trkpt><trkpt lat="45.8231567" lon="8.4304083"><ele>463.0</ele><time>2026-04-12T12:19:42.999Z</time></trkpt><trkpt lat="45.8230917" lon="8.4304917"><ele>463.0</ele><time>2026-04-12T12:19:44Z</time></trkpt><trkpt lat="45.8230233" lon="8.4305583"><ele>463.00000000000006</ele><time>2026-04-12T12:19:45Z</time></trkpt><trkpt lat="45.82295" lon="8.430645"><ele>463.0</ele><time>2026-04-12T12:19:46.999Z</time></trkpt><trkpt lat="45.823045" lon="8.4306983"><ele>465.6666666666667</ele><time>2026-04-12T12:19:48.999Z</time></trkpt><trkpt lat="45.823115" lon="8.4307183"><ele>468.33333333333337</ele><time>2026-04-12T12:19:49.999Z</time></trkpt><trkpt lat="45.8231933" lon="8.4307183"><ele>471.0</ele><time>2026-04-12T12:19:51Z</time></trkpt><trkpt lat="45.8232683" lon="8.4307017"><ele>473.66666666666663</ele><time>2026-04-12T12:19:51.999Z</time></trkpt><trkpt lat="45.8233317" lon="8.4306833"><ele>476.3333333333333</ele><time>2026-04-12T12:19:53Z</time></trkpt><trkpt lat="45.8234233" lon="8.4306117"><ele>479.0</ele><time>2026-04-12T12:19:54.999Z</time></trkpt><trkpt lat="45.8235017" lon="8.4305233"><ele>479.4</ele><time>2026-04-12T12:19:56.999Z</time></trkpt><trkpt lat="45.8235983" lon="8.4304983"><ele>479.79999999999995</ele><time>2026-04-12T12:19:58.999Z</time></trkpt><trkpt lat="45.823715" lon="8.430565"><ele>480.20000000000005</ele><time>2026-04-12T12:20:01Z</time></trkpt><trkpt lat="45.8237983" lon="8.4305683"><ele>480.6</ele><time>2026-04-12T12:20:03Z</time></trkpt><trkpt lat="45.823885" lon="8.4305133"><ele>481.0</ele><time>2026-04-12T12:20:04.999Z</time></trkpt><trkpt lat="45.82394" lon="8.4304633"><ele>481.0</ele><time>2026-04-12T12:20:05.999Z</time></trkpt><trkpt lat="45.8239917" lon="8.4304033"><ele>481.0</ele><time>2026-04-12T12:20:06.999Z</time></trkpt><trkpt lat="45.8240917" lon="8.430325"><ele>481.0</ele><time>2026-04-12T12:20:08.999Z</time></trkpt><trkpt lat="45.824185" lon="8.43027"><ele>481.0</ele><time>2026-04-12T12:20:11Z</time></trkpt><trkpt lat="45.8242617" lon="8.43024"><ele>481.0</ele><time>2026-04-12T12:20:12.999Z</time></trkpt><trkpt lat="45.8243767" lon="8.430205"><ele>483.50000000000006</ele><time>2026-04-12T12:20:14.999Z</time></trkpt><trkpt lat="45.8244417" lon="8.4301917"><ele>486.0</ele><time>2026-04-12T12:20:15.999Z</time></trkpt><trkpt lat="45.8245217" lon="8.4301633"><ele>488.5</ele><time>2026-04-12T12:20:17Z</time></trkpt><trkpt lat="45.8246033" lon="8.43014"><ele>491.0</ele><time>2026-04-12T12:20:17.999Z</time></trkpt><trkpt lat="45.8246767" lon="8.43011"><ele>493.50000000000006</ele><time>2026-04-12T12:20:19Z</time></trkpt><trkpt lat="45.8247467" lon="8.43009"><ele>496.0</ele><time>2026-04-12T12:20:19.999Z</time></trkpt><trkpt lat="45.824855" lon="8.4300883"><ele>496.00000000000006</ele><time>2026-04-12T12:20:21.999Z</time></trkpt><trkpt lat="45.8249533" lon="8.4301867"><ele>496.0</ele><time>2026-04-12T12:20:23.999Z</time></trkpt><trkpt lat="45.825" lon="8.4302633"><ele>496.0</ele><time>2026-04-12T12:20:25Z</time></trkpt><trkpt lat="45.8250517" lon="8.4303317"><ele>496.0</ele><time>2026-04-12T12:20:25.999Z</time></trkpt><trkpt lat="45.8251067" lon="8.4304017"><ele>496.00000000000006</ele><time>2026-04-12T12:20:26.999Z</time></trkpt><trkpt lat="45.8251567" lon="8.43047"><ele>496.0</ele><time>2026-04-12T12:20:27.999Z</time></trkpt><trkpt lat="45.8252167" lon="8.4305233"><ele>497.6666666666667</ele><time>2026-04-12T12:20:29Z</time></trkpt><trkpt lat="45.8252867" lon="8.4305567"><ele>499.33333333333337</ele><time>2026-04-12T12:20:29.999Z</time></trkpt><trkpt lat="45.8253417" lon="8.4306067"><ele>501.0</ele><time>2026-04-12T12:20:30.999Z</time></trkpt><trkpt lat="45.8254217" lon="8.4306117"><ele>502.66666666666663</ele><time>2026-04-12T12:20:32.999Z</time></trkpt><trkpt lat="45.8254783" lon="8.430535"><ele>504.3333333333333</ele><time>2026-04-12T12:20:35Z</time></trkpt><trkpt lat="45.82555" lon="8.4305067"><ele>506.0</ele><time>2026-04-12T12:22:10.998Z</time></trkpt><trkpt lat="45.8256517" lon="8.4304467"><ele>506.0</ele><time>2026-04-12T12:22:12.998Z</time></trkpt><trkpt lat="45.8257233" lon="8.43039"><ele>506.0</ele><time>2026-04-12T12:22:13.999Z</time></trkpt><trkpt lat="45.8257983" lon="8.43031"><ele>506.0</ele><time>2026-04-12T12:22:14.999Z</time></trkpt><trkpt lat="45.825875" lon="8.4302167"><ele>506.0</ele><time>2026-04-12T12:22:15.999Z</time></trkpt><trkpt lat="45.825975" lon="8.430125"><ele>506.0</ele><time>2026-04-12T12:22:16.998Z</time></trkpt><trkpt lat="45.826075" lon="8.4300333"><ele>508.25</ele><time>2026-04-12T12:22:17.998Z</time></trkpt><trkpt lat="45.826175" lon="8.4299567"><ele>510.5</ele><time>2026-04-12T12:22:18.999Z</time></trkpt><trkpt lat="45.8262783" lon="8.429875"><ele>512.75</ele><time>2026-04-12T12:22:19.998Z</time></trkpt><trkpt lat="45.8263767" lon="8.4297967"><ele>515.0</ele><time>2026-04-12T12:22:20.998Z</time></trkpt><trkpt lat="45.8264933" lon="8.42971"><ele>513.75</ele><time>2026-04-12T12:22:21.998Z</time></trkpt><trkpt lat="45.8266" lon="8.4296033"><ele>512.5</ele><time>2026-04-12T12:22:22.998Z</time></trkpt><trkpt lat="45.826705" lon="8.4295"><ele>511.25</ele><time>2026-04-12T12:22:23.999Z</time></trkpt><trkpt lat="45.826805" lon="8.4294"><ele>510.0</ele><time>2026-04-12T12:22:24.999Z</time></trkpt><trkpt lat="45.82691" lon="8.4292933"><ele>510.0</ele><time>2026-04-12T12:22:25.999Z</time></trkpt><trkpt lat="45.827015" lon="8.4291883"><ele>510.0</ele><time>2026-04-12T12:22:26.999Z</time></trkpt><trkpt lat="45.827125" lon="8.4290883"><ele>510.0</ele><time>2026-04-12T12:22:27.998Z</time></trkpt><trkpt lat="45.8272317" lon="8.4289983"><ele>510.0</ele><time>2026-04-12T12:22:28.999Z</time></trkpt><trkpt lat="45.82734" lon="8.4289117"><ele>510.0</ele><time>2026-04-12T12:22:29.999Z</time></trkpt><trkpt lat="45.827435" lon="8.4288283"><ele>510.0</ele><time>2026-04-12T12:22:30.998Z</time></trkpt><trkpt lat="45.8275433" lon="8.4287533"><ele>510.0</ele><time>2026-04-12T12:22:31.998Z</time></trkpt><trkpt lat="45.82766" lon="8.4287017"><ele>510.0</ele><time>2026-04-12T12:22:32.999Z</time></trkpt><trkpt lat="45.8277783" lon="8.4286567"><ele>508.75</ele><time>2026-04-12T12:22:33.998Z</time></trkpt><trkpt lat="45.8279117" lon="8.428615"><ele>507.5</ele><time>2026-04-12T12:22:34.998Z</time></trkpt><trkpt lat="45.8280467" lon="8.4285833"><ele>506.25</ele><time>2026-04-12T12:22:35.999Z</time></trkpt><trkpt lat="45.8281767" lon="8.4285733"><ele>505.0</ele><time>2026-04-12T12:22:36.998Z</time></trkpt><trkpt lat="45.8283067" lon="8.428555"><ele>505.0</ele><time>2026-04-12T12:22:37.999Z</time></trkpt><trkpt lat="45.828435" lon="8.4285283"><ele>505.0</ele><time>2026-04-12T12:22:38.998Z</time></trkpt><trkpt lat="45.8285467" lon="8.428515"><ele>505.0</ele><time>2026-04-12T12:22:39.998Z</time></trkpt><trkpt lat="45.828655" lon="8.428485"><ele>505.0</ele><time>2026-04-12T12:22:40.998Z</time></trkpt><trkpt lat="45.8287683" lon="8.4284467"><ele>505.75</ele><time>2026-04-12T12:22:41.999Z</time></trkpt><trkpt lat="45.8288917" lon="8.428425"><ele>506.5</ele><time>2026-04-12T12:22:42.998Z</time></trkpt><trkpt lat="45.82902" lon="8.4284133"><ele>507.25</ele><time>2026-04-12T12:22:43.998Z</time></trkpt><trkpt lat="45.8291467" lon="8.428405"><ele>508.0</ele><time>2026-04-12T12:22:44.998Z</time></trkpt><trkpt lat="45.8292567" lon="8.4283833"><ele>508.6666666666667</ele><time>2026-04-12T12:22:45.998Z</time></trkpt><trkpt lat="45.82936" lon="8.4283583"><ele>509.33333333333337</ele><time>2026-04-12T12:22:46.999Z</time></trkpt><trkpt lat="45.8294583" lon="8.4283283"><ele>510.0</ele><time>2026-04-12T12:22:47.998Z</time></trkpt><trkpt lat="45.82953" lon="8.4282933"><ele>510.66666666666663</ele><time>2026-04-12T12:22:48.998Z</time></trkpt><trkpt lat="45.829595" lon="8.4282667"><ele>511.3333333333333</ele><time>2026-04-12T12:22:49.998Z</time></trkpt><trkpt lat="45.8296633" lon="8.42823"><ele>512.0</ele><time>2026-04-12T12:22:51.998Z</time></trkpt><trkpt lat="45.8295667" lon="8.428195"><ele>511.99999999999994</ele><time>2026-04-12T12:23:33.998Z</time></trkpt><trkpt lat="45.8294733" lon="8.4281383"><ele>512.0</ele><time>2026-04-12T12:23:35.998Z</time></trkpt><trkpt lat="45.8293933" lon="8.4280833"><ele>512.0</ele><time>2026-04-12T12:23:37.998Z</time></trkpt><trkpt lat="45.8293167" lon="8.428055"><ele>512.0</ele><time>2026-04-12T12:23:39.999Z</time></trkpt><trkpt lat="45.8292033" lon="8.4280433"><ele>511.99999999999994</ele><time>2026-04-12T12:23:41.999Z</time></trkpt><trkpt lat="45.82914" lon="8.4280217"><ele>512.0</ele><time>2026-04-12T12:23:42.998Z</time></trkpt><trkpt lat="45.8290717" lon="8.4280067"><ele>511.3333333333333</ele><time>2026-04-12T12:23:43.998Z</time></trkpt><trkpt lat="45.829005" lon="8.4279917"><ele>510.66666666666663</ele><time>2026-04-12T12:23:44.998Z</time></trkpt><trkpt lat="45.82894" lon="8.4279717"><ele>510.0</ele><time>2026-04-12T12:23:45.998Z</time></trkpt><trkpt lat="45.8288433" lon="8.4279083"><ele>509.33333333333337</ele><time>2026-04-12T12:23:47.998Z</time></trkpt><trkpt lat="45.82879" lon="8.427815"><ele>508.6666666666667</ele><time>2026-04-12T12:23:49.999Z</time></trkpt><trkpt lat="45.828785" lon="8.4276833"><ele>508.0</ele><time>2026-04-12T12:23:51.998Z</time></trkpt><trkpt lat="45.8288183" lon="8.427545"><ele>503.0</ele><time>2026-04-12T12:23:53.998Z</time></trkpt><trkpt lat="45.8288617" lon="8.4273867"><ele>498.0</ele><time>2026-04-12T12:23:55.998Z</time></trkpt><trkpt lat="45.8289033" lon="8.4272333"><ele>493.0</ele><time>2026-04-12T12:23:57.998Z</time></trkpt><trkpt lat="45.828955" lon="8.4270483"><ele>488.0</ele><time>2026-04-12T12:23:59.998Z</time></trkpt><trkpt lat="45.8289883" lon="8.426935"><ele>486.49999999999994</ele><time>2026-04-12T12:24:00.999Z</time></trkpt><trkpt lat="45.8290183" lon="8.4268133"><ele>485.0</ele><time>2026-04-12T12:24:01.998Z</time></trkpt><trkpt lat="45.8290417" lon="8.4267"><ele>483.5</ele><time>2026-04-12T12:24:02.998Z</time></trkpt><trkpt lat="45.8290517" lon="8.42658"><ele>482.0</ele><time>2026-04-12T12:24:03.998Z</time></trkpt><trkpt lat="45.8290617" lon="8.4264767"><ele>480.49999999999994</ele><time>2026-04-12T12:24:04.998Z</time></trkpt><trkpt lat="45.8290667" lon="8.4263817"><ele>479.0</ele><time>2026-04-12T12:24:05.998Z</time></trkpt><trkpt lat="45.8290367" lon="8.426255"><ele>477.3333333333333</ele><time>2026-04-12T12:24:07.998Z</time></trkpt><trkpt lat="45.82895" lon="8.4261517"><ele>475.66666666666663</ele><time>2026-04-12T12:24:09.998Z</time></trkpt><trkpt lat="45.8288967" lon="8.4261"><ele>474.0</ele><time>2026-04-12T12:24:10.998Z</time></trkpt><trkpt lat="45.8288333" lon="8.4260433"><ele>472.33333333333337</ele><time>2026-04-12T12:24:11.998Z</time></trkpt><trkpt lat="45.8287683" lon="8.4259833"><ele>470.6666666666667</ele><time>2026-04-12T12:24:12.999Z</time></trkpt><trkpt lat="45.828705" lon="8.4259067"><ele>469.0</ele><time>2026-04-12T12:24:13.999Z</time></trkpt><trkpt lat="45.828655" lon="8.4258217"><ele>469.0</ele><time>2026-04-12T12:24:14.998Z</time></trkpt><trkpt lat="45.8286233" lon="8.4257317"><ele>469.0</ele><time>2026-04-12T12:24:15.998Z</time></trkpt><trkpt lat="45.8286033" lon="8.42564"><ele>469.0</ele><time>2026-04-12T12:24:16.998Z</time></trkpt><trkpt lat="45.8285917" lon="8.425535"><ele>469.0</ele><time>2026-04-12T12:24:17.999Z</time></trkpt><trkpt lat="45.8285933" lon="8.4254283"><ele>469.0</ele><time>2026-04-12T12:24:18.998Z</time></trkpt><trkpt lat="45.8285783" lon="8.4253217"><ele>469.0</ele><time>2026-04-12T12:24:19.998Z</time></trkpt><trkpt lat="45.8285683" lon="8.4252117"><ele>469.0</ele><time>2026-04-12T12:24:20.999Z</time></trkpt><trkpt lat="45.828555" lon="8.4251067"><ele>467.4</ele><time>2026-04-12T12:24:21.999Z</time></trkpt><trkpt lat="45.8285367" lon="8.425015"><ele>465.79999999999995</ele><time>2026-04-12T12:24:22.998Z</time></trkpt><trkpt lat="45.8284467" lon="8.4248867"><ele>464.20000000000005</ele><time>2026-04-12T12:24:24.998Z</time></trkpt><trkpt lat="45.8283633" lon="8.42484"><ele>462.6</ele><time>2026-04-12T12:24:25.998Z</time></trkpt><trkpt lat="45.8282617" lon="8.4247817"><ele>461.0</ele><time>2026-04-12T12:24:26.999Z</time></trkpt><trkpt lat="45.8281767" lon="8.4247317"><ele>461.0</ele><time>2026-04-12T12:24:27.998Z</time></trkpt><trkpt lat="45.82809" lon="8.42467"><ele>461.0</ele><time>2026-04-12T12:24:28.998Z</time></trkpt><trkpt lat="45.8280033" lon="8.4246183"><ele>461.0</ele><time>2026-04-12T12:24:29.998Z</time></trkpt><trkpt lat="45.8279033" lon="8.42458"><ele>461.0</ele><time>2026-04-12T12:24:30.999Z</time></trkpt><trkpt lat="45.8277983" lon="8.4245567"><ele>461.0</ele><time>2026-04-12T12:24:31.998Z</time></trkpt><trkpt lat="45.827705" lon="8.42453"><ele>453.6</ele><time>2026-04-12T12:24:32.998Z</time></trkpt><trkpt lat="45.82762" lon="8.4245083"><ele>446.20000000000005</ele><time>2026-04-12T12:24:33.998Z</time></trkpt><trkpt lat="45.8275283" lon="8.4245133"><ele>438.79999999999995</ele><time>2026-04-12T12:24:34.998Z</time></trkpt><trkpt lat="45.8274317" lon="8.424535"><ele>431.4</ele><time>2026-04-12T12:24:35.998Z</time></trkpt><trkpt lat="45.8273317" lon="8.4245567"><ele>424.0</ele><time>2026-04-12T12:24:36.999Z</time></trkpt><trkpt lat="45.8272283" lon="8.4245683"><ele>424.00000000000006</ele><time>2026-04-12T12:24:37.999Z</time></trkpt><trkpt lat="45.827135" lon="8.42458"><ele>424.0</ele><time>2026-04-12T12:24:38.999Z</time></trkpt><trkpt lat="45.8270533" lon="8.424585"><ele>424.0</ele><time>2026-04-12T12:24:39.998Z</time></trkpt><trkpt lat="45.8269833" lon="8.42457"><ele>424.0</ele><time>2026-04-12T12:24:40.998Z</time></trkpt><trkpt lat="45.8269083" lon="8.4245267"><ele>424.00000000000006</ele><time>2026-04-12T12:24:41.998Z</time></trkpt><trkpt lat="45.82684" lon="8.4244833"><ele>424.0</ele><time>2026-04-12T12:24:42.998Z</time></trkpt><trkpt lat="45.82677" lon="8.4244067"><ele>423.00000000000006</ele><time>2026-04-12T12:24:43.998Z</time></trkpt><trkpt lat="45.826695" lon="8.4243133"><ele>422.0</ele><time>2026-04-12T12:24:44.998Z</time></trkpt><trkpt lat="45.8266333" lon="8.4242283"><ele>421.0</ele><time>2026-04-12T12:24:45.998Z</time></trkpt><trkpt lat="45.8265683" lon="8.4241433"><ele>420.0</ele><time>2026-04-12T12:24:46.998Z</time></trkpt><trkpt lat="45.82651" lon="8.42407"><ele>419.00000000000006</ele><time>2026-04-12T12:24:47.998Z</time></trkpt><trkpt lat="45.8264733" lon="8.4239383"><ele>418.0</ele><time>2026-04-12T12:24:49.999Z</time></trkpt><trkpt lat="45.82648" lon="8.4238317"><ele>418.00000000000006</ele><time>2026-04-12T12:24:51.998Z</time></trkpt><trkpt lat="45.826535" lon="8.4237783"><ele>418.0</ele><time>2026-04-12T12:24:53.998Z</time></trkpt><trkpt lat="45.826615" lon="8.4238083"><ele>418.0</ele><time>2026-04-12T12:24:56.998Z</time></trkpt><trkpt lat="45.8267" lon="8.4238683"><ele>418.0</ele><time>2026-04-12T12:24:59.998Z</time></trkpt><trkpt lat="45.8267783" lon="8.42389"><ele>418.00000000000006</ele><time>2026-04-12T12:25:01.998Z</time></trkpt><trkpt lat="45.82686" lon="8.423915"><ele>418.0</ele><time>2026-04-12T12:25:03.998Z</time></trkpt><trkpt lat="45.8269683" lon="8.42397"><ele>419.2</ele><time>2026-04-12T12:25:05.998Z</time></trkpt><trkpt lat="45.8270633" lon="8.4239917"><ele>420.4</ele><time>2026-04-12T12:25:07.999Z</time></trkpt><trkpt lat="45.8271583" lon="8.423935"><ele>421.59999999999997</ele><time>2026-04-12T12:25:09.998Z</time></trkpt><trkpt lat="45.82725" lon="8.4238283"><ele>422.79999999999995</ele><time>2026-04-12T12:25:11.999Z</time></trkpt><trkpt lat="45.8272933" lon="8.4237467"><ele>424.0</ele><time>2026-04-12T12:25:12.998Z</time></trkpt><trkpt lat="45.8273317" lon="8.4236583"><ele>419.2</ele><time>2026-04-12T12:25:13.999Z</time></trkpt><trkpt lat="45.8273617" lon="8.4235767"><ele>414.4</ele><time>2026-04-12T12:25:14.998Z</time></trkpt><trkpt lat="45.8273883" lon="8.4234317"><ele>409.6</ele><time>2026-04-12T12:25:16.999Z</time></trkpt><trkpt lat="45.8273783" lon="8.42328"><ele>404.8</ele><time>2026-04-12T12:25:18.999Z</time></trkpt><trkpt lat="45.8273583" lon="8.4231167"><ele>400.0</ele><time>2026-04-12T12:25:20.998Z</time></trkpt><trkpt lat="45.8273383" lon="8.4229733"><ele>396.4</ele><time>2026-04-12T12:25:22.999Z</time></trkpt><trkpt lat="45.8273133" lon="8.4228267"><ele>392.8</ele><time>2026-04-12T12:25:24.998Z</time></trkpt><trkpt lat="45.8272883" lon="8.4226717"><ele>389.20000000000005</ele><time>2026-04-12T12:25:26.998Z</time></trkpt><trkpt lat="45.8272967" lon="8.4225617"><ele>385.6</ele><time>2026-04-12T12:25:28.999Z</time></trkpt><trkpt lat="45.8273383" lon="8.42247"><ele>382.0</ele><time>2026-04-12T12:25:30.998Z</time></trkpt><trkpt lat="45.8274033" lon="8.42236"><ele>382.0</ele><time>2026-04-12T12:25:32.998Z</time></trkpt><trkpt lat="45.8274583" lon="8.4222683"><ele>382.0</ele><time>2026-04-12T12:25:34.998Z</time></trkpt><trkpt lat="45.8274833" lon="8.42218"><ele>382.0</ele><time>2026-04-12T12:25:36.998Z</time></trkpt><trkpt lat="45.827505" lon="8.4220883"><ele>382.0</ele><time>2026-04-12T12:25:38.999Z</time></trkpt><trkpt lat="45.82752" lon="8.4219933"><ele>382.0</ele><time>2026-04-12T12:25:41.998Z</time></trkpt><trkpt lat="45.8275317" lon="8.4218517"><ele>382.0</ele><time>2026-04-12T12:25:44.998Z</time></trkpt><trkpt lat="45.827545" lon="8.421725"><ele>379.0</ele><time>2026-04-12T12:25:46.998Z</time></trkpt><trkpt lat="45.8275533" lon="8.421555"><ele>376.0</ele><time>2026-04-12T12:25:48.999Z</time></trkpt><trkpt lat="45.8275517" lon="8.4213817"><ele>373.0</ele><time>2026-04-12T12:25:50.999Z</time></trkpt><trkpt lat="45.8275833" lon="8.421225"><ele>370.0</ele><time>2026-04-12T12:25:52.999Z</time></trkpt><trkpt lat="45.8276517" lon="8.42108"><ele>370.0</ele><time>2026-04-12T12:25:54.998Z</time></trkpt><trkpt lat="45.82768" lon="8.42099"><ele>370.0</ele><time>2026-04-12T12:25:55.998Z</time></trkpt><trkpt lat="45.8276933" lon="8.4208967"><ele>370.0</ele><time>2026-04-12T12:25:56.998Z</time></trkpt><trkpt lat="45.8276717" lon="8.420745"><ele>370.0</ele><time>2026-04-12T12:25:58.999Z</time></trkpt><trkpt lat="45.82758" lon="8.420665"><ele>370.0</ele><time>2026-04-12T12:26:00.999Z</time></trkpt><trkpt lat="45.827475" lon="8.4206367"><ele>369.8333333333333</ele><time>2026-04-12T12:26:02.998Z</time></trkpt><trkpt lat="45.8273733" lon="8.420575"><ele>369.66666666666663</ele><time>2026-04-12T12:26:04.998Z</time></trkpt><trkpt lat="45.827265" lon="8.4204883"><ele>369.5</ele><time>2026-04-12T12:26:06.998Z</time></trkpt><trkpt lat="45.8272017" lon="8.4204433"><ele>369.3333333333333</ele><time>2026-04-12T12:26:07.998Z</time></trkpt><trkpt lat="45.8271367" lon="8.4203983"><ele>369.1666666666667</ele><time>2026-04-12T12:26:08.998Z</time></trkpt><trkpt lat="45.827085" lon="8.4203417"><ele>369.0</ele><time>2026-04-12T12:26:09.999Z</time></trkpt><trkpt lat="45.8270117" lon="8.4202267"><ele>370.2</ele><time>2026-04-12T12:26:11.998Z</time></trkpt><trkpt lat="45.8269783" lon="8.42008"><ele>371.4</ele><time>2026-04-12T12:26:13.999Z</time></trkpt><trkpt lat="45.8269517" lon="8.4198983"><ele>372.6</ele><time>2026-04-12T12:26:15.999Z</time></trkpt><trkpt lat="45.8269433" lon="8.4198017"><ele>373.8</ele><time>2026-04-12T12:26:16.998Z</time></trkpt><trkpt lat="45.8269717" lon="8.4196567"><ele>375.0</ele><time>2026-04-12T12:26:18.998Z</time></trkpt><trkpt lat="45.827055" lon="8.4195633"><ele>379.5</ele><time>2026-04-12T12:26:20.999Z</time></trkpt><trkpt lat="45.827115" lon="8.41952"><ele>384.0</ele><time>2026-04-12T12:26:21.998Z</time></trkpt><trkpt lat="45.827175" lon="8.4194717"><ele>388.5</ele><time>2026-04-12T12:26:22.998Z</time></trkpt><trkpt lat="45.8272283" lon="8.4194233"><ele>393.0</ele><time>2026-04-12T12:26:23.999Z</time></trkpt><trkpt lat="45.8273467" lon="8.4193567"><ele>397.5</ele><time>2026-04-12T12:26:25.999Z</time></trkpt><trkpt lat="45.827415" lon="8.4193433"><ele>402.0</ele><time>2026-04-12T12:26:26.998Z</time></trkpt><trkpt lat="45.8274867" lon="8.4193333"><ele>402.0</ele><time>2026-04-12T12:26:27.999Z</time></trkpt><trkpt lat="45.8275567" lon="8.4193383"><ele>402.0</ele><time>2026-04-12T12:26:28.998Z</time></trkpt><trkpt lat="45.82763" lon="8.4193317"><ele>402.0</ele><time>2026-04-12T12:26:29.999Z</time></trkpt><trkpt lat="45.8277017" lon="8.419335"><ele>402.0</ele><time>2026-04-12T12:26:30.998Z</time></trkpt><trkpt lat="45.8278167" lon="8.4193167"><ele>402.0</ele><time>2026-04-12T12:26:32.998Z</time></trkpt><trkpt lat="45.8279033" lon="8.4192583"><ele>402.0</ele><time>2026-04-12T12:26:34.999Z</time></trkpt><trkpt lat="45.8279267" lon="8.4191733"><ele>402.0</ele><time>2026-04-12T12:26:36.998Z</time></trkpt><trkpt lat="45.82785" lon="8.4191317"><ele>402.0</ele><time>2026-04-12T12:26:39.998Z</time></trkpt><trkpt lat="45.8277517" lon="8.4191183"><ele>402.0</ele><time>2026-04-12T12:26:41.999Z</time></trkpt><trkpt lat="45.8276317" lon="8.4191033"><ele>402.0</ele><time>2026-04-12T12:26:43.998Z</time></trkpt><trkpt lat="45.8275183" lon="8.4190867"><ele>402.0</ele><time>2026-04-12T12:26:45.999Z</time></trkpt><trkpt lat="45.8274233" lon="8.4190933"><ele>402.0</ele><time>2026-04-12T12:26:47.998Z</time></trkpt><trkpt lat="45.8273383" lon="8.4190983"><ele>402.0</ele><time>2026-04-12T12:26:49.998Z</time></trkpt><trkpt lat="45.8274017" lon="8.419105"><ele>402.0</ele><time>2026-04-12T12:27:57.999Z</time></trkpt><trkpt lat="45.8274783" lon="8.4191067"><ele>402.0</ele><time>2026-04-12T12:27:59.998Z</time></trkpt><trkpt lat="45.8275867" lon="8.4191033"><ele>402.0</ele><time>2026-04-12T12:28:01.999Z</time></trkpt><trkpt lat="45.827705" lon="8.4191333"><ele>401.6</ele><time>2026-04-12T12:28:03.998Z</time></trkpt><trkpt lat="45.8277683" lon="8.4191517"><ele>401.20000000000005</ele><time>2026-04-12T12:28:04.999Z</time></trkpt><trkpt lat="45.827885" lon="8.4192067"><ele>400.8</ele><time>2026-04-12T12:28:06.998Z</time></trkpt><trkpt lat="45.827975" lon="8.4192583"><ele>400.4</ele><time>2026-04-12T12:28:08.998Z</time></trkpt><trkpt lat="45.8280817" lon="8.4193183"><ele>400.0</ele><time>2026-04-12T12:28:10.999Z</time></trkpt><trkpt lat="45.8281967" lon="8.41935"><ele>400.0</ele><time>2026-04-12T12:28:12.998Z</time></trkpt><trkpt lat="45.82831" lon="8.41934"><ele>400.0</ele><time>2026-04-12T12:28:14.999Z</time></trkpt><trkpt lat="45.8284267" lon="8.4193333"><ele>400.0</ele><time>2026-04-12T12:28:16.998Z</time></trkpt><trkpt lat="45.8285567" lon="8.419345"><ele>400.0</ele><time>2026-04-12T12:28:18.998Z</time></trkpt><trkpt lat="45.82863" lon="8.4193467"><ele>400.0</ele><time>2026-04-12T12:28:19.998Z</time></trkpt><trkpt lat="45.82871" lon="8.4193417"><ele>399.4</ele><time>2026-04-12T12:28:20.998Z</time></trkpt><trkpt lat="45.8288417" lon="8.419335"><ele>398.8</ele><time>2026-04-12T12:28:22.998Z</time></trkpt><trkpt lat="45.82892" lon="8.4193267"><ele>398.20000000000005</ele><time>2026-04-12T12:28:23.998Z</time></trkpt><trkpt lat="45.8289983" lon="8.4193283"><ele>397.6</ele><time>2026-04-12T12:28:24.999Z</time></trkpt><trkpt lat="45.8290817" lon="8.419345"><ele>397.0</ele><time>2026-04-12T12:28:25.999Z</time></trkpt><trkpt lat="45.8291517" lon="8.4193933"><ele>397.0</ele><time>2026-04-12T12:28:26.999Z</time></trkpt><trkpt lat="45.8292167" lon="8.4194317"><ele>397.0</ele><time>2026-04-12T12:28:27.998Z</time></trkpt><trkpt lat="45.8292833" lon="8.4194783"><ele>397.0</ele><time>2026-04-12T12:28:28.998Z</time></trkpt><trkpt lat="45.829345" lon="8.4195217"><ele>397.0</ele><time>2026-04-12T12:28:29.999Z</time></trkpt><trkpt lat="45.8294067" lon="8.419575"><ele>397.0</ele><time>2026-04-12T12:28:30.999Z</time></trkpt><trkpt lat="45.8294683" lon="8.4196333"><ele>397.0</ele><time>2026-04-12T12:28:31.998Z</time></trkpt><trkpt lat="45.8295317" lon="8.41967"><ele>397.0</ele><time>2026-04-12T12:28:32.998Z</time></trkpt><trkpt lat="45.829645" lon="8.4197133"><ele>397.8</ele><time>2026-04-12T12:28:34.998Z</time></trkpt><trkpt lat="45.82975" lon="8.41971"><ele>398.6</ele><time>2026-04-12T12:28:36.998Z</time></trkpt><trkpt lat="45.82986" lon="8.419695"><ele>399.40000000000003</ele><time>2026-04-12T12:28:38.999Z</time></trkpt><trkpt lat="45.829985" lon="8.4196883"><ele>400.20000000000005</ele><time>2026-04-12T12:28:40.998Z</time></trkpt><trkpt lat="45.83006" lon="8.4196667"><ele>401.0</ele><time>2026-04-12T12:28:41.998Z</time></trkpt><trkpt lat="45.8301383" lon="8.419635"><ele>401.2857142857143</ele><time>2026-04-12T12:28:42.999Z</time></trkpt><trkpt lat="45.8302133" lon="8.4196067"><ele>401.57142857142856</ele><time>2026-04-12T12:28:43.999Z</time></trkpt><trkpt lat="45.830285" lon="8.41958"><ele>401.8571428571429</ele><time>2026-04-12T12:28:44.998Z</time></trkpt><trkpt lat="45.830355" lon="8.4195483"><ele>402.1428571428571</ele><time>2026-04-12T12:28:45.999Z</time></trkpt><trkpt lat="45.8304317" lon="8.41953"><ele>402.4285714285714</ele><time>2026-04-12T12:28:46.998Z</time></trkpt><trkpt lat="45.8305083" lon="8.4195167"><ele>402.7142857142857</ele><time>2026-04-12T12:28:47.999Z</time></trkpt><trkpt lat="45.830575" lon="8.4195183"><ele>403.0</ele><time>2026-04-12T12:28:48.999Z</time></trkpt><trkpt lat="45.83064" lon="8.4195267"><ele>403.00000000000006</ele><time>2026-04-12T12:28:49.998Z</time></trkpt><trkpt lat="45.8307617" lon="8.419535"><ele>403.0</ele><time>2026-04-12T12:28:51.999Z</time></trkpt><trkpt lat="45.830835" lon="8.4195383"><ele>403.0</ele><time>2026-04-12T12:28:52.999Z</time></trkpt><trkpt lat="45.830905" lon="8.4195467"><ele>403.0</ele><time>2026-04-12T12:28:53.998Z</time></trkpt><trkpt lat="45.83097" lon="8.419555"><ele>403.00000000000006</ele><time>2026-04-12T12:28:54.998Z</time></trkpt><trkpt lat="45.8310383" lon="8.41957"><ele>403.0</ele><time>2026-04-12T12:28:55.999Z</time></trkpt><trkpt lat="45.8311317" lon="8.4195933"><ele>403.79999999999995</ele><time>2026-04-12T12:28:56.998Z</time></trkpt><trkpt lat="45.8312317" lon="8.419625"><ele>404.6</ele><time>2026-04-12T12:28:57.998Z</time></trkpt><trkpt lat="45.8313167" lon="8.4196583"><ele>405.4</ele><time>2026-04-12T12:28:58.998Z</time></trkpt><trkpt lat="45.8313833" lon="8.4197117"><ele>406.20000000000005</ele><time>2026-04-12T12:28:59.999Z</time></trkpt><trkpt lat="45.83148" lon="8.4198083"><ele>407.0</ele><time>2026-04-12T12:29:01.999Z</time></trkpt><trkpt lat="45.8315883" lon="8.4198283"><ele>404.66666666666663</ele><time>2026-04-12T12:29:03.998Z</time></trkpt><trkpt lat="45.8316633" lon="8.4198167"><ele>402.3333333333333</ele><time>2026-04-12T12:29:04.999Z</time></trkpt><trkpt lat="45.8317267" lon="8.4198067"><ele>400.0</ele><time>2026-04-12T12:29:05.999Z</time></trkpt><trkpt lat="45.8318467" lon="8.4197933"><ele>397.66666666666663</ele><time>2026-04-12T12:29:07.999Z</time></trkpt><trkpt lat="45.83191" lon="8.41979"><ele>395.3333333333333</ele><time>2026-04-12T12:29:08.998Z</time></trkpt><trkpt lat="45.8320067" lon="8.4197667"><ele>393.0</ele><time>2026-04-12T12:29:10.998Z</time></trkpt><trkpt lat="45.8321083" lon="8.4197017"><ele>395.0</ele><time>2026-04-12T12:29:12.998Z</time></trkpt><trkpt lat="45.83222" lon="8.4196333"><ele>397.0</ele><time>2026-04-12T12:29:14.999Z</time></trkpt><trkpt lat="45.8323317" lon="8.41962"><ele>399.0</ele><time>2026-04-12T12:29:16.999Z</time></trkpt><trkpt lat="45.8324617" lon="8.4196117"><ele>401.0</ele><time>2026-04-12T12:29:18.998Z</time></trkpt><trkpt lat="45.8325783" lon="8.4195983"><ele>400.49999999999994</ele><time>2026-04-12T12:29:20.999Z</time></trkpt><trkpt lat="45.8326733" lon="8.4196067"><ele>400.0</ele><time>2026-04-12T12:29:22.998Z</time></trkpt><trkpt lat="45.8327417" lon="8.41959"><ele>399.5</ele><time>2026-04-12T12:29:24.999Z</time></trkpt><trkpt lat="45.8327983" lon="8.41953"><ele>399.0</ele><time>2026-04-12T12:29:27.999Z</time></trkpt><trkpt lat="45.832845" lon="8.4194667"><ele>398.49999999999994</ele><time>2026-04-12T12:29:29.998Z</time></trkpt><trkpt lat="45.8329317" lon="8.4194433"><ele>398.0</ele><time>2026-04-12T12:29:32.998Z</time></trkpt><trkpt lat="45.8330367" lon="8.4194933"><ele>398.0</ele><time>2026-04-12T12:29:43.998Z</time></trkpt><trkpt lat="45.833125" lon="8.4195383"><ele>398.0</ele><time>2026-04-12T12:29:45.999Z</time></trkpt><trkpt lat="45.8331833" lon="8.419575"><ele>398.0</ele><time>2026-04-12T12:29:46.999Z</time></trkpt><trkpt lat="45.8332867" lon="8.4196767"><ele>398.0</ele><time>2026-04-12T12:29:48.998Z</time></trkpt><trkpt lat="45.833355" lon="8.419755"><ele>398.0</ele><time>2026-04-12T12:29:49.999Z</time></trkpt><trkpt lat="45.8334217" lon="8.4198367"><ele>398.8333333333333</ele><time>2026-04-12T12:29:50.998Z</time></trkpt><trkpt lat="45.833475" lon="8.4199217"><ele>399.66666666666663</ele><time>2026-04-12T12:29:51.999Z</time></trkpt><trkpt lat="45.8335183" lon="8.4200033"><ele>400.5</ele><time>2026-04-12T12:29:52.999Z</time></trkpt><trkpt lat="45.83358" lon="8.4201367"><ele>401.33333333333337</ele><time>2026-04-12T12:29:54.999Z</time></trkpt><trkpt lat="45.8336667" lon="8.4202317"><ele>402.1666666666667</ele><time>2026-04-12T12:29:56.998Z</time></trkpt><trkpt lat="45.8337233" lon="8.4202933"><ele>403.0</ele><time>2026-04-12T12:29:57.998Z</time></trkpt><trkpt lat="45.83378" lon="8.4203533"><ele>403.00000000000006</ele><time>2026-04-12T12:29:58.999Z</time></trkpt><trkpt lat="45.83384" lon="8.4204067"><ele>403.0</ele><time>2026-04-12T12:29:59.998Z</time></trkpt><trkpt lat="45.8338983" lon="8.42046"><ele>403.0</ele><time>2026-04-12T12:30:00.999Z</time></trkpt><trkpt lat="45.8339617" lon="8.420505"><ele>403.0</ele><time>2026-04-12T12:30:01.998Z</time></trkpt><trkpt lat="45.8340233" lon="8.4205367"><ele>403.00000000000006</ele><time>2026-04-12T12:30:02.998Z</time></trkpt><trkpt lat="45.8341367" lon="8.4205367"><ele>403.0</ele><time>2026-04-12T12:30:04.998Z</time></trkpt><trkpt lat="45.8342017" lon="8.420505"><ele>403.00000000000006</ele><time>2026-04-12T12:30:05.998Z</time></trkpt><trkpt lat="45.8342633" lon="8.4204533"><ele>403.0</ele><time>2026-04-12T12:30:06.999Z</time></trkpt><trkpt lat="45.8343267" lon="8.420395"><ele>403.0</ele><time>2026-04-12T12:30:07.998Z</time></trkpt><trkpt lat="45.834375" lon="8.4203317"><ele>403.0</ele><time>2026-04-12T12:30:08.999Z</time></trkpt><trkpt lat="45.83446" lon="8.4202383"><ele>403.00000000000006</ele><time>2026-04-12T12:30:10.998Z</time></trkpt><trkpt lat="45.8345317" lon="8.4201967"><ele>403.0</ele><time>2026-04-12T12:30:12.998Z</time></trkpt><trkpt lat="45.83465" lon="8.4202517"><ele>405.4</ele><time>2026-04-12T12:30:14.998Z</time></trkpt><trkpt lat="45.8347133" lon="8.42027"><ele>407.79999999999995</ele><time>2026-04-12T12:30:15.998Z</time></trkpt><trkpt lat="45.83483" lon="8.4202917"><ele>410.2</ele><time>2026-04-12T12:30:17.999Z</time></trkpt><trkpt lat="45.834955" lon="8.42026"><ele>412.6</ele><time>2026-04-12T12:30:19.998Z</time></trkpt><trkpt lat="45.83503" lon="8.4202433"><ele>415.0</ele><time>2026-04-12T12:30:20.998Z</time></trkpt><trkpt lat="45.8350983" lon="8.420235"><ele>416.0</ele><time>2026-04-12T12:30:21.998Z</time></trkpt><trkpt lat="45.835215" lon="8.42019"><ele>417.0</ele><time>2026-04-12T12:30:23.998Z</time></trkpt><trkpt lat="45.8353217" lon="8.4201083"><ele>418.0</ele><time>2026-04-12T12:30:25.998Z</time></trkpt><trkpt lat="45.8353783" lon="8.420055"><ele>419.0</ele><time>2026-04-12T12:30:26.999Z</time></trkpt><trkpt lat="45.8354267" lon="8.4199967"><ele>420.0</ele><time>2026-04-12T12:30:27.998Z</time></trkpt><trkpt lat="45.8355233" lon="8.4198717"><ele>420.0</ele><time>2026-04-12T12:30:29.999Z</time></trkpt><trkpt lat="45.8355883" lon="8.4198233"><ele>420.0</ele><time>2026-04-12T12:30:30.998Z</time></trkpt><trkpt lat="45.8356533" lon="8.4197883"><ele>420.0</ele><time>2026-04-12T12:30:31.999Z</time></trkpt><trkpt lat="45.83572" lon="8.4197633"><ele>420.0</ele><time>2026-04-12T12:30:32.998Z</time></trkpt><trkpt lat="45.8358517" lon="8.4197233"><ele>420.0</ele><time>2026-04-12T12:30:34.998Z</time></trkpt><trkpt lat="45.8359167" lon="8.4196867"><ele>420.0</ele><time>2026-04-12T12:30:35.998Z</time></trkpt><trkpt lat="45.8359867" lon="8.4196517"><ele>420.42857142857144</ele><time>2026-04-12T12:30:36.999Z</time></trkpt><trkpt lat="45.8360667" lon="8.41962"><ele>420.8571428571429</ele><time>2026-04-12T12:30:37.999Z</time></trkpt><trkpt lat="45.836125" lon="8.4195717"><ele>421.2857142857143</ele><time>2026-04-12T12:30:38.998Z</time></trkpt><trkpt lat="45.8361817" lon="8.419515"><ele>421.7142857142857</ele><time>2026-04-12T12:30:39.998Z</time></trkpt><trkpt lat="45.8362267" lon="8.4194417"><ele>422.14285714285717</ele><time>2026-04-12T12:30:40.998Z</time></trkpt><trkpt lat="45.8362767" lon="8.41937"><ele>422.57142857142856</ele><time>2026-04-12T12:30:41.998Z</time></trkpt><trkpt lat="45.8363383" lon="8.4193083"><ele>423.0</ele><time>2026-04-12T12:30:42.998Z</time></trkpt><trkpt lat="45.836405" lon="8.4192417"><ele>423.0</ele><time>2026-04-12T12:30:43.998Z</time></trkpt><trkpt lat="45.8364717" lon="8.4191717"><ele>423.0</ele><time>2026-04-12T12:30:44.999Z</time></trkpt><trkpt lat="45.8365483" lon="8.419095"><ele>423.0</ele><time>2026-04-12T12:30:45.998Z</time></trkpt><trkpt lat="45.8366217" lon="8.4190233"><ele>423.0</ele><time>2026-04-12T12:30:46.998Z</time></trkpt><trkpt lat="45.8366917" lon="8.418955"><ele>423.0</ele><time>2026-04-12T12:30:47.998Z</time></trkpt><trkpt lat="45.8367683" lon="8.41889"><ele>423.0</ele><time>2026-04-12T12:30:48.998Z</time></trkpt><trkpt lat="45.8368467" lon="8.4188233"><ele>423.6666666666667</ele><time>2026-04-12T12:30:49.998Z</time></trkpt><trkpt lat="45.8369217" lon="8.4187383"><ele>424.33333333333337</ele><time>2026-04-12T12:30:50.998Z</time></trkpt><trkpt lat="45.8369883" lon="8.4186617"><ele>425.0</ele><time>2026-04-12T12:30:51.998Z</time></trkpt><trkpt lat="45.8370533" lon="8.4185883"><ele>425.6666666666667</ele><time>2026-04-12T12:30:52.998Z</time></trkpt><trkpt lat="45.8371117" lon="8.4185167"><ele>426.33333333333337</ele><time>2026-04-12T12:30:53.999Z</time></trkpt><trkpt lat="45.8371783" lon="8.4184517"><ele>427.0</ele><time>2026-04-12T12:30:54.999Z</time></trkpt><trkpt lat="45.837255" lon="8.4184067"><ele>427.00000000000006</ele><time>2026-04-12T12:30:55.998Z</time></trkpt><trkpt lat="45.8373367" lon="8.4183817"><ele>427.0</ele><time>2026-04-12T12:30:56.999Z</time></trkpt><trkpt lat="45.8374233" lon="8.4183617"><ele>427.0</ele><time>2026-04-12T12:30:57.998Z</time></trkpt><trkpt lat="45.8375083" lon="8.4183617"><ele>427.0</ele><time>2026-04-12T12:30:58.998Z</time></trkpt><trkpt lat="45.8375833" lon="8.4183783"><ele>427.00000000000006</ele><time>2026-04-12T12:30:59.998Z</time></trkpt><trkpt lat="45.8376667" lon="8.4183883"><ele>427.0</ele><time>2026-04-12T12:31:00.998Z</time></trkpt><trkpt lat="45.8377567" lon="8.4184033"><ele>427.00000000000006</ele><time>2026-04-12T12:31:01.998Z</time></trkpt><trkpt lat="45.8378417" lon="8.4184117"><ele>427.0</ele><time>2026-04-12T12:31:02.998Z</time></trkpt><trkpt lat="45.837925" lon="8.418415"><ele>427.0</ele><time>2026-04-12T12:31:03.998Z</time></trkpt><trkpt lat="45.8379967" lon="8.4184367"><ele>427.0</ele><time>2026-04-12T12:31:04.998Z</time></trkpt><trkpt lat="45.8380667" lon="8.4184733"><ele>427.00000000000006</ele><time>2026-04-12T12:31:05.998Z</time></trkpt><trkpt lat="45.8381317" lon="8.4185217"><ele>427.0</ele><time>2026-04-12T12:31:06.998Z</time></trkpt><trkpt lat="45.8381967" lon="8.4185717"><ele>427.00000000000006</ele><time>2026-04-12T12:31:07.998Z</time></trkpt><trkpt lat="45.838255" lon="8.41863"><ele>427.0</ele><time>2026-04-12T12:31:08.998Z</time></trkpt><trkpt lat="45.83833" lon="8.4186817"><ele>427.0</ele><time>2026-04-12T12:31:09.999Z</time></trkpt><trkpt lat="45.838405" lon="8.4187167"><ele>427.0</ele><time>2026-04-12T12:31:10.999Z</time></trkpt><trkpt lat="45.838535" lon="8.4187533"><ele>427.00000000000006</ele><time>2026-04-12T12:31:12.998Z</time></trkpt><trkpt lat="45.8385983" lon="8.4187783"><ele>427.0</ele><time>2026-04-12T12:31:13.999Z</time></trkpt><trkpt lat="45.8386783" lon="8.4188217"><ele>427.50000000000006</ele><time>2026-04-12T12:31:14.999Z</time></trkpt><trkpt lat="45.838755" lon="8.418875"><ele>428.0</ele><time>2026-04-12T12:31:15.998Z</time></trkpt><trkpt lat="45.8388467" lon="8.4189167"><ele>428.5</ele><time>2026-04-12T12:31:16.999Z</time></trkpt><trkpt lat="45.83893" lon="8.418945"><ele>429.0</ele><time>2026-04-12T12:31:17.999Z</time></trkpt><trkpt lat="45.838995" lon="8.41897"><ele>429.50000000000006</ele><time>2026-04-12T12:31:18.998Z</time></trkpt><trkpt lat="45.839075" lon="8.4189833"><ele>430.0</ele><time>2026-04-12T12:31:19.998Z</time></trkpt><trkpt lat="45.83915" lon="8.4189917"><ele>430.0</ele><time>2026-04-12T12:31:20.998Z</time></trkpt><trkpt lat="45.839225" lon="8.4189933"><ele>430.0</ele><time>2026-04-12T12:31:21.999Z</time></trkpt><trkpt lat="45.8393533" lon="8.4189617"><ele>430.0</ele><time>2026-04-12T12:31:23.998Z</time></trkpt><trkpt lat="45.8394417" lon="8.41893"><ele>430.0</ele><time>2026-04-12T12:31:24.999Z</time></trkpt><trkpt lat="45.8395317" lon="8.4188917"><ele>430.0</ele><time>2026-04-12T12:31:25.998Z</time></trkpt><trkpt lat="45.8396183" lon="8.4188333"><ele>430.1666666666667</ele><time>2026-04-12T12:31:26.998Z</time></trkpt><trkpt lat="45.8397" lon="8.418765"><ele>430.33333333333337</ele><time>2026-04-12T12:31:27.998Z</time></trkpt><trkpt lat="45.8397733" lon="8.4187017"><ele>430.5</ele><time>2026-04-12T12:31:28.999Z</time></trkpt><trkpt lat="45.8398417" lon="8.4186333"><ele>430.66666666666663</ele><time>2026-04-12T12:31:29.998Z</time></trkpt><trkpt lat="45.8399133" lon="8.4185683"><ele>430.8333333333333</ele><time>2026-04-12T12:31:30.999Z</time></trkpt><trkpt lat="45.8399833" lon="8.41851"><ele>431.0</ele><time>2026-04-12T12:31:31.998Z</time></trkpt><trkpt lat="45.8400583" lon="8.41846"><ele>431.6</ele><time>2026-04-12T12:31:32.998Z</time></trkpt><trkpt lat="45.8401367" lon="8.4184067"><ele>432.20000000000005</ele><time>2026-04-12T12:31:33.998Z</time></trkpt><trkpt lat="45.8402133" lon="8.4183433"><ele>432.79999999999995</ele><time>2026-04-12T12:31:34.999Z</time></trkpt><trkpt lat="45.840295" lon="8.4182867"><ele>433.4</ele><time>2026-04-12T12:31:35.999Z</time></trkpt><trkpt lat="45.8403817" lon="8.4182283"><ele>434.0</ele><time>2026-04-12T12:31:36.998Z</time></trkpt><trkpt lat="45.840465" lon="8.4181683"><ele>433.99999999999994</ele><time>2026-04-12T12:31:37.998Z</time></trkpt><trkpt lat="45.84054" lon="8.418115"><ele>434.0</ele><time>2026-04-12T12:31:38.998Z</time></trkpt><trkpt lat="45.84061" lon="8.4180683"><ele>434.0</ele><time>2026-04-12T12:31:39.998Z</time></trkpt><trkpt lat="45.84069" lon="8.4180133"><ele>434.0</ele><time>2026-04-12T12:31:40.998Z</time></trkpt><trkpt lat="45.8407717" lon="8.4179583"><ele>433.99999999999994</ele><time>2026-04-12T12:31:41.998Z</time></trkpt><trkpt lat="45.840855" lon="8.4178967"><ele>434.0</ele><time>2026-04-12T12:31:42.998Z</time></trkpt><trkpt lat="45.8409367" lon="8.4178417"><ele>433.8333333333333</ele><time>2026-04-12T12:31:43.998Z</time></trkpt><trkpt lat="45.8410017" lon="8.4177767"><ele>433.66666666666663</ele><time>2026-04-12T12:31:44.998Z</time></trkpt><trkpt lat="45.841075" lon="8.4177083"><ele>433.5</ele><time>2026-04-12T12:31:45.998Z</time></trkpt><trkpt lat="45.8411367" lon="8.417625"><ele>433.33333333333337</ele><time>2026-04-12T12:31:46.998Z</time></trkpt><trkpt lat="45.8412117" lon="8.4175683"><ele>433.1666666666667</ele><time>2026-04-12T12:31:47.998Z</time></trkpt><trkpt lat="45.8412883" lon="8.4175167"><ele>433.0</ele><time>2026-04-12T12:31:48.998Z</time></trkpt><trkpt lat="45.8413717" lon="8.41745"><ele>433.0</ele><time>2026-04-12T12:31:49.998Z</time></trkpt><trkpt lat="45.8414667" lon="8.4173683"><ele>432.99999999999994</ele><time>2026-04-12T12:31:50.998Z</time></trkpt><trkpt lat="45.8415567" lon="8.4172817"><ele>432.99999999999994</ele><time>2026-04-12T12:31:51.998Z</time></trkpt><trkpt lat="45.8416483" lon="8.4172083"><ele>433.0</ele><time>2026-04-12T12:31:52.998Z</time></trkpt><trkpt lat="45.8417383" lon="8.4171467"><ele>433.0</ele><time>2026-04-12T12:31:53.999Z</time></trkpt><trkpt lat="45.84183" lon="8.4170833"><ele>434.2</ele><time>2026-04-12T12:31:54.999Z</time></trkpt><trkpt lat="45.8419183" lon="8.41702"><ele>435.4</ele><time>2026-04-12T12:31:55.998Z</time></trkpt><trkpt lat="45.8420067" lon="8.4169483"><ele>436.59999999999997</ele><time>2026-04-12T12:31:56.998Z</time></trkpt><trkpt lat="45.842095" lon="8.4168867"><ele>437.79999999999995</ele><time>2026-04-12T12:31:57.998Z</time></trkpt><trkpt lat="45.8421767" lon="8.4168167"><ele>439.0</ele><time>2026-04-12T12:31:58.998Z</time></trkpt><trkpt lat="45.8422633" lon="8.41675"><ele>439.00000000000006</ele><time>2026-04-12T12:31:59.999Z</time></trkpt><trkpt lat="45.8423383" lon="8.4166867"><ele>439.0</ele><time>2026-04-12T12:32:00.998Z</time></trkpt><trkpt lat="45.8424017" lon="8.4166317"><ele>439.0</ele><time>2026-04-12T12:32:01.998Z</time></trkpt><trkpt lat="45.842465" lon="8.4165667"><ele>439.0</ele><time>2026-04-12T12:32:03.999Z</time></trkpt><trkpt lat="45.8423833" lon="8.4165033"><ele>439.00000000000006</ele><time>2026-04-12T12:32:06.998Z</time></trkpt><trkpt lat="45.8422867" lon="8.4164683"><ele>439.0</ele><time>2026-04-12T12:32:08.998Z</time></trkpt><trkpt lat="45.8421683" lon="8.41639"><ele>439.0</ele><time>2026-04-12T12:32:10.999Z</time></trkpt><trkpt lat="45.8421083" lon="8.4163383"><ele>439.0</ele><time>2026-04-12T12:32:11.999Z</time></trkpt><trkpt lat="45.842005" lon="8.4162567"><ele>439.0</ele><time>2026-04-12T12:32:13.998Z</time></trkpt><trkpt lat="45.8419383" lon="8.4161717"><ele>439.0</ele><time>2026-04-12T12:32:15.998Z</time></trkpt><trkpt lat="45.8419433" lon="8.41605"><ele>439.0</ele><time>2026-04-12T12:32:17.998Z</time></trkpt><trkpt lat="45.8420367" lon="8.4159483"><ele>439.0</ele><time>2026-04-12T12:32:19.998Z</time></trkpt><trkpt lat="45.8421017" lon="8.4159217"><ele>439.0</ele><time>2026-04-12T12:32:20.999Z</time></trkpt><trkpt lat="45.8421683" lon="8.4159033"><ele>439.0</ele><time>2026-04-12T12:32:21.999Z</time></trkpt><trkpt lat="45.8422367" lon="8.4158833"><ele>439.0</ele><time>2026-04-12T12:32:22.998Z</time></trkpt><trkpt lat="45.8422983" lon="8.4158483"><ele>439.0</ele><time>2026-04-12T12:32:23.998Z</time></trkpt><trkpt lat="45.8423633" lon="8.41579"><ele>439.0</ele><time>2026-04-12T12:32:24.998Z</time></trkpt><trkpt lat="45.84242" lon="8.4157183"><ele>439.0</ele><time>2026-04-12T12:32:25.999Z</time></trkpt><trkpt lat="45.8424717" lon="8.41563"><ele>439.0</ele><time>2026-04-12T12:32:26.999Z</time></trkpt><trkpt lat="45.8425183" lon="8.415545"><ele>439.0</ele><time>2026-04-12T12:32:27.998Z</time></trkpt><trkpt lat="45.842565" lon="8.41546"><ele>439.0</ele><time>2026-04-12T12:32:28.998Z</time></trkpt><trkpt lat="45.8426033" lon="8.4153833"><ele>439.0</ele><time>2026-04-12T12:32:29.998Z</time></trkpt><trkpt lat="45.8426433" lon="8.4153067"><ele>439.0</ele><time>2026-04-12T12:32:30.998Z</time></trkpt><trkpt lat="45.842695" lon="8.4152417"><ele>439.0</ele><time>2026-04-12T12:32:31.998Z</time></trkpt><trkpt lat="45.842755" lon="8.4151767"><ele>439.0</ele><time>2026-04-12T12:32:32.999Z</time></trkpt><trkpt lat="45.8428267" lon="8.4151317"><ele>440.2</ele><time>2026-04-12T12:32:33.998Z</time></trkpt><trkpt lat="45.8428967" lon="8.41509"><ele>441.4</ele><time>2026-04-12T12:32:34.999Z</time></trkpt><trkpt lat="45.8429633" lon="8.4150483"><ele>442.6</ele><time>2026-04-12T12:32:35.998Z</time></trkpt><trkpt lat="45.8430267" lon="8.4150183"><ele>443.8</ele><time>2026-04-12T12:32:36.998Z</time></trkpt><trkpt lat="45.84314" lon="8.4149983"><ele>445.0</ele><time>2026-04-12T12:32:38.998Z</time></trkpt><trkpt lat="45.8432517" lon="8.4150817"><ele>445.00000000000006</ele><time>2026-04-12T12:32:40.999Z</time></trkpt><trkpt lat="45.8433167" lon="8.4151483"><ele>445.0</ele><time>2026-04-12T12:32:41.998Z</time></trkpt><trkpt lat="45.843385" lon="8.41521"><ele>445.0</ele><time>2026-04-12T12:32:42.998Z</time></trkpt><trkpt lat="45.8434517" lon="8.4152667"><ele>445.0</ele><time>2026-04-12T12:32:43.999Z</time></trkpt><trkpt lat="45.8435133" lon="8.415295"><ele>445.00000000000006</ele><time>2026-04-12T12:32:44.999Z</time></trkpt><trkpt lat="45.8436117" lon="8.41529"><ele>445.0</ele><time>2026-04-12T12:32:46.999Z</time></trkpt><trkpt lat="45.8436867" lon="8.4152217"><ele>445.6666666666667</ele><time>2026-04-12T12:32:48.999Z</time></trkpt><trkpt lat="45.8437367" lon="8.4151583"><ele>446.33333333333337</ele><time>2026-04-12T12:32:51.999Z</time></trkpt><trkpt lat="45.84378" lon="8.415065"><ele>447.0</ele><time>2026-04-12T12:32:53.999Z</time></trkpt><trkpt lat="45.8438267" lon="8.4149267"><ele>447.66666666666663</ele><time>2026-04-12T12:32:55.998Z</time></trkpt><trkpt lat="45.84387" lon="8.4147517"><ele>448.3333333333333</ele><time>2026-04-12T12:32:57.999Z</time></trkpt><trkpt lat="45.8438933" lon="8.414665"><ele>449.0</ele><time>2026-04-12T12:32:58.999Z</time></trkpt><trkpt lat="45.8439167" lon="8.4145783"><ele>449.0</ele><time>2026-04-12T12:32:59.998Z</time></trkpt><trkpt lat="45.8439633" lon="8.4144167"><ele>449.0</ele><time>2026-04-12T12:33:01.998Z</time></trkpt><trkpt lat="45.8440233" lon="8.41426"><ele>449.0</ele><time>2026-04-12T12:33:03.999Z</time></trkpt><trkpt lat="45.8440433" lon="8.4141717"><ele>449.0</ele><time>2026-04-12T12:33:04.999Z</time></trkpt><trkpt lat="45.84408" lon="8.414"><ele>449.0</ele><time>2026-04-12T12:33:06.998Z</time></trkpt><trkpt lat="45.8441183" lon="8.4138883"><ele>448.66666666666663</ele><time>2026-04-12T12:33:08.998Z</time></trkpt><trkpt lat="45.8441967" lon="8.41382"><ele>448.3333333333333</ele><time>2026-04-12T12:33:11.999Z</time></trkpt><trkpt lat="45.8442667" lon="8.4137683"><ele>448.0</ele><time>2026-04-12T12:33:13.999Z</time></trkpt><trkpt lat="45.8443233" lon="8.413695"><ele>447.66666666666663</ele><time>2026-04-12T12:33:15.998Z</time></trkpt><trkpt lat="45.8443867" lon="8.4136317"><ele>447.3333333333333</ele><time>2026-04-12T12:33:18.998Z</time></trkpt><trkpt lat="45.8442967" lon="8.41366"><ele>447.0</ele><time>2026-04-12T12:33:25.998Z</time></trkpt><trkpt lat="45.84422" lon="8.4137417"><ele>447.0</ele><time>2026-04-12T12:33:27.998Z</time></trkpt><trkpt lat="45.8441417" lon="8.4138067"><ele>447.0</ele><time>2026-04-12T12:33:29.998Z</time></trkpt><trkpt lat="45.844085" lon="8.4138633"><ele>447.0</ele><time>2026-04-12T12:33:32.998Z</time></trkpt><trkpt lat="45.8440467" lon="8.413985"><ele>447.0</ele><time>2026-04-12T12:33:34.999Z</time></trkpt><trkpt lat="45.8440183" lon="8.4140867"><ele>447.0</ele><time>2026-04-12T12:33:35.998Z</time></trkpt><trkpt lat="45.843985" lon="8.4142033"><ele>447.0</ele><time>2026-04-12T12:33:36.998Z</time></trkpt><trkpt lat="45.84396" lon="8.414325"><ele>447.3333333333333</ele><time>2026-04-12T12:33:37.998Z</time></trkpt><trkpt lat="45.8439333" lon="8.4144433"><ele>447.66666666666663</ele><time>2026-04-12T12:33:38.998Z</time></trkpt><trkpt lat="45.84391" lon="8.4145533"><ele>448.0</ele><time>2026-04-12T12:33:39.998Z</time></trkpt><trkpt lat="45.843885" lon="8.4146567"><ele>448.3333333333333</ele><time>2026-04-12T12:33:40.998Z</time></trkpt><trkpt lat="45.843855" lon="8.4147633"><ele>448.66666666666663</ele><time>2026-04-12T12:33:41.998Z</time></trkpt><trkpt lat="45.8438317" lon="8.414875"><ele>449.0</ele><time>2026-04-12T12:33:42.998Z</time></trkpt><trkpt lat="45.8438183" lon="8.4149783"><ele>449.6</ele><time>2026-04-12T12:33:43.998Z</time></trkpt><trkpt lat="45.843785" lon="8.4151333"><ele>450.2</ele><time>2026-04-12T12:33:45.999Z</time></trkpt><trkpt lat="45.843725" lon="8.4152217"><ele>450.80000000000007</ele><time>2026-04-12T12:33:47.998Z</time></trkpt><trkpt lat="45.843805" lon="8.4151083"><ele>451.40000000000003</ele><time>2026-04-12T12:33:57.998Z</time></trkpt><trkpt lat="45.8438867" lon="8.41504"><ele>452.0</ele><time>2026-04-12T12:33:59.998Z</time></trkpt><trkpt lat="45.84395" lon="8.41504"><ele>451.99999999999994</ele><time>2026-04-12T12:34:00.998Z</time></trkpt><trkpt lat="45.8440217" lon="8.4150633"><ele>452.0</ele><time>2026-04-12T12:34:01.998Z</time></trkpt><trkpt lat="45.84411" lon="8.415075"><ele>452.0</ele><time>2026-04-12T12:34:02.998Z</time></trkpt><trkpt lat="45.844205" lon="8.4150967"><ele>452.0</ele><time>2026-04-12T12:34:03.998Z</time></trkpt><trkpt lat="45.8443" lon="8.41513"><ele>451.99999999999994</ele><time>2026-04-12T12:34:04.998Z</time></trkpt><trkpt lat="45.8443883" lon="8.4151583"><ele>452.0</ele><time>2026-04-12T12:34:05.999Z</time></trkpt><trkpt lat="45.8444767" lon="8.4152017"><ele>452.16666666666663</ele><time>2026-04-12T12:34:06.998Z</time></trkpt><trkpt lat="45.84456" lon="8.4152567"><ele>452.3333333333333</ele><time>2026-04-12T12:34:07.999Z</time></trkpt><trkpt lat="45.8446383" lon="8.4153133"><ele>452.5</ele><time>2026-04-12T12:34:08.998Z</time></trkpt><trkpt lat="45.8447067" lon="8.4153633"><ele>452.66666666666663</ele><time>2026-04-12T12:34:09.998Z</time></trkpt><trkpt lat="45.844775" lon="8.4154133"><ele>452.8333333333333</ele><time>2026-04-12T12:34:10.998Z</time></trkpt><trkpt lat="45.8448517" lon="8.41546"><ele>453.0</ele><time>2026-04-12T12:34:11.998Z</time></trkpt><trkpt lat="45.8449267" lon="8.415525"><ele>453.2</ele><time>2026-04-12T12:34:12.999Z</time></trkpt><trkpt lat="45.8450067" lon="8.4155783"><ele>453.4</ele><time>2026-04-12T12:34:13.998Z</time></trkpt><trkpt lat="45.8450733" lon="8.4156317"><ele>453.59999999999997</ele><time>2026-04-12T12:34:14.998Z</time></trkpt><trkpt lat="45.8451783" lon="8.415695"><ele>453.79999999999995</ele><time>2026-04-12T12:34:16.998Z</time></trkpt><trkpt lat="45.845285" lon="8.4156233"><ele>454.0</ele><time>2026-04-12T12:34:18.999Z</time></trkpt><trkpt lat="45.8453417" lon="8.4155733"><ele>455.50000000000006</ele><time>2026-04-12T12:34:19.999Z</time></trkpt><trkpt lat="45.8453817" lon="8.4154967"><ele>457.0</ele><time>2026-04-12T12:34:20.999Z</time></trkpt><trkpt lat="45.84547" lon="8.415425"><ele>458.5</ele><time>2026-04-12T12:34:22.998Z</time></trkpt><trkpt lat="45.845545" lon="8.41543"><ele>460.0</ele><time>2026-04-12T12:34:24.999Z</time></trkpt><trkpt lat="45.8456067" lon="8.41536"><ele>461.50000000000006</ele><time>2026-04-12T12:34:26.998Z</time></trkpt><trkpt lat="45.8456733" lon="8.4152333"><ele>463.0</ele><time>2026-04-12T12:34:28.998Z</time></trkpt><trkpt lat="45.84572" lon="8.4150883"><ele>463.00000000000006</ele><time>2026-04-12T12:34:30.998Z</time></trkpt><trkpt lat="45.8457733" lon="8.4149317"><ele>463.0</ele><time>2026-04-12T12:34:32.998Z</time></trkpt><trkpt lat="45.8458033" lon="8.414845"><ele>463.0</ele><time>2026-04-12T12:34:33.998Z</time></trkpt><trkpt lat="45.8458333" lon="8.4147467"><ele>463.0</ele><time>2026-04-12T12:34:34.998Z</time></trkpt><trkpt lat="45.8458617" lon="8.4146383"><ele>463.00000000000006</ele><time>2026-04-12T12:34:35.998Z</time></trkpt><trkpt lat="45.8458917" lon="8.4145267"><ele>463.0</ele><time>2026-04-12T12:34:36.998Z</time></trkpt><trkpt lat="45.8459267" lon="8.414425"><ele>462.6666666666667</ele><time>2026-04-12T12:34:37.998Z</time></trkpt><trkpt lat="45.8459567" lon="8.414315"><ele>462.33333333333337</ele><time>2026-04-12T12:34:38.998Z</time></trkpt><trkpt lat="45.8459817" lon="8.4142033"><ele>462.0</ele><time>2026-04-12T12:34:39.998Z</time></trkpt><trkpt lat="45.846005" lon="8.4140917"><ele>461.66666666666663</ele><time>2026-04-12T12:34:40.998Z</time></trkpt><trkpt lat="45.84603" lon="8.4139783"><ele>461.3333333333333</ele><time>2026-04-12T12:34:41.998Z</time></trkpt><trkpt lat="45.8460617" lon="8.413875"><ele>461.0</ele><time>2026-04-12T12:34:42.998Z</time></trkpt><trkpt lat="45.8460883" lon="8.4137733"><ele>463.0</ele><time>2026-04-12T12:34:43.998Z</time></trkpt><trkpt lat="45.8461083" lon="8.4136817"><ele>465.00000000000006</ele><time>2026-04-12T12:34:44.999Z</time></trkpt><trkpt lat="45.84613" lon="8.4135817"><ele>467.0</ele><time>2026-04-12T12:34:45.999Z</time></trkpt><trkpt lat="45.8461483" lon="8.4134817"><ele>469.0</ele><time>2026-04-12T12:34:46.998Z</time></trkpt><trkpt lat="45.8461617" lon="8.413385"><ele>471.00000000000006</ele><time>2026-04-12T12:34:49.999Z</time></trkpt><trkpt lat="45.846215" lon="8.41329"><ele>473.0</ele><time>2026-04-12T12:34:53.998Z</time></trkpt><trkpt lat="45.8462633" lon="8.4132217"><ele>475.0</ele><time>2026-04-12T12:34:54.998Z</time></trkpt><trkpt lat="45.846335" lon="8.4130817"><ele>475.0</ele><time>2026-04-12T12:34:56.999Z</time></trkpt><trkpt lat="45.846355" lon="8.4129917"><ele>475.00000000000006</ele><time>2026-04-12T12:34:57.999Z</time></trkpt><trkpt lat="45.8464017" lon="8.4128383"><ele>475.0</ele><time>2026-04-12T12:34:59.998Z</time></trkpt><trkpt lat="45.8464317" lon="8.4127567"><ele>475.0</ele><time>2026-04-12T12:35:00.998Z</time></trkpt><trkpt lat="45.8464783" lon="8.412685"><ele>475.00000000000006</ele><time>2026-04-12T12:35:01.998Z</time></trkpt><trkpt lat="45.8465283" lon="8.4126117"><ele>475.0</ele><time>2026-04-12T12:35:02.999Z</time></trkpt><trkpt lat="45.8465667" lon="8.41254"><ele>475.0</ele><time>2026-04-12T12:35:03.999Z</time></trkpt><trkpt lat="45.8466217" lon="8.412485"><ele>474.1666666666667</ele><time>2026-04-12T12:35:04.998Z</time></trkpt><trkpt lat="45.84672" lon="8.4123833"><ele>473.33333333333337</ele><time>2026-04-12T12:35:06.998Z</time></trkpt><trkpt lat="45.846795" lon="8.412335"><ele>472.5</ele><time>2026-04-12T12:35:07.999Z</time></trkpt><trkpt lat="45.8468717" lon="8.412325"><ele>471.66666666666663</ele><time>2026-04-12T12:35:08.999Z</time></trkpt><trkpt lat="45.846935" lon="8.4123267"><ele>470.8333333333333</ele><time>2026-04-12T12:35:09.999Z</time></trkpt><trkpt lat="45.847015" lon="8.41229"><ele>470.0</ele><time>2026-04-12T12:35:11.998Z</time></trkpt><trkpt lat="45.8470383" lon="8.4121767"><ele>469.99999999999994</ele><time>2026-04-12T12:35:14.998Z</time></trkpt><trkpt lat="45.847095" lon="8.412035"><ele>470.0</ele><time>2026-04-12T12:35:16.998Z</time></trkpt><trkpt lat="45.8471317" lon="8.4119433"><ele>470.0</ele><time>2026-04-12T12:35:17.998Z</time></trkpt><trkpt lat="45.84717" lon="8.4118567"><ele>470.0</ele><time>2026-04-12T12:35:18.999Z</time></trkpt><trkpt lat="45.847245" lon="8.41174"><ele>469.99999999999994</ele><time>2026-04-12T12:35:20.998Z</time></trkpt><trkpt lat="45.8473133" lon="8.411705"><ele>470.0</ele><time>2026-04-12T12:35:22.998Z</time></trkpt><trkpt lat="45.84741" lon="8.41168"><ele>469.99999999999994</ele><time>2026-04-12T12:35:24.999Z</time></trkpt><trkpt lat="45.84751" lon="8.4116733"><ele>470.0</ele><time>2026-04-12T12:35:26.998Z</time></trkpt><trkpt lat="45.84758" lon="8.41168"><ele>470.0</ele><time>2026-04-12T12:35:28.999Z</time></trkpt><trkpt lat="45.8476467" lon="8.4116483"><ele>470.0</ele><time>2026-04-12T12:35:31.998Z</time></trkpt><trkpt lat="45.8477383" lon="8.4115867"><ele>469.99999999999994</ele><time>2026-04-12T12:35:33.998Z</time></trkpt><trkpt lat="45.847795" lon="8.411535"><ele>470.0</ele><time>2026-04-12T12:35:34.999Z</time></trkpt><trkpt lat="45.8478917" lon="8.4114467"><ele>467.0</ele><time>2026-04-12T12:35:36.998Z</time></trkpt><trkpt lat="45.8479983" lon="8.4113617"><ele>464.0</ele><time>2026-04-12T12:35:38.998Z</time></trkpt><trkpt lat="45.8481267" lon="8.411305"><ele>461.0</ele><time>2026-04-12T12:35:40.999Z</time></trkpt><trkpt lat="45.84819" lon="8.4112767"><ele>458.0</ele><time>2026-04-12T12:35:41.999Z</time></trkpt><trkpt lat="45.8483167" lon="8.4112417"><ele>458.0</ele><time>2026-04-12T12:35:43.998Z</time></trkpt><trkpt lat="45.8484267" lon="8.4112017"><ele>457.99999999999994</ele><time>2026-04-12T12:35:45.998Z</time></trkpt><trkpt lat="45.84855" lon="8.411185"><ele>457.99999999999994</ele><time>2026-04-12T12:35:47.998Z</time></trkpt><trkpt lat="45.8486183" lon="8.4111883"><ele>458.0</ele><time>2026-04-12T12:35:48.998Z</time></trkpt><trkpt lat="45.8487017" lon="8.4112"><ele>458.0</ele><time>2026-04-12T12:35:49.999Z</time></trkpt><trkpt lat="45.84877" lon="8.411215"><ele>458.16666666666663</ele><time>2026-04-12T12:35:50.998Z</time></trkpt><trkpt lat="45.8488467" lon="8.411245"><ele>458.3333333333333</ele><time>2026-04-12T12:35:51.999Z</time></trkpt><trkpt lat="45.8489317" lon="8.41129"><ele>458.5</ele><time>2026-04-12T12:35:52.998Z</time></trkpt><trkpt lat="45.8490167" lon="8.4113133"><ele>458.66666666666663</ele><time>2026-04-12T12:35:53.998Z</time></trkpt><trkpt lat="45.849105" lon="8.411325"><ele>458.8333333333333</ele><time>2026-04-12T12:35:54.998Z</time></trkpt><trkpt lat="45.8492" lon="8.4113333"><ele>459.0</ele><time>2026-04-12T12:35:55.998Z</time></trkpt><trkpt lat="45.849295" lon="8.4113283"><ele>458.6</ele><time>2026-04-12T12:35:56.998Z</time></trkpt><trkpt lat="45.8493817" lon="8.4113283"><ele>458.2</ele><time>2026-04-12T12:35:57.999Z</time></trkpt><trkpt lat="45.8494617" lon="8.4113233"><ele>457.80000000000007</ele><time>2026-04-12T12:35:58.998Z</time></trkpt><trkpt lat="45.849585" lon="8.4113133"><ele>457.40000000000003</ele><time>2026-04-12T12:36:00.998Z</time></trkpt><trkpt lat="45.8496667" lon="8.4113033"><ele>457.0</ele><time>2026-04-12T12:36:01.999Z</time></trkpt><trkpt lat="45.8497467" lon="8.411295"><ele>457.0</ele><time>2026-04-12T12:36:02.999Z</time></trkpt><trkpt lat="45.8498133" lon="8.4112983"><ele>457.00000000000006</ele><time>2026-04-12T12:36:03.998Z</time></trkpt><trkpt lat="45.84993" lon="8.411325"><ele>457.00000000000006</ele><time>2026-04-12T12:36:05.999Z</time></trkpt><trkpt lat="45.8500483" lon="8.4113817"><ele>457.0</ele><time>2026-04-12T12:36:07.998Z</time></trkpt><trkpt lat="45.85011" lon="8.411405"><ele>457.0</ele><time>2026-04-12T12:36:08.998Z</time></trkpt><trkpt lat="45.8502233" lon="8.41147"><ele>461.6</ele><time>2026-04-12T12:36:10.998Z</time></trkpt><trkpt lat="45.85034" lon="8.4115183"><ele>466.20000000000005</ele><time>2026-04-12T12:36:12.998Z</time></trkpt><trkpt lat="45.8504517" lon="8.4115467"><ele>470.8</ele><time>2026-04-12T12:36:14.998Z</time></trkpt><trkpt lat="45.8505417" lon="8.4115733"><ele>475.4</ele><time>2026-04-12T12:36:16.999Z</time></trkpt><trkpt lat="45.8506183" lon="8.4116017"><ele>480.0</ele><time>2026-04-12T12:36:18.999Z</time></trkpt><trkpt lat="45.85072" lon="8.41166"><ele>480.0</ele><time>2026-04-12T12:36:50.998Z</time></trkpt><trkpt lat="45.8507917" lon="8.4114767"><ele>480.0</ele><time>2026-04-12T12:37:20.998Z</time></trkpt><trkpt lat="45.8508133" lon="8.4113417"><ele>480.0</ele><time>2026-04-12T12:37:22.999Z</time></trkpt><trkpt lat="45.8508067" lon="8.4114467"><ele>480.0</ele><time>2026-04-12T12:41:51.999Z</time></trkpt><trkpt lat="45.8508083" lon="8.4115783"><ele>480.0</ele><time>2026-04-12T12:41:54.998Z</time></trkpt><trkpt lat="45.8507767" lon="8.41167"><ele>480.0</ele><time>2026-04-12T12:41:59.999Z</time></trkpt><trkpt lat="45.8507233" lon="8.41161"><ele>480.0</ele><time>2026-04-12T12:42:10.998Z</time></trkpt><trkpt lat="45.8506417" lon="8.41154"><ele>480.0</ele><time>2026-04-12T12:43:14.999Z</time></trkpt><trkpt lat="45.850565" lon="8.4115267"><ele>480.0</ele><time>2026-04-12T12:43:16.998Z</time></trkpt><trkpt lat="45.8505" lon="8.4115217"><ele>480.0</ele><time>2026-04-12T12:43:17.998Z</time></trkpt><trkpt lat="45.8504317" lon="8.4115283"><ele>480.0</ele><time>2026-04-12T12:43:18.998Z</time></trkpt><trkpt lat="45.8503517" lon="8.4115233"><ele>480.0</ele><time>2026-04-12T12:43:19.998Z</time></trkpt><trkpt lat="45.8502767" lon="8.4115083"><ele>480.0</ele><time>2026-04-12T12:43:20.998Z</time></trkpt><trkpt lat="45.8502" lon="8.411495"><ele>480.0</ele><time>2026-04-12T12:43:21.998Z</time></trkpt><trkpt lat="45.8501267" lon="8.4114867"><ele>480.0</ele><time>2026-04-12T12:43:22.998Z</time></trkpt><trkpt lat="45.850045" lon="8.4114483"><ele>480.0</ele><time>2026-04-12T12:43:23.998Z</time></trkpt><trkpt lat="45.8499633" lon="8.4114067"><ele>480.0</ele><time>2026-04-12T12:43:24.998Z</time></trkpt><trkpt lat="45.84988" lon="8.411375"><ele>480.6</ele><time>2026-04-12T12:43:25.998Z</time></trkpt><trkpt lat="45.8497867" lon="8.411355"><ele>481.2</ele><time>2026-04-12T12:43:26.999Z</time></trkpt><trkpt lat="45.8496833" lon="8.41133"><ele>481.79999999999995</ele><time>2026-04-12T12:43:27.998Z</time></trkpt><trkpt lat="45.8495783" lon="8.4113133"><ele>482.4</ele><time>2026-04-12T12:43:28.998Z</time></trkpt><trkpt lat="45.8494767" lon="8.4113117"><ele>483.0</ele><time>2026-04-12T12:43:29.999Z</time></trkpt><trkpt lat="45.8493717" lon="8.4113167"><ele>483.75</ele><time>2026-04-12T12:43:30.999Z</time></trkpt><trkpt lat="45.849255" lon="8.4113183"><ele>484.5</ele><time>2026-04-12T12:43:31.999Z</time></trkpt><trkpt lat="45.8491367" lon="8.4113217"><ele>485.25</ele><time>2026-04-12T12:43:32.998Z</time></trkpt><trkpt lat="45.84902" lon="8.4113283"><ele>486.0</ele><time>2026-04-12T12:43:33.998Z</time></trkpt><trkpt lat="45.848915" lon="8.4113233"><ele>481.5</ele><time>2026-04-12T12:43:34.998Z</time></trkpt><trkpt lat="45.848825" lon="8.4113117"><ele>477.0</ele><time>2026-04-12T12:43:35.998Z</time></trkpt><trkpt lat="45.84874" lon="8.4113"><ele>472.5</ele><time>2026-04-12T12:43:36.998Z</time></trkpt><trkpt lat="45.8486617" lon="8.4113"><ele>468.0</ele><time>2026-04-12T12:43:37.998Z</time></trkpt><trkpt lat="45.8485833" lon="8.4113017"><ele>463.5</ele><time>2026-04-12T12:43:38.999Z</time></trkpt><trkpt lat="45.8485067" lon="8.4112917"><ele>459.0</ele><time>2026-04-12T12:43:39.999Z</time></trkpt><trkpt lat="45.8484317" lon="8.4112933"><ele>458.8571428571429</ele><time>2026-04-12T12:43:40.998Z</time></trkpt><trkpt lat="45.848365" lon="8.4113183"><ele>458.71428571428567</ele><time>2026-04-12T12:43:41.999Z</time></trkpt><trkpt lat="45.8482983" lon="8.4113533"><ele>458.57142857142856</ele><time>2026-04-12T12:43:42.998Z</time></trkpt><trkpt lat="45.84823" lon="8.4113867"><ele>458.42857142857144</ele><time>2026-04-12T12:43:43.998Z</time></trkpt><trkpt lat="45.8481633" lon="8.4114133"><ele>458.28571428571433</ele><time>2026-04-12T12:43:44.998Z</time></trkpt><trkpt lat="45.8480933" lon="8.4114467"><ele>458.1428571428571</ele><time>2026-04-12T12:43:45.999Z</time></trkpt><trkpt lat="45.8480217" lon="8.4114867"><ele>458.0</ele><time>2026-04-12T12:43:46.998Z</time></trkpt><trkpt lat="45.847935" lon="8.4115233"><ele>459.99999999999994</ele><time>2026-04-12T12:43:47.998Z</time></trkpt><trkpt lat="45.847865" lon="8.4115717"><ele>462.0</ele><time>2026-04-12T12:43:48.998Z</time></trkpt><trkpt lat="45.847805" lon="8.4116217"><ele>464.0</ele><time>2026-04-12T12:43:49.999Z</time></trkpt><trkpt lat="45.847755" lon="8.4116767"><ele>466.0</ele><time>2026-04-12T12:43:50.998Z</time></trkpt><trkpt lat="45.8476683" lon="8.4117533"><ele>467.99999999999994</ele><time>2026-04-12T12:43:52.998Z</time></trkpt><trkpt lat="45.847555" lon="8.4117683"><ele>470.0</ele><time>2026-04-12T12:43:54.999Z</time></trkpt><trkpt lat="45.8474367" lon="8.4117567"><ele>470.0</ele><time>2026-04-12T12:43:56.998Z</time></trkpt><trkpt lat="45.8473417" lon="8.411765"><ele>470.0</ele><time>2026-04-12T12:43:58.998Z</time></trkpt><trkpt lat="45.84725" lon="8.4117933"><ele>470.0</ele><time>2026-04-12T12:44:00.999Z</time></trkpt><trkpt lat="45.84719" lon="8.411885"><ele>470.0</ele><time>2026-04-12T12:44:02.998Z</time></trkpt><trkpt lat="45.847125" lon="8.41201"><ele>470.0</ele><time>2026-04-12T12:44:04.998Z</time></trkpt><trkpt lat="45.8470783" lon="8.4121467"><ele>469.99999999999994</ele><time>2026-04-12T12:44:06.998Z</time></trkpt><trkpt lat="45.84702" lon="8.4122683"><ele>470.0</ele><time>2026-04-12T12:44:08.998Z</time></trkpt><trkpt lat="45.846935" lon="8.4123417"><ele>470.0</ele><time>2026-04-12T12:44:21.998Z</time></trkpt><trkpt lat="45.8468733" lon="8.4123617"><ele>470.0</ele><time>2026-04-12T12:44:22.998Z</time></trkpt><trkpt lat="45.84681" lon="8.4123833"><ele>469.99999999999994</ele><time>2026-04-12T12:44:23.999Z</time></trkpt><trkpt lat="45.84674" lon="8.4124083"><ele>470.0</ele><time>2026-04-12T12:44:24.998Z</time></trkpt><trkpt lat="45.846645" lon="8.4125117"><ele>470.0</ele><time>2026-04-12T12:44:26.998Z</time></trkpt><trkpt lat="45.84656" lon="8.4126483"><ele>470.0</ele><time>2026-04-12T12:44:28.998Z</time></trkpt><trkpt lat="45.8465067" lon="8.412715"><ele>470.0</ele><time>2026-04-12T12:44:29.999Z</time></trkpt><trkpt lat="45.8464583" lon="8.4127817"><ele>470.0</ele><time>2026-04-12T12:44:30.999Z</time></trkpt><trkpt lat="45.8464183" lon="8.41288"><ele>470.0</ele><time>2026-04-12T12:44:32.998Z</time></trkpt><trkpt lat="45.84632" lon="8.4130117"><ele>471.0</ele><time>2026-04-12T12:44:34.999Z</time></trkpt><trkpt lat="45.84625" lon="8.41314"><ele>472.0</ele><time>2026-04-12T12:44:36.998Z</time></trkpt><trkpt lat="45.84619" lon="8.4132783"><ele>473.0</ele><time>2026-04-12T12:44:38.998Z</time></trkpt><trkpt lat="45.846135" lon="8.4133633"><ele>474.0</ele><time>2026-04-12T12:44:40.998Z</time></trkpt><trkpt lat="45.846095" lon="8.4134567"><ele>475.0</ele><time>2026-04-12T12:44:44.998Z</time></trkpt><trkpt lat="45.846075" lon="8.4135933"><ele>475.00000000000006</ele><time>2026-04-12T12:44:47.998Z</time></trkpt><trkpt lat="45.846045" lon="8.41376"><ele>475.0</ele><time>2026-04-12T12:44:49.998Z</time></trkpt><trkpt lat="45.8460233" lon="8.4138633"><ele>475.0</ele><time>2026-04-12T12:44:50.998Z</time></trkpt><trkpt lat="45.8460017" lon="8.4139817"><ele>475.0</ele><time>2026-04-12T12:44:51.999Z</time></trkpt><trkpt lat="45.84598" lon="8.4140767"><ele>475.00000000000006</ele><time>2026-04-12T12:44:52.998Z</time></trkpt><trkpt lat="45.845955" lon="8.4141783"><ele>475.0</ele><time>2026-04-12T12:44:53.998Z</time></trkpt><trkpt lat="45.84593" lon="8.4142883"><ele>473.00000000000006</ele><time>2026-04-12T12:44:54.998Z</time></trkpt><trkpt lat="45.8459" lon="8.4143967"><ele>471.0</ele><time>2026-04-12T12:44:55.998Z</time></trkpt><trkpt lat="45.8458483" lon="8.4145233"><ele>469.0</ele><time>2026-04-12T12:44:56.998Z</time></trkpt><trkpt lat="45.8458067" lon="8.4146133"><ele>467.0</ele><time>2026-04-12T12:44:57.998Z</time></trkpt><trkpt lat="45.8457633" lon="8.414715"><ele>465.00000000000006</ele><time>2026-04-12T12:44:58.998Z</time></trkpt><trkpt lat="45.8457167" lon="8.4148"><ele>463.0</ele><time>2026-04-12T12:44:59.998Z</time></trkpt><trkpt lat="45.845675" lon="8.4149467"><ele>463.00000000000006</ele><time>2026-04-12T12:45:01.999Z</time></trkpt><trkpt lat="45.8456617" lon="8.4150617"><ele>463.0</ele><time>2026-04-12T12:45:03.998Z</time></trkpt><trkpt lat="45.8456467" lon="8.4151617"><ele>463.0</ele><time>2026-04-12T12:45:06.999Z</time></trkpt><trkpt lat="45.8456283" lon="8.4152733"><ele>463.0</ele><time>2026-04-12T12:45:08.999Z</time></trkpt><trkpt lat="45.8456033" lon="8.4154183"><ele>463.00000000000006</ele><time>2026-04-12T12:45:10.998Z</time></trkpt><trkpt lat="45.8455467" lon="8.415475"><ele>463.0</ele><time>2026-04-12T12:45:12.998Z</time></trkpt><trkpt lat="45.8454517" lon="8.41548"><ele>463.2</ele><time>2026-04-12T12:45:14.998Z</time></trkpt><trkpt lat="45.8453467" lon="8.415545"><ele>463.4</ele><time>2026-04-12T12:45:16.998Z</time></trkpt><trkpt lat="45.8452883" lon="8.4155883"><ele>463.59999999999997</ele><time>2026-04-12T12:45:17.998Z</time></trkpt><trkpt lat="45.84521" lon="8.41562"><ele>463.79999999999995</ele><time>2026-04-12T12:45:18.999Z</time></trkpt><trkpt lat="45.8451083" lon="8.41567"><ele>464.0</ele><time>2026-04-12T12:45:20.998Z</time></trkpt><trkpt lat="45.8449717" lon="8.4156133"><ele>462.3333333333333</ele><time>2026-04-12T12:45:22.999Z</time></trkpt><trkpt lat="45.8448933" lon="8.415545"><ele>460.66666666666663</ele><time>2026-04-12T12:45:23.998Z</time></trkpt><trkpt lat="45.8448217" lon="8.4154683"><ele>459.0</ele><time>2026-04-12T12:45:24.998Z</time></trkpt><trkpt lat="45.84474" lon="8.415405"><ele>457.33333333333337</ele><time>2026-04-12T12:45:25.999Z</time></trkpt><trkpt lat="45.8446633" lon="8.4153467"><ele>455.6666666666667</ele><time>2026-04-12T12:45:26.999Z</time></trkpt><trkpt lat="45.8445883" lon="8.4152867"><ele>454.0</ele><time>2026-04-12T12:45:27.998Z</time></trkpt><trkpt lat="45.84451" lon="8.41523"><ele>453.83333333333337</ele><time>2026-04-12T12:45:28.998Z</time></trkpt><trkpt lat="45.8444317" lon="8.41518"><ele>453.6666666666667</ele><time>2026-04-12T12:45:29.999Z</time></trkpt><trkpt lat="45.8443483" lon="8.415135"><ele>453.5</ele><time>2026-04-12T12:45:30.998Z</time></trkpt><trkpt lat="45.844265" lon="8.4151067"><ele>453.33333333333337</ele><time>2026-04-12T12:45:31.998Z</time></trkpt><trkpt lat="45.8441817" lon="8.4150933"><ele>453.1666666666667</ele><time>2026-04-12T12:45:32.998Z</time></trkpt><trkpt lat="45.8441033" lon="8.41508"><ele>453.0</ele><time>2026-04-12T12:45:33.998Z</time></trkpt><trkpt lat="45.8440233" lon="8.4150783"><ele>452.0</ele><time>2026-04-12T12:45:34.999Z</time></trkpt><trkpt lat="45.8439483" lon="8.4150767"><ele>452.0</ele><time>2026-04-12T12:45:35.998Z</time></trkpt><trkpt lat="45.843885" lon="8.4150683"><ele>452.0</ele><time>2026-04-12T12:45:36.998Z</time></trkpt><trkpt lat="45.8438183" lon="8.4150567"><ele>452.0</ele><time>2026-04-12T12:45:38.998Z</time></trkpt></trkseg></trk></gpx>